<?xml version='1.0' encoding='UTF-8'?><gpx version="1.1" creator="JPX - https://github.com/jenetics/jpx" xmlns="http://www.topografix.com/GPX/1/1"><trk><trkseg><trkpt lat="45.960088018635766" lon="12.292095447098923"><ele>134.0</ele><time>2026-05-04T03:02:37Z</time></trkpt><trkpt lat="45.960202239457395" lon="12.292029941728071"><ele>134.0</ele><time>2026-05-04T03:02:38Z</time></trkpt><trkpt lat="45.960308772418756" lon="12.291970501595614"><ele>134.0</ele><time>2026-05-04T03:02:39Z</time></trkpt><trkpt lat="45.96041824726856" lon="12.291913545090825"><ele>134.0</ele><time>2026-05-04T03:02:40Z</time></trkpt><trkpt lat="45.96052814004445" lon="12.291863353578837"><ele>134.0</ele><time>2026-05-04T03:02:41Z</time></trkpt><trkpt lat="45.960636381896016" lon="12.291819349064184"><ele>134.0</ele><time>2026-05-04T03:02:42Z</time></trkpt><trkpt lat="45.96074192121147" lon="12.291784455671698"><ele>134.0</ele><time>2026-05-04T03:02:43Z</time></trkpt><trkpt lat="45.960849868404715" lon="12.291751054434606"><ele>134.0</ele><time>2026-05-04T03:02:44Z</time></trkpt><trkpt lat="45.960959376772735" lon="12.291718652927266"><ele>134.0</ele><time>2026-05-04T03:02:45Z</time></trkpt><trkpt lat="45.961066734611165" lon="12.291683232295922"><ele>133.6</ele><time>2026-05-04T03:02:46Z</time></trkpt><trkpt lat="45.961169098963296" lon="12.291646816626168"><ele>133.2</ele><time>2026-05-04T03:02:47Z</time></trkpt><trkpt lat="45.96125192753354" lon="12.291621991733415"><ele>132.79999999999998</ele><time>2026-05-04T03:02:48Z</time></trkpt><trkpt lat="45.96135670349828" lon="12.291591031224371"><ele>132.4</ele><time>2026-05-04T03:02:49Z</time></trkpt><trkpt lat="45.9614610093674" lon="12.291554178924597"><ele>132.0</ele><time>2026-05-04T03:02:50Z</time></trkpt><trkpt lat="45.961560638044645" lon="12.291509761064196"><ele>132.0</ele><time>2026-05-04T03:02:51Z</time></trkpt><trkpt lat="45.96165905639302" lon="12.291463299295645"><ele>132.0</ele><time>2026-05-04T03:02:52Z</time></trkpt><trkpt lat="45.96175444363975" lon="12.291407166096345"><ele>132.0</ele><time>2026-05-04T03:02:53Z</time></trkpt><trkpt lat="45.9618497165801" lon="12.29133686802446"><ele>132.0</ele><time>2026-05-04T03:02:54Z</time></trkpt><trkpt lat="45.96193380075926" lon="12.291249107129602"><ele>132.0</ele><time>2026-05-04T03:02:55Z</time></trkpt><trkpt lat="45.96201586559631" lon="12.291167375733568"><ele>132.5</ele><time>2026-05-04T03:02:56Z</time></trkpt><trkpt lat="45.9620887199895" lon="12.291094300730439"><ele>133.0</ele><time>2026-05-04T03:02:57Z</time></trkpt><trkpt lat="45.96215823050391" lon="12.291012996643246"><ele>133.5</ele><time>2026-05-04T03:02:58Z</time></trkpt><trkpt lat="45.962224472187785" lon="12.290936124499392"><ele>134.0</ele><time>2026-05-04T03:02:59Z</time></trkpt><trkpt lat="45.962289989583546" lon="12.290887879479"><ele>134.5</ele><time>2026-05-04T03:03:00Z</time></trkpt><trkpt lat="45.96234500354253" lon="12.290830937201335"><ele>135.0</ele><time>2026-05-04T03:03:01Z</time></trkpt><trkpt lat="45.96244474471376" lon="12.290744795755625"><ele>134.83333333333334</ele><time>2026-05-04T03:03:03Z</time></trkpt><trkpt lat="45.962558783244596" lon="12.290678978328058"><ele>134.66666666666666</ele><time>2026-05-04T03:03:05Z</time></trkpt><trkpt lat="45.962630990776084" lon="12.290658367143639"><ele>134.5</ele><time>2026-05-04T03:03:06Z</time></trkpt><trkpt lat="45.96270363185697" lon="12.290642049152959"><ele>134.33333333333331</ele><time>2026-05-04T03:03:07Z</time></trkpt><trkpt lat="45.96278111616552" lon="12.290630307605953"><ele>134.16666666666666</ele><time>2026-05-04T03:03:08Z</time></trkpt><trkpt lat="45.962868022223134" lon="12.290619228946314"><ele>134.0</ele><time>2026-05-04T03:03:09Z</time></trkpt><trkpt lat="45.96295408655939" lon="12.290609811732807"><ele>134.0</ele><time>2026-05-04T03:03:10Z</time></trkpt><trkpt lat="45.96304437819126" lon="12.290602910798526"><ele>134.0</ele><time>2026-05-04T03:03:11Z</time></trkpt><trkpt lat="45.963140427750396" lon="12.29059009156525"><ele>134.0</ele><time>2026-05-04T03:03:12Z</time></trkpt><trkpt lat="45.963237710507535" lon="12.290574156245821"><ele>134.0</ele><time>2026-05-04T03:03:13Z</time></trkpt><trkpt lat="45.963332525570245" lon="12.290558365693885"><ele>134.0</ele><time>2026-05-04T03:03:14Z</time></trkpt><trkpt lat="45.96343076097241" lon="12.290547896127494"><ele>134.6</ele><time>2026-05-04T03:03:15Z</time></trkpt><trkpt lat="45.9635261620222" lon="12.290526900345219"><ele>135.2</ele><time>2026-05-04T03:03:16Z</time></trkpt><trkpt lat="45.963625603629346" lon="12.290493354577665"><ele>135.79999999999998</ele><time>2026-05-04T03:03:17Z</time></trkpt><trkpt lat="45.963724145772346" lon="12.290449121708896"><ele>136.4</ele><time>2026-05-04T03:03:18Z</time></trkpt><trkpt lat="45.96382189880981" lon="12.290396263692527"><ele>137.0</ele><time>2026-05-04T03:03:19Z</time></trkpt><trkpt lat="45.96392003973009" lon="12.290332856334864"><ele>137.0</ele><time>2026-05-04T03:03:20Z</time></trkpt><trkpt lat="45.96411299222104" lon="12.29019150175461"><ele>137.0</ele><time>2026-05-04T03:03:22Z</time></trkpt><trkpt lat="45.96420596829487" lon="12.290115800606799"><ele>137.0</ele><time>2026-05-04T03:03:23Z</time></trkpt><trkpt lat="45.964303128796786" lon="12.290044857947338"><ele>137.0</ele><time>2026-05-04T03:03:24Z</time></trkpt><trkpt lat="45.96438703794614" lon="12.289974919190447"><ele>136.33333333333331</ele><time>2026-05-04T03:03:25Z</time></trkpt><trkpt lat="45.9644667723002" lon="12.289907018314311"><ele>135.66666666666666</ele><time>2026-05-04T03:03:26Z</time></trkpt><trkpt lat="45.96454952982727" lon="12.289839092771544"><ele>135.0</ele><time>2026-05-04T03:03:27Z</time></trkpt><trkpt lat="45.96462656948696" lon="12.289775609118617"><ele>134.33333333333334</ele><time>2026-05-04T03:03:28Z</time></trkpt><trkpt lat="45.96470199581074" lon="12.289710635752032"><ele>133.66666666666669</ele><time>2026-05-04T03:03:29Z</time></trkpt><trkpt lat="45.96477285037768" lon="12.289656818321392"><ele>133.0</ele><time>2026-05-04T03:03:30Z</time></trkpt><trkpt lat="45.964849771286445" lon="12.289627533307543"><ele>133.0</ele><time>2026-05-04T03:03:31Z</time></trkpt><trkpt lat="45.96492674699202" lon="12.289609267916438"><ele>133.0</ele><time>2026-05-04T03:03:32Z</time></trkpt><trkpt lat="45.964995959967375" lon="12.28958481288675"><ele>133.0</ele><time>2026-05-04T03:03:33Z</time></trkpt><trkpt lat="45.96505480618926" lon="12.289526559264916"><ele>133.0</ele><time>2026-05-04T03:03:34Z</time></trkpt><trkpt lat="45.965106166380444" lon="12.289449255979127"><ele>133.0</ele><time>2026-05-04T03:03:35Z</time></trkpt><trkpt lat="45.96515137831957" lon="12.289369015705361"><ele>133.0</ele><time>2026-05-04T03:03:36Z</time></trkpt><trkpt lat="45.96520917171526" lon="12.289304988075902"><ele>133.0</ele><time>2026-05-04T03:03:36.999Z</time></trkpt><trkpt lat="45.96528230340417" lon="12.289254079545167"><ele>132.83333333333334</ele><time>2026-05-04T03:03:37.999Z</time></trkpt><trkpt lat="45.96536137814555" lon="12.289206278593559"><ele>132.66666666666669</ele><time>2026-05-04T03:03:38.999Z</time></trkpt><trkpt lat="45.96543836846614" lon="12.289156716920207"><ele>132.5</ele><time>2026-05-04T03:03:39.999Z</time></trkpt><trkpt lat="45.965516941298766" lon="12.289097789887649"><ele>132.33333333333334</ele><time>2026-05-04T03:03:40.999Z</time></trkpt><trkpt lat="45.96559812534677" lon="12.289039942370863"><ele>132.16666666666666</ele><time>2026-05-04T03:03:41.999Z</time></trkpt><trkpt lat="45.96566543485436" lon="12.28897469660691"><ele>132.0</ele><time>2026-05-04T03:03:42.999Z</time></trkpt><trkpt lat="45.96575181656183" lon="12.28891278504022"><ele>131.83333333333334</ele><time>2026-05-04T03:03:43.999Z</time></trkpt><trkpt lat="45.96583216622367" lon="12.28884989570731"><ele>131.66666666666666</ele><time>2026-05-04T03:03:44.999Z</time></trkpt><trkpt lat="45.96590806229152" lon="12.288786915383803"><ele>131.5</ele><time>2026-05-04T03:03:45.999Z</time></trkpt><trkpt lat="45.96598946162444" lon="12.288735231521555"><ele>131.33333333333331</ele><time>2026-05-04T03:03:46.999Z</time></trkpt><trkpt lat="45.966067595099574" lon="12.288676923494295"><ele>131.16666666666666</ele><time>2026-05-04T03:03:47.999Z</time></trkpt><trkpt lat="45.96614497321039" lon="12.288619962288948"><ele>131.0</ele><time>2026-05-04T03:03:48.999Z</time></trkpt><trkpt lat="45.96622081527408" lon="12.288568285548896"><ele>131.33333333333331</ele><time>2026-05-04T03:03:49.999Z</time></trkpt><trkpt lat="45.96630125360072" lon="12.28852125613294"><ele>131.66666666666666</ele><time>2026-05-04T03:03:50.999Z</time></trkpt><trkpt lat="45.96638545265148" lon="12.288482825260385"><ele>132.0</ele><time>2026-05-04T03:03:51.999Z</time></trkpt><trkpt lat="45.96647093244145" lon="12.28846165447452"><ele>132.33333333333334</ele><time>2026-05-04T03:03:52.999Z</time></trkpt><trkpt lat="45.96655072241488" lon="12.28846774267829"><ele>132.66666666666669</ele><time>2026-05-04T03:03:53.999Z</time></trkpt><trkpt lat="45.966626530008654" lon="12.288472675354345"><ele>133.0</ele><time>2026-05-04T03:03:54.999Z</time></trkpt><trkpt lat="45.96669466410867" lon="12.288442397443522"><ele>133.33333333333334</ele><time>2026-05-04T03:03:55.999Z</time></trkpt><trkpt lat="45.96674394941091" lon="12.288369652890436"><ele>133.66666666666669</ele><time>2026-05-04T03:03:56.999Z</time></trkpt><trkpt lat="45.96675411528115" lon="12.288260120579586"><ele>134.0</ele><time>2026-05-04T03:03:57.999Z</time></trkpt><trkpt lat="45.96673103039818" lon="12.288154961504196"><ele>134.33333333333334</ele><time>2026-05-04T03:03:58.999Z</time></trkpt><trkpt lat="45.966661354823835" lon="12.288077159688722"><ele>134.66666666666666</ele><time>2026-05-04T03:03:59.999Z</time></trkpt><trkpt lat="45.96658901414551" lon="12.288016148878071"><ele>135.0</ele><time>2026-05-04T03:04:00.999Z</time></trkpt><trkpt lat="45.966513446895576" lon="12.2879536246772"><ele>135.0</ele><time>2026-05-04T03:04:01.999Z</time></trkpt><trkpt lat="45.96643907497935" lon="12.287876628932253"><ele>135.0</ele><time>2026-05-04T03:04:02.999Z</time></trkpt><trkpt lat="45.966363648315145" lon="12.287795108596654"><ele>135.0</ele><time>2026-05-04T03:04:03.999Z</time></trkpt><trkpt lat="45.96628470417619" lon="12.287702849209818"><ele>135.0</ele><time>2026-05-04T03:04:04.999Z</time></trkpt><trkpt lat="45.96620564616423" lon="12.28759763772531"><ele>135.0</ele><time>2026-05-04T03:04:05.999Z</time></trkpt><trkpt lat="45.966125836283446" lon="12.287483522466484"><ele>135.0</ele><time>2026-05-04T03:04:06.999Z</time></trkpt><trkpt lat="45.96604212473826" lon="12.287365869747306"><ele>135.0</ele><time>2026-05-04T03:04:07.999Z</time></trkpt><trkpt lat="45.965958078969614" lon="12.2872424160021"><ele>135.0</ele><time>2026-05-04T03:04:08.999Z</time></trkpt><trkpt lat="45.96587050043171" lon="12.287114734709249"><ele>135.0</ele><time>2026-05-04T03:04:09.999Z</time></trkpt><trkpt lat="45.96577863020783" lon="12.28698416713198"><ele>135.5</ele><time>2026-05-04T03:04:10.999Z</time></trkpt><trkpt lat="45.96568404116334" lon="12.286852578189595"><ele>136.0</ele><time>2026-05-04T03:04:11.999Z</time></trkpt><trkpt lat="45.965584762474265" lon="12.286716788946961"><ele>136.5</ele><time>2026-05-04T03:04:12.999Z</time></trkpt><trkpt lat="45.965484476366534" lon="12.286578907721342"><ele>137.0</ele><time>2026-05-04T03:04:13.999Z</time></trkpt><trkpt lat="45.96538152188355" lon="12.286434720140697"><ele>139.66666666666666</ele><time>2026-05-04T03:04:14.999Z</time></trkpt><trkpt lat="45.96527820769371" lon="12.28628306059611"><ele>142.33333333333334</ele><time>2026-05-04T03:04:15.999Z</time></trkpt><trkpt lat="45.96517022664683" lon="12.286126353652127"><ele>145.0</ele><time>2026-05-04T03:04:16.999Z</time></trkpt><trkpt lat="45.9650630183388" lon="12.285968439612645"><ele>145.66666666666669</ele><time>2026-05-04T03:04:17.999Z</time></trkpt><trkpt lat="45.964954539064955" lon="12.285819687279098"><ele>146.33333333333334</ele><time>2026-05-04T03:04:18.999Z</time></trkpt><trkpt lat="45.964834982320596" lon="12.285663993358941"><ele>147.0</ele><time>2026-05-04T03:04:19.999Z</time></trkpt><trkpt lat="45.96473779991027" lon="12.28551208872235"><ele>147.0</ele><time>2026-05-04T03:04:20.999Z</time></trkpt><trkpt lat="45.96459312910726" lon="12.28536095113288"><ele>147.0</ele><time>2026-05-04T03:04:21.999Z</time></trkpt><trkpt lat="45.964460032792" lon="12.28522708002388"><ele>147.0</ele><time>2026-05-04T03:04:23Z</time></trkpt><trkpt lat="45.964309152418096" lon="12.285131451525565"><ele>145.0</ele><time>2026-05-04T03:04:24Z</time></trkpt><trkpt lat="45.964148658522326" lon="12.285065611498606"><ele>143.0</ele><time>2026-05-04T03:04:25Z</time></trkpt><trkpt lat="45.96397923154713" lon="12.285035451361907"><ele>141.0</ele><time>2026-05-04T03:04:26Z</time></trkpt><trkpt lat="45.96380850534433" lon="12.285032226587141"><ele>141.0</ele><time>2026-05-04T03:04:27Z</time></trkpt><trkpt lat="45.96363710603736" lon="12.28505460680421"><ele>141.0</ele><time>2026-05-04T03:04:28Z</time></trkpt><trkpt lat="45.9634610323624" lon="12.285081381376179"><ele>141.0</ele><time>2026-05-04T03:04:29Z</time></trkpt><trkpt lat="45.96328496359939" lon="12.285102076874866"><ele>141.33333333333334</ele><time>2026-05-04T03:04:30Z</time></trkpt><trkpt lat="45.96310736246787" lon="12.285112647552932"><ele>141.66666666666669</ele><time>2026-05-04T03:04:31Z</time></trkpt><trkpt lat="45.96293212076001" lon="12.28510648465743"><ele>142.0</ele><time>2026-05-04T03:04:32Z</time></trkpt><trkpt lat="45.96276022019921" lon="12.285071772081888"><ele>142.0</ele><time>2026-05-04T03:04:33Z</time></trkpt><trkpt lat="45.9625908060445" lon="12.285013368738115"><ele>142.0</ele><time>2026-05-04T03:04:34Z</time></trkpt><trkpt lat="45.96241974383087" lon="12.284936166698605"><ele>142.0</ele><time>2026-05-04T03:04:35Z</time></trkpt><trkpt lat="45.962255070931526" lon="12.284851520722885"><ele>142.0</ele><time>2026-05-04T03:04:36Z</time></trkpt><trkpt lat="45.96208519624233" lon="12.284772206938543"><ele>142.0</ele><time>2026-05-04T03:04:37Z</time></trkpt><trkpt lat="45.96191706078701" lon="12.28467926655607"><ele>142.0</ele><time>2026-05-04T03:04:38Z</time></trkpt><trkpt lat="45.961746699654256" lon="12.284595540907452"><ele>141.33333333333334</ele><time>2026-05-04T03:04:39Z</time></trkpt><trkpt lat="45.96157332549928" lon="12.284504614176436"><ele>140.66666666666666</ele><time>2026-05-04T03:04:40Z</time></trkpt><trkpt lat="45.96139897093396" lon="12.284413701457527"><ele>140.0</ele><time>2026-05-04T03:04:41Z</time></trkpt><trkpt lat="45.961220918472" lon="12.28432451322259"><ele>140.0</ele><time>2026-05-04T03:04:42Z</time></trkpt><trkpt lat="45.961044913131545" lon="12.28423625683989"><ele>140.0</ele><time>2026-05-04T03:04:43Z</time></trkpt><trkpt lat="45.96086595907821" lon="12.28414411809622"><ele>140.0</ele><time>2026-05-04T03:04:44Z</time></trkpt><trkpt lat="45.96068655741048" lon="12.284054248672172"><ele>139.33333333333331</ele><time>2026-05-04T03:04:45Z</time></trkpt><trkpt lat="45.960504402003366" lon="12.283961937297066"><ele>138.66666666666666</ele><time>2026-05-04T03:04:46Z</time></trkpt><trkpt lat="45.960323456042524" lon="12.283870868209656"><ele>138.0</ele><time>2026-05-04T03:04:47Z</time></trkpt><trkpt lat="45.960140121310275" lon="12.283778908947848"><ele>136.33333333333334</ele><time>2026-05-04T03:04:48Z</time></trkpt><trkpt lat="45.959962837996905" lon="12.28366373588197"><ele>134.66666666666669</ele><time>2026-05-04T03:04:49Z</time></trkpt><trkpt lat="45.95977803130694" lon="12.28356966890777"><ele>133.0</ele><time>2026-05-04T03:04:50Z</time></trkpt><trkpt lat="45.95958731456638" lon="12.283498290105003"><ele>133.0</ele><time>2026-05-04T03:04:51Z</time></trkpt><trkpt lat="45.959401571219786" lon="12.283403244721024"><ele>133.0</ele><time>2026-05-04T03:04:52Z</time></trkpt><trkpt lat="45.95921607509868" lon="12.283307965729545"><ele>133.0</ele><time>2026-05-04T03:04:53Z</time></trkpt><trkpt lat="45.95902927334348" lon="12.283219907819836"><ele>133.0</ele><time>2026-05-04T03:04:54Z</time></trkpt><trkpt lat="45.95884122505623" lon="12.283120719115738"><ele>133.0</ele><time>2026-05-04T03:04:55Z</time></trkpt><trkpt lat="45.95864268753883" lon="12.28307515716579"><ele>133.0</ele><time>2026-05-04T03:04:56Z</time></trkpt><trkpt lat="45.958444435980816" lon="12.283092251770126"><ele>136.0</ele><time>2026-05-04T03:04:57Z</time></trkpt><trkpt lat="45.95825119776318" lon="12.28308895469356"><ele>139.0</ele><time>2026-05-04T03:04:58Z</time></trkpt><trkpt lat="45.95805932498761" lon="12.283092249118194"><ele>142.0</ele><time>2026-05-04T03:04:59Z</time></trkpt><trkpt lat="45.95787313876639" lon="12.283096196696167"><ele>141.33333333333334</ele><time>2026-05-04T03:05:00Z</time></trkpt><trkpt lat="45.95769211478179" lon="12.283099751496735"><ele>140.66666666666666</ele><time>2026-05-04T03:05:01Z</time></trkpt><trkpt lat="45.95751720375064" lon="12.283098499542984"><ele>140.0</ele><time>2026-05-04T03:05:02Z</time></trkpt><trkpt lat="45.95734808450708" lon="12.283073691598068"><ele>144.66666666666666</ele><time>2026-05-04T03:05:03Z</time></trkpt><trkpt lat="45.95718801888456" lon="12.283011809744616"><ele>149.33333333333334</ele><time>2026-05-04T03:05:04Z</time></trkpt><trkpt lat="45.95704874458957" lon="12.282888758323988"><ele>154.0</ele><time>2026-05-04T03:05:05Z</time></trkpt><trkpt lat="45.95693757901249" lon="12.282743011572913"><ele>154.0</ele><time>2026-05-04T03:05:06Z</time></trkpt><trkpt lat="45.95685059414921" lon="12.28256362851482"><ele>154.0</ele><time>2026-05-04T03:05:07Z</time></trkpt><trkpt lat="45.95676796349068" lon="12.28237299824474"><ele>154.0</ele><time>2026-05-04T03:05:08Z</time></trkpt><trkpt lat="45.956682427828646" lon="12.282197341184736"><ele>155.0</ele><time>2026-05-04T03:05:09Z</time></trkpt><trkpt lat="45.95660401932086" lon="12.282014665193298"><ele>156.0</ele><time>2026-05-04T03:05:10Z</time></trkpt><trkpt lat="45.95652453327118" lon="12.281836573060191"><ele>157.0</ele><time>2026-05-04T03:05:11Z</time></trkpt><trkpt lat="45.9564487570958" lon="12.281661371096883"><ele>158.0</ele><time>2026-05-04T03:05:12Z</time></trkpt><trkpt lat="45.95637169164538" lon="12.281487092879475"><ele>161.5</ele><time>2026-05-04T03:05:13Z</time></trkpt><trkpt lat="45.95629590061827" lon="12.281312414911033"><ele>165.0</ele><time>2026-05-04T03:05:14Z</time></trkpt><trkpt lat="45.95622025034317" lon="12.281137836528417"><ele>168.5</ele><time>2026-05-04T03:05:15Z</time></trkpt><trkpt lat="45.956142224208726" lon="12.28096382055733"><ele>172.0</ele><time>2026-05-04T03:05:16Z</time></trkpt><trkpt lat="45.95606241137592" lon="12.280793575180464"><ele>172.0</ele><time>2026-05-04T03:05:17Z</time></trkpt><trkpt lat="45.955979978135936" lon="12.280620003806806"><ele>172.0</ele><time>2026-05-04T03:05:18Z</time></trkpt><trkpt lat="45.95588061950484" lon="12.28046611050822"><ele>172.0</ele><time>2026-05-04T03:05:19Z</time></trkpt><trkpt lat="45.95573743771416" lon="12.280372946544958"><ele>172.0</ele><time>2026-05-04T03:05:20Z</time></trkpt><trkpt lat="45.95560289218745" lon="12.28027283190763"><ele>168.66666666666669</ele><time>2026-05-04T03:05:21Z</time></trkpt><trkpt lat="45.95546124077618" lon="12.280191097522161"><ele>165.33333333333334</ele><time>2026-05-04T03:05:22Z</time></trkpt><trkpt lat="45.955314356539795" lon="12.280131783486835"><ele>162.0</ele><time>2026-05-04T03:05:23Z</time></trkpt><trkpt lat="45.955165651357085" lon="12.28007566908398"><ele>162.33333333333334</ele><time>2026-05-04T03:05:24Z</time></trkpt><trkpt lat="45.955013603934425" lon="12.28001729366652"><ele>162.66666666666669</ele><time>2026-05-04T03:05:25Z</time></trkpt><trkpt lat="45.95486055866979" lon="12.279957805313773"><ele>163.0</ele><time>2026-05-04T03:05:26Z</time></trkpt><trkpt lat="45.954706619850725" lon="12.27989771599111"><ele>163.0</ele><time>2026-05-04T03:05:27Z</time></trkpt><trkpt lat="45.954551773357956" lon="12.279834198953248"><ele>163.0</ele><time>2026-05-04T03:05:28Z</time></trkpt><trkpt lat="45.954395115955805" lon="12.279771260281892"><ele>163.0</ele><time>2026-05-04T03:05:29Z</time></trkpt><trkpt lat="45.95423642220087" lon="12.279707565803847"><ele>163.33333333333334</ele><time>2026-05-04T03:05:30Z</time></trkpt><trkpt lat="45.954074325785285" lon="12.279641511763858"><ele>163.66666666666666</ele><time>2026-05-04T03:05:31Z</time></trkpt><trkpt lat="45.95390560421473" lon="12.279574472653431"><ele>164.0</ele><time>2026-05-04T03:05:32Z</time></trkpt><trkpt lat="45.9537357392545" lon="12.279506368014587"><ele>164.0</ele><time>2026-05-04T03:05:33Z</time></trkpt><trkpt lat="45.953559698786634" lon="12.279436517924792"><ele>164.0</ele><time>2026-05-04T03:05:34Z</time></trkpt><trkpt lat="45.953380497356086" lon="12.279362695824878"><ele>164.0</ele><time>2026-05-04T03:05:35Z</time></trkpt><trkpt lat="45.95319853826831" lon="12.279286738121229"><ele>163.0</ele><time>2026-05-04T03:05:36Z</time></trkpt><trkpt lat="45.953014375909675" lon="12.27920312821131"><ele>162.0</ele><time>2026-05-04T03:05:37Z</time></trkpt><trkpt lat="45.95282708483476" lon="12.279120684287923"><ele>161.0</ele><time>2026-05-04T03:05:38Z</time></trkpt><trkpt lat="45.95263663290045" lon="12.279040210931793"><ele>160.66666666666666</ele><time>2026-05-04T03:05:39Z</time></trkpt><trkpt lat="45.952445180450354" lon="12.27895857065526"><ele>160.33333333333334</ele><time>2026-05-04T03:05:40Z</time></trkpt><trkpt lat="45.95225319471046" lon="12.27887054254953"><ele>160.0</ele><time>2026-05-04T03:05:41Z</time></trkpt><trkpt lat="45.9520481625244" lon="12.27884123048414"><ele>158.66666666666669</ele><time>2026-05-04T03:05:42Z</time></trkpt><trkpt lat="45.95184517071445" lon="12.278795651667629"><ele>157.33333333333334</ele><time>2026-05-04T03:05:43Z</time></trkpt><trkpt lat="45.95163968964643" lon="12.278752405646078"><ele>156.0</ele><time>2026-05-04T03:05:43.999Z</time></trkpt><trkpt lat="45.95143244955149" lon="12.278705927959198"><ele>156.0</ele><time>2026-05-04T03:05:44.999Z</time></trkpt><trkpt lat="45.951223300608866" lon="12.278662137992944"><ele>156.0</ele><time>2026-05-04T03:05:45.999Z</time></trkpt><trkpt lat="45.95101339907991" lon="12.278615841523521"><ele>156.0</ele><time>2026-05-04T03:05:46.999Z</time></trkpt><trkpt lat="45.95080449824914" lon="12.278568403893631"><ele>155.33333333333334</ele><time>2026-05-04T03:05:47.999Z</time></trkpt><trkpt lat="45.95059553638225" lon="12.27852578080025"><ele>154.66666666666669</ele><time>2026-05-04T03:05:48.999Z</time></trkpt><trkpt lat="45.950391894174736" lon="12.278488065190341"><ele>154.0</ele><time>2026-05-04T03:05:49.999Z</time></trkpt><trkpt lat="45.95019159593024" lon="12.278431257681152"><ele>154.0</ele><time>2026-05-04T03:05:50.999Z</time></trkpt><trkpt lat="45.94998748770259" lon="12.27841275843651"><ele>154.0</ele><time>2026-05-04T03:05:51.999Z</time></trkpt><trkpt lat="45.94978479630551" lon="12.27841854984256"><ele>154.0</ele><time>2026-05-04T03:05:52.999Z</time></trkpt><trkpt lat="45.94958514624941" lon="12.278500953991019"><ele>154.0</ele><time>2026-05-04T03:05:53.999Z</time></trkpt><trkpt lat="45.94938837079884" lon="12.278570245357148"><ele>154.0</ele><time>2026-05-04T03:05:54.999Z</time></trkpt><trkpt lat="45.949196290320984" lon="12.278658489827876"><ele>154.0</ele><time>2026-05-04T03:05:55.999Z</time></trkpt><trkpt lat="45.949007618314596" lon="12.278762078979902"><ele>154.66666666666669</ele><time>2026-05-04T03:05:56.999Z</time></trkpt><trkpt lat="45.94882348622626" lon="12.278872507913448"><ele>155.33333333333334</ele><time>2026-05-04T03:05:57.999Z</time></trkpt><trkpt lat="45.94863748922595" lon="12.278978530075364"><ele>156.0</ele><time>2026-05-04T03:05:58.999Z</time></trkpt><trkpt lat="45.94844684963321" lon="12.279058021021772"><ele>157.66666666666666</ele><time>2026-05-04T03:05:59.999Z</time></trkpt><trkpt lat="45.94825119997177" lon="12.279093955308626"><ele>159.33333333333331</ele><time>2026-05-04T03:06:00.999Z</time></trkpt><trkpt lat="45.94805310351888" lon="12.279103236309798"><ele>161.0</ele><time>2026-05-04T03:06:01.999Z</time></trkpt><trkpt lat="45.947857444346646" lon="12.279050180869646"><ele>161.0</ele><time>2026-05-04T03:06:02.999Z</time></trkpt><trkpt lat="45.94766816497416" lon="12.278951427207275"><ele>161.0</ele><time>2026-05-04T03:06:03.999Z</time></trkpt><trkpt lat="45.947480965676775" lon="12.278830381134489"><ele>161.0</ele><time>2026-05-04T03:06:04.999Z</time></trkpt><trkpt lat="45.94729131826965" lon="12.27871004002675"><ele>160.0</ele><time>2026-05-04T03:06:05.999Z</time></trkpt><trkpt lat="45.94709885592574" lon="12.278585448649478"><ele>159.0</ele><time>2026-05-04T03:06:06.999Z</time></trkpt><trkpt lat="45.946902444336054" lon="12.278459080406373"><ele>158.0</ele><time>2026-05-04T03:06:07.999Z</time></trkpt><trkpt lat="45.94670386716265" lon="12.278331770623458"><ele>156.33333333333331</ele><time>2026-05-04T03:06:08.999Z</time></trkpt><trkpt lat="45.94650140985805" lon="12.278206237185618"><ele>154.66666666666666</ele><time>2026-05-04T03:06:09.999Z</time></trkpt><trkpt lat="45.94629718546761" lon="12.278076483611109"><ele>153.0</ele><time>2026-05-04T03:06:10.999Z</time></trkpt><trkpt lat="45.94609005493474" lon="12.277944799800391"><ele>151.5</ele><time>2026-05-04T03:06:11.999Z</time></trkpt><trkpt lat="45.94588219693784" lon="12.277807788183134"><ele>150.0</ele><time>2026-05-04T03:06:12.999Z</time></trkpt><trkpt lat="45.9456773621807" lon="12.277659020597175"><ele>148.0</ele><time>2026-05-04T03:06:13.999Z</time></trkpt><trkpt lat="45.94547698326156" lon="12.277492024256153"><ele>146.0</ele><time>2026-05-04T03:06:14.999Z</time></trkpt><trkpt lat="45.94527852709881" lon="12.277318530188952"><ele>144.0</ele><time>2026-05-04T03:06:15.999Z</time></trkpt><trkpt lat="45.94507967795224" lon="12.277146562729705"><ele>142.0</ele><time>2026-05-04T03:06:16.999Z</time></trkpt><trkpt lat="45.9448785872309" lon="12.276978732556255"><ele>141.5</ele><time>2026-05-04T03:06:17.999Z</time></trkpt><trkpt lat="45.94467762853857" lon="12.276809793445162"><ele>141.0</ele><time>2026-05-04T03:06:18.999Z</time></trkpt><trkpt lat="45.944477582460166" lon="12.276641686943394"><ele>141.0</ele><time>2026-05-04T03:06:19.999Z</time></trkpt><trkpt lat="45.94427835314978" lon="12.276471106780537"><ele>141.0</ele><time>2026-05-04T03:06:20.999Z</time></trkpt><trkpt lat="45.94407898624186" lon="12.27629977233599"><ele>138.0</ele><time>2026-05-04T03:06:21.999Z</time></trkpt><trkpt lat="45.94387902588012" lon="12.2761290204865"><ele>135.0</ele><time>2026-05-04T03:06:22.999Z</time></trkpt><trkpt lat="45.94367909049682" lon="12.275958153389505"><ele>135.0</ele><time>2026-05-04T03:06:23.999Z</time></trkpt><trkpt lat="45.943477345111" lon="12.275788090124058"><ele>135.0</ele><time>2026-05-04T03:06:24.999Z</time></trkpt><trkpt lat="45.943276975297294" lon="12.275616045402703"><ele>129.5</ele><time>2026-05-04T03:06:25.999Z</time></trkpt><trkpt lat="45.94307606142052" lon="12.275446950104525"><ele>124.0</ele><time>2026-05-04T03:06:26.999Z</time></trkpt><trkpt lat="45.942874532092986" lon="12.275277925697264"><ele>124.0</ele><time>2026-05-04T03:06:28Z</time></trkpt><trkpt lat="45.94267547547423" lon="12.275108724124987"><ele>124.0</ele><time>2026-05-04T03:06:29Z</time></trkpt><trkpt lat="45.94248001918074" lon="12.274943095080017"><ele>124.0</ele><time>2026-05-04T03:06:30Z</time></trkpt><trkpt lat="45.942281105304616" lon="12.274786915837602"><ele>124.0</ele><time>2026-05-04T03:06:31Z</time></trkpt><trkpt lat="45.942074428058724" lon="12.274651688734975"><ele>120.5</ele><time>2026-05-04T03:06:32Z</time></trkpt><trkpt lat="45.941864418437234" lon="12.274528983942917"><ele>117.0</ele><time>2026-05-04T03:06:33Z</time></trkpt><trkpt lat="45.941651128699355" lon="12.274418016482377"><ele>117.0</ele><time>2026-05-04T03:06:34Z</time></trkpt><trkpt lat="45.941439002347416" lon="12.27430918395792"><ele>117.0</ele><time>2026-05-04T03:06:35Z</time></trkpt><trkpt lat="45.9412468287196" lon="12.27421545314193"><ele>117.0</ele><time>2026-05-04T03:06:36Z</time></trkpt><trkpt lat="45.94107952682807" lon="12.274132604578103"><ele>117.0</ele><time>2026-05-04T03:06:37Z</time></trkpt><trkpt lat="45.94092288336072" lon="12.274054204060082"><ele>117.0</ele><time>2026-05-04T03:06:38Z</time></trkpt><trkpt lat="45.94078828052643" lon="12.27397686812944"><ele>117.0</ele><time>2026-05-04T03:06:39Z</time></trkpt><trkpt lat="45.940662664370635" lon="12.273869482383716"><ele>115.25</ele><time>2026-05-04T03:06:40Z</time></trkpt><trkpt lat="45.940551343341085" lon="12.273732088637242"><ele>113.5</ele><time>2026-05-04T03:06:41Z</time></trkpt><trkpt lat="45.9404639029835" lon="12.273562007856226"><ele>111.75</ele><time>2026-05-04T03:06:42Z</time></trkpt><trkpt lat="45.94041552583459" lon="12.273363392608667"><ele>110.0</ele><time>2026-05-04T03:06:43Z</time></trkpt><trkpt lat="45.94040009943381" lon="12.273152910419084"><ele>107.66666666666666</ele><time>2026-05-04T03:06:44Z</time></trkpt><trkpt lat="45.94042549468851" lon="12.27294261088501"><ele>105.33333333333334</ele><time>2026-05-04T03:06:45Z</time></trkpt><trkpt lat="45.940490795970845" lon="12.272745149210632"><ele>103.0</ele><time>2026-05-04T03:06:46Z</time></trkpt><trkpt lat="45.94057728093041" lon="12.272553853422554"><ele>103.0</ele><time>2026-05-04T03:06:47Z</time></trkpt><trkpt lat="45.94067874117362" lon="12.272360241315878"><ele>103.0</ele><time>2026-05-04T03:06:48Z</time></trkpt><trkpt lat="45.940784671216406" lon="12.272156798588105"><ele>103.0</ele><time>2026-05-04T03:06:49Z</time></trkpt><trkpt lat="45.94089224633978" lon="12.271941750653257"><ele>103.33333333333334</ele><time>2026-05-04T03:06:50Z</time></trkpt><trkpt lat="45.94100311338984" lon="12.271723129434015"><ele>103.66666666666666</ele><time>2026-05-04T03:06:51Z</time></trkpt><trkpt lat="45.94111750772387" lon="12.271499594416854"><ele>104.0</ele><time>2026-05-04T03:06:52Z</time></trkpt><trkpt lat="45.94123337806289" lon="12.271269664372868"><ele>104.33333333333333</ele><time>2026-05-04T03:06:53Z</time></trkpt><trkpt lat="45.94134951276804" lon="12.271037349823473"><ele>104.66666666666666</ele><time>2026-05-04T03:06:54Z</time></trkpt><trkpt lat="45.94146604900333" lon="12.27080090878193"><ele>105.0</ele><time>2026-05-04T03:06:55Z</time></trkpt><trkpt lat="45.94158214777509" lon="12.270563537574008"><ele>106.0</ele><time>2026-05-04T03:06:56Z</time></trkpt><trkpt lat="45.941700267806056" lon="12.270326743176176"><ele>107.0</ele><time>2026-05-04T03:06:57Z</time></trkpt><trkpt lat="45.941817641258844" lon="12.270087340733555"><ele>108.0</ele><time>2026-05-04T03:06:58Z</time></trkpt><trkpt lat="45.94193472275133" lon="12.269846847100293"><ele>110.0</ele><time>2026-05-04T03:06:59Z</time></trkpt><trkpt lat="45.94205101056678" lon="12.269606231138555"><ele>112.0</ele><time>2026-05-04T03:07:00Z</time></trkpt><trkpt lat="45.9421699153493" lon="12.269368154328971"><ele>114.0</ele><time>2026-05-04T03:07:01Z</time></trkpt><trkpt lat="45.9422899943395" lon="12.269130508639211"><ele>114.0</ele><time>2026-05-04T03:07:02Z</time></trkpt><trkpt lat="45.9424083620852" lon="12.268891379519175"><ele>114.0</ele><time>2026-05-04T03:07:03Z</time></trkpt><trkpt lat="45.94252635419218" lon="12.26865165316208"><ele>114.0</ele><time>2026-05-04T03:07:04Z</time></trkpt><trkpt lat="45.942644375639794" lon="12.268412273557942"><ele>114.0</ele><time>2026-05-04T03:07:05Z</time></trkpt><trkpt lat="45.94276405785698" lon="12.268174196478515"><ele>114.0</ele><time>2026-05-04T03:07:06Z</time></trkpt><trkpt lat="45.942882615886894" lon="12.267934885118235"><ele>114.0</ele><time>2026-05-04T03:07:07Z</time></trkpt><trkpt lat="45.94299826358029" lon="12.267697174419988"><ele>114.0</ele><time>2026-05-04T03:07:08Z</time></trkpt><trkpt lat="45.94311645708778" lon="12.26745832340833"><ele>114.0</ele><time>2026-05-04T03:07:09Z</time></trkpt><trkpt lat="45.943234199628684" lon="12.267218681496022"><ele>114.0</ele><time>2026-05-04T03:07:10Z</time></trkpt><trkpt lat="45.94334955886986" lon="12.266977442069955"><ele>115.66666666666666</ele><time>2026-05-04T03:07:11Z</time></trkpt><trkpt lat="45.94345765088777" lon="12.266728928792803"><ele>117.33333333333333</ele><time>2026-05-04T03:07:12Z</time></trkpt><trkpt lat="45.94355521279655" lon="12.266471991463606"><ele>119.0</ele><time>2026-05-04T03:07:13Z</time></trkpt><trkpt lat="45.943643460459676" lon="12.266207673670351"><ele>119.0</ele><time>2026-05-04T03:07:14Z</time></trkpt><trkpt lat="45.94372416745658" lon="12.265938065635112"><ele>119.0</ele><time>2026-05-04T03:07:15Z</time></trkpt><trkpt lat="45.94380028449494" lon="12.265667853265978"><ele>119.0</ele><time>2026-05-04T03:07:16Z</time></trkpt><trkpt lat="45.9438733574515" lon="12.265399354866108"><ele>119.66666666666666</ele><time>2026-05-04T03:07:17Z</time></trkpt><trkpt lat="45.94394730319416" lon="12.2651325887176"><ele>120.33333333333334</ele><time>2026-05-04T03:07:18Z</time></trkpt><trkpt lat="45.944020971487056" lon="12.264872008377164"><ele>121.0</ele><time>2026-05-04T03:07:19Z</time></trkpt><trkpt lat="45.94409582107634" lon="12.26461598636197"><ele>121.0</ele><time>2026-05-04T03:07:20Z</time></trkpt><trkpt lat="45.94417438139225" lon="12.264369438196749"><ele>121.0</ele><time>2026-05-04T03:07:21Z</time></trkpt><trkpt lat="45.9442599606072" lon="12.26413469359261"><ele>121.0</ele><time>2026-05-04T03:07:22Z</time></trkpt><trkpt lat="45.944350816027566" lon="12.263908833354009"><ele>122.33333333333334</ele><time>2026-05-04T03:07:23Z</time></trkpt><trkpt lat="45.944444820277255" lon="12.263692251213753"><ele>123.66666666666666</ele><time>2026-05-04T03:07:24Z</time></trkpt><trkpt lat="45.944540938778445" lon="12.263480730705476"><ele>125.0</ele><time>2026-05-04T03:07:25Z</time></trkpt><trkpt lat="45.944633885674385" lon="12.263270215820683"><ele>128.33333333333331</ele><time>2026-05-04T03:07:26Z</time></trkpt><trkpt lat="45.94471010010392" lon="12.263052021142252"><ele>131.66666666666666</ele><time>2026-05-04T03:07:27Z</time></trkpt><trkpt lat="45.944787846455775" lon="12.26283778605186"><ele>135.0</ele><time>2026-05-04T03:07:28Z</time></trkpt><trkpt lat="45.944810982434085" lon="12.262597309280508"><ele>135.0</ele><time>2026-05-04T03:07:29Z</time></trkpt><trkpt lat="45.94483383875644" lon="12.262365929504984"><ele>135.0</ele><time>2026-05-04T03:07:30Z</time></trkpt><trkpt lat="45.944844548409314" lon="12.26213449743747"><ele>135.0</ele><time>2026-05-04T03:07:31Z</time></trkpt><trkpt lat="45.94485111370524" lon="12.261907925456837"><ele>137.33333333333334</ele><time>2026-05-04T03:07:32Z</time></trkpt><trkpt lat="45.94485697097803" lon="12.26168447820425"><ele>139.66666666666669</ele><time>2026-05-04T03:07:33Z</time></trkpt><trkpt lat="45.9448624643508" lon="12.2614649781885"><ele>142.0</ele><time>2026-05-04T03:07:34Z</time></trkpt><trkpt lat="45.94487280125876" lon="12.261250129467346"><ele>143.25</ele><time>2026-05-04T03:07:35Z</time></trkpt><trkpt lat="45.944892039880486" lon="12.261041414220122"><ele>144.5</ele><time>2026-05-04T03:07:36Z</time></trkpt><trkpt lat="45.94492163833322" lon="12.260835813299542"><ele>145.75</ele><time>2026-05-04T03:07:37Z</time></trkpt><trkpt lat="45.94496392005959" lon="12.26063721793895"><ele>147.0</ele><time>2026-05-04T03:07:38Z</time></trkpt><trkpt lat="45.945023765041434" lon="12.260451098344687"><ele>149.25</ele><time>2026-05-04T03:07:39Z</time></trkpt><trkpt lat="45.945097992141484" lon="12.260277060613753"><ele>151.5</ele><time>2026-05-04T03:07:40Z</time></trkpt><trkpt lat="45.945185650341834" lon="12.26012013457475"><ele>153.75</ele><time>2026-05-04T03:07:41Z</time></trkpt><trkpt lat="45.94528288275793" lon="12.25997733903226"><ele>156.0</ele><time>2026-05-04T03:07:42Z</time></trkpt><trkpt lat="45.945388752407254" lon="12.259848886976787"><ele>157.0</ele><time>2026-05-04T03:07:43Z</time></trkpt><trkpt lat="45.945495743469905" lon="12.259723489668849"><ele>158.0</ele><time>2026-05-04T03:07:44Z</time></trkpt><trkpt lat="45.94559928117948" lon="12.259595219518934"><ele>159.0</ele><time>2026-05-04T03:07:45Z</time></trkpt><trkpt lat="45.94569935395679" lon="12.259458682374339"><ele>160.0</ele><time>2026-05-04T03:07:46Z</time></trkpt><trkpt lat="45.94578640639055" lon="12.259305891546713"><ele>160.0</ele><time>2026-05-04T03:07:46.999Z</time></trkpt><trkpt lat="45.94585735173237" lon="12.259134189392718"><ele>160.0</ele><time>2026-05-04T03:07:47.999Z</time></trkpt><trkpt lat="45.94591138676952" lon="12.258946505634803"><ele>160.0</ele><time>2026-05-04T03:07:48.999Z</time></trkpt><trkpt lat="45.94594788567308" lon="12.258747127687537"><ele>160.0</ele><time>2026-05-04T03:07:49.999Z</time></trkpt><trkpt lat="45.94596184997143" lon="12.258537144123425"><ele>160.33333333333334</ele><time>2026-05-04T03:07:50.999Z</time></trkpt><trkpt lat="45.94595031004747" lon="12.258322295593754"><ele>160.66666666666666</ele><time>2026-05-04T03:07:51.999Z</time></trkpt><trkpt lat="45.945920198445556" lon="12.258106795317087"><ele>161.0</ele><time>2026-05-04T03:07:52.999Z</time></trkpt><trkpt lat="45.94587118770991" lon="12.257895688194244"><ele>159.33333333333331</ele><time>2026-05-04T03:07:53.999Z</time></trkpt><trkpt lat="45.94582121606255" lon="12.257675447083594"><ele>157.66666666666666</ele><time>2026-05-04T03:07:54.999Z</time></trkpt><trkpt lat="45.945772445724806" lon="12.25744710878036"><ele>156.0</ele><time>2026-05-04T03:07:55.999Z</time></trkpt><trkpt lat="45.94572142291385" lon="12.257215775620079"><ele>154.33333333333334</ele><time>2026-05-04T03:07:56.999Z</time></trkpt><trkpt lat="45.94567191629627" lon="12.256981742683347"><ele>152.66666666666669</ele><time>2026-05-04T03:07:57.999Z</time></trkpt><trkpt lat="45.94561959093505" lon="12.256744559158694"><ele>151.0</ele><time>2026-05-04T03:07:58.999Z</time></trkpt><trkpt lat="45.94556576732333" lon="12.256505817595674"><ele>150.66666666666669</ele><time>2026-05-04T03:07:59.999Z</time></trkpt><trkpt lat="45.94551107680695" lon="12.256261780226241"><ele>150.33333333333334</ele><time>2026-05-04T03:08:00.999Z</time></trkpt><trkpt lat="45.94545844125948" lon="12.256013558910425"><ele>150.0</ele><time>2026-05-04T03:08:01.999Z</time></trkpt><trkpt lat="45.94540562232306" lon="12.25576405890622"><ele>149.66666666666666</ele><time>2026-05-04T03:08:02.999Z</time></trkpt><trkpt lat="45.94535095605142" lon="12.25551339240332"><ele>149.33333333333331</ele><time>2026-05-04T03:08:03.999Z</time></trkpt><trkpt lat="45.94529593027797" lon="12.255260842609726"><ele>149.0</ele><time>2026-05-04T03:08:04.999Z</time></trkpt><trkpt lat="45.94524059734159" lon="12.255008441540777"><ele>148.0</ele><time>2026-05-04T03:08:05.999Z</time></trkpt><trkpt lat="45.945186364304625" lon="12.25475442720037"><ele>147.0</ele><time>2026-05-04T03:08:06.999Z</time></trkpt><trkpt lat="45.94512745351434" lon="12.254502722700853"><ele>146.0</ele><time>2026-05-04T03:08:07.999Z</time></trkpt><trkpt lat="45.9450689864349" lon="12.254249024388466"><ele>145.66666666666666</ele><time>2026-05-04T03:08:08.999Z</time></trkpt><trkpt lat="45.944983472070646" lon="12.254008668284817"><ele>145.33333333333334</ele><time>2026-05-04T03:08:09.999Z</time></trkpt><trkpt lat="45.94487535373374" lon="12.253788237934927"><ele>145.0</ele><time>2026-05-04T03:08:10.999Z</time></trkpt><trkpt lat="45.944746067455334" lon="12.253592830423171"><ele>145.0</ele><time>2026-05-04T03:08:11.999Z</time></trkpt><trkpt lat="45.94459541936062" lon="12.253439910753839"><ele>145.0</ele><time>2026-05-04T03:08:12.999Z</time></trkpt><trkpt lat="45.94444906575271" lon="12.25328035279785"><ele>145.0</ele><time>2026-05-04T03:08:13.999Z</time></trkpt><trkpt lat="45.94429780357905" lon="12.253129930059172"><ele>144.0</ele><time>2026-05-04T03:08:14.999Z</time></trkpt><trkpt lat="45.94414516854928" lon="12.252983918938725"><ele>143.0</ele><time>2026-05-04T03:08:15.999Z</time></trkpt><trkpt lat="45.94399427220125" lon="12.252839379649178"><ele>142.0</ele><time>2026-05-04T03:08:16.999Z</time></trkpt><trkpt lat="45.943845043851745" lon="12.25269618776251"><ele>142.0</ele><time>2026-05-04T03:08:17.999Z</time></trkpt><trkpt lat="45.94370444477965" lon="12.2525439877352"><ele>142.0</ele><time>2026-05-04T03:08:18.999Z</time></trkpt><trkpt lat="45.943581395319306" lon="12.25236594422014"><ele>142.0</ele><time>2026-05-04T03:08:19.999Z</time></trkpt><trkpt lat="45.94347883026752" lon="12.25216946314329"><ele>143.33333333333334</ele><time>2026-05-04T03:08:20.999Z</time></trkpt><trkpt lat="45.94340055548367" lon="12.251952263093864"><ele>144.66666666666666</ele><time>2026-05-04T03:08:21.999Z</time></trkpt><trkpt lat="45.94333952105762" lon="12.251724868662746"><ele>146.0</ele><time>2026-05-04T03:08:22.999Z</time></trkpt><trkpt lat="45.943310008469794" lon="12.25148052815276"><ele>143.0</ele><time>2026-05-04T03:08:23.999Z</time></trkpt><trkpt lat="45.94328606380586" lon="12.251233498500532"><ele>140.0</ele><time>2026-05-04T03:08:24.999Z</time></trkpt><trkpt lat="45.943266032636195" lon="12.25098293493587"><ele>137.0</ele><time>2026-05-04T03:08:25.999Z</time></trkpt><trkpt lat="45.94324978073566" lon="12.25072800179833"><ele>136.0</ele><time>2026-05-04T03:08:26.999Z</time></trkpt><trkpt lat="45.94323513724878" lon="12.250470636711364"><ele>135.0</ele><time>2026-05-04T03:08:27.999Z</time></trkpt><trkpt lat="45.94322379890148" lon="12.250209622293397"><ele>134.0</ele><time>2026-05-04T03:08:28.999Z</time></trkpt><trkpt lat="45.9432137036686" lon="12.249945948928584"><ele>133.33333333333331</ele><time>2026-05-04T03:08:29.999Z</time></trkpt><trkpt lat="45.943204706495166" lon="12.249678359274084"><ele>132.66666666666666</ele><time>2026-05-04T03:08:30.999Z</time></trkpt><trkpt lat="45.94319479375414" lon="12.249408346989863"><ele>132.0</ele><time>2026-05-04T03:08:31.999Z</time></trkpt><trkpt lat="45.943187480078755" lon="12.249135040271735"><ele>131.33333333333334</ele><time>2026-05-04T03:08:32.999Z</time></trkpt><trkpt lat="45.94317866472056" lon="12.248858307880687"><ele>130.66666666666669</ele><time>2026-05-04T03:08:34Z</time></trkpt><trkpt lat="45.94317151355679" lon="12.248579628752019"><ele>130.0</ele><time>2026-05-04T03:08:35Z</time></trkpt><trkpt lat="45.94316428477436" lon="12.24829969877321"><ele>129.66666666666669</ele><time>2026-05-04T03:08:36Z</time></trkpt><trkpt lat="45.94315929666784" lon="12.248023157351975"><ele>129.33333333333334</ele><time>2026-05-04T03:08:37Z</time></trkpt><trkpt lat="45.943149165388945" lon="12.24775235881931"><ele>129.0</ele><time>2026-05-04T03:08:38Z</time></trkpt><trkpt lat="45.94313413493314" lon="12.247484198493524"><ele>130.0</ele><time>2026-05-04T03:08:39Z</time></trkpt><trkpt lat="45.943091633886745" lon="12.24722841019916"><ele>131.0</ele><time>2026-05-04T03:08:40Z</time></trkpt><trkpt lat="45.9430421208669" lon="12.246974210437482"><ele>132.0</ele><time>2026-05-04T03:08:41Z</time></trkpt><trkpt lat="45.94294533570107" lon="12.246750601882747"><ele>132.0</ele><time>2026-05-04T03:08:42Z</time></trkpt><trkpt lat="45.94285411656273" lon="12.246525982960176"><ele>132.0</ele><time>2026-05-04T03:08:43Z</time></trkpt><trkpt lat="45.94275941298017" lon="12.246305703298459"><ele>132.0</ele><time>2026-05-04T03:08:44Z</time></trkpt><trkpt lat="45.94266532341004" lon="12.24608482774742"><ele>131.66666666666666</ele><time>2026-05-04T03:08:45Z</time></trkpt><trkpt lat="45.94257175953551" lon="12.24586355032155"><ele>131.33333333333331</ele><time>2026-05-04T03:08:46Z</time></trkpt><trkpt lat="45.942478966614736" lon="12.245642773152767"><ele>131.0</ele><time>2026-05-04T03:08:47Z</time></trkpt><trkpt lat="45.94238418353596" lon="12.245423046546692"><ele>130.66666666666666</ele><time>2026-05-04T03:08:48Z</time></trkpt><trkpt lat="45.942289449164676" lon="12.24520290161133"><ele>130.33333333333334</ele><time>2026-05-04T03:08:49Z</time></trkpt><trkpt lat="45.94219535418355" lon="12.244983448405991"><ele>130.0</ele><time>2026-05-04T03:08:50Z</time></trkpt><trkpt lat="45.94210292806813" lon="12.24476219944391"><ele>130.0</ele><time>2026-05-04T03:08:51Z</time></trkpt><trkpt lat="45.94201107610754" lon="12.244543959258143"><ele>130.0</ele><time>2026-05-04T03:08:52Z</time></trkpt><trkpt lat="45.9419188227289" lon="12.244327505431967"><ele>130.0</ele><time>2026-05-04T03:08:53Z</time></trkpt><trkpt lat="45.94182792700502" lon="12.244113772124493"><ele>129.33333333333334</ele><time>2026-05-04T03:08:54Z</time></trkpt><trkpt lat="45.94173860541044" lon="12.243902406278556"><ele>128.66666666666666</ele><time>2026-05-04T03:08:55Z</time></trkpt><trkpt lat="45.94165012848736" lon="12.243696495349187"><ele>128.0</ele><time>2026-05-04T03:08:56Z</time></trkpt><trkpt lat="45.941566559118286" lon="12.2435030805403"><ele>127.5</ele><time>2026-05-04T03:08:57Z</time></trkpt><trkpt lat="45.94149430707258" lon="12.243326541481686"><ele>127.0</ele><time>2026-05-04T03:08:58Z</time></trkpt><trkpt lat="45.94143453698815" lon="12.243160777253374"><ele>126.5</ele><time>2026-05-04T03:08:59Z</time></trkpt><trkpt lat="45.94139423034146" lon="12.243007850497333"><ele>126.0</ele><time>2026-05-04T03:09:00Z</time></trkpt><trkpt lat="45.94137937485231" lon="12.24286535841403"><ele>126.0</ele><time>2026-05-04T03:09:01Z</time></trkpt><trkpt lat="45.94139325945504" lon="12.242727651494794"><ele>126.0</ele><time>2026-05-04T03:09:02Z</time></trkpt><trkpt lat="45.94143302987192" lon="12.242594371975844"><ele>126.0</ele><time>2026-05-04T03:09:03Z</time></trkpt><trkpt lat="45.94149814560179" lon="12.242480249825375"><ele>126.0</ele><time>2026-05-04T03:09:04Z</time></trkpt><trkpt lat="45.94158346880092" lon="12.242388350646127"><ele>126.0</ele><time>2026-05-04T03:09:05Z</time></trkpt><trkpt lat="45.94168258654627" lon="12.242310008011419"><ele>126.25</ele><time>2026-05-04T03:09:06Z</time></trkpt><trkpt lat="45.94178383674847" lon="12.242224040514978"><ele>126.5</ele><time>2026-05-04T03:09:07Z</time></trkpt><trkpt lat="45.941889091221206" lon="12.24213311501002"><ele>126.75</ele><time>2026-05-04T03:09:08Z</time></trkpt><trkpt lat="45.94199895068562" lon="12.242038307908208"><ele>127.0</ele><time>2026-05-04T03:09:09Z</time></trkpt><trkpt lat="45.94211209282185" lon="12.241941014694595"><ele>127.0</ele><time>2026-05-04T03:09:10Z</time></trkpt><trkpt lat="45.94223018856717" lon="12.241840064420234"><ele>127.0</ele><time>2026-05-04T03:09:11Z</time></trkpt><trkpt lat="45.94235027127836" lon="12.241734961648913"><ele>127.0</ele><time>2026-05-04T03:09:12Z</time></trkpt><trkpt lat="45.942475645756794" lon="12.241627718759"><ele>127.0</ele><time>2026-05-04T03:09:13Z</time></trkpt><trkpt lat="45.942603875003634" lon="12.24151999847722"><ele>128.0</ele><time>2026-05-04T03:09:14Z</time></trkpt><trkpt lat="45.942734711965116" lon="12.241410133130051"><ele>129.0</ele><time>2026-05-04T03:09:15Z</time></trkpt><trkpt lat="45.94286604277649" lon="12.24129856419666"><ele>130.0</ele><time>2026-05-04T03:09:16Z</time></trkpt><trkpt lat="45.943001563512134" lon="12.241186425972202"><ele>130.0</ele><time>2026-05-04T03:09:17Z</time></trkpt><trkpt lat="45.943140033624665" lon="12.241076095506488"><ele>130.0</ele><time>2026-05-04T03:09:18Z</time></trkpt><trkpt lat="45.94328138957511" lon="12.240967581251176"><ele>130.0</ele><time>2026-05-04T03:09:19Z</time></trkpt><trkpt lat="45.94342701208543" lon="12.240862950249877"><ele>130.0</ele><time>2026-05-04T03:09:20Z</time></trkpt><trkpt lat="45.9435747802967" lon="12.240761031304865"><ele>130.0</ele><time>2026-05-04T03:09:21Z</time></trkpt><trkpt lat="45.94372661389211" lon="12.24066082551511"><ele>130.0</ele><time>2026-05-04T03:09:22Z</time></trkpt><trkpt lat="45.9438806153152" lon="12.240563185313386"><ele>130.0</ele><time>2026-05-04T03:09:23Z</time></trkpt><trkpt lat="45.94403701297201" lon="12.240469830276982"><ele>130.0</ele><time>2026-05-04T03:09:24Z</time></trkpt><trkpt lat="45.94419686868704" lon="12.240380161210311"><ele>130.0</ele><time>2026-05-04T03:09:25Z</time></trkpt><trkpt lat="45.944360818673374" lon="12.240296746640118"><ele>130.66666666666669</ele><time>2026-05-04T03:09:26Z</time></trkpt><trkpt lat="45.944528214613996" lon="12.240219155994316"><ele>131.33333333333334</ele><time>2026-05-04T03:09:27Z</time></trkpt><trkpt lat="45.944696555421565" lon="12.240140120986913"><ele>132.0</ele><time>2026-05-04T03:09:28Z</time></trkpt><trkpt lat="45.9448669761012" lon="12.240062814673113"><ele>132.0</ele><time>2026-05-04T03:09:29Z</time></trkpt><trkpt lat="45.94503907854624" lon="12.239985273147314"><ele>132.0</ele><time>2026-05-04T03:09:30Z</time></trkpt><trkpt lat="45.94521364261074" lon="12.239908639378369"><ele>132.0</ele><time>2026-05-04T03:09:31Z</time></trkpt><trkpt lat="45.945389443684185" lon="12.239830251651956"><ele>132.66666666666666</ele><time>2026-05-04T03:09:32Z</time></trkpt><trkpt lat="45.945564569402805" lon="12.239749909722939"><ele>133.33333333333331</ele><time>2026-05-04T03:09:33Z</time></trkpt><trkpt lat="45.94574074942106" lon="12.239669409689066"><ele>134.0</ele><time>2026-05-04T03:09:34Z</time></trkpt><trkpt lat="45.94591765868321" lon="12.239588829068584"><ele>134.66666666666666</ele><time>2026-05-04T03:09:35Z</time></trkpt><trkpt lat="45.94609473865023" lon="12.239506488329804"><ele>135.33333333333334</ele><time>2026-05-04T03:09:36Z</time></trkpt><trkpt lat="45.946271420724784" lon="12.23942061340591"><ele>136.0</ele><time>2026-05-04T03:09:37Z</time></trkpt><trkpt lat="45.946445858557674" lon="12.239327108205112"><ele>136.0</ele><time>2026-05-04T03:09:38Z</time></trkpt><trkpt lat="45.94661953253753" lon="12.23922318798424"><ele>136.0</ele><time>2026-05-04T03:09:39Z</time></trkpt><trkpt lat="45.94679069487477" lon="12.239108960812352"><ele>136.0</ele><time>2026-05-04T03:09:40Z</time></trkpt><trkpt lat="45.94695878997754" lon="12.238986547016399"><ele>136.66666666666669</ele><time>2026-05-04T03:09:41Z</time></trkpt><trkpt lat="45.947122499816714" lon="12.23885383766972"><ele>137.33333333333334</ele><time>2026-05-04T03:09:42Z</time></trkpt><trkpt lat="45.94728438385529" lon="12.238716256750829"><ele>138.0</ele><time>2026-05-04T03:09:43Z</time></trkpt><trkpt lat="45.9474460798601" lon="12.238581299123016"><ele>138.33333333333334</ele><time>2026-05-04T03:09:44Z</time></trkpt><trkpt lat="45.947607346740995" lon="12.238444616307067"><ele>138.66666666666669</ele><time>2026-05-04T03:09:45Z</time></trkpt><trkpt lat="45.94776752467029" lon="12.23830664061612"><ele>139.0</ele><time>2026-05-04T03:09:46Z</time></trkpt><trkpt lat="45.947927614502134" lon="12.23817099125038"><ele>139.33333333333334</ele><time>2026-05-04T03:09:47Z</time></trkpt><trkpt lat="45.948087230825976" lon="12.238034431937953"><ele>139.66666666666666</ele><time>2026-05-04T03:09:47.999Z</time></trkpt><trkpt lat="45.94824665464764" lon="12.23789851528738"><ele>140.0</ele><time>2026-05-04T03:09:48.999Z</time></trkpt><trkpt lat="45.94840475247461" lon="12.237761605772098"><ele>141.33333333333331</ele><time>2026-05-04T03:09:49.999Z</time></trkpt><trkpt lat="45.94856261665013" lon="12.237625283474845"><ele>142.66666666666666</ele><time>2026-05-04T03:09:50.999Z</time></trkpt><trkpt lat="45.94872067668575" lon="12.237491337317067"><ele>144.0</ele><time>2026-05-04T03:09:51.999Z</time></trkpt><trkpt lat="45.94887838140353" lon="12.2373558940568"><ele>144.66666666666666</ele><time>2026-05-04T03:09:52.999Z</time></trkpt><trkpt lat="45.94903605694591" lon="12.237221542678338"><ele>145.33333333333331</ele><time>2026-05-04T03:09:53.999Z</time></trkpt><trkpt lat="45.949192702998104" lon="12.237085600886589"><ele>146.0</ele><time>2026-05-04T03:09:54.999Z</time></trkpt><trkpt lat="45.94934362886373" lon="12.236955057178811"><ele>146.66666666666666</ele><time>2026-05-04T03:09:55.999Z</time></trkpt><trkpt lat="45.94948385370704" lon="12.236834205567147"><ele>147.33333333333334</ele><time>2026-05-04T03:09:56.999Z</time></trkpt><trkpt lat="45.94962364284681" lon="12.23673171591555"><ele>148.0</ele><time>2026-05-04T03:09:57.999Z</time></trkpt><trkpt lat="45.94977049421354" lon="12.236650727951524"><ele>148.0</ele><time>2026-05-04T03:09:58.999Z</time></trkpt><trkpt lat="45.949916511681536" lon="12.236560720459552"><ele>148.0</ele><time>2026-05-04T03:09:59.999Z</time></trkpt><trkpt lat="45.950063976263074" lon="12.236467542761865"><ele>148.0</ele><time>2026-05-04T03:10:00.999Z</time></trkpt><trkpt lat="45.950211816973486" lon="12.236371810691862"><ele>148.66666666666669</ele><time>2026-05-04T03:10:01.999Z</time></trkpt><trkpt lat="45.95036494163674" lon="12.236284144305571"><ele>149.33333333333334</ele><time>2026-05-04T03:10:02.999Z</time></trkpt><trkpt lat="45.95052061123669" lon="12.236197176306094"><ele>150.0</ele><time>2026-05-04T03:10:03.999Z</time></trkpt><trkpt lat="45.95067812227989" lon="12.236111272618837"><ele>150.0</ele><time>2026-05-04T03:10:04.999Z</time></trkpt><trkpt lat="45.950836115624924" lon="12.236026232474934"><ele>150.0</ele><time>2026-05-04T03:10:05.999Z</time></trkpt><trkpt lat="45.9509915687449" lon="12.235927807368812"><ele>150.0</ele><time>2026-05-04T03:10:06.999Z</time></trkpt><trkpt lat="45.95113914176267" lon="12.235808038813474"><ele>150.0</ele><time>2026-05-04T03:10:07.999Z</time></trkpt><trkpt lat="45.951276261067584" lon="12.23566214431506"><ele>150.0</ele><time>2026-05-04T03:10:08.999Z</time></trkpt><trkpt lat="45.95140001676669" lon="12.235495669245209"><ele>150.0</ele><time>2026-05-04T03:10:09.999Z</time></trkpt><trkpt lat="45.95151396520847" lon="12.235314286606691"><ele>150.66666666666666</ele><time>2026-05-04T03:10:10.999Z</time></trkpt><trkpt lat="45.95162248307736" lon="12.235128804251753"><ele>151.33333333333331</ele><time>2026-05-04T03:10:11.999Z</time></trkpt><trkpt lat="45.951735329035635" lon="12.234946887224524"><ele>152.0</ele><time>2026-05-04T03:10:12.999Z</time></trkpt><trkpt lat="45.95185951375135" lon="12.234783017771711"><ele>153.0</ele><time>2026-05-04T03:10:13.999Z</time></trkpt><trkpt lat="45.95199558522119" lon="12.234639891454215"><ele>154.0</ele><time>2026-05-04T03:10:14.999Z</time></trkpt><trkpt lat="45.95213828916022" lon="12.234512558092572"><ele>155.0</ele><time>2026-05-04T03:10:15.999Z</time></trkpt><trkpt lat="45.95228425367542" lon="12.234391046545147"><ele>155.0</ele><time>2026-05-04T03:10:16.999Z</time></trkpt><trkpt lat="45.95243051610501" lon="12.234269654076066"><ele>155.0</ele><time>2026-05-04T03:10:17.999Z</time></trkpt><trkpt lat="45.9525739623118" lon="12.23414294687296"><ele>155.0</ele><time>2026-05-04T03:10:18.999Z</time></trkpt><trkpt lat="45.952716100388784" lon="12.23401475321198"><ele>155.66666666666666</ele><time>2026-05-04T03:10:19.999Z</time></trkpt><trkpt lat="45.952858233051025" lon="12.23388621085765"><ele>156.33333333333334</ele><time>2026-05-04T03:10:20.999Z</time></trkpt><trkpt lat="45.95300098796581" lon="12.233760691401125"><ele>157.0</ele><time>2026-05-04T03:10:21.999Z</time></trkpt><trkpt lat="45.95314638082176" lon="12.233641695142152"><ele>157.0</ele><time>2026-05-04T03:10:22.999Z</time></trkpt><trkpt lat="45.95329301955105" lon="12.233526387907968"><ele>157.0</ele><time>2026-05-04T03:10:23.999Z</time></trkpt><trkpt lat="45.95344166786246" lon="12.233408608840325"><ele>157.0</ele><time>2026-05-04T03:10:24.999Z</time></trkpt><trkpt lat="45.95359091075611" lon="12.23328664716567"><ele>156.0</ele><time>2026-05-04T03:10:25.999Z</time></trkpt><trkpt lat="45.95374047444975" lon="12.233160629885514"><ele>155.0</ele><time>2026-05-04T03:10:26.999Z</time></trkpt><trkpt lat="45.953888665224675" lon="12.233033445807747"><ele>154.0</ele><time>2026-05-04T03:10:27.999Z</time></trkpt><trkpt lat="45.95404015376207" lon="12.232904254920166"><ele>154.33333333333334</ele><time>2026-05-04T03:10:28.999Z</time></trkpt><trkpt lat="45.95419317750301" lon="12.232775375101658"><ele>154.66666666666666</ele><time>2026-05-04T03:10:29.999Z</time></trkpt><trkpt lat="45.95434763010986" lon="12.232644486746516"><ele>155.0</ele><time>2026-05-04T03:10:30.999Z</time></trkpt><trkpt lat="45.954498421056726" lon="12.232500882574648"><ele>155.0</ele><time>2026-05-04T03:10:31.999Z</time></trkpt><trkpt lat="45.95464133646877" lon="12.23234095055039"><ele>155.0</ele><time>2026-05-04T03:10:32.999Z</time></trkpt><trkpt lat="45.95478541439947" lon="12.232177489359659"><ele>155.0</ele><time>2026-05-04T03:10:33.999Z</time></trkpt><trkpt lat="45.9549262802511" lon="12.23200551923834"><ele>154.66666666666666</ele><time>2026-05-04T03:10:34.999Z</time></trkpt><trkpt lat="45.95506752382677" lon="12.231832070761024"><ele>154.33333333333334</ele><time>2026-05-04T03:10:35.999Z</time></trkpt><trkpt lat="45.955209953663164" lon="12.231656361468712"><ele>154.0</ele><time>2026-05-04T03:10:36.999Z</time></trkpt><trkpt lat="45.95535138582363" lon="12.231478396432818"><ele>157.66666666666669</ele><time>2026-05-04T03:10:37.999Z</time></trkpt><trkpt lat="45.955494405953864" lon="12.23129967916887"><ele>161.33333333333334</ele><time>2026-05-04T03:10:38.999Z</time></trkpt><trkpt lat="45.955639125970755" lon="12.231120121405013"><ele>165.0</ele><time>2026-05-04T03:10:40Z</time></trkpt><trkpt lat="45.95578372626361" lon="12.230940335042497"><ele>165.33333333333334</ele><time>2026-05-04T03:10:41Z</time></trkpt><trkpt lat="45.955930958582" lon="12.230761860350384"><ele>165.66666666666669</ele><time>2026-05-04T03:10:42Z</time></trkpt><trkpt lat="45.956079277711765" lon="12.230586196840685"><ele>166.0</ele><time>2026-05-04T03:10:43Z</time></trkpt><trkpt lat="45.95622340654098" lon="12.230401918734987"><ele>166.0</ele><time>2026-05-04T03:10:44Z</time></trkpt><trkpt lat="45.956364872602926" lon="12.23021384282029"><ele>166.0</ele><time>2026-05-04T03:10:45Z</time></trkpt><trkpt lat="45.95650724308618" lon="12.230028131010762"><ele>166.0</ele><time>2026-05-04T03:10:46Z</time></trkpt><trkpt lat="45.95664715896366" lon="12.229834394651686"><ele>165.0</ele><time>2026-05-04T03:10:47Z</time></trkpt><trkpt lat="45.956782275264615" lon="12.229635227596336"><ele>164.0</ele><time>2026-05-04T03:10:48Z</time></trkpt><trkpt lat="45.95691513359309" lon="12.229429593709714"><ele>163.0</ele><time>2026-05-04T03:10:49Z</time></trkpt><trkpt lat="45.95704378612712" lon="12.229217670663498"><ele>163.0</ele><time>2026-05-04T03:10:50Z</time></trkpt><trkpt lat="45.95717072764574" lon="12.229003627251743"><ele>163.0</ele><time>2026-05-04T03:10:51Z</time></trkpt><trkpt lat="45.957296548603026" lon="12.228786939420868"><ele>163.0</ele><time>2026-05-04T03:10:52Z</time></trkpt><trkpt lat="45.957421527854414" lon="12.228568577900067"><ele>163.33333333333334</ele><time>2026-05-04T03:10:53Z</time></trkpt><trkpt lat="45.9575470406572" lon="12.228351750035369"><ele>163.66666666666666</ele><time>2026-05-04T03:10:54Z</time></trkpt><trkpt lat="45.957672266963" lon="12.228135176913687"><ele>164.0</ele><time>2026-05-04T03:10:55Z</time></trkpt><trkpt lat="45.95779833468821" lon="12.227916695390507"><ele>165.0</ele><time>2026-05-04T03:10:56Z</time></trkpt><trkpt lat="45.957923549618535" lon="12.22769838189312"><ele>166.0</ele><time>2026-05-04T03:10:57Z</time></trkpt><trkpt lat="45.95805007831925" lon="12.227485904469475"><ele>167.0</ele><time>2026-05-04T03:10:58Z</time></trkpt><trkpt lat="45.95819090943904" lon="12.227299633727124"><ele>167.66666666666666</ele><time>2026-05-04T03:10:59Z</time></trkpt><trkpt lat="45.95834562662857" lon="12.227135395651823"><ele>168.33333333333334</ele><time>2026-05-04T03:11:00Z</time></trkpt><trkpt lat="45.95850696199263" lon="12.226989491969753"><ele>169.0</ele><time>2026-05-04T03:11:01Z</time></trkpt><trkpt lat="45.95867375374224" lon="12.226853281574192"><ele>169.66666666666669</ele><time>2026-05-04T03:11:02Z</time></trkpt><trkpt lat="45.95884137334205" lon="12.226720632219454"><ele>170.33333333333334</ele><time>2026-05-04T03:11:03Z</time></trkpt><trkpt lat="45.95900590894567" lon="12.2265874640262"><ele>171.0</ele><time>2026-05-04T03:11:04Z</time></trkpt><trkpt lat="45.95916981540429" lon="12.226454312344062"><ele>174.0</ele><time>2026-05-04T03:11:05Z</time></trkpt><trkpt lat="45.95933324961626" lon="12.226326522836063"><ele>177.0</ele><time>2026-05-04T03:11:06Z</time></trkpt><trkpt lat="45.9594952791926" lon="12.226202469835085"><ele>180.0</ele><time>2026-05-04T03:11:07Z</time></trkpt><trkpt lat="45.95965297458253" lon="12.226080121860704"><ele>180.0</ele><time>2026-05-04T03:11:08Z</time></trkpt><trkpt lat="45.95980807961641" lon="12.225968860002032"><ele>180.0</ele><time>2026-05-04T03:11:09Z</time></trkpt><trkpt lat="45.95997198039757" lon="12.225885755164457"><ele>180.0</ele><time>2026-05-04T03:11:10Z</time></trkpt><trkpt lat="45.96014068748508" lon="12.225831521064915"><ele>183.0</ele><time>2026-05-04T03:11:11Z</time></trkpt><trkpt lat="45.96031322667412" lon="12.225812086200902"><ele>186.0</ele><time>2026-05-04T03:11:12Z</time></trkpt><trkpt lat="45.96048787568575" lon="12.225810497366187"><ele>189.0</ele><time>2026-05-04T03:11:13Z</time></trkpt><trkpt lat="45.96066292092313" lon="12.225810086741225"><ele>189.0</ele><time>2026-05-04T03:11:14Z</time></trkpt><trkpt lat="45.960834637366126" lon="12.225809836109317"><ele>189.0</ele><time>2026-05-04T03:11:15Z</time></trkpt><trkpt lat="45.96100781687468" lon="12.225811860856979"><ele>189.0</ele><time>2026-05-04T03:11:16Z</time></trkpt><trkpt lat="45.9611803760711" lon="12.225813008105785"><ele>191.0</ele><time>2026-05-04T03:11:17Z</time></trkpt><trkpt lat="45.961352493939195" lon="12.225815460630235"><ele>193.0</ele><time>2026-05-04T03:11:18Z</time></trkpt><trkpt lat="45.9615251421392" lon="12.225816244027378"><ele>195.0</ele><time>2026-05-04T03:11:19Z</time></trkpt><trkpt lat="45.96169660226085" lon="12.225814505390272"><ele>197.0</ele><time>2026-05-04T03:11:20Z</time></trkpt><trkpt lat="45.9618677739732" lon="12.225812690164396"><ele>199.0</ele><time>2026-05-04T03:11:21Z</time></trkpt><trkpt lat="45.96203938918323" lon="12.225812926241394"><ele>201.0</ele><time>2026-05-04T03:11:22Z</time></trkpt><trkpt lat="45.96220966301405" lon="12.225812531121289"><ele>201.0</ele><time>2026-05-04T03:11:23Z</time></trkpt><trkpt lat="45.96238019142569" lon="12.225812419695378"><ele>201.0</ele><time>2026-05-04T03:11:24Z</time></trkpt><trkpt lat="45.96254958265521" lon="12.225809742778901"><ele>201.0</ele><time>2026-05-04T03:11:25Z</time></trkpt><trkpt lat="45.962716224350814" lon="12.225805870087148"><ele>202.0</ele><time>2026-05-04T03:11:26Z</time></trkpt><trkpt lat="45.96288389021245" lon="12.225804906465683"><ele>203.0</ele><time>2026-05-04T03:11:27Z</time></trkpt><trkpt lat="45.96304983130895" lon="12.22580586113871"><ele>204.0</ele><time>2026-05-04T03:11:28Z</time></trkpt><trkpt lat="45.96321541104832" lon="12.22580876139747"><ele>204.33333333333331</ele><time>2026-05-04T03:11:29Z</time></trkpt><trkpt lat="45.96337920242668" lon="12.225810116897415"><ele>204.66666666666666</ele><time>2026-05-04T03:11:30Z</time></trkpt><trkpt lat="45.96354171527946" lon="12.225809435631545"><ele>205.0</ele><time>2026-05-04T03:11:31Z</time></trkpt><trkpt lat="45.9637044474703" lon="12.225808870266668"><ele>205.0</ele><time>2026-05-04T03:11:32Z</time></trkpt><trkpt lat="45.96386483209399" lon="12.225807340904602"><ele>205.0</ele><time>2026-05-04T03:11:33Z</time></trkpt><trkpt lat="45.964024914905295" lon="12.225806955107261"><ele>205.0</ele><time>2026-05-04T03:11:34Z</time></trkpt><trkpt lat="45.964183559789845" lon="12.225807545995242"><ele>206.66666666666666</ele><time>2026-05-04T03:11:35Z</time></trkpt><trkpt lat="45.964339632062185" lon="12.225807080694063"><ele>208.33333333333331</ele><time>2026-05-04T03:11:36Z</time></trkpt><trkpt lat="45.96449629095424" lon="12.225806122096456"><ele>210.0</ele><time>2026-05-04T03:11:37Z</time></trkpt><trkpt lat="45.964650215461" lon="12.225803310351163"><ele>210.0</ele><time>2026-05-04T03:11:38Z</time></trkpt><trkpt lat="45.96479369048513" lon="12.225828769339047"><ele>210.0</ele><time>2026-05-04T03:11:39Z</time></trkpt><trkpt lat="45.96492696734313" lon="12.225817257573805"><ele>210.0</ele><time>2026-05-04T03:11:40Z</time></trkpt><trkpt lat="45.9650536118687" lon="12.225880416550064"><ele>210.0</ele><time>2026-05-04T03:11:41Z</time></trkpt><trkpt lat="45.965144308019205" lon="12.225985389654378"><ele>214.0</ele><time>2026-05-04T03:11:42Z</time></trkpt><trkpt lat="45.96519837909817" lon="12.226140669181296"><ele>218.0</ele><time>2026-05-04T03:11:43Z</time></trkpt><trkpt lat="45.96520988386463" lon="12.226319494570717"><ele>222.0</ele><time>2026-05-04T03:11:44Z</time></trkpt><trkpt lat="45.9651775389521" lon="12.226499631241058"><ele>226.0</ele><time>2026-05-04T03:11:45Z</time></trkpt><trkpt lat="45.965112561077774" lon="12.226663822073819"><ele>227.0</ele><time>2026-05-04T03:11:46Z</time></trkpt><trkpt lat="45.96504381451988" lon="12.22682620249483"><ele>228.0</ele><time>2026-05-04T03:11:47Z</time></trkpt><trkpt lat="45.9649840151212" lon="12.22700297288521"><ele>229.0</ele><time>2026-05-04T03:11:48Z</time></trkpt><trkpt lat="45.96494276872866" lon="12.227194823466217"><ele>230.0</ele><time>2026-05-04T03:11:49Z</time></trkpt><trkpt lat="45.96491798247005" lon="12.227394883878414"><ele>229.0</ele><time>2026-05-04T03:11:50Z</time></trkpt><trkpt lat="45.964908792780086" lon="12.227600428436483"><ele>228.0</ele><time>2026-05-04T03:11:50.999Z</time></trkpt><trkpt lat="45.96491600267191" lon="12.227809936368608"><ele>227.0</ele><time>2026-05-04T03:11:51.999Z</time></trkpt><trkpt lat="45.964947538255004" lon="12.228020578063404"><ele>226.0</ele><time>2026-05-04T03:11:52.999Z</time></trkpt><trkpt lat="45.96500074903454" lon="12.228223947904462"><ele>232.33333333333331</ele><time>2026-05-04T03:11:53.999Z</time></trkpt><trkpt lat="45.96507750803921" lon="12.22841572190091"><ele>238.66666666666669</ele><time>2026-05-04T03:11:54.999Z</time></trkpt><trkpt lat="45.96516716677452" lon="12.22859809008503"><ele>245.0</ele><time>2026-05-04T03:11:55.999Z</time></trkpt><trkpt lat="45.96527036217744" lon="12.228768466016188"><ele>245.0</ele><time>2026-05-04T03:11:56.999Z</time></trkpt><trkpt lat="45.96537513860359" lon="12.228940288442972"><ele>245.0</ele><time>2026-05-04T03:11:57.999Z</time></trkpt><trkpt lat="45.9654802113249" lon="12.22911668188419"><ele>245.0</ele><time>2026-05-04T03:11:58.999Z</time></trkpt><trkpt lat="45.965593538643084" lon="12.229285215429451"><ele>244.66666666666669</ele><time>2026-05-04T03:11:59.999Z</time></trkpt><trkpt lat="45.96571661278583" lon="12.22944171905611"><ele>244.33333333333331</ele><time>2026-05-04T03:12:00.999Z</time></trkpt><trkpt lat="45.965850119121676" lon="12.229583531001017"><ele>244.0</ele><time>2026-05-04T03:12:01.999Z</time></trkpt><trkpt lat="45.96599358480747" lon="12.229710004557301"><ele>239.33333333333331</ele><time>2026-05-04T03:12:02.999Z</time></trkpt><trkpt lat="45.96614638569922" lon="12.229813216820817"><ele>234.66666666666669</ele><time>2026-05-04T03:12:03.999Z</time></trkpt><trkpt lat="45.96630753907721" lon="12.22988933955935"><ele>230.0</ele><time>2026-05-04T03:12:04.999Z</time></trkpt><trkpt lat="45.966472723926586" lon="12.22994875034789"><ele>230.0</ele><time>2026-05-04T03:12:05.999Z</time></trkpt><trkpt lat="45.96664059123179" lon="12.229996178993577"><ele>230.0</ele><time>2026-05-04T03:12:06.999Z</time></trkpt><trkpt lat="45.966810083607534" lon="12.23003512279921"><ele>230.0</ele><time>2026-05-04T03:12:07.999Z</time></trkpt><trkpt lat="45.966979761582124" lon="12.230065063652114"><ele>231.66666666666669</ele><time>2026-05-04T03:12:08.999Z</time></trkpt><trkpt lat="45.967149762653285" lon="12.230073924473679"><ele>233.33333333333331</ele><time>2026-05-04T03:12:09.999Z</time></trkpt><trkpt lat="45.96732023453844" lon="12.230064517032481"><ele>235.0</ele><time>2026-05-04T03:12:10.999Z</time></trkpt><trkpt lat="45.96749045477906" lon="12.230036145999682"><ele>237.33333333333331</ele><time>2026-05-04T03:12:11.999Z</time></trkpt><trkpt lat="45.96765830272602" lon="12.229997523156758"><ele>239.66666666666669</ele><time>2026-05-04T03:12:12.999Z</time></trkpt><trkpt lat="45.96781603612722" lon="12.229950750436961"><ele>242.0</ele><time>2026-05-04T03:12:13.999Z</time></trkpt><trkpt lat="45.967961008012544" lon="12.229915981534901"><ele>242.0</ele><time>2026-05-04T03:12:14.999Z</time></trkpt><trkpt lat="45.96808990704933" lon="12.229927020613896"><ele>242.0</ele><time>2026-05-04T03:12:15.999Z</time></trkpt><trkpt lat="45.968190755416934" lon="12.22998661995947"><ele>242.0</ele><time>2026-05-04T03:12:16.999Z</time></trkpt><trkpt lat="45.96826272573916" lon="12.230093866993764"><ele>242.0</ele><time>2026-05-04T03:12:17.999Z</time></trkpt><trkpt lat="45.96831142206846" lon="12.230230676587329"><ele>242.0</ele><time>2026-05-04T03:12:18.999Z</time></trkpt><trkpt lat="45.96833910535426" lon="12.230389725713884"><ele>242.0</ele><time>2026-05-04T03:12:19.999Z</time></trkpt><trkpt lat="45.96835743291549" lon="12.230553957284316"><ele>242.0</ele><time>2026-05-04T03:12:20.999Z</time></trkpt><trkpt lat="45.96838870794522" lon="12.230719903050012"><ele>242.0</ele><time>2026-05-04T03:12:21.999Z</time></trkpt><trkpt lat="45.96845476736446" lon="12.230871845454686"><ele>242.0</ele><time>2026-05-04T03:12:22.999Z</time></trkpt><trkpt lat="45.96854079667554" lon="12.231005268378008"><ele>245.0</ele><time>2026-05-04T03:12:23.999Z</time></trkpt><trkpt lat="45.96864145507978" lon="12.23110345220351"><ele>248.0</ele><time>2026-05-04T03:12:24.999Z</time></trkpt><trkpt lat="45.96875439124232" lon="12.231170526986908"><ele>251.0</ele><time>2026-05-04T03:12:25.999Z</time></trkpt><trkpt lat="45.96887929073121" lon="12.231196620383878"><ele>254.0</ele><time>2026-05-04T03:12:26.999Z</time></trkpt><trkpt lat="45.96900184587035" lon="12.231221006963139"><ele>254.0</ele><time>2026-05-04T03:12:27.999Z</time></trkpt><trkpt lat="45.96912459401475" lon="12.231272697440428"><ele>254.0</ele><time>2026-05-04T03:12:28.999Z</time></trkpt><trkpt lat="45.969229565875025" lon="12.231359305672374"><ele>254.0</ele><time>2026-05-04T03:12:29.999Z</time></trkpt><trkpt lat="45.96930504182472" lon="12.231478838011967"><ele>254.0</ele><time>2026-05-04T03:12:30.999Z</time></trkpt><trkpt lat="45.96933322983625" lon="12.231620319531832"><ele>254.79999999999998</ele><time>2026-05-04T03:12:31.999Z</time></trkpt><trkpt lat="45.96932716316347" lon="12.231765735362272"><ele>255.59999999999997</ele><time>2026-05-04T03:12:32.999Z</time></trkpt><trkpt lat="45.96928968811172" lon="12.231912689161867"><ele>256.4</ele><time>2026-05-04T03:12:33.999Z</time></trkpt><trkpt lat="45.969267342131964" lon="12.232057934258767"><ele>257.2</ele><time>2026-05-04T03:12:34.999Z</time></trkpt><trkpt lat="45.969277606190786" lon="12.232200627336747"><ele>258.0</ele><time>2026-05-04T03:12:35.999Z</time></trkpt><trkpt lat="45.969320424673704" lon="12.232331864228557"><ele>258.0</ele><time>2026-05-04T03:12:36.999Z</time></trkpt><trkpt lat="45.969386786456305" lon="12.232448828154379"><ele>258.0</ele><time>2026-05-04T03:12:37.999Z</time></trkpt><trkpt lat="45.96946713865287" lon="12.23255383774153"><ele>258.0</ele><time>2026-05-04T03:12:38.999Z</time></trkpt><trkpt lat="45.969559726320085" lon="12.2326517071063"><ele>258.0</ele><time>2026-05-04T03:12:39.999Z</time></trkpt><trkpt lat="45.96965653959799" lon="12.232761541786303"><ele>258.0</ele><time>2026-05-04T03:12:40.999Z</time></trkpt><trkpt lat="45.96976007875977" lon="12.23287566537524"><ele>258.0</ele><time>2026-05-04T03:12:41.999Z</time></trkpt><trkpt lat="45.96986553816135" lon="12.232994260935126"><ele>258.0</ele><time>2026-05-04T03:12:42.999Z</time></trkpt><trkpt lat="45.96997509277154" lon="12.23311631568901"><ele>258.0</ele><time>2026-05-04T03:12:43.999Z</time></trkpt><trkpt lat="45.97008894300774" lon="12.233241477539087"><ele>258.25</ele><time>2026-05-04T03:12:44.999Z</time></trkpt><trkpt lat="45.9702049210987" lon="12.233369150292077"><ele>258.5</ele><time>2026-05-04T03:12:46Z</time></trkpt><trkpt lat="45.97032160016614" lon="12.233498118381565"><ele>258.75</ele><time>2026-05-04T03:12:47Z</time></trkpt><trkpt lat="45.97043631601243" lon="12.233624653552964"><ele>259.0</ele><time>2026-05-04T03:12:48Z</time></trkpt><trkpt lat="45.97056183431599" lon="12.233727200952544"><ele>259.0</ele><time>2026-05-04T03:12:49Z</time></trkpt><trkpt lat="45.97069262714577" lon="12.233815037765387"><ele>259.0</ele><time>2026-05-04T03:12:50Z</time></trkpt><trkpt lat="45.97082967099355" lon="12.233887455344835"><ele>259.0</ele><time>2026-05-04T03:12:51Z</time></trkpt><trkpt lat="45.97096961490242" lon="12.233938114422818"><ele>259.0</ele><time>2026-05-04T03:12:52Z</time></trkpt><trkpt lat="45.97111453422055" lon="12.233970037852357"><ele>259.75</ele><time>2026-05-04T03:12:53Z</time></trkpt><trkpt lat="45.971257943837415" lon="12.23398953980125"><ele>260.5</ele><time>2026-05-04T03:12:54Z</time></trkpt><trkpt lat="45.97140273521591" lon="12.233983343246031"><ele>261.25</ele><time>2026-05-04T03:12:55Z</time></trkpt><trkpt lat="45.97154754792196" lon="12.233948772927665"><ele>262.0</ele><time>2026-05-04T03:12:56Z</time></trkpt><trkpt lat="45.9716892699541" lon="12.23389222830215"><ele>264.0</ele><time>2026-05-04T03:12:57Z</time></trkpt><trkpt lat="45.97182840510979" lon="12.233819832969928"><ele>266.0</ele><time>2026-05-04T03:12:58Z</time></trkpt><trkpt lat="45.97196229608484" lon="12.23372094482527"><ele>268.0</ele><time>2026-05-04T03:12:59Z</time></trkpt><trkpt lat="45.972084031857925" lon="12.233593822608473"><ele>270.0</ele><time>2026-05-04T03:13:00Z</time></trkpt><trkpt lat="45.97219479213628" lon="12.233441943868565"><ele>270.0</ele><time>2026-05-04T03:13:01Z</time></trkpt><trkpt lat="45.97229422987469" lon="12.23327087341207"><ele>270.0</ele><time>2026-05-04T03:13:02Z</time></trkpt><trkpt lat="45.972391464013775" lon="12.233092187663464"><ele>270.0</ele><time>2026-05-04T03:13:03Z</time></trkpt><trkpt lat="45.972498876296726" lon="12.232917191620865"><ele>271.3333333333333</ele><time>2026-05-04T03:13:04Z</time></trkpt><trkpt lat="45.97260933624068" lon="12.232741248975868"><ele>272.66666666666663</ele><time>2026-05-04T03:13:05Z</time></trkpt><trkpt lat="45.97271959972081" lon="12.232566614346727"><ele>274.0</ele><time>2026-05-04T03:13:06Z</time></trkpt><trkpt lat="45.972830445904556" lon="12.23240108019905"><ele>272.66666666666663</ele><time>2026-05-04T03:13:07Z</time></trkpt><trkpt lat="45.972941173119544" lon="12.232237975245537"><ele>271.3333333333333</ele><time>2026-05-04T03:13:08Z</time></trkpt><trkpt lat="45.97306080447353" lon="12.232086515805124"><ele>270.0</ele><time>2026-05-04T03:13:09Z</time></trkpt><trkpt lat="45.97318398671861" lon="12.231942622295627"><ele>270.0</ele><time>2026-05-04T03:13:10Z</time></trkpt><trkpt lat="45.973311384271604" lon="12.231804140997157"><ele>270.0</ele><time>2026-05-04T03:13:11Z</time></trkpt><trkpt lat="45.97344232279807" lon="12.231667848428044"><ele>270.0</ele><time>2026-05-04T03:13:12Z</time></trkpt><trkpt lat="45.973574746391215" lon="12.231534903132724"><ele>270.0</ele><time>2026-05-04T03:13:13Z</time></trkpt><trkpt lat="45.97371582485759" lon="12.231418977960347"><ele>270.0</ele><time>2026-05-04T03:13:14Z</time></trkpt><trkpt lat="45.973863225406255" lon="12.231320677388224"><ele>270.0</ele><time>2026-05-04T03:13:15Z</time></trkpt><trkpt lat="45.97401745491904" lon="12.231242208456582"><ele>270.0</ele><time>2026-05-04T03:13:16Z</time></trkpt><trkpt lat="45.974175938202194" lon="12.231187022191254"><ele>270.0</ele><time>2026-05-04T03:13:17Z</time></trkpt><trkpt lat="45.974337090224125" lon="12.2311621380545"><ele>270.0</ele><time>2026-05-04T03:13:18Z</time></trkpt><trkpt lat="45.974500073686386" lon="12.231156388230128"><ele>270.0</ele><time>2026-05-04T03:13:19Z</time></trkpt><trkpt lat="45.9746649341919" lon="12.231152866406843"><ele>270.0</ele><time>2026-05-04T03:13:20Z</time></trkpt><trkpt lat="45.97482892029397" lon="12.231148359221756"><ele>270.0</ele><time>2026-05-04T03:13:21Z</time></trkpt><trkpt lat="45.974993051378334" lon="12.231143349504702"><ele>271.3333333333333</ele><time>2026-05-04T03:13:22Z</time></trkpt><trkpt lat="45.97515899096472" lon="12.231139394391935"><ele>272.66666666666663</ele><time>2026-05-04T03:13:23Z</time></trkpt><trkpt lat="45.975324866961394" lon="12.231130718271286"><ele>274.0</ele><time>2026-05-04T03:13:24Z</time></trkpt><trkpt lat="45.975491815964816" lon="12.231117016528403"><ele>274.0</ele><time>2026-05-04T03:13:25Z</time></trkpt><trkpt lat="45.97565855763526" lon="12.231100538239172"><ele>274.0</ele><time>2026-05-04T03:13:26Z</time></trkpt><trkpt lat="45.97582701694038" lon="12.231080568894747"><ele>274.0</ele><time>2026-05-04T03:13:27Z</time></trkpt><trkpt lat="45.97599395845285" lon="12.231057330058505"><ele>274.3333333333333</ele><time>2026-05-04T03:13:28Z</time></trkpt><trkpt lat="45.976162530597804" lon="12.231032169807152"><ele>274.6666666666667</ele><time>2026-05-04T03:13:29Z</time></trkpt><trkpt lat="45.97633334329778" lon="12.231010254296908"><ele>275.0</ele><time>2026-05-04T03:13:30Z</time></trkpt><trkpt lat="45.97650295523676" lon="12.230985746958602"><ele>275.0</ele><time>2026-05-04T03:13:31Z</time></trkpt><trkpt lat="45.97667310259247" lon="12.230961565966508"><ele>275.0</ele><time>2026-05-04T03:13:32Z</time></trkpt><trkpt lat="45.97684441500096" lon="12.230938858299567"><ele>275.0</ele><time>2026-05-04T03:13:33Z</time></trkpt><trkpt lat="45.97701671329856" lon="12.23091586372312"><ele>276.0</ele><time>2026-05-04T03:13:34Z</time></trkpt><trkpt lat="45.97718969372567" lon="12.230892969250343"><ele>277.0</ele><time>2026-05-04T03:13:35Z</time></trkpt><trkpt lat="45.977363040337" lon="12.230869313211688"><ele>278.0</ele><time>2026-05-04T03:13:36Z</time></trkpt><trkpt lat="45.97753571443549" lon="12.230845057922963"><ele>278.33333333333337</ele><time>2026-05-04T03:13:37Z</time></trkpt><trkpt lat="45.977710130749635" lon="12.230821704078675"><ele>278.6666666666667</ele><time>2026-05-04T03:13:38Z</time></trkpt><trkpt lat="45.97788431469314" lon="12.230798887841246"><ele>279.0</ele><time>2026-05-04T03:13:39Z</time></trkpt><trkpt lat="45.97805938790622" lon="12.230775429647244"><ele>279.0</ele><time>2026-05-04T03:13:40Z</time></trkpt><trkpt lat="45.978235056771354" lon="12.230751382981241"><ele>279.0</ele><time>2026-05-04T03:13:41Z</time></trkpt><trkpt lat="45.97841048859884" lon="12.230730950515511"><ele>279.0</ele><time>2026-05-04T03:13:42Z</time></trkpt><trkpt lat="45.97858664904877" lon="12.230697822299863"><ele>280.3333333333333</ele><time>2026-05-04T03:13:43Z</time></trkpt><trkpt lat="45.97876609879366" lon="12.230672909022555"><ele>281.66666666666663</ele><time>2026-05-04T03:13:44Z</time></trkpt><trkpt lat="45.978930280571234" lon="12.230594462974683"><ele>283.0</ele><time>2026-05-04T03:13:45Z</time></trkpt><trkpt lat="45.97908444129047" lon="12.230498331688983"><ele>280.3333333333333</ele><time>2026-05-04T03:13:46Z</time></trkpt><trkpt lat="45.97922568492857" lon="12.230359361482021"><ele>277.6666666666667</ele><time>2026-05-04T03:13:47Z</time></trkpt><trkpt lat="45.97935209795979" lon="12.23020290486611"><ele>275.0</ele><time>2026-05-04T03:13:48Z</time></trkpt><trkpt lat="45.979481698020464" lon="12.230072861659288"><ele>275.0</ele><time>2026-05-04T03:13:49Z</time></trkpt><trkpt lat="45.97959957279671" lon="12.229954904756315"><ele>275.0</ele><time>2026-05-04T03:13:50Z</time></trkpt><trkpt lat="45.97969642789398" lon="12.229847927386771"><ele>275.0</ele><time>2026-05-04T03:13:50.999Z</time></trkpt><trkpt lat="45.97978679663966" lon="12.229757371641034"><ele>275.0</ele><time>2026-05-04T03:13:51.999Z</time></trkpt><trkpt lat="45.97985625738261" lon="12.22962724469638"><ele>273.25</ele><time>2026-05-04T03:13:52.999Z</time></trkpt><trkpt lat="45.979894786397736" lon="12.229463218232086"><ele>271.5</ele><time>2026-05-04T03:13:53.999Z</time></trkpt><trkpt lat="45.979912995340605" lon="12.229297059279705"><ele>269.75</ele><time>2026-05-04T03:13:54.999Z</time></trkpt><trkpt lat="45.97989546421637" lon="12.22911663264029"><ele>268.0</ele><time>2026-05-04T03:13:55.999Z</time></trkpt><trkpt lat="45.97983652121195" lon="12.228944646707964"><ele>265.75</ele><time>2026-05-04T03:13:56.999Z</time></trkpt><trkpt lat="45.97973605440263" lon="12.228804456777842"><ele>263.5</ele><time>2026-05-04T03:13:57.999Z</time></trkpt><trkpt lat="45.97963823016697" lon="12.22866363884117"><ele>261.25</ele><time>2026-05-04T03:13:58.999Z</time></trkpt><trkpt lat="45.979528559077224" lon="12.22851932867779"><ele>259.0</ele><time>2026-05-04T03:13:59.999Z</time></trkpt><trkpt lat="45.97941853115712" lon="12.228355997196033"><ele>259.0</ele><time>2026-05-04T03:14:00.999Z</time></trkpt><trkpt lat="45.979319212988194" lon="12.22816907789881"><ele>259.0</ele><time>2026-05-04T03:14:01.999Z</time></trkpt><trkpt lat="45.97923096343217" lon="12.227958821702577"><ele>259.0</ele><time>2026-05-04T03:14:02.999Z</time></trkpt><trkpt lat="45.979157500726195" lon="12.22772788335151"><ele>258.66666666666663</ele><time>2026-05-04T03:14:03.999Z</time></trkpt><trkpt lat="45.97909432248844" lon="12.227482338072342"><ele>258.3333333333333</ele><time>2026-05-04T03:14:04.999Z</time></trkpt><trkpt lat="45.979032016949304" lon="12.227230279633682"><ele>258.0</ele><time>2026-05-04T03:14:05.999Z</time></trkpt><trkpt lat="45.978972072623016" lon="12.226984494697492"><ele>258.0</ele><time>2026-05-04T03:14:06.999Z</time></trkpt><trkpt lat="45.97891003297069" lon="12.226740721673986"><ele>258.0</ele><time>2026-05-04T03:14:07.999Z</time></trkpt><trkpt lat="45.978848957066916" lon="12.226494940982855"><ele>258.0</ele><time>2026-05-04T03:14:08.999Z</time></trkpt><trkpt lat="45.97879104330779" lon="12.226246003738707"><ele>256.3333333333333</ele><time>2026-05-04T03:14:09.999Z</time></trkpt><trkpt lat="45.97873287666607" lon="12.225990225827337"><ele>254.66666666666666</ele><time>2026-05-04T03:14:10.999Z</time></trkpt><trkpt lat="45.97867816859775" lon="12.225729143267133"><ele>253.0</ele><time>2026-05-04T03:14:11.999Z</time></trkpt><trkpt lat="45.978624657690716" lon="12.22546565993924"><ele>252.33333333333331</ele><time>2026-05-04T03:14:12.999Z</time></trkpt><trkpt lat="45.978572357697054" lon="12.225196823732306"><ele>251.66666666666669</ele><time>2026-05-04T03:14:13.999Z</time></trkpt><trkpt lat="45.978511542791495" lon="12.224929661161573"><ele>251.0</ele><time>2026-05-04T03:14:14.999Z</time></trkpt><trkpt lat="45.97844541195789" lon="12.224663961411531"><ele>250.33333333333334</ele><time>2026-05-04T03:14:15.999Z</time></trkpt><trkpt lat="45.97837404327064" lon="12.224396003969753"><ele>249.66666666666669</ele><time>2026-05-04T03:14:16.999Z</time></trkpt><trkpt lat="45.97830172484285" lon="12.224123601224033"><ele>249.0</ele><time>2026-05-04T03:14:17.999Z</time></trkpt><trkpt lat="45.97823289822642" lon="12.223845809450939"><ele>249.0</ele><time>2026-05-04T03:14:18.999Z</time></trkpt><trkpt lat="45.978165968025046" lon="12.22356734807333"><ele>249.0</ele><time>2026-05-04T03:14:19.999Z</time></trkpt><trkpt lat="45.97810212776092" lon="12.223289667519229"><ele>249.0</ele><time>2026-05-04T03:14:20.999Z</time></trkpt><trkpt lat="45.978035953668616" lon="12.223011961597738"><ele>247.66666666666669</ele><time>2026-05-04T03:14:21.999Z</time></trkpt><trkpt lat="45.97797175985264" lon="12.222735180323463"><ele>246.33333333333334</ele><time>2026-05-04T03:14:22.999Z</time></trkpt><trkpt lat="45.977908401544106" lon="12.222457775407337"><ele>245.0</ele><time>2026-05-04T03:14:23.999Z</time></trkpt><trkpt lat="45.977844839689624" lon="12.222180148292479"><ele>244.0</ele><time>2026-05-04T03:14:24.999Z</time></trkpt><trkpt lat="45.977780814987284" lon="12.221904767269802"><ele>243.0</ele><time>2026-05-04T03:14:25.999Z</time></trkpt><trkpt lat="45.97771970878171" lon="12.22162863655507"><ele>242.0</ele><time>2026-05-04T03:14:26.999Z</time></trkpt><trkpt lat="45.977659242062785" lon="12.221353145194552"><ele>242.66666666666669</ele><time>2026-05-04T03:14:27.999Z</time></trkpt><trkpt lat="45.97759972217788" lon="12.221078839154398"><ele>243.33333333333331</ele><time>2026-05-04T03:14:28.999Z</time></trkpt><trkpt lat="45.97754211255196" lon="12.220803834332795"><ele>244.0</ele><time>2026-05-04T03:14:29.999Z</time></trkpt><trkpt lat="45.97748428560741" lon="12.220529878555576"><ele>244.0</ele><time>2026-05-04T03:14:30.999Z</time></trkpt><trkpt lat="45.977431589665755" lon="12.220252638540915"><ele>244.0</ele><time>2026-05-04T03:14:31.999Z</time></trkpt><trkpt lat="45.9773867314153" lon="12.219971235164126"><ele>244.0</ele><time>2026-05-04T03:14:32.999Z</time></trkpt><trkpt lat="45.97734833609116" lon="12.219684648902893"><ele>243.33333333333331</ele><time>2026-05-04T03:14:33.999Z</time></trkpt><trkpt lat="45.97731466633043" lon="12.219396018797763"><ele>242.66666666666669</ele><time>2026-05-04T03:14:34.999Z</time></trkpt><trkpt lat="45.97728315499859" lon="12.219105484596907"><ele>242.0</ele><time>2026-05-04T03:14:35.999Z</time></trkpt><trkpt lat="45.97725021172985" lon="12.218812765316482"><ele>240.66666666666669</ele><time>2026-05-04T03:14:36.999Z</time></trkpt><trkpt lat="45.97721889194213" lon="12.218521014587088"><ele>239.33333333333331</ele><time>2026-05-04T03:14:37.999Z</time></trkpt><trkpt lat="45.97718731595286" lon="12.218229111383987"><ele>238.0</ele><time>2026-05-04T03:14:38.999Z</time></trkpt><trkpt lat="45.97715486468693" lon="12.21793603995089"><ele>237.33333333333331</ele><time>2026-05-04T03:14:39.999Z</time></trkpt><trkpt lat="45.977121665615655" lon="12.217642586757483"><ele>236.66666666666669</ele><time>2026-05-04T03:14:40.999Z</time></trkpt><trkpt lat="45.97708819449043" lon="12.217350812536973"><ele>236.0</ele><time>2026-05-04T03:14:41.999Z</time></trkpt><trkpt lat="45.97705533183147" lon="12.217068331313373"><ele>235.33333333333334</ele><time>2026-05-04T03:14:42.999Z</time></trkpt><trkpt lat="45.97702452252437" lon="12.216799850286293"><ele>234.66666666666669</ele><time>2026-05-04T03:14:43.999Z</time></trkpt><trkpt lat="45.97699623959674" lon="12.216551923742474"><ele>234.0</ele><time>2026-05-04T03:14:44.999Z</time></trkpt><trkpt lat="45.97697114995121" lon="12.216322527115318"><ele>232.66666666666669</ele><time>2026-05-04T03:14:45.999Z</time></trkpt><trkpt lat="45.97695929799582" lon="12.216102185254336"><ele>231.33333333333334</ele><time>2026-05-04T03:14:46.999Z</time></trkpt><trkpt lat="45.976972087601986" lon="12.215887345173977"><ele>230.0</ele><time>2026-05-04T03:14:47.999Z</time></trkpt><trkpt lat="45.97700655315139" lon="12.21568302619394"><ele>229.33333333333334</ele><time>2026-05-04T03:14:48.999Z</time></trkpt><trkpt lat="45.97707794315384" lon="12.215494718422038"><ele>228.66666666666669</ele><time>2026-05-04T03:14:49.999Z</time></trkpt><trkpt lat="45.97717867724128" lon="12.215329541950203"><ele>228.0</ele><time>2026-05-04T03:14:51Z</time></trkpt><trkpt lat="45.97730636174167" lon="12.215206105557332"><ele>228.0</ele><time>2026-05-04T03:14:52Z</time></trkpt><trkpt lat="45.977458268781774" lon="12.215117822979478"><ele>228.0</ele><time>2026-05-04T03:14:53Z</time></trkpt><trkpt lat="45.97760455429039" lon="12.215017534191164"><ele>228.0</ele><time>2026-05-04T03:14:54Z</time></trkpt><trkpt lat="45.977757390940646" lon="12.214911043302207"><ele>227.0</ele><time>2026-05-04T03:14:55Z</time></trkpt><trkpt lat="45.97791371115203" lon="12.214799994594976"><ele>226.0</ele><time>2026-05-04T03:14:56Z</time></trkpt><trkpt lat="45.97807608708282" lon="12.214687942096361"><ele>225.0</ele><time>2026-05-04T03:14:57Z</time></trkpt><trkpt lat="45.97824149596439" lon="12.214572458982163"><ele>225.0</ele><time>2026-05-04T03:14:58Z</time></trkpt><trkpt lat="45.978409735842526" lon="12.214454551215145"><ele>225.0</ele><time>2026-05-04T03:14:59Z</time></trkpt><trkpt lat="45.97858195934231" lon="12.214333677266211"><ele>225.0</ele><time>2026-05-04T03:15:00Z</time></trkpt><trkpt lat="45.97875669791518" lon="12.214211099267686"><ele>225.0</ele><time>2026-05-04T03:15:01Z</time></trkpt><trkpt lat="45.97893402018379" lon="12.21408740225603"><ele>225.0</ele><time>2026-05-04T03:15:02Z</time></trkpt><trkpt lat="45.97911235962027" lon="12.213962969694128"><ele>225.0</ele><time>2026-05-04T03:15:03Z</time></trkpt><trkpt lat="45.979290557004056" lon="12.213836647952045"><ele>224.33333333333331</ele><time>2026-05-04T03:15:04Z</time></trkpt><trkpt lat="45.979470953884096" lon="12.213710065246387"><ele>223.66666666666666</ele><time>2026-05-04T03:15:05Z</time></trkpt><trkpt lat="45.97965268622002" lon="12.213583495168944"><ele>223.0</ele><time>2026-05-04T03:15:06Z</time></trkpt><trkpt lat="45.97983460388232" lon="12.213455664517868"><ele>223.66666666666666</ele><time>2026-05-04T03:15:07Z</time></trkpt><trkpt lat="45.980017404208496" lon="12.213327631946715"><ele>224.33333333333331</ele><time>2026-05-04T03:15:08Z</time></trkpt><trkpt lat="45.98019946289483" lon="12.213199268728525"><ele>225.0</ele><time>2026-05-04T03:15:09Z</time></trkpt><trkpt lat="45.9803815431107" lon="12.21307066033909"><ele>225.0</ele><time>2026-05-04T03:15:10Z</time></trkpt><trkpt lat="45.98056465607496" lon="12.212944452316467"><ele>225.0</ele><time>2026-05-04T03:15:11Z</time></trkpt><trkpt lat="45.98074637117534" lon="12.212815825376978"><ele>225.0</ele><time>2026-05-04T03:15:12Z</time></trkpt><trkpt lat="45.9809278424949" lon="12.212689076597446"><ele>224.66666666666669</ele><time>2026-05-04T03:15:13Z</time></trkpt><trkpt lat="45.981108608220026" lon="12.21256358115485"><ele>224.33333333333334</ele><time>2026-05-04T03:15:14Z</time></trkpt><trkpt lat="45.98128887071357" lon="12.212435859193723"><ele>224.0</ele><time>2026-05-04T03:15:15Z</time></trkpt><trkpt lat="45.981469126145164" lon="12.212308214792298"><ele>223.66666666666669</ele><time>2026-05-04T03:15:16Z</time></trkpt><trkpt lat="45.98164858610904" lon="12.212181001787055"><ele>223.33333333333331</ele><time>2026-05-04T03:15:17Z</time></trkpt><trkpt lat="45.98182741707389" lon="12.212054440145765"><ele>223.0</ele><time>2026-05-04T03:15:18Z</time></trkpt><trkpt lat="45.98200354698823" lon="12.211928034321504"><ele>223.0</ele><time>2026-05-04T03:15:19Z</time></trkpt><trkpt lat="45.98217822474686" lon="12.211804092349011"><ele>223.0</ele><time>2026-05-04T03:15:20Z</time></trkpt><trkpt lat="45.98235233392193" lon="12.211682283369852"><ele>223.0</ele><time>2026-05-04T03:15:21Z</time></trkpt><trkpt lat="45.98252676315752" lon="12.211559620808949"><ele>224.0</ele><time>2026-05-04T03:15:22Z</time></trkpt><trkpt lat="45.982698991247396" lon="12.211439872193655"><ele>225.0</ele><time>2026-05-04T03:15:23Z</time></trkpt><trkpt lat="45.98286994689405" lon="12.21132138795342"><ele>226.0</ele><time>2026-05-04T03:15:24Z</time></trkpt><trkpt lat="45.98303254960524" lon="12.211209547427291"><ele>226.0</ele><time>2026-05-04T03:15:25Z</time></trkpt><trkpt lat="45.983185215209176" lon="12.211103055989856"><ele>226.0</ele><time>2026-05-04T03:15:26Z</time></trkpt><trkpt lat="45.983324492485885" lon="12.210983950251945"><ele>226.0</ele><time>2026-05-04T03:15:27Z</time></trkpt><trkpt lat="45.98344085066285" lon="12.210835228930852"><ele>228.0</ele><time>2026-05-04T03:15:28Z</time></trkpt><trkpt lat="45.98354047870519" lon="12.210667102888875"><ele>230.0</ele><time>2026-05-04T03:15:29Z</time></trkpt><trkpt lat="45.98359644946112" lon="12.210461602528538"><ele>232.0</ele><time>2026-05-04T03:15:30Z</time></trkpt><trkpt lat="45.983616107107714" lon="12.210246318776576"><ele>232.5</ele><time>2026-05-04T03:15:31Z</time></trkpt><trkpt lat="45.98359397630632" lon="12.210032601207272"><ele>233.0</ele><time>2026-05-04T03:15:32Z</time></trkpt><trkpt lat="45.98353642739902" lon="12.20983608876388"><ele>233.5</ele><time>2026-05-04T03:15:33Z</time></trkpt><trkpt lat="45.98345590550912" lon="12.209652638771423"><ele>234.0</ele><time>2026-05-04T03:15:34Z</time></trkpt><trkpt lat="45.983372928413786" lon="12.209467088574089"><ele>233.66666666666669</ele><time>2026-05-04T03:15:35Z</time></trkpt><trkpt lat="45.98330202872767" lon="12.209265940525249"><ele>233.33333333333334</ele><time>2026-05-04T03:15:36Z</time></trkpt><trkpt lat="45.983235323399676" lon="12.20905359237191"><ele>233.0</ele><time>2026-05-04T03:15:37Z</time></trkpt><trkpt lat="45.983170863124855" lon="12.208833915474157"><ele>233.0</ele><time>2026-05-04T03:15:38Z</time></trkpt><trkpt lat="45.983105705108294" lon="12.208609100869644"><ele>233.0</ele><time>2026-05-04T03:15:39Z</time></trkpt><trkpt lat="45.983040959299736" lon="12.208377436496358"><ele>233.0</ele><time>2026-05-04T03:15:40Z</time></trkpt><trkpt lat="45.982974534445866" lon="12.208141024966261"><ele>234.33333333333334</ele><time>2026-05-04T03:15:41Z</time></trkpt><trkpt lat="45.98290689719272" lon="12.207898790719874"><ele>235.66666666666669</ele><time>2026-05-04T03:15:42Z</time></trkpt><trkpt lat="45.982837954377324" lon="12.207652840567174"><ele>237.0</ele><time>2026-05-04T03:15:43Z</time></trkpt><trkpt lat="45.98276889306294" lon="12.207402867372828"><ele>236.66666666666669</ele><time>2026-05-04T03:15:44Z</time></trkpt><trkpt lat="45.98269939039371" lon="12.207150984338151"><ele>236.33333333333334</ele><time>2026-05-04T03:15:45Z</time></trkpt><trkpt lat="45.98262946679436" lon="12.206898615199648"><ele>236.0</ele><time>2026-05-04T03:15:46Z</time></trkpt><trkpt lat="45.98255741236697" lon="12.206646560460698"><ele>235.33333333333334</ele><time>2026-05-04T03:15:47Z</time></trkpt><trkpt lat="45.98248704271099" lon="12.206393356946263"><ele>234.66666666666669</ele><time>2026-05-04T03:15:47.999Z</time></trkpt><trkpt lat="45.98241569536926" lon="12.206139957381074"><ele>234.0</ele><time>2026-05-04T03:15:48.999Z</time></trkpt><trkpt lat="45.982344891384926" lon="12.205885816726681"><ele>234.66666666666669</ele><time>2026-05-04T03:15:49.999Z</time></trkpt><trkpt lat="45.982274781805565" lon="12.205629955247371"><ele>235.33333333333334</ele><time>2026-05-04T03:15:50.999Z</time></trkpt><trkpt lat="45.98220424678542" lon="12.205372985702269"><ele>236.0</ele><time>2026-05-04T03:15:51.999Z</time></trkpt><trkpt lat="45.982133010338664" lon="12.205116961541501"><ele>236.0</ele><time>2026-05-04T03:15:52.999Z</time></trkpt><trkpt lat="45.98206179094455" lon="12.204858761987873"><ele>236.0</ele><time>2026-05-04T03:15:53.999Z</time></trkpt><trkpt lat="45.981989910012345" lon="12.204601520334027"><ele>236.0</ele><time>2026-05-04T03:15:54.999Z</time></trkpt><trkpt lat="45.98191840195598" lon="12.20434371377522"><ele>237.0</ele><time>2026-05-04T03:15:55.999Z</time></trkpt><trkpt lat="45.981846475243934" lon="12.204085842722554"><ele>238.0</ele><time>2026-05-04T03:15:56.999Z</time></trkpt><trkpt lat="45.9817730143608" lon="12.203827805507347"><ele>239.0</ele><time>2026-05-04T03:15:57.999Z</time></trkpt><trkpt lat="45.981700474889855" lon="12.203568751116121"><ele>237.0</ele><time>2026-05-04T03:15:58.999Z</time></trkpt><trkpt lat="45.98162664637596" lon="12.20331017228383"><ele>235.0</ele><time>2026-05-04T03:15:59.999Z</time></trkpt><trkpt lat="45.98155166046568" lon="12.203050653158208"><ele>233.0</ele><time>2026-05-04T03:16:00.999Z</time></trkpt><trkpt lat="45.98147628696363" lon="12.202791574230254"><ele>233.0</ele><time>2026-05-04T03:16:01.999Z</time></trkpt><trkpt lat="45.981398392696306" lon="12.2025335163826"><ele>233.0</ele><time>2026-05-04T03:16:02.999Z</time></trkpt><trkpt lat="45.98133329452002" lon="12.202264693178982"><ele>233.0</ele><time>2026-05-04T03:16:03.999Z</time></trkpt><trkpt lat="45.9812463205549" lon="12.202009868558156"><ele>233.0</ele><time>2026-05-04T03:16:04.999Z</time></trkpt><trkpt lat="45.981149745830365" lon="12.201759683441527"><ele>233.0</ele><time>2026-05-04T03:16:05.999Z</time></trkpt><trkpt lat="45.981047220606975" lon="12.201514263005373"><ele>233.0</ele><time>2026-05-04T03:16:06.999Z</time></trkpt><trkpt lat="45.98094037244574" lon="12.201273374906659"><ele>232.66666666666669</ele><time>2026-05-04T03:16:07.999Z</time></trkpt><trkpt lat="45.980832463182736" lon="12.201030794309512"><ele>232.33333333333331</ele><time>2026-05-04T03:16:08.999Z</time></trkpt><trkpt lat="45.98071205142809" lon="12.200800492832652"><ele>232.0</ele><time>2026-05-04T03:16:09.999Z</time></trkpt><trkpt lat="45.98060625502644" lon="12.200555236746757"><ele>232.0</ele><time>2026-05-04T03:16:10.999Z</time></trkpt><trkpt lat="45.980498083963234" lon="12.20031150456043"><ele>232.0</ele><time>2026-05-04T03:16:11.999Z</time></trkpt><trkpt lat="45.9803914375056" lon="12.200065637762826"><ele>232.0</ele><time>2026-05-04T03:16:12.999Z</time></trkpt><trkpt lat="45.98028345078376" lon="12.199820987231945"><ele>231.33333333333331</ele><time>2026-05-04T03:16:13.999Z</time></trkpt><trkpt lat="45.980174192577145" lon="12.199578445870376"><ele>230.66666666666669</ele><time>2026-05-04T03:16:14.999Z</time></trkpt><trkpt lat="45.980065830931075" lon="12.199333017255187"><ele>230.0</ele><time>2026-05-04T03:16:15.999Z</time></trkpt><trkpt lat="45.97995807270408" lon="12.199088754802993"><ele>230.0</ele><time>2026-05-04T03:16:16.999Z</time></trkpt><trkpt lat="45.97985200363287" lon="12.19884361406176"><ele>230.0</ele><time>2026-05-04T03:16:17.999Z</time></trkpt><trkpt lat="45.97974587504321" lon="12.198600490594036"><ele>230.0</ele><time>2026-05-04T03:16:18.999Z</time></trkpt><trkpt lat="45.97963952631525" lon="12.198359830688386"><ele>230.0</ele><time>2026-05-04T03:16:19.999Z</time></trkpt><trkpt lat="45.97953385223733" lon="12.198119180460559"><ele>230.0</ele><time>2026-05-04T03:16:20.999Z</time></trkpt><trkpt lat="45.979427524276296" lon="12.197882681684519"><ele>230.0</ele><time>2026-05-04T03:16:21.999Z</time></trkpt><trkpt lat="45.97932237174553" lon="12.19764640160986"><ele>230.0</ele><time>2026-05-04T03:16:22.999Z</time></trkpt><trkpt lat="45.97921785281155" lon="12.197408596483948"><ele>230.0</ele><time>2026-05-04T03:16:23.999Z</time></trkpt><trkpt lat="45.97910990469203" lon="12.197170669568226"><ele>230.0</ele><time>2026-05-04T03:16:24.999Z</time></trkpt><trkpt lat="45.97900545085852" lon="12.19692649090084"><ele>229.0</ele><time>2026-05-04T03:16:25.999Z</time></trkpt><trkpt lat="45.97890483078744" lon="12.19667523062698"><ele>228.0</ele><time>2026-05-04T03:16:26.999Z</time></trkpt><trkpt lat="45.97880718019704" lon="12.196419341083276"><ele>227.0</ele><time>2026-05-04T03:16:27.999Z</time></trkpt><trkpt lat="45.978716229318806" lon="12.19615566220975"><ele>227.0</ele><time>2026-05-04T03:16:28.999Z</time></trkpt><trkpt lat="45.978630591813115" lon="12.195886680350963"><ele>227.0</ele><time>2026-05-04T03:16:29.999Z</time></trkpt><trkpt lat="45.97854519056194" lon="12.195615580589106"><ele>227.0</ele><time>2026-05-04T03:16:30.999Z</time></trkpt><trkpt lat="45.978461240534244" lon="12.195343245048443"><ele>228.0</ele><time>2026-05-04T03:16:31.999Z</time></trkpt><trkpt lat="45.978378876027556" lon="12.195070293869339"><ele>229.0</ele><time>2026-05-04T03:16:32.999Z</time></trkpt><trkpt lat="45.978295034815" lon="12.194797665196969"><ele>230.0</ele><time>2026-05-04T03:16:33.999Z</time></trkpt><trkpt lat="45.978212654088274" lon="12.194525039178794"><ele>230.0</ele><time>2026-05-04T03:16:34.999Z</time></trkpt><trkpt lat="45.97812965979352" lon="12.19425203226521"><ele>230.0</ele><time>2026-05-04T03:16:35.999Z</time></trkpt><trkpt lat="45.97804709320805" lon="12.193979192531556"><ele>230.0</ele><time>2026-05-04T03:16:36.999Z</time></trkpt><trkpt lat="45.97796540621969" lon="12.19370763945727"><ele>230.33333333333334</ele><time>2026-05-04T03:16:37.999Z</time></trkpt><trkpt lat="45.97788340653509" lon="12.193435775505554"><ele>230.66666666666669</ele><time>2026-05-04T03:16:38.999Z</time></trkpt><trkpt lat="45.97779980257278" lon="12.19316598515798"><ele>231.0</ele><time>2026-05-04T03:16:39.999Z</time></trkpt><trkpt lat="45.97773372567497" lon="12.192885748078469"><ele>231.33333333333331</ele><time>2026-05-04T03:16:40.999Z</time></trkpt><trkpt lat="45.9776531094156" lon="12.192614996388606"><ele>231.66666666666666</ele><time>2026-05-04T03:16:41.999Z</time></trkpt><trkpt lat="45.97757264516072" lon="12.192344700182465"><ele>232.0</ele><time>2026-05-04T03:16:42.999Z</time></trkpt><trkpt lat="45.977492397288074" lon="12.192075130669393"><ele>230.66666666666666</ele><time>2026-05-04T03:16:43.999Z</time></trkpt><trkpt lat="45.97741204309515" lon="12.191806377577517"><ele>229.33333333333331</ele><time>2026-05-04T03:16:44.999Z</time></trkpt><trkpt lat="45.97733187991861" lon="12.191539160007752"><ele>228.0</ele><time>2026-05-04T03:16:45.999Z</time></trkpt><trkpt lat="45.97725210381054" lon="12.191273233294217"><ele>227.33333333333331</ele><time>2026-05-04T03:16:46.999Z</time></trkpt><trkpt lat="45.977172523094055" lon="12.19100795798949"><ele>226.66666666666666</ele><time>2026-05-04T03:16:47.999Z</time></trkpt><trkpt lat="45.97709370630599" lon="12.190745229192078"><ele>226.0</ele><time>2026-05-04T03:16:48.999Z</time></trkpt><trkpt lat="45.97701597258239" lon="12.190484279943588"><ele>228.0</ele><time>2026-05-04T03:16:49.999Z</time></trkpt><trkpt lat="45.97693814095002" lon="12.19022465267606"><ele>230.0</ele><time>2026-05-04T03:16:50.999Z</time></trkpt><trkpt lat="45.97686011791647" lon="12.189966572424392"><ele>232.0</ele><time>2026-05-04T03:16:51.999Z</time></trkpt><trkpt lat="45.97676863269544" lon="12.189718150351373"><ele>232.33333333333331</ele><time>2026-05-04T03:16:52.999Z</time></trkpt><trkpt lat="45.97668635362087" lon="12.189464086740855"><ele>232.66666666666669</ele><time>2026-05-04T03:16:53.999Z</time></trkpt><trkpt lat="45.97659777640571" lon="12.189216240915858"><ele>233.0</ele><time>2026-05-04T03:16:54.999Z</time></trkpt><trkpt lat="45.976528568758845" lon="12.188954612995722"><ele>233.0</ele><time>2026-05-04T03:16:55.999Z</time></trkpt><trkpt lat="45.976445201608584" lon="12.188704682419289"><ele>233.0</ele><time>2026-05-04T03:16:57Z</time></trkpt><trkpt lat="45.97630564610666" lon="12.188492684826516"><ele>233.0</ele><time>2026-05-04T03:16:58Z</time></trkpt><trkpt lat="45.976205412113664" lon="12.18825636010418"><ele>235.33333333333334</ele><time>2026-05-04T03:16:59Z</time></trkpt><trkpt lat="45.97610545148182" lon="12.188019673590551"><ele>237.66666666666669</ele><time>2026-05-04T03:17:00Z</time></trkpt><trkpt lat="45.976006586986685" lon="12.187783008695744"><ele>240.0</ele><time>2026-05-04T03:17:01Z</time></trkpt><trkpt lat="45.97590762073278" lon="12.187547634329247"><ele>237.0</ele><time>2026-05-04T03:17:02Z</time></trkpt><trkpt lat="45.97580830553463" lon="12.187313791016019"><ele>234.0</ele><time>2026-05-04T03:17:03Z</time></trkpt><trkpt lat="45.97570941322424" lon="12.187079989273052"><ele>231.0</ele><time>2026-05-04T03:17:04Z</time></trkpt><trkpt lat="45.975612670197954" lon="12.186846236930101"><ele>231.0</ele><time>2026-05-04T03:17:05Z</time></trkpt><trkpt lat="45.975517419291826" lon="12.186611716578872"><ele>231.0</ele><time>2026-05-04T03:17:06Z</time></trkpt><trkpt lat="45.97542614085644" lon="12.186375061082094"><ele>231.0</ele><time>2026-05-04T03:17:07Z</time></trkpt><trkpt lat="45.97534134571009" lon="12.186135506478637"><ele>234.33333333333331</ele><time>2026-05-04T03:17:08Z</time></trkpt><trkpt lat="45.97526353872095" lon="12.18589218561553"><ele>237.66666666666666</ele><time>2026-05-04T03:17:09Z</time></trkpt><trkpt lat="45.975194610335826" lon="12.185644498998682"><ele>241.0</ele><time>2026-05-04T03:17:10Z</time></trkpt><trkpt lat="45.97513809069463" lon="12.185391658291525"><ele>243.0</ele><time>2026-05-04T03:17:11Z</time></trkpt><trkpt lat="45.975093116581924" lon="12.185134832595761"><ele>245.0</ele><time>2026-05-04T03:17:12Z</time></trkpt><trkpt lat="45.97505341577504" lon="12.184879543497779"><ele>247.0</ele><time>2026-05-04T03:17:13Z</time></trkpt><trkpt lat="45.97501514402773" lon="12.184624784709852"><ele>244.0</ele><time>2026-05-04T03:17:14Z</time></trkpt><trkpt lat="45.97498006205928" lon="12.184370269607092"><ele>241.0</ele><time>2026-05-04T03:17:15Z</time></trkpt><trkpt lat="45.97494501233682" lon="12.1841172714266"><ele>238.0</ele><time>2026-05-04T03:17:16Z</time></trkpt><trkpt lat="45.97491018913669" lon="12.183866808710654"><ele>238.0</ele><time>2026-05-04T03:17:17Z</time></trkpt><trkpt lat="45.97487434302473" lon="12.183617121339227"><ele>238.0</ele><time>2026-05-04T03:17:18Z</time></trkpt><trkpt lat="45.97483898164936" lon="12.183370411855671"><ele>238.0</ele><time>2026-05-04T03:17:19Z</time></trkpt><trkpt lat="45.97480391185367" lon="12.183126577009027"><ele>237.33333333333331</ele><time>2026-05-04T03:17:20Z</time></trkpt><trkpt lat="45.974768503113346" lon="12.182884823106765"><ele>236.66666666666669</ele><time>2026-05-04T03:17:21Z</time></trkpt><trkpt lat="45.974733486902885" lon="12.182644345846548"><ele>236.0</ele><time>2026-05-04T03:17:22Z</time></trkpt><trkpt lat="45.97469902923242" lon="12.182404826393812"><ele>234.33333333333334</ele><time>2026-05-04T03:17:23Z</time></trkpt><trkpt lat="45.97466364648948" lon="12.182167262874577"><ele>232.66666666666669</ele><time>2026-05-04T03:17:24Z</time></trkpt><trkpt lat="45.97462958270034" lon="12.181931090866097"><ele>231.0</ele><time>2026-05-04T03:17:25Z</time></trkpt><trkpt lat="45.97459562376416" lon="12.181694731643086"><ele>231.33333333333331</ele><time>2026-05-04T03:17:26Z</time></trkpt><trkpt lat="45.97456330204103" lon="12.181459512012065"><ele>231.66666666666666</ele><time>2026-05-04T03:17:27Z</time></trkpt><trkpt lat="45.97452958146674" lon="12.181224880437851"><ele>232.0</ele><time>2026-05-04T03:17:28Z</time></trkpt><trkpt lat="45.97449559336055" lon="12.180991789966383"><ele>232.0</ele><time>2026-05-04T03:17:29Z</time></trkpt><trkpt lat="45.97446324707704" lon="12.180759857620517"><ele>232.0</ele><time>2026-05-04T03:17:30Z</time></trkpt><trkpt lat="45.97443044919529" lon="12.180528290200792"><ele>232.0</ele><time>2026-05-04T03:17:31Z</time></trkpt><trkpt lat="45.97439713549902" lon="12.180297937330842"><ele>232.66666666666666</ele><time>2026-05-04T03:17:32Z</time></trkpt><trkpt lat="45.97436471645057" lon="12.180068557178178"><ele>233.33333333333331</ele><time>2026-05-04T03:17:33Z</time></trkpt><trkpt lat="45.974332773891625" lon="12.179841761268541"><ele>234.0</ele><time>2026-05-04T03:17:34Z</time></trkpt><trkpt lat="45.97429982125818" lon="12.179613570289337"><ele>235.0</ele><time>2026-05-04T03:17:35Z</time></trkpt><trkpt lat="45.97426628452739" lon="12.17938870284029"><ele>236.0</ele><time>2026-05-04T03:17:36Z</time></trkpt><trkpt lat="45.97423315636053" lon="12.179165756190729"><ele>237.0</ele><time>2026-05-04T03:17:37Z</time></trkpt><trkpt lat="45.974199904789266" lon="12.178943739952746"><ele>237.0</ele><time>2026-05-04T03:17:38Z</time></trkpt><trkpt lat="45.97416769707045" lon="12.17872266489078"><ele>237.0</ele><time>2026-05-04T03:17:39Z</time></trkpt><trkpt lat="45.974136777365196" lon="12.178502801963134"><ele>237.0</ele><time>2026-05-04T03:17:40Z</time></trkpt><trkpt lat="45.97410684614246" lon="12.178283399751265"><ele>236.75</ele><time>2026-05-04T03:17:41Z</time></trkpt><trkpt lat="45.97407684785781" lon="12.178067544949046"><ele>236.5</ele><time>2026-05-04T03:17:42Z</time></trkpt><trkpt lat="45.9740487363859" lon="12.177859431893076"><ele>236.25</ele><time>2026-05-04T03:17:43Z</time></trkpt><trkpt lat="45.974023706574066" lon="12.177657740973116"><ele>236.0</ele><time>2026-05-04T03:17:44Z</time></trkpt><trkpt lat="45.97399896941583" lon="12.177460809449279"><ele>235.75</ele><time>2026-05-04T03:17:45Z</time></trkpt><trkpt lat="45.97397591788805" lon="12.177267372892125"><ele>235.5</ele><time>2026-05-04T03:17:46Z</time></trkpt><trkpt lat="45.973953771795635" lon="12.177080899493884"><ele>235.25</ele><time>2026-05-04T03:17:47Z</time></trkpt><trkpt lat="45.97394000535164" lon="12.17690540357381"><ele>235.0</ele><time>2026-05-04T03:17:48Z</time></trkpt><trkpt lat="45.97392690747052" lon="12.176734669120222"><ele>235.0</ele><time>2026-05-04T03:17:49Z</time></trkpt><trkpt lat="45.97389292640862" lon="12.176566719606708"><ele>235.0</ele><time>2026-05-04T03:17:49.999Z</time></trkpt><trkpt lat="45.973846553178575" lon="12.176403624204942"><ele>235.0</ele><time>2026-05-04T03:17:50.999Z</time></trkpt><trkpt lat="45.973808857619574" lon="12.176223537031122"><ele>235.0</ele><time>2026-05-04T03:17:51.999Z</time></trkpt><trkpt lat="45.97377586179705" lon="12.176032946618378"><ele>235.25</ele><time>2026-05-04T03:17:52.999Z</time></trkpt><trkpt lat="45.97374824571962" lon="12.175833914805121"><ele>235.5</ele><time>2026-05-04T03:17:53.999Z</time></trkpt><trkpt lat="45.9737220587203" lon="12.175629413305415"><ele>235.75</ele><time>2026-05-04T03:17:54.999Z</time></trkpt><trkpt lat="45.973694676367835" lon="12.175418535203368"><ele>236.0</ele><time>2026-05-04T03:17:55.999Z</time></trkpt><trkpt lat="45.97366315110096" lon="12.175206131427357"><ele>236.66666666666669</ele><time>2026-05-04T03:17:56.999Z</time></trkpt><trkpt lat="45.97363391688168" lon="12.174984175058038"><ele>237.33333333333331</ele><time>2026-05-04T03:17:57.999Z</time></trkpt><trkpt lat="45.97360440804072" lon="12.174757073158649"><ele>238.0</ele><time>2026-05-04T03:17:58.999Z</time></trkpt><trkpt lat="45.973568344890104" lon="12.1745263400254"><ele>238.0</ele><time>2026-05-04T03:17:59.999Z</time></trkpt><trkpt lat="45.97352571605695" lon="12.174293962945603"><ele>238.0</ele><time>2026-05-04T03:18:00.999Z</time></trkpt><trkpt lat="45.973474190682296" lon="12.17405832382766"><ele>238.0</ele><time>2026-05-04T03:18:01.999Z</time></trkpt><trkpt lat="45.97341781826861" lon="12.173821019249523"><ele>238.66666666666666</ele><time>2026-05-04T03:18:02.999Z</time></trkpt><trkpt lat="45.973355104584755" lon="12.173582373148797"><ele>239.33333333333331</ele><time>2026-05-04T03:18:03.999Z</time></trkpt><trkpt lat="45.973290271479506" lon="12.173339586063541"><ele>240.0</ele><time>2026-05-04T03:18:04.999Z</time></trkpt><trkpt lat="45.97321960778172" lon="12.173093550014439"><ele>244.0</ele><time>2026-05-04T03:18:05.999Z</time></trkpt><trkpt lat="45.973148274021256" lon="12.172845859082198"><ele>248.0</ele><time>2026-05-04T03:18:06.999Z</time></trkpt><trkpt lat="45.97307399835843" lon="12.172591767663372"><ele>252.0</ele><time>2026-05-04T03:18:07.999Z</time></trkpt><trkpt lat="45.9729967139845" lon="12.172335640371088"><ele>259.6666666666667</ele><time>2026-05-04T03:18:08.999Z</time></trkpt><trkpt lat="45.97291968709969" lon="12.172075702551934"><ele>267.33333333333337</ele><time>2026-05-04T03:18:09.999Z</time></trkpt><trkpt lat="45.972844145086945" lon="12.171810880439129"><ele>275.0</ele><time>2026-05-04T03:18:10.999Z</time></trkpt><trkpt lat="45.972767400325075" lon="12.171541259997325"><ele>282.33333333333337</ele><time>2026-05-04T03:18:11.999Z</time></trkpt><trkpt lat="45.97269249952448" lon="12.171267184218728"><ele>289.6666666666667</ele><time>2026-05-04T03:18:12.999Z</time></trkpt><trkpt lat="45.97261837817448" lon="12.17098874665645"><ele>297.0</ele><time>2026-05-04T03:18:13.999Z</time></trkpt><trkpt lat="45.97255210190241" lon="12.170704036651179"><ele>283.3333333333333</ele><time>2026-05-04T03:18:14.999Z</time></trkpt><trkpt lat="45.97249495596285" lon="12.170413793591587"><ele>269.66666666666663</ele><time>2026-05-04T03:18:15.999Z</time></trkpt><trkpt lat="45.97243997166696" lon="12.170120824548952"><ele>256.0</ele><time>2026-05-04T03:18:16.999Z</time></trkpt><trkpt lat="45.97238637057274" lon="12.169825800862371"><ele>256.0</ele><time>2026-05-04T03:18:17.999Z</time></trkpt><trkpt lat="45.972331182365416" lon="12.169529807235266"><ele>256.0</ele><time>2026-05-04T03:18:18.999Z</time></trkpt><trkpt lat="45.972276258899356" lon="12.169233197049094"><ele>256.0</ele><time>2026-05-04T03:18:19.999Z</time></trkpt><trkpt lat="45.97222328817728" lon="12.168934749859572"><ele>258.66666666666663</ele><time>2026-05-04T03:18:20.999Z</time></trkpt><trkpt lat="45.97217028565671" lon="12.168636015106964"><ele>261.3333333333333</ele><time>2026-05-04T03:18:21.999Z</time></trkpt><trkpt lat="45.97211623081266" lon="12.168336093426174"><ele>264.0</ele><time>2026-05-04T03:18:22.999Z</time></trkpt><trkpt lat="45.97206270765583" lon="12.168036297483324"><ele>265.3333333333333</ele><time>2026-05-04T03:18:23.999Z</time></trkpt><trkpt lat="45.97200909516207" lon="12.167736520362238"><ele>266.66666666666663</ele><time>2026-05-04T03:18:24.999Z</time></trkpt><trkpt lat="45.97195457326906" lon="12.16743739103049"><ele>268.0</ele><time>2026-05-04T03:18:25.999Z</time></trkpt><trkpt lat="45.971902684263824" lon="12.167137700361307"><ele>268.66666666666663</ele><time>2026-05-04T03:18:26.999Z</time></trkpt><trkpt lat="45.97185293193361" lon="12.1668395324853"><ele>269.3333333333333</ele><time>2026-05-04T03:18:27.999Z</time></trkpt><trkpt lat="45.97181550393888" lon="12.16654190851203"><ele>270.0</ele><time>2026-05-04T03:18:28.999Z</time></trkpt><trkpt lat="45.97178936972935" lon="12.166243571497661"><ele>268.3333333333333</ele><time>2026-05-04T03:18:29.999Z</time></trkpt><trkpt lat="45.97177299601144" lon="12.16594694995064"><ele>266.66666666666663</ele><time>2026-05-04T03:18:30.999Z</time></trkpt><trkpt lat="45.97176231159238" lon="12.1656524863372"><ele>265.0</ele><time>2026-05-04T03:18:31.999Z</time></trkpt><trkpt lat="45.971753679604454" lon="12.165360511942808"><ele>263.66666666666663</ele><time>2026-05-04T03:18:32.999Z</time></trkpt><trkpt lat="45.97174796172721" lon="12.16507267058794"><ele>262.3333333333333</ele><time>2026-05-04T03:18:33.999Z</time></trkpt><trkpt lat="45.97174284042332" lon="12.164787576084693"><ele>261.0</ele><time>2026-05-04T03:18:34.999Z</time></trkpt><trkpt lat="45.97173714985607" lon="12.164505726870058"><ele>261.0</ele><time>2026-05-04T03:18:35.999Z</time></trkpt><trkpt lat="45.97173395956479" lon="12.16422497902772"><ele>261.0</ele><time>2026-05-04T03:18:36.999Z</time></trkpt><trkpt lat="45.97172875917234" lon="12.163945776977044"><ele>261.0</ele><time>2026-05-04T03:18:37.999Z</time></trkpt><trkpt lat="45.97172344891643" lon="12.16366970648642"><ele>261.0</ele><time>2026-05-04T03:18:38.999Z</time></trkpt><trkpt lat="45.971718355381185" lon="12.163392953295107"><ele>261.0</ele><time>2026-05-04T03:18:39.999Z</time></trkpt><trkpt lat="45.97171504199258" lon="12.163119450038138"><ele>261.0</ele><time>2026-05-04T03:18:40.999Z</time></trkpt><trkpt lat="45.97171873245261" lon="12.162848066851279"><ele>261.0</ele><time>2026-05-04T03:18:41.999Z</time></trkpt><trkpt lat="45.9717268742495" lon="12.16257678418336"><ele>261.0</ele><time>2026-05-04T03:18:42.999Z</time></trkpt><trkpt lat="45.971726912261374" lon="12.162305477369426"><ele>261.0</ele><time>2026-05-04T03:18:43.999Z</time></trkpt><trkpt lat="45.97171908935387" lon="12.162035150247553"><ele>261.0</ele><time>2026-05-04T03:18:44.999Z</time></trkpt><trkpt lat="45.97170057047832" lon="12.161766948416709"><ele>261.0</ele><time>2026-05-04T03:18:45.999Z</time></trkpt><trkpt lat="45.97166646979307" lon="12.161500785448467"><ele>261.0</ele><time>2026-05-04T03:18:46.999Z</time></trkpt><trkpt lat="45.971640278487456" lon="12.161232390186097"><ele>258.3333333333333</ele><time>2026-05-04T03:18:47.999Z</time></trkpt><trkpt lat="45.971587033664534" lon="12.160973030702017"><ele>255.66666666666666</ele><time>2026-05-04T03:18:48.999Z</time></trkpt><trkpt lat="45.97151159659179" lon="12.160724976772286"><ele>253.0</ele><time>2026-05-04T03:18:49.999Z</time></trkpt><trkpt lat="45.971447674623796" lon="12.160472429667333"><ele>253.0</ele><time>2026-05-04T03:18:50.999Z</time></trkpt><trkpt lat="45.97138327786697" lon="12.160222399279734"><ele>253.0</ele><time>2026-05-04T03:18:51.999Z</time></trkpt><trkpt lat="45.971318438548124" lon="12.159972292306755"><ele>253.0</ele><time>2026-05-04T03:18:52.999Z</time></trkpt><trkpt lat="45.97125301001163" lon="12.159724044808064"><ele>258.3333333333333</ele><time>2026-05-04T03:18:53.999Z</time></trkpt><trkpt lat="45.9711885777227" lon="12.1594750896912"><ele>263.6666666666667</ele><time>2026-05-04T03:18:54.999Z</time></trkpt><trkpt lat="45.97112344521933" lon="12.159226266607472"><ele>269.0</ele><time>2026-05-04T03:18:55.999Z</time></trkpt><trkpt lat="45.971057224274674" lon="12.15897863694622"><ele>272.0</ele><time>2026-05-04T03:18:56.999Z</time></trkpt><trkpt lat="45.970990354962375" lon="12.158730164879398"><ele>275.0</ele><time>2026-05-04T03:18:57.999Z</time></trkpt><trkpt lat="45.97091770800789" lon="12.158483724005583"><ele>278.0</ele><time>2026-05-04T03:18:58.999Z</time></trkpt><trkpt lat="45.97085129771393" lon="12.158230437000181"><ele>271.0</ele><time>2026-05-04T03:18:59.999Z</time></trkpt><trkpt lat="45.97075880501623" lon="12.15799297257344"><ele>264.0</ele><time>2026-05-04T03:19:00.999Z</time></trkpt><trkpt lat="45.97065339917447" lon="12.157765691125134"><ele>257.0</ele><time>2026-05-04T03:19:02Z</time></trkpt><trkpt lat="45.970541522227414" lon="12.157548376196935"><ele>261.33333333333337</ele><time>2026-05-04T03:19:03Z</time></trkpt><trkpt lat="45.97041526169356" lon="12.157347922608883"><ele>265.6666666666667</ele><time>2026-05-04T03:19:04Z</time></trkpt><trkpt lat="45.97029884665904" lon="12.157136741106159"><ele>270.0</ele><time>2026-05-04T03:19:05Z</time></trkpt><trkpt lat="45.97018352600395" lon="12.156924852636843"><ele>270.0</ele><time>2026-05-04T03:19:06Z</time></trkpt><trkpt lat="45.97006878026462" lon="12.156710492009116"><ele>270.0</ele><time>2026-05-04T03:19:07Z</time></trkpt><trkpt lat="45.969953246551434" lon="12.156496592029427"><ele>270.0</ele><time>2026-05-04T03:19:08Z</time></trkpt><trkpt lat="45.969836557711666" lon="12.15628368610974"><ele>267.3333333333333</ele><time>2026-05-04T03:19:09Z</time></trkpt><trkpt lat="45.96971836121637" lon="12.156071963950403"><ele>264.66666666666663</ele><time>2026-05-04T03:19:10Z</time></trkpt><trkpt lat="45.96960051107965" lon="12.155860811734975"><ele>262.0</ele><time>2026-05-04T03:19:11Z</time></trkpt><trkpt lat="45.96949826647576" lon="12.155634228183523"><ele>262.0</ele><time>2026-05-04T03:19:12Z</time></trkpt><trkpt lat="45.9693817174082" lon="12.155421654087105"><ele>262.0</ele><time>2026-05-04T03:19:13Z</time></trkpt><trkpt lat="45.96926602917112" lon="12.155209552603587"><ele>262.0</ele><time>2026-05-04T03:19:14Z</time></trkpt><trkpt lat="45.96915052893886" lon="12.154995665639632"><ele>259.66666666666663</ele><time>2026-05-04T03:19:15Z</time></trkpt><trkpt lat="45.96903493366271" lon="12.154781986580355"><ele>257.3333333333333</ele><time>2026-05-04T03:19:16Z</time></trkpt><trkpt lat="45.968907977104166" lon="12.154583609924531"><ele>255.0</ele><time>2026-05-04T03:19:17Z</time></trkpt><trkpt lat="45.96879331158344" lon="12.1543708611867"><ele>255.0</ele><time>2026-05-04T03:19:18Z</time></trkpt><trkpt lat="45.968690565255145" lon="12.154145885812282"><ele>255.0</ele><time>2026-05-04T03:19:19Z</time></trkpt><trkpt lat="45.96856443952306" lon="12.153950936138031"><ele>255.0</ele><time>2026-05-04T03:19:20Z</time></trkpt><trkpt lat="45.96845442650305" lon="12.153737673741931"><ele>254.33333333333331</ele><time>2026-05-04T03:19:21Z</time></trkpt><trkpt lat="45.968353104970035" lon="12.153518926593911"><ele>253.66666666666666</ele><time>2026-05-04T03:19:22Z</time></trkpt><trkpt lat="45.968262977974845" lon="12.153291439252987"><ele>253.0</ele><time>2026-05-04T03:19:23Z</time></trkpt><trkpt lat="45.96817806236787" lon="12.153056016800742"><ele>253.0</ele><time>2026-05-04T03:19:24Z</time></trkpt><trkpt lat="45.9681050394116" lon="12.1528174309552"><ele>253.0</ele><time>2026-05-04T03:19:25Z</time></trkpt><trkpt lat="45.968031572502746" lon="12.152575796060123"><ele>253.0</ele><time>2026-05-04T03:19:26Z</time></trkpt><trkpt lat="45.96797419278156" lon="12.152324490213378"><ele>255.66666666666666</ele><time>2026-05-04T03:19:27Z</time></trkpt><trkpt lat="45.96790116646972" lon="12.152083479435671"><ele>258.3333333333333</ele><time>2026-05-04T03:19:28Z</time></trkpt><trkpt lat="45.96782803984216" lon="12.151841269580327"><ele>261.0</ele><time>2026-05-04T03:19:29Z</time></trkpt><trkpt lat="45.967736899609285" lon="12.151607623175973"><ele>261.0</ele><time>2026-05-04T03:19:30Z</time></trkpt><trkpt lat="45.96766387014164" lon="12.151359740036835"><ele>261.0</ele><time>2026-05-04T03:19:31Z</time></trkpt><trkpt lat="45.96758915975204" lon="12.151111340894065"><ele>261.0</ele><time>2026-05-04T03:19:32Z</time></trkpt><trkpt lat="45.967513494947596" lon="12.150859475377002"><ele>257.6666666666667</ele><time>2026-05-04T03:19:33Z</time></trkpt><trkpt lat="45.9674383842202" lon="12.150603527394392"><ele>254.33333333333334</ele><time>2026-05-04T03:19:34Z</time></trkpt><trkpt lat="45.967360083022534" lon="12.150346556810156"><ele>251.0</ele><time>2026-05-04T03:19:35Z</time></trkpt><trkpt lat="45.96727962091531" lon="12.150088918873465"><ele>251.0</ele><time>2026-05-04T03:19:36Z</time></trkpt><trkpt lat="45.96719649490412" lon="12.149830954526859"><ele>251.0</ele><time>2026-05-04T03:19:37Z</time></trkpt><trkpt lat="45.96711043207855" lon="12.149572329694129"><ele>251.0</ele><time>2026-05-04T03:19:38Z</time></trkpt><trkpt lat="45.96702051715308" lon="12.149313341830714"><ele>251.0</ele><time>2026-05-04T03:19:39Z</time></trkpt><trkpt lat="45.966928072196325" lon="12.149051576818682"><ele>251.0</ele><time>2026-05-04T03:19:40Z</time></trkpt><trkpt lat="45.9668335451506" lon="12.148788383940966"><ele>251.0</ele><time>2026-05-04T03:19:41Z</time></trkpt><trkpt lat="45.96673612800797" lon="12.148527102747622"><ele>250.0</ele><time>2026-05-04T03:19:42Z</time></trkpt><trkpt lat="45.96663600311959" lon="12.148267544385652"><ele>249.0</ele><time>2026-05-04T03:19:43Z</time></trkpt><trkpt lat="45.96653206883336" lon="12.14801223044897"><ele>248.0</ele><time>2026-05-04T03:19:44Z</time></trkpt><trkpt lat="45.966428587807336" lon="12.147756653196693"><ele>246.33333333333334</ele><time>2026-05-04T03:19:45Z</time></trkpt><trkpt lat="45.96632725214778" lon="12.147501035117678"><ele>244.66666666666669</ele><time>2026-05-04T03:19:46Z</time></trkpt><trkpt lat="45.966225465923635" lon="12.147245907243217"><ele>243.0</ele><time>2026-05-04T03:19:47Z</time></trkpt><trkpt lat="45.966122403466" lon="12.146991728724554"><ele>242.33333333333331</ele><time>2026-05-04T03:19:48Z</time></trkpt><trkpt lat="45.96602013748936" lon="12.146735330196856"><ele>241.66666666666666</ele><time>2026-05-04T03:19:49Z</time></trkpt><trkpt lat="45.96591914563188" lon="12.146474789423683"><ele>241.0</ele><time>2026-05-04T03:19:50Z</time></trkpt><trkpt lat="45.965828498625044" lon="12.146208083368405"><ele>239.66666666666666</ele><time>2026-05-04T03:19:50.999Z</time></trkpt><trkpt lat="45.96575091772275" lon="12.14593523030998"><ele>238.33333333333331</ele><time>2026-05-04T03:19:51.999Z</time></trkpt><trkpt lat="45.965682250175355" lon="12.145656478136766"><ele>237.0</ele><time>2026-05-04T03:19:52.999Z</time></trkpt><trkpt lat="45.96562431680194" lon="12.145372193753232"><ele>237.0</ele><time>2026-05-04T03:19:53.999Z</time></trkpt><trkpt lat="45.96557744000665" lon="12.145082273936163"><ele>237.0</ele><time>2026-05-04T03:19:54.999Z</time></trkpt><trkpt lat="45.96554315979893" lon="12.14478893978115"><ele>237.0</ele><time>2026-05-04T03:19:55.999Z</time></trkpt><trkpt lat="45.965518611843784" lon="12.14449380079519"><ele>237.0</ele><time>2026-05-04T03:19:56.999Z</time></trkpt><trkpt lat="45.96550174222651" lon="12.144200958708927"><ele>237.0</ele><time>2026-05-04T03:19:57.999Z</time></trkpt><trkpt lat="45.96548564473604" lon="12.143911226059886"><ele>237.0</ele><time>2026-05-04T03:19:58.999Z</time></trkpt><trkpt lat="45.96546886578693" lon="12.143625519650598"><ele>238.0</ele><time>2026-05-04T03:19:59.999Z</time></trkpt><trkpt lat="45.96545363119386" lon="12.143345154674913"><ele>239.0</ele><time>2026-05-04T03:20:00.999Z</time></trkpt><trkpt lat="45.96543808009053" lon="12.143073058065902"><ele>240.0</ele><time>2026-05-04T03:20:01.999Z</time></trkpt><trkpt lat="45.965424867645325" lon="12.142808645271348"><ele>240.33333333333331</ele><time>2026-05-04T03:20:02.999Z</time></trkpt><trkpt lat="45.96541815360172" lon="12.142561897008592"><ele>240.66666666666666</ele><time>2026-05-04T03:20:03.999Z</time></trkpt><trkpt lat="45.965420046163366" lon="12.142338414317726"><ele>241.0</ele><time>2026-05-04T03:20:04.999Z</time></trkpt><trkpt lat="45.96542593380976" lon="12.14214442942136"><ele>241.25</ele><time>2026-05-04T03:20:05.999Z</time></trkpt><trkpt lat="45.965408010375306" lon="12.141965106326007"><ele>241.5</ele><time>2026-05-04T03:20:06.999Z</time></trkpt><trkpt lat="45.96543720774192" lon="12.14177735404329"><ele>241.75</ele><time>2026-05-04T03:20:07.999Z</time></trkpt><trkpt lat="45.96541049786534" lon="12.141594973240684"><ele>242.0</ele><time>2026-05-04T03:20:08.999Z</time></trkpt><trkpt lat="45.965403794249035" lon="12.141402389114495"><ele>242.0</ele><time>2026-05-04T03:20:09.999Z</time></trkpt><trkpt lat="45.96541729894549" lon="12.141202033205278"><ele>242.0</ele><time>2026-05-04T03:20:10.999Z</time></trkpt><trkpt lat="45.96543713108232" lon="12.140996343731636"><ele>242.0</ele><time>2026-05-04T03:20:11.999Z</time></trkpt><trkpt lat="45.965462541232284" lon="12.140783550634447"><ele>242.0</ele><time>2026-05-04T03:20:12.999Z</time></trkpt><trkpt lat="45.96549099680352" lon="12.140563838590216"><ele>241.0</ele><time>2026-05-04T03:20:13.999Z</time></trkpt><trkpt lat="45.9655196995051" lon="12.14034170376095"><ele>240.0</ele><time>2026-05-04T03:20:14.999Z</time></trkpt><trkpt lat="45.9655513948347" lon="12.140115247950613"><ele>239.0</ele><time>2026-05-04T03:20:15.999Z</time></trkpt><trkpt lat="45.965581779566094" lon="12.139885034399413"><ele>239.0</ele><time>2026-05-04T03:20:16.999Z</time></trkpt><trkpt lat="45.96561234354984" lon="12.13965097440835"><ele>239.0</ele><time>2026-05-04T03:20:17.999Z</time></trkpt><trkpt lat="45.96564083951039" lon="12.139413574785468"><ele>239.0</ele><time>2026-05-04T03:20:18.999Z</time></trkpt><trkpt lat="45.96566975398246" lon="12.139171177230255"><ele>239.0</ele><time>2026-05-04T03:20:19.999Z</time></trkpt><trkpt lat="45.96569829397987" lon="12.138928533080001"><ele>239.0</ele><time>2026-05-04T03:20:20.999Z</time></trkpt><trkpt lat="45.96572805758202" lon="12.138685754313359"><ele>239.0</ele><time>2026-05-04T03:20:21.999Z</time></trkpt><trkpt lat="45.965755873092895" lon="12.138452649353505"><ele>239.0</ele><time>2026-05-04T03:20:22.999Z</time></trkpt><trkpt lat="45.96578239308265" lon="12.138233281689002"><ele>239.0</ele><time>2026-05-04T03:20:23.999Z</time></trkpt><trkpt lat="45.96581290081164" lon="12.138035009890883"><ele>239.0</ele><time>2026-05-04T03:20:24.999Z</time></trkpt><trkpt lat="45.965859081370105" lon="12.137866788753144"><ele>239.0</ele><time>2026-05-04T03:20:25.999Z</time></trkpt><trkpt lat="45.96591190323565" lon="12.13772358171072"><ele>241.25</ele><time>2026-05-04T03:20:26.999Z</time></trkpt><trkpt lat="45.96593579361519" lon="12.13757117795762"><ele>243.5</ele><time>2026-05-04T03:20:27.999Z</time></trkpt><trkpt lat="45.965931303159586" lon="12.137409017792562"><ele>245.75</ele><time>2026-05-04T03:20:28.999Z</time></trkpt><trkpt lat="45.965897004380594" lon="12.137242842369899"><ele>248.0</ele><time>2026-05-04T03:20:29.999Z</time></trkpt><trkpt lat="45.96587166157227" lon="12.137072434293904"><ele>246.5</ele><time>2026-05-04T03:20:30.999Z</time></trkpt><trkpt lat="45.965858712831384" lon="12.136892574629968"><ele>245.0</ele><time>2026-05-04T03:20:31.999Z</time></trkpt><trkpt lat="45.96585667672541" lon="12.136702587243795"><ele>243.5</ele><time>2026-05-04T03:20:32.999Z</time></trkpt><trkpt lat="45.96584847246153" lon="12.136508418559893"><ele>242.0</ele><time>2026-05-04T03:20:33.999Z</time></trkpt><trkpt lat="45.965833090947676" lon="12.136311703994005"><ele>242.0</ele><time>2026-05-04T03:20:34.999Z</time></trkpt><trkpt lat="45.965805948802675" lon="12.136118110437163"><ele>242.0</ele><time>2026-05-04T03:20:35.999Z</time></trkpt><trkpt lat="45.965771818679954" lon="12.135930415611941"><ele>242.0</ele><time>2026-05-04T03:20:36.999Z</time></trkpt><trkpt lat="45.96573349364518" lon="12.135742791424898"><ele>242.0</ele><time>2026-05-04T03:20:37.999Z</time></trkpt><trkpt lat="45.965688175961546" lon="12.135554841668549"><ele>241.25</ele><time>2026-05-04T03:20:38.999Z</time></trkpt><trkpt lat="45.96563572871063" lon="12.13536958772541"><ele>240.5</ele><time>2026-05-04T03:20:39.999Z</time></trkpt><trkpt lat="45.96557468066616" lon="12.135187840362036"><ele>239.75</ele><time>2026-05-04T03:20:40.999Z</time></trkpt><trkpt lat="45.965505620005786" lon="12.135009037102897"><ele>239.0</ele><time>2026-05-04T03:20:41.999Z</time></trkpt><trkpt lat="45.965425941018836" lon="12.13483663723375"><ele>238.0</ele><time>2026-05-04T03:20:42.999Z</time></trkpt><trkpt lat="45.965338331700465" lon="12.134669385102148"><ele>237.0</ele><time>2026-05-04T03:20:43.999Z</time></trkpt><trkpt lat="45.96524194060847" lon="12.134509912014357"><ele>236.0</ele><time>2026-05-04T03:20:44.999Z</time></trkpt><trkpt lat="45.96513638283754" lon="12.134358123869413"><ele>235.0</ele><time>2026-05-04T03:20:45.999Z</time></trkpt><trkpt lat="45.96502667914323" lon="12.134209360755845"><ele>235.0</ele><time>2026-05-04T03:20:46.999Z</time></trkpt><trkpt lat="45.96491343064283" lon="12.134060961246309"><ele>235.0</ele><time>2026-05-04T03:20:47.999Z</time></trkpt><trkpt lat="45.96479848879522" lon="12.133910812495358"><ele>235.0</ele><time>2026-05-04T03:20:48.999Z</time></trkpt><trkpt lat="45.964683993677404" lon="12.133758362534717"><ele>234.0</ele><time>2026-05-04T03:20:49.999Z</time></trkpt><trkpt lat="45.96457146833124" lon="12.133603638864837"><ele>233.0</ele><time>2026-05-04T03:20:50.999Z</time></trkpt><trkpt lat="45.96445918440016" lon="12.13344813215542"><ele>232.0</ele><time>2026-05-04T03:20:51.999Z</time></trkpt><trkpt lat="45.96434553778479" lon="12.133293385173944"><ele>231.66666666666666</ele><time>2026-05-04T03:20:52.999Z</time></trkpt><trkpt lat="45.96423165648266" lon="12.13313928232355"><ele>231.33333333333331</ele><time>2026-05-04T03:20:53.999Z</time></trkpt><trkpt lat="45.96411748275637" lon="12.132984647009364"><ele>231.0</ele><time>2026-05-04T03:20:54.999Z</time></trkpt><trkpt lat="45.96399955461657" lon="12.132829866896918"><ele>230.0</ele><time>2026-05-04T03:20:55.999Z</time></trkpt><trkpt lat="45.96388051810491" lon="12.132674591815857"><ele>229.0</ele><time>2026-05-04T03:20:56.999Z</time></trkpt><trkpt lat="45.96376026606466" lon="12.132517207433633"><ele>228.0</ele><time>2026-05-04T03:20:57.999Z</time></trkpt><trkpt lat="45.96363898530298" lon="12.132355572079454"><ele>227.66666666666669</ele><time>2026-05-04T03:20:58.999Z</time></trkpt><trkpt lat="45.96351747743119" lon="12.132189799639683"><ele>227.33333333333334</ele><time>2026-05-04T03:20:59.999Z</time></trkpt><trkpt lat="45.96339493767445" lon="12.132022624212746"><ele>227.0</ele><time>2026-05-04T03:21:00.999Z</time></trkpt><trkpt lat="45.96327167660629" lon="12.1318547351658"><ele>227.0</ele><time>2026-05-04T03:21:01.999Z</time></trkpt><trkpt lat="45.96314817714143" lon="12.131685355285377"><ele>227.0</ele><time>2026-05-04T03:21:02.999Z</time></trkpt><trkpt lat="45.96302403470886" lon="12.131515754826731"><ele>227.0</ele><time>2026-05-04T03:21:03.999Z</time></trkpt><trkpt lat="45.96289861415103" lon="12.13134700660149"><ele>225.66666666666669</ele><time>2026-05-04T03:21:04.999Z</time></trkpt><trkpt lat="45.9627734889487" lon="12.13117763671769"><ele>224.33333333333331</ele><time>2026-05-04T03:21:05.999Z</time></trkpt><trkpt lat="45.96264827752011" lon="12.131007624788724"><ele>223.0</ele><time>2026-05-04T03:21:06.999Z</time></trkpt><trkpt lat="45.96252364880415" lon="12.13083674264222"><ele>222.0</ele><time>2026-05-04T03:21:08Z</time></trkpt><trkpt lat="45.96239862302168" lon="12.130666723234576"><ele>221.0</ele><time>2026-05-04T03:21:09Z</time></trkpt><trkpt lat="45.96227352868439" lon="12.130495795513882"><ele>220.0</ele><time>2026-05-04T03:21:10Z</time></trkpt><trkpt lat="45.962147524287865" lon="12.130325047609622"><ele>220.0</ele><time>2026-05-04T03:21:11Z</time></trkpt><trkpt lat="45.96202359435178" lon="12.130154881966899"><ele>220.0</ele><time>2026-05-04T03:21:12Z</time></trkpt><trkpt lat="45.961897734329604" lon="12.129985420242965"><ele>220.0</ele><time>2026-05-04T03:21:13Z</time></trkpt><trkpt lat="45.96177160250849" lon="12.129816056381685"><ele>220.33333333333331</ele><time>2026-05-04T03:21:14Z</time></trkpt><trkpt lat="45.96164604024812" lon="12.129645363064856"><ele>220.66666666666669</ele><time>2026-05-04T03:21:15Z</time></trkpt><trkpt lat="45.961520573564684" lon="12.129474469245809"><ele>221.0</ele><time>2026-05-04T03:21:16Z</time></trkpt><trkpt lat="45.96139516127809" lon="12.12930431695895"><ele>221.0</ele><time>2026-05-04T03:21:17Z</time></trkpt><trkpt lat="45.961269320508535" lon="12.129136161916197"><ele>221.0</ele><time>2026-05-04T03:21:18Z</time></trkpt><trkpt lat="45.96114463046161" lon="12.128971273442957"><ele>221.0</ele><time>2026-05-04T03:21:19Z</time></trkpt><trkpt lat="45.961021405699775" lon="12.128809127510124"><ele>220.0</ele><time>2026-05-04T03:21:20Z</time></trkpt><trkpt lat="45.96090023159349" lon="12.12864600409625"><ele>219.0</ele><time>2026-05-04T03:21:21Z</time></trkpt><trkpt lat="45.960790125480685" lon="12.128465490592367"><ele>218.0</ele><time>2026-05-04T03:21:22Z</time></trkpt><trkpt lat="45.96066997239158" lon="12.128300117703986"><ele>218.0</ele><time>2026-05-04T03:21:23Z</time></trkpt><trkpt lat="45.960541697938126" lon="12.128148046686679"><ele>218.0</ele><time>2026-05-04T03:21:24Z</time></trkpt><trkpt lat="45.96043189890947" lon="12.127970820290018"><ele>218.0</ele><time>2026-05-04T03:21:25Z</time></trkpt><trkpt lat="45.96032665933752" lon="12.127786121703995"><ele>218.0</ele><time>2026-05-04T03:21:26Z</time></trkpt><trkpt lat="45.96023013994158" lon="12.127591288126242"><ele>218.0</ele><time>2026-05-04T03:21:27Z</time></trkpt><trkpt lat="45.960141089669165" lon="12.127387966866184"><ele>218.0</ele><time>2026-05-04T03:21:28Z</time></trkpt><trkpt lat="45.96005811600512" lon="12.127177694460027"><ele>217.0</ele><time>2026-05-04T03:21:29Z</time></trkpt><trkpt lat="45.9599813186256" lon="12.126961346374486"><ele>216.0</ele><time>2026-05-04T03:21:30Z</time></trkpt><trkpt lat="45.95991224999051" lon="12.126740879403084"><ele>215.0</ele><time>2026-05-04T03:21:31Z</time></trkpt><trkpt lat="45.959845068644285" lon="12.126517286224933"><ele>215.0</ele><time>2026-05-04T03:21:32Z</time></trkpt><trkpt lat="45.95977638086613" lon="12.126298285488476"><ele>215.0</ele><time>2026-05-04T03:21:33Z</time></trkpt><trkpt lat="45.95970607101923" lon="12.126080002618407"><ele>215.0</ele><time>2026-05-04T03:21:34Z</time></trkpt><trkpt lat="45.959631342465975" lon="12.125864163158548"><ele>214.66666666666669</ele><time>2026-05-04T03:21:35Z</time></trkpt><trkpt lat="45.95955288223551" lon="12.125650231176653"><ele>214.33333333333331</ele><time>2026-05-04T03:21:36Z</time></trkpt><trkpt lat="45.95946920520447" lon="12.125438707380507"><ele>214.0</ele><time>2026-05-04T03:21:37Z</time></trkpt><trkpt lat="45.959382695441136" lon="12.125229637163807"><ele>214.0</ele><time>2026-05-04T03:21:38Z</time></trkpt><trkpt lat="45.959293785193786" lon="12.1250203938108"><ele>214.0</ele><time>2026-05-04T03:21:39Z</time></trkpt><trkpt lat="45.95919867245507" lon="12.124816672246212"><ele>214.0</ele><time>2026-05-04T03:21:40Z</time></trkpt><trkpt lat="45.959109579637044" lon="12.124606003555224"><ele>213.33333333333331</ele><time>2026-05-04T03:21:41Z</time></trkpt><trkpt lat="45.958997603028564" lon="12.124421284360997"><ele>212.66666666666669</ele><time>2026-05-04T03:21:42Z</time></trkpt><trkpt lat="45.95888162893498" lon="12.124240694939507"><ele>212.0</ele><time>2026-05-04T03:21:43Z</time></trkpt><trkpt lat="45.958759634816474" lon="12.124068790817766"><ele>210.66666666666669</ele><time>2026-05-04T03:21:44Z</time></trkpt><trkpt lat="45.95862920855762" lon="12.123909919327811"><ele>209.33333333333331</ele><time>2026-05-04T03:21:45Z</time></trkpt><trkpt lat="45.95848227258128" lon="12.123783320306943"><ele>208.0</ele><time>2026-05-04T03:21:46Z</time></trkpt><trkpt lat="45.95834594206475" lon="12.123637720091935"><ele>207.66666666666666</ele><time>2026-05-04T03:21:47Z</time></trkpt><trkpt lat="45.9582061989241" lon="12.123501133063161"><ele>207.33333333333331</ele><time>2026-05-04T03:21:48Z</time></trkpt><trkpt lat="45.95806530714931" lon="12.123366509845733"><ele>207.0</ele><time>2026-05-04T03:21:49Z</time></trkpt><trkpt lat="45.957923087617026" lon="12.123232650273092"><ele>206.0</ele><time>2026-05-04T03:21:50Z</time></trkpt><trkpt lat="45.95778105976161" lon="12.12309826623334"><ele>205.0</ele><time>2026-05-04T03:21:51Z</time></trkpt><trkpt lat="45.95763909839562" lon="12.122964647449303"><ele>204.0</ele><time>2026-05-04T03:21:51.999Z</time></trkpt><trkpt lat="45.95749697120085" lon="12.122830948056297"><ele>203.66666666666669</ele><time>2026-05-04T03:21:52.999Z</time></trkpt><trkpt lat="45.95735482096752" lon="12.122698454423585"><ele>203.33333333333334</ele><time>2026-05-04T03:21:53.999Z</time></trkpt><trkpt lat="45.95721212271834" lon="12.122567302052072"><ele>203.0</ele><time>2026-05-04T03:21:54.999Z</time></trkpt><trkpt lat="45.95707008611736" lon="12.122436380496723"><ele>203.0</ele><time>2026-05-04T03:21:55.999Z</time></trkpt><trkpt lat="45.9569279623743" lon="12.122303477837185"><ele>203.0</ele><time>2026-05-04T03:21:56.999Z</time></trkpt><trkpt lat="45.9567850352741" lon="12.12217063949326"><ele>203.0</ele><time>2026-05-04T03:21:57.999Z</time></trkpt><trkpt lat="45.95664118180693" lon="12.122040344376208"><ele>202.33333333333334</ele><time>2026-05-04T03:21:58.999Z</time></trkpt><trkpt lat="45.95649803346205" lon="12.121905736923676"><ele>201.66666666666669</ele><time>2026-05-04T03:21:59.999Z</time></trkpt><trkpt lat="45.95635436697873" lon="12.121771490992277"><ele>201.0</ele><time>2026-05-04T03:22:00.999Z</time></trkpt><trkpt lat="45.95620983086422" lon="12.121636110672352"><ele>201.66666666666669</ele><time>2026-05-04T03:22:01.999Z</time></trkpt><trkpt lat="45.95606493662141" lon="12.121501055215191"><ele>202.33333333333334</ele><time>2026-05-04T03:22:02.999Z</time></trkpt><trkpt lat="45.95592057930616" lon="12.121365470361742"><ele>203.0</ele><time>2026-05-04T03:22:03.999Z</time></trkpt><trkpt lat="45.95577524267902" lon="12.121231839086304"><ele>201.66666666666669</ele><time>2026-05-04T03:22:04.999Z</time></trkpt><trkpt lat="45.955629058871445" lon="12.121099649511729"><ele>200.33333333333331</ele><time>2026-05-04T03:22:05.999Z</time></trkpt><trkpt lat="45.95548513965974" lon="12.120967528699335"><ele>199.0</ele><time>2026-05-04T03:22:06.999Z</time></trkpt><trkpt lat="45.95534314082035" lon="12.12083475780811"><ele>199.33333333333331</ele><time>2026-05-04T03:22:07.999Z</time></trkpt><trkpt lat="45.95520236493471" lon="12.120699258366729"><ele>199.66666666666669</ele><time>2026-05-04T03:22:08.999Z</time></trkpt><trkpt lat="45.955061130981" lon="12.120564497737098"><ele>200.0</ele><time>2026-05-04T03:22:09.999Z</time></trkpt><trkpt lat="45.954921997720234" lon="12.120424362386657"><ele>199.0</ele><time>2026-05-04T03:22:10.999Z</time></trkpt><trkpt lat="45.954784539443274" lon="12.120282370824917"><ele>198.0</ele><time>2026-05-04T03:22:11.999Z</time></trkpt><trkpt lat="45.95464713645232" lon="12.120140043848327"><ele>197.0</ele><time>2026-05-04T03:22:12.999Z</time></trkpt><trkpt lat="45.9545104550457" lon="12.119999097596995"><ele>198.0</ele><time>2026-05-04T03:22:13.999Z</time></trkpt><trkpt lat="45.95437424590777" lon="12.11985959194054"><ele>199.0</ele><time>2026-05-04T03:22:14.999Z</time></trkpt><trkpt lat="45.954239089628565" lon="12.11971860508815"><ele>200.0</ele><time>2026-05-04T03:22:15.999Z</time></trkpt><trkpt lat="45.9541056930403" lon="12.119579949542846"><ele>200.0</ele><time>2026-05-04T03:22:16.999Z</time></trkpt><trkpt lat="45.953975313721436" lon="12.119435918073549"><ele>200.0</ele><time>2026-05-04T03:22:17.999Z</time></trkpt><trkpt lat="45.95385792467284" lon="12.119280437092845"><ele>200.0</ele><time>2026-05-04T03:22:18.999Z</time></trkpt><trkpt lat="45.953748631807485" lon="12.119110202615559"><ele>201.66666666666669</ele><time>2026-05-04T03:22:19.999Z</time></trkpt><trkpt lat="45.953666437785714" lon="12.118913806757385"><ele>203.33333333333331</ele><time>2026-05-04T03:22:20.999Z</time></trkpt><trkpt lat="45.95358272392922" lon="12.118720241472106"><ele>205.0</ele><time>2026-05-04T03:22:21.999Z</time></trkpt><trkpt lat="45.95348779935311" lon="12.118530786799955"><ele>205.0</ele><time>2026-05-04T03:22:22.999Z</time></trkpt><trkpt lat="45.953373675724315" lon="12.118357227260828"><ele>205.0</ele><time>2026-05-04T03:22:23.999Z</time></trkpt><trkpt lat="45.9532515267526" lon="12.118207090126477"><ele>205.0</ele><time>2026-05-04T03:22:24.999Z</time></trkpt><trkpt lat="45.953127087357274" lon="12.118064504995418"><ele>201.33333333333331</ele><time>2026-05-04T03:22:25.999Z</time></trkpt><trkpt lat="45.95302743764206" lon="12.11788502348656"><ele>197.66666666666669</ele><time>2026-05-04T03:22:26.999Z</time></trkpt><trkpt lat="45.95293378353301" lon="12.117697758974606"><ele>194.0</ele><time>2026-05-04T03:22:27.999Z</time></trkpt><trkpt lat="45.952840633559205" lon="12.117509412175865"><ele>194.0</ele><time>2026-05-04T03:22:28.999Z</time></trkpt><trkpt lat="45.95275116119655" lon="12.117321712997168"><ele>194.0</ele><time>2026-05-04T03:22:29.999Z</time></trkpt><trkpt lat="45.95266061159535" lon="12.117136423256733"><ele>194.0</ele><time>2026-05-04T03:22:30.999Z</time></trkpt><trkpt lat="45.9525689726044" lon="12.116951162119431"><ele>194.66666666666669</ele><time>2026-05-04T03:22:31.999Z</time></trkpt><trkpt lat="45.95247566414163" lon="12.116767611260842"><ele>195.33333333333331</ele><time>2026-05-04T03:22:32.999Z</time></trkpt><trkpt lat="45.95238131233041" lon="12.116585007949192"><ele>196.0</ele><time>2026-05-04T03:22:33.999Z</time></trkpt><trkpt lat="45.952291617475005" lon="12.11639996132098"><ele>196.0</ele><time>2026-05-04T03:22:34.999Z</time></trkpt><trkpt lat="45.9522052758029" lon="12.116213067031026"><ele>196.0</ele><time>2026-05-04T03:22:35.999Z</time></trkpt><trkpt lat="45.95212344817581" lon="12.116024888792337"><ele>196.0</ele><time>2026-05-04T03:22:36.999Z</time></trkpt><trkpt lat="45.95205107367743" lon="12.115831921906771"><ele>196.75</ele><time>2026-05-04T03:22:37.999Z</time></trkpt><trkpt lat="45.95198638400742" lon="12.115635512434409"><ele>197.5</ele><time>2026-05-04T03:22:38.999Z</time></trkpt><trkpt lat="45.951931308311956" lon="12.1154357904308"><ele>198.25</ele><time>2026-05-04T03:22:39.999Z</time></trkpt><trkpt lat="45.95188626630477" lon="12.1152317780304"><ele>199.0</ele><time>2026-05-04T03:22:40.999Z</time></trkpt><trkpt lat="45.95185059686254" lon="12.115026380418525"><ele>199.75</ele><time>2026-05-04T03:22:41.999Z</time></trkpt><trkpt lat="45.9518220275755" lon="12.114819866951247"><ele>200.5</ele><time>2026-05-04T03:22:42.999Z</time></trkpt><trkpt lat="45.95180344932324" lon="12.114613071603845"><ele>201.25</ele><time>2026-05-04T03:22:43.999Z</time></trkpt><trkpt lat="45.95178835727565" lon="12.114406506401885"><ele>202.0</ele><time>2026-05-04T03:22:44.999Z</time></trkpt><trkpt lat="45.95177545449605" lon="12.114201838770889"><ele>203.25</ele><time>2026-05-04T03:22:45.999Z</time></trkpt><trkpt lat="45.95176538420968" lon="12.1139948298604"><ele>204.5</ele><time>2026-05-04T03:22:46.999Z</time></trkpt><trkpt lat="45.95175401403282" lon="12.113786880504355"><ele>205.75</ele><time>2026-05-04T03:22:47.999Z</time></trkpt><trkpt lat="45.95174085939488" lon="12.113581219985052"><ele>207.0</ele><time>2026-05-04T03:22:48.999Z</time></trkpt><trkpt lat="45.951728866929464" lon="12.113377116522772"><ele>206.75</ele><time>2026-05-04T03:22:49.999Z</time></trkpt><trkpt lat="45.95171683698145" lon="12.113173186283309"><ele>206.5</ele><time>2026-05-04T03:22:50.999Z</time></trkpt><trkpt lat="45.95170401154406" lon="12.112971014766547"><ele>206.25</ele><time>2026-05-04T03:22:51.999Z</time></trkpt><trkpt lat="45.951690875543456" lon="12.112770412038817"><ele>206.0</ele><time>2026-05-04T03:22:52.999Z</time></trkpt><trkpt lat="45.95167796378229" lon="12.112571213661795"><ele>206.75</ele><time>2026-05-04T03:22:53.999Z</time></trkpt><trkpt lat="45.951664134408574" lon="12.112373237680885"><ele>207.5</ele><time>2026-05-04T03:22:54.999Z</time></trkpt><trkpt lat="45.95165010102679" lon="12.112176874489823"><ele>208.25</ele><time>2026-05-04T03:22:55.999Z</time></trkpt><trkpt lat="45.95163410967542" lon="12.111981895399248"><ele>209.0</ele><time>2026-05-04T03:22:56.999Z</time></trkpt><trkpt lat="45.951612082126964" lon="12.11178957775285"><ele>209.0</ele><time>2026-05-04T03:22:57.999Z</time></trkpt><trkpt lat="45.95158003369257" lon="12.111601494872026"><ele>209.0</ele><time>2026-05-04T03:22:58.999Z</time></trkpt><trkpt lat="45.95153504711518" lon="12.111417947957085"><ele>209.0</ele><time>2026-05-04T03:22:59.999Z</time></trkpt><trkpt lat="45.9514795387627" lon="12.111238541416235"><ele>209.0</ele><time>2026-05-04T03:23:00.999Z</time></trkpt><trkpt lat="45.95141381476234" lon="12.111064164126791"><ele>210.0</ele><time>2026-05-04T03:23:01.999Z</time></trkpt><trkpt lat="45.951354660030745" lon="12.110880930832998"><ele>211.0</ele><time>2026-05-04T03:23:02.999Z</time></trkpt><trkpt lat="45.9512661653102" lon="12.110722637090497"><ele>212.0</ele><time>2026-05-04T03:23:03.999Z</time></trkpt><trkpt lat="45.95119160641722" lon="12.110548249185245"><ele>213.0</ele><time>2026-05-04T03:23:04.999Z</time></trkpt><trkpt lat="45.95111785590459" lon="12.110376657344034"><ele>213.5</ele><time>2026-05-04T03:23:05.999Z</time></trkpt><trkpt lat="45.95104636058559" lon="12.110208008241267"><ele>214.0</ele><time>2026-05-04T03:23:06.999Z</time></trkpt><trkpt lat="45.950990332301764" lon="12.110029981433982"><ele>214.5</ele><time>2026-05-04T03:23:07.999Z</time></trkpt><trkpt lat="45.95092201250241" lon="12.109871370395371"><ele>215.0</ele><time>2026-05-04T03:23:08.999Z</time></trkpt><trkpt lat="45.950854874932226" lon="12.109720004554859"><ele>215.0</ele><time>2026-05-04T03:23:09.999Z</time></trkpt><trkpt lat="45.95077690131726" lon="12.109589175587722"><ele>215.0</ele><time>2026-05-04T03:23:10.999Z</time></trkpt><trkpt lat="45.95071242577069" lon="12.10945250266083"><ele>215.0</ele><time>2026-05-04T03:23:11.999Z</time></trkpt><trkpt lat="45.95064633417185" lon="12.109325422207032"><ele>215.0</ele><time>2026-05-04T03:23:12.999Z</time></trkpt><trkpt lat="45.95057493744734" lon="12.109208904724875"><ele>215.0</ele><time>2026-05-04T03:23:14Z</time></trkpt><trkpt lat="45.95050131797476" lon="12.109104123471882"><ele>215.0</ele><time>2026-05-04T03:23:15Z</time></trkpt><trkpt lat="45.95044118992783" lon="12.108989516552787"><ele>215.0</ele><time>2026-05-04T03:23:16Z</time></trkpt><trkpt lat="45.95037237152985" lon="12.108901972990644"><ele>215.0</ele><time>2026-05-04T03:23:17Z</time></trkpt><trkpt lat="45.95030640923171" lon="12.10882205109304"><ele>215.0</ele><time>2026-05-04T03:23:18Z</time></trkpt><trkpt lat="45.9502435372298" lon="12.108751154367642"><ele>215.0</ele><time>2026-05-04T03:23:19Z</time></trkpt><trkpt lat="45.95017362147603" lon="12.108701357927119"><ele>215.0</ele><time>2026-05-04T03:23:20Z</time></trkpt><trkpt lat="45.95011365337504" lon="12.108633043005991"><ele>215.0</ele><time>2026-05-04T03:23:21Z</time></trkpt><trkpt lat="45.95005655119611" lon="12.108568679843275"><ele>215.0</ele><time>2026-05-04T03:23:22Z</time></trkpt><trkpt lat="45.94999883647066" lon="12.108502781741675"><ele>215.0</ele><time>2026-05-04T03:23:23Z</time></trkpt><trkpt lat="45.94994120508702" lon="12.108437802496246"><ele>215.0</ele><time>2026-05-04T03:23:24Z</time></trkpt><trkpt lat="45.94988430819115" lon="12.108371194694355"><ele>215.0</ele><time>2026-05-04T03:23:25Z</time></trkpt><trkpt lat="45.949828846152904" lon="12.108304276528411"><ele>215.50000000000003</ele><time>2026-05-04T03:23:26Z</time></trkpt><trkpt lat="45.94977251680987" lon="12.108237098757705"><ele>216.0</ele><time>2026-05-04T03:23:27Z</time></trkpt><trkpt lat="45.94971532592095" lon="12.10816772884501"><ele>216.5</ele><time>2026-05-04T03:23:28Z</time></trkpt><trkpt lat="45.949657350916695" lon="12.108097966020296"><ele>217.0</ele><time>2026-05-04T03:23:29Z</time></trkpt><trkpt lat="45.94960079458554" lon="12.108032426419966"><ele>217.50000000000003</ele><time>2026-05-04T03:23:30Z</time></trkpt><trkpt lat="45.949551415535694" lon="12.107973099230485"><ele>218.0</ele><time>2026-05-04T03:23:31Z</time></trkpt><trkpt lat="45.94947948040936" lon="12.10788775288155"><ele>218.0</ele><time>2026-05-04T03:23:33Z</time></trkpt><trkpt lat="45.94940632000707" lon="12.107825326837016"><ele>218.0</ele><time>2026-05-04T03:24:21.999Z</time></trkpt><trkpt lat="45.94933625068432" lon="12.107750493760971"><ele>218.0</ele><time>2026-05-04T03:24:23.999Z</time></trkpt><trkpt lat="45.94926011306974" lon="12.107636201090152"><ele>218.0</ele><time>2026-05-04T03:24:25.999Z</time></trkpt><trkpt lat="45.949174026964734" lon="12.10753827431082"><ele>218.0</ele><time>2026-05-04T03:24:27.999Z</time></trkpt><trkpt lat="45.94907273624633" lon="12.107423051608977"><ele>219.16666666666669</ele><time>2026-05-04T03:24:29.999Z</time></trkpt><trkpt lat="45.949009116299976" lon="12.1073780777156"><ele>220.33333333333334</ele><time>2026-05-04T03:24:30.999Z</time></trkpt><trkpt lat="45.94895310040287" lon="12.107314501076376"><ele>221.5</ele><time>2026-05-04T03:24:31.999Z</time></trkpt><trkpt lat="45.94889714480496" lon="12.10725167858772"><ele>222.66666666666669</ele><time>2026-05-04T03:24:32.999Z</time></trkpt><trkpt lat="45.9488523915085" lon="12.107170824705882"><ele>223.83333333333334</ele><time>2026-05-04T03:24:33.999Z</time></trkpt><trkpt lat="45.948759308547544" lon="12.107064198934593"><ele>225.0</ele><time>2026-05-04T03:24:35.999Z</time></trkpt><trkpt lat="45.948696214269866" lon="12.106975733253622"><ele>225.0</ele><time>2026-05-04T03:24:37.999Z</time></trkpt><trkpt lat="45.948749383824705" lon="12.106876108287553"><ele>225.0</ele><time>2026-05-04T03:24:39.999Z</time></trkpt><trkpt lat="45.948829172965326" lon="12.106772698490389"><ele>225.0</ele><time>2026-05-04T03:24:41.999Z</time></trkpt><trkpt lat="45.94892020071887" lon="12.106651024108515"><ele>225.0</ele><time>2026-05-04T03:24:43.999Z</time></trkpt><trkpt lat="45.948970841593834" lon="12.106583084549218"><ele>225.0</ele><time>2026-05-04T03:24:44.999Z</time></trkpt><trkpt lat="45.94902353048712" lon="12.10651239736171"><ele>225.83333333333334</ele><time>2026-05-04T03:24:45.999Z</time></trkpt><trkpt lat="45.94907682610295" lon="12.106440896211998"><ele>226.66666666666669</ele><time>2026-05-04T03:24:46.999Z</time></trkpt><trkpt lat="45.949114227537514" lon="12.10635969305071"><ele>227.5</ele><time>2026-05-04T03:24:47.999Z</time></trkpt><trkpt lat="45.949187504794395" lon="12.106270094714578"><ele>228.33333333333334</ele><time>2026-05-04T03:24:49.999Z</time></trkpt><trkpt lat="45.949252090315646" lon="12.106174019149849"><ele>229.16666666666669</ele><time>2026-05-04T03:25:22Z</time></trkpt><trkpt lat="45.949328531495276" lon="12.106073988043807"><ele>230.0</ele><time>2026-05-04T03:25:24Z</time></trkpt><trkpt lat="45.949420834817055" lon="12.10594920662418"><ele>231.0</ele><time>2026-05-04T03:25:26Z</time></trkpt><trkpt lat="45.949508620294985" lon="12.10583272451577"><ele>232.0</ele><time>2026-05-04T03:25:28Z</time></trkpt><trkpt lat="45.94957451384952" lon="12.105747396229344"><ele>233.0</ele><time>2026-05-04T03:25:30Z</time></trkpt><trkpt lat="45.9496264885477" lon="12.105679848648945"><ele>234.0</ele><time>2026-05-04T03:25:32Z</time></trkpt><trkpt lat="45.94955377432934" lon="12.105779093797617"><ele>235.0</ele><time>2026-05-04T03:25:39Z</time></trkpt><trkpt lat="45.949493717464655" lon="12.105859594168185"><ele>235.0</ele><time>2026-05-04T03:25:41Z</time></trkpt><trkpt lat="45.94942087783055" lon="12.105957503985064"><ele>235.0</ele><time>2026-05-04T03:25:43Z</time></trkpt><trkpt lat="45.94937374783796" lon="12.106023055267144"><ele>235.0</ele><time>2026-05-04T03:25:44Z</time></trkpt><trkpt lat="45.949295480195836" lon="12.106128243435808"><ele>235.0</ele><time>2026-05-04T03:25:46Z</time></trkpt><trkpt lat="45.949230007872885" lon="12.10621741664217"><ele>235.0</ele><time>2026-05-04T03:25:48Z</time></trkpt><trkpt lat="45.949159572553896" lon="12.106313555368997"><ele>234.16666666666666</ele><time>2026-05-04T03:25:50Z</time></trkpt><trkpt lat="45.94908438630811" lon="12.10641385168529"><ele>233.33333333333331</ele><time>2026-05-04T03:25:51.999Z</time></trkpt><trkpt lat="45.94903070346895" lon="12.106487879318292"><ele>232.5</ele><time>2026-05-04T03:25:53.999Z</time></trkpt><trkpt lat="45.948955228270655" lon="12.106590154965616"><ele>231.66666666666669</ele><time>2026-05-04T03:25:56.999Z</time></trkpt><trkpt lat="45.948909270723725" lon="12.106654385530872"><ele>230.83333333333334</ele><time>2026-05-04T03:25:58.999Z</time></trkpt><trkpt lat="45.94885358996039" lon="12.106725453345922"><ele>230.0</ele><time>2026-05-04T03:26:00.999Z</time></trkpt><trkpt lat="45.94878899808014" lon="12.106807258094435"><ele>229.0</ele><time>2026-05-04T03:26:03.999Z</time></trkpt><trkpt lat="45.948742882140884" lon="12.106888514238804"><ele>228.0</ele><time>2026-05-04T03:26:12.999Z</time></trkpt><trkpt lat="45.94869579180639" lon="12.106957522493563"><ele>227.0</ele><time>2026-05-04T03:26:18.999Z</time></trkpt><trkpt lat="45.948608540863106" lon="12.106897471406263"><ele>226.0</ele><time>2026-05-04T03:26:20.999Z</time></trkpt><trkpt lat="45.94853017006422" lon="12.106811996820879"><ele>225.0</ele><time>2026-05-04T03:26:22.999Z</time></trkpt><trkpt lat="45.948439107868275" lon="12.106690692104138"><ele>225.00000000000003</ele><time>2026-05-04T03:26:24.999Z</time></trkpt><trkpt lat="45.94838980155612" lon="12.106622827775851"><ele>225.0</ele><time>2026-05-04T03:26:25.999Z</time></trkpt><trkpt lat="45.948339092849594" lon="12.106551668552717"><ele>225.00000000000003</ele><time>2026-05-04T03:26:26.999Z</time></trkpt><trkpt lat="45.9482896105349" lon="12.106474915945345"><ele>225.00000000000003</ele><time>2026-05-04T03:26:27.999Z</time></trkpt><trkpt lat="45.948242139702494" lon="12.106390677186477"><ele>225.0</ele><time>2026-05-04T03:26:28.999Z</time></trkpt><trkpt lat="45.94819692699899" lon="12.106306908209966"><ele>225.00000000000003</ele><time>2026-05-04T03:26:29.999Z</time></trkpt><trkpt lat="45.948152662782725" lon="12.106222827959794"><ele>225.00000000000003</ele><time>2026-05-04T03:26:30.999Z</time></trkpt><trkpt lat="45.948113621708885" lon="12.106149154888945"><ele>225.5</ele><time>2026-05-04T03:26:31.999Z</time></trkpt><trkpt lat="45.94806510329767" lon="12.106056588452965"><ele>226.0</ele><time>2026-05-04T03:26:33.999Z</time></trkpt><trkpt lat="45.948002187727525" lon="12.106067981864632"><ele>226.5</ele><time>2026-05-04T03:26:57.999Z</time></trkpt><trkpt lat="45.94792946285936" lon="12.106097518431513"><ele>227.0</ele><time>2026-05-04T03:27:04.999Z</time></trkpt><trkpt lat="45.94789564566557" lon="12.105963783682357"><ele>227.5</ele><time>2026-05-04T03:27:49Z</time></trkpt><trkpt lat="45.94786951237441" lon="12.105869056438394"><ele>228.0</ele><time>2026-05-04T03:27:51.999Z</time></trkpt><trkpt lat="45.947909147484765" lon="12.105752707814448"><ele>228.83333333333334</ele><time>2026-05-04T03:27:55.999Z</time></trkpt><trkpt lat="45.94787075527968" lon="12.105662230417728"><ele>229.66666666666669</ele><time>2026-05-04T03:27:57.999Z</time></trkpt><trkpt lat="45.94781983385544" lon="12.105565031738866"><ele>230.5</ele><time>2026-05-04T03:27:59.999Z</time></trkpt><trkpt lat="45.94777323007916" lon="12.105470704824512"><ele>231.33333333333334</ele><time>2026-05-04T03:28:01.999Z</time></trkpt><trkpt lat="45.94772847704254" lon="12.10537490508861"><ele>232.16666666666669</ele><time>2026-05-04T03:28:51.999Z</time></trkpt><trkpt lat="45.94765364550436" lon="12.105238177722113"><ele>233.0</ele><time>2026-05-04T03:28:53.999Z</time></trkpt><trkpt lat="45.94758372871906" lon="12.105105766220891"><ele>233.0</ele><time>2026-05-04T03:28:55.999Z</time></trkpt><trkpt lat="45.94752288437585" lon="12.104987316488815"><ele>233.0</ele><time>2026-05-04T03:28:57.999Z</time></trkpt><trkpt lat="45.94745682314905" lon="12.104914511189985"><ele>233.0</ele><time>2026-05-04T03:29:27.998Z</time></trkpt><trkpt lat="45.94739397440015" lon="12.104757955468887"><ele>233.0</ele><time>2026-05-04T03:29:29.998Z</time></trkpt><trkpt lat="45.94734347736808" lon="12.104664754894879"><ele>233.0</ele><time>2026-05-04T03:29:31Z</time></trkpt><trkpt lat="45.94731042922056" lon="12.10456457554779"><ele>233.50000000000003</ele><time>2026-05-04T03:29:32Z</time></trkpt><trkpt lat="45.94725063057065" lon="12.10444775140697"><ele>234.0</ele><time>2026-05-04T03:29:34Z</time></trkpt><trkpt lat="45.947328739804576" lon="12.10437742395932"><ele>234.5</ele><time>2026-05-04T03:29:36Z</time></trkpt><trkpt lat="45.94739403150209" lon="12.104401606599085"><ele>235.0</ele><time>2026-05-04T03:29:37Z</time></trkpt><trkpt lat="45.94744736949866" lon="12.104472262245396"><ele>235.50000000000003</ele><time>2026-05-04T03:29:38Z</time></trkpt><trkpt lat="45.94750128294306" lon="12.104543635668385"><ele>236.0</ele><time>2026-05-04T03:29:39Z</time></trkpt><trkpt lat="45.9475693479638" lon="12.104610437491854"><ele>237.00000000000003</ele><time>2026-05-04T03:29:40Z</time></trkpt><trkpt lat="45.94764018452279" lon="12.104674711323154"><ele>238.0</ele><time>2026-05-04T03:29:41Z</time></trkpt><trkpt lat="45.947712208625724" lon="12.104709279255628"><ele>239.0</ele><time>2026-05-04T03:29:42Z</time></trkpt><trkpt lat="45.94779053134423" lon="12.104707311862754"><ele>240.0</ele><time>2026-05-04T03:29:44Z</time></trkpt><trkpt lat="45.94787039982025" lon="12.104661665711355"><ele>241.00000000000003</ele><time>2026-05-04T03:29:58.999Z</time></trkpt><trkpt lat="45.947964729851755" lon="12.104601581204339"><ele>242.0</ele><time>2026-05-04T03:30:15.999Z</time></trkpt><trkpt lat="45.94806472674159" lon="12.10452128877575"><ele>242.0</ele><time>2026-05-04T03:30:17.999Z</time></trkpt><trkpt lat="45.94813311730835" lon="12.104441775735456"><ele>242.0</ele><time>2026-05-04T03:30:34.999Z</time></trkpt><trkpt lat="45.948214859847596" lon="12.104331012230853"><ele>242.0</ele><time>2026-05-04T03:30:36.999Z</time></trkpt><trkpt lat="45.94829242370169" lon="12.104235526396623"><ele>242.0</ele><time>2026-05-04T03:30:38.999Z</time></trkpt><trkpt lat="45.94837171569739" lon="12.104162875122045"><ele>242.0</ele><time>2026-05-04T03:32:05.999Z</time></trkpt><trkpt lat="45.94845926214487" lon="12.104114690470714"><ele>245.00000000000003</ele><time>2026-05-04T03:32:07.999Z</time></trkpt><trkpt lat="45.948561421987264" lon="12.104158733683409"><ele>248.0</ele><time>2026-05-04T03:32:09.999Z</time></trkpt><trkpt lat="45.94861561151511" lon="12.104210725331201"><ele>251.0</ele><time>2026-05-04T03:32:10.999Z</time></trkpt><trkpt lat="45.94867937342613" lon="12.104258373110401"><ele>254.0</ele><time>2026-05-04T03:32:11.999Z</time></trkpt><trkpt lat="45.948742104049536" lon="12.104306834911744"><ele>257.0</ele><time>2026-05-04T03:32:12.999Z</time></trkpt><trkpt lat="45.94885880633711" lon="12.104344828765026"><ele>260.0</ele><time>2026-05-04T03:32:14.999Z</time></trkpt><trkpt lat="45.94894683256972" lon="12.104262884397654"><ele>260.0</ele><time>2026-05-04T03:32:16.999Z</time></trkpt><trkpt lat="45.94897249643717" lon="12.10414385444941"><ele>260.0</ele><time>2026-05-04T03:32:18.999Z</time></trkpt><trkpt lat="45.94891752172863" lon="12.104074093081381"><ele>260.0</ele><time>2026-05-04T03:32:35.999Z</time></trkpt><trkpt lat="45.94885730264555" lon="12.104037402550121"><ele>260.0</ele><time>2026-05-04T03:32:37.999Z</time></trkpt><trkpt lat="45.948777593198834" lon="12.103983992303524"><ele>260.0</ele><time>2026-05-04T03:32:39.999Z</time></trkpt><trkpt lat="45.948689699981315" lon="12.103893656275433"><ele>260.0</ele><time>2026-05-04T03:32:41.999Z</time></trkpt><trkpt lat="45.94863995595473" lon="12.103831629475435"><ele>263.5</ele><time>2026-05-04T03:32:42.999Z</time></trkpt><trkpt lat="45.948593074118016" lon="12.10376388468123"><ele>267.0</ele><time>2026-05-04T03:32:43.999Z</time></trkpt><trkpt lat="45.94851800552756" lon="12.103625579570803"><ele>270.5</ele><time>2026-05-04T03:32:45.999Z</time></trkpt><trkpt lat="45.94849187491286" lon="12.103455115319198"><ele>274.0</ele><time>2026-05-04T03:32:47.999Z</time></trkpt><trkpt lat="45.948490743453384" lon="12.103359357174117"><ele>277.5</ele><time>2026-05-04T03:32:48.999Z</time></trkpt><trkpt lat="45.9484925051871" lon="12.103264739029104"><ele>281.0</ele><time>2026-05-04T03:32:49.999Z</time></trkpt><trkpt lat="45.94850270398363" lon="12.103128722055807"><ele>281.0</ele><time>2026-05-04T03:32:51.999Z</time></trkpt><trkpt lat="45.94849537436582" lon="12.103228633342738"><ele>281.0</ele><time>2026-05-04T03:36:16Z</time></trkpt><trkpt lat="45.948467923164884" lon="12.103386144058694"><ele>281.0</ele><time>2026-05-04T03:36:18Z</time></trkpt><trkpt lat="45.94847418462918" lon="12.103562556395264"><ele>281.0</ele><time>2026-05-04T03:36:20Z</time></trkpt><trkpt lat="45.94850070528754" lon="12.103649939145695"><ele>281.0</ele><time>2026-05-04T03:36:21Z</time></trkpt><trkpt lat="45.94854099683769" lon="12.103730747071031"><ele>281.0</ele><time>2026-05-04T03:36:22Z</time></trkpt><trkpt lat="45.94859053212575" lon="12.103804303345848"><ele>281.0</ele><time>2026-05-04T03:36:23Z</time></trkpt><trkpt lat="45.94864156423375" lon="12.10387384574497"><ele>281.0</ele><time>2026-05-04T03:36:24Z</time></trkpt><trkpt lat="45.948716463650484" lon="12.103966816019373"><ele>281.0</ele><time>2026-05-04T03:36:26Z</time></trkpt><trkpt lat="45.94877348854574" lon="12.104024885535827"><ele>281.0</ele><time>2026-05-04T03:36:43Z</time></trkpt><trkpt lat="45.94887560128414" lon="12.104078213808464"><ele>281.0</ele><time>2026-05-04T03:36:45Z</time></trkpt><trkpt lat="45.94894865896946" lon="12.104159619054984"><ele>281.0</ele><time>2026-05-04T03:36:47Z</time></trkpt><trkpt lat="45.948910374809365" lon="12.104264895064595"><ele>276.8</ele><time>2026-05-04T03:36:49Z</time></trkpt><trkpt lat="45.9488191998586" lon="12.104322214906793"><ele>272.6</ele><time>2026-05-04T03:36:51Z</time></trkpt><trkpt lat="45.94869769554448" lon="12.104259356746462"><ele>268.4</ele><time>2026-05-04T03:36:53Z</time></trkpt><trkpt lat="45.94863637713446" lon="12.104185410069164"><ele>264.2</ele><time>2026-05-04T03:36:54Z</time></trkpt><trkpt lat="45.94856810437033" lon="12.104124519362134"><ele>260.0</ele><time>2026-05-04T03:36:55Z</time></trkpt><trkpt lat="45.94849661410457" lon="12.104083589693776"><ele>257.0</ele><time>2026-05-04T03:36:56Z</time></trkpt><trkpt lat="45.94842053337385" lon="12.104076513144568"><ele>254.0</ele><time>2026-05-04T03:36:57Z</time></trkpt><trkpt lat="45.948346103116926" lon="12.104123073573263"><ele>251.0</ele><time>2026-05-04T03:36:58Z</time></trkpt><trkpt lat="45.948285102920124" lon="12.104218180328388"><ele>248.0</ele><time>2026-05-04T03:36:59Z</time></trkpt><trkpt lat="45.948205864146125" lon="12.104300012391292"><ele>245.00000000000003</ele><time>2026-05-04T03:37:00Z</time></trkpt><trkpt lat="45.94812757673666" lon="12.104399013515263"><ele>242.0</ele><time>2026-05-04T03:37:01Z</time></trkpt><trkpt lat="45.948047445248406" lon="12.104492703484622"><ele>242.0</ele><time>2026-05-04T03:37:02Z</time></trkpt><trkpt lat="45.94796387914961" lon="12.104564510688514"><ele>242.0</ele><time>2026-05-04T03:37:03Z</time></trkpt><trkpt lat="45.9478735983856" lon="12.104609030909131"><ele>242.0</ele><time>2026-05-04T03:37:04Z</time></trkpt><trkpt lat="45.947784416820674" lon="12.104638192543419"><ele>242.0</ele><time>2026-05-04T03:37:05Z</time></trkpt><trkpt lat="45.94769943368241" lon="12.104662870102064"><ele>242.0</ele><time>2026-05-04T03:37:06Z</time></trkpt><trkpt lat="45.94761403829593" lon="12.104622934004235"><ele>241.00000000000003</ele><time>2026-05-04T03:37:07Z</time></trkpt><trkpt lat="45.947535544751844" lon="12.104548337157764"><ele>240.0</ele><time>2026-05-04T03:37:08Z</time></trkpt><trkpt lat="45.94746375864251" lon="12.104453308272934"><ele>239.0</ele><time>2026-05-04T03:37:09Z</time></trkpt><trkpt lat="45.94739779122287" lon="12.104362309251385"><ele>238.0</ele><time>2026-05-04T03:37:10Z</time></trkpt><trkpt lat="45.947327441126056" lon="12.104277123676356"><ele>237.00000000000003</ele><time>2026-05-04T03:37:12Z</time></trkpt><trkpt lat="45.94726769835839" lon="12.104336541924509"><ele>236.0</ele><time>2026-05-04T03:37:45.999Z</time></trkpt><trkpt lat="45.947193406004004" lon="12.104404151369392"><ele>236.00000000000003</ele><time>2026-05-04T03:37:49.999Z</time></trkpt><trkpt lat="45.94715013210021" lon="12.104241270285685"><ele>236.0</ele><time>2026-05-04T03:37:50.999Z</time></trkpt><trkpt lat="45.94712481510816" lon="12.104154039011949"><ele>236.0</ele><time>2026-05-04T03:37:51.999Z</time></trkpt><trkpt lat="45.94708587995391" lon="12.104060348325435"><ele>236.0</ele><time>2026-05-04T03:37:52.999Z</time></trkpt><trkpt lat="45.947044519677696" lon="12.103951209821947"><ele>236.00000000000003</ele><time>2026-05-04T03:37:53.999Z</time></trkpt><trkpt lat="45.947003066780994" lon="12.103831871228486"><ele>236.0</ele><time>2026-05-04T03:37:55Z</time></trkpt><trkpt lat="45.94696549072113" lon="12.103711879703056"><ele>236.83333333333334</ele><time>2026-05-04T03:37:56Z</time></trkpt><trkpt lat="45.946928197060984" lon="12.103591346111022"><ele>237.66666666666669</ele><time>2026-05-04T03:37:57Z</time></trkpt><trkpt lat="45.94689444265316" lon="12.103474543627181"><ele>238.5</ele><time>2026-05-04T03:37:58Z</time></trkpt><trkpt lat="45.94686548630595" lon="12.103371627989127"><ele>239.33333333333331</ele><time>2026-05-04T03:37:59Z</time></trkpt><trkpt lat="45.946845798480744" lon="12.103283745573888"><ele>240.16666666666666</ele><time>2026-05-04T03:38:00Z</time></trkpt><trkpt lat="45.94681617096903" lon="12.10316847830281"><ele>241.0</ele><time>2026-05-04T03:38:02Z</time></trkpt><trkpt lat="45.946763206153314" lon="12.103035921615774"><ele>241.33333333333331</ele><time>2026-05-04T03:38:24Z</time></trkpt><trkpt lat="45.94672320594605" lon="12.10290003343996"><ele>241.66666666666666</ele><time>2026-05-04T03:38:26Z</time></trkpt><trkpt lat="45.94668848868156" lon="12.102776485976213"><ele>242.0</ele><time>2026-05-04T03:38:28Z</time></trkpt><trkpt lat="45.946666769063576" lon="12.102684223120532"><ele>242.33333333333331</ele><time>2026-05-04T03:38:33Z</time></trkpt><trkpt lat="45.94671643877943" lon="12.10260895395033"><ele>242.66666666666666</ele><time>2026-05-04T03:38:37Z</time></trkpt><trkpt lat="45.946787957164595" lon="12.102570220379263"><ele>243.0</ele><time>2026-05-04T03:38:39Z</time></trkpt><trkpt lat="45.94684487236007" lon="12.10252804861088"><ele>243.8</ele><time>2026-05-04T03:38:55Z</time></trkpt><trkpt lat="45.94693815555432" lon="12.102455730853654"><ele>244.60000000000002</ele><time>2026-05-04T03:38:57Z</time></trkpt><trkpt lat="45.94704366240489" lon="12.102392305126758"><ele>245.39999999999998</ele><time>2026-05-04T03:38:59Z</time></trkpt><trkpt lat="45.94713843583627" lon="12.10236520730929"><ele>246.2</ele><time>2026-05-04T03:39:01Z</time></trkpt><trkpt lat="45.947210660262016" lon="12.102317604271443"><ele>247.0</ele><time>2026-05-04T03:39:03Z</time></trkpt><trkpt lat="45.94725295489366" lon="12.102235646767843"><ele>247.0</ele><time>2026-05-04T03:39:07Z</time></trkpt><trkpt lat="45.94719501940819" lon="12.102294096486743"><ele>247.0</ele><time>2026-05-04T03:39:19Z</time></trkpt><trkpt lat="45.947131381360236" lon="12.102311678321854"><ele>247.0</ele><time>2026-05-04T03:39:35Z</time></trkpt><trkpt lat="45.947074232805626" lon="12.102360246500433"><ele>247.0</ele><time>2026-05-04T03:39:36.999Z</time></trkpt><trkpt lat="45.94700200633852" lon="12.102424348300607"><ele>247.0</ele><time>2026-05-04T03:39:37.999Z</time></trkpt><trkpt lat="45.947142887911504" lon="12.10222879896436"><ele>247.0</ele><time>2026-05-04T03:39:38.999Z</time></trkpt><trkpt lat="45.9468550303039" lon="12.102494109109237"><ele>247.0</ele><time>2026-05-04T03:39:39.999Z</time></trkpt><trkpt lat="45.9467906511836" lon="12.102544244952625"><ele>247.0</ele><time>2026-05-04T03:39:40.999Z</time></trkpt><trkpt lat="45.946698499425" lon="12.102594215689297"><ele>246.83333333333331</ele><time>2026-05-04T03:39:42.999Z</time></trkpt><trkpt lat="45.9466295957234" lon="12.102555636135738"><ele>246.66666666666666</ele><time>2026-05-04T03:39:45.999Z</time></trkpt><trkpt lat="45.946595106569795" lon="12.102390812046266"><ele>246.5</ele><time>2026-05-04T03:39:47.999Z</time></trkpt><trkpt lat="45.94657419642446" lon="12.102303022676347"><ele>246.33333333333331</ele><time>2026-05-04T03:39:48.999Z</time></trkpt><trkpt lat="45.94654610834093" lon="12.102214939490835"><ele>246.16666666666666</ele><time>2026-05-04T03:39:50.999Z</time></trkpt><trkpt lat="45.94651701235795" lon="12.102133560833071"><ele>246.0</ele><time>2026-05-04T03:40:07Z</time></trkpt><trkpt lat="45.94647094266016" lon="12.101977614132176"><ele>246.0</ele><time>2026-05-04T03:40:09Z</time></trkpt><trkpt lat="45.9464444082167" lon="12.10188446280828"><ele>246.00000000000003</ele><time>2026-05-04T03:40:10Z</time></trkpt><trkpt lat="45.94639909209569" lon="12.10173462454538"><ele>246.00000000000003</ele><time>2026-05-04T03:40:12Z</time></trkpt><trkpt lat="45.94636697320907" lon="12.101627770263326"><ele>246.0</ele><time>2026-05-04T03:40:28Z</time></trkpt><trkpt lat="45.946317295957684" lon="12.101461155805525"><ele>246.0</ele><time>2026-05-04T03:40:30Z</time></trkpt><trkpt lat="45.94628586800844" lon="12.101354408336096"><ele>246.83333333333334</ele><time>2026-05-04T03:40:31Z</time></trkpt><trkpt lat="45.94625870810121" lon="12.101260352610751"><ele>247.66666666666669</ele><time>2026-05-04T03:40:32Z</time></trkpt><trkpt lat="45.94622041751298" lon="12.101143947822427"><ele>248.5</ele><time>2026-05-04T03:40:49Z</time></trkpt><trkpt lat="45.94616991715218" lon="12.101000348047059"><ele>249.33333333333334</ele><time>2026-05-04T03:40:51Z</time></trkpt><trkpt lat="45.94613880026869" lon="12.100911323282254"><ele>250.16666666666669</ele><time>2026-05-04T03:40:52Z</time></trkpt><trkpt lat="45.94611363755447" lon="12.10079916031055"><ele>251.0</ele><time>2026-05-04T03:40:54Z</time></trkpt><trkpt lat="45.94618479400833" lon="12.10076170401418"><ele>251.0</ele><time>2026-05-04T03:40:56Z</time></trkpt><trkpt lat="45.94629014624636" lon="12.100720767943963"><ele>251.00000000000003</ele><time>2026-05-04T03:40:58Z</time></trkpt><trkpt lat="45.94640508477887" lon="12.100709282968733"><ele>251.00000000000003</ele><time>2026-05-04T03:41:00Z</time></trkpt><trkpt lat="45.94650026589748" lon="12.100735896307421"><ele>251.0</ele><time>2026-05-04T03:41:02Z</time></trkpt><trkpt lat="45.946571866914034" lon="12.100751446278517"><ele>251.0</ele><time>2026-05-04T03:41:04Z</time></trkpt><trkpt lat="45.946531063318446" lon="12.100661983951122"><ele>252.20000000000002</ele><time>2026-05-04T03:41:36.999Z</time></trkpt><trkpt lat="45.946332415470486" lon="12.100685294331374"><ele>253.40000000000003</ele><time>2026-05-04T03:41:37.999Z</time></trkpt><trkpt lat="45.94626868265896" lon="12.10070554610997"><ele>254.6</ele><time>2026-05-04T03:41:38.999Z</time></trkpt><trkpt lat="45.94616415279154" lon="12.10074314990071"><ele>255.8</ele><time>2026-05-04T03:41:40.999Z</time></trkpt><trkpt lat="45.94608865600669" lon="12.100726513505483"><ele>257.0</ele><time>2026-05-04T03:41:45.999Z</time></trkpt><trkpt lat="45.946051287620854" lon="12.100597662023088"><ele>257.0</ele><time>2026-05-04T03:41:47.999Z</time></trkpt><trkpt lat="45.94600476579158" lon="12.100434141343134"><ele>257.0</ele><time>2026-05-04T03:41:49.999Z</time></trkpt><trkpt lat="45.945977353545224" lon="12.100341484269038"><ele>257.0</ele><time>2026-05-04T03:41:50.999Z</time></trkpt><trkpt lat="45.94594852119608" lon="12.100244992779805"><ele>257.0</ele><time>2026-05-04T03:41:51.999Z</time></trkpt><trkpt lat="45.94592002917351" lon="12.100154501737142"><ele>257.0</ele><time>2026-05-04T03:41:52.999Z</time></trkpt><trkpt lat="45.94589324649672" lon="12.100061262916023"><ele>257.0</ele><time>2026-05-04T03:41:53.999Z</time></trkpt><trkpt lat="45.94586421882749" lon="12.09996117804811"><ele>256.6666666666667</ele><time>2026-05-04T03:41:54.999Z</time></trkpt><trkpt lat="45.94583519711625" lon="12.09986315547095"><ele>256.33333333333337</ele><time>2026-05-04T03:41:55.999Z</time></trkpt><trkpt lat="45.94580641069437" lon="12.099766097232752"><ele>256.0</ele><time>2026-05-04T03:41:56.999Z</time></trkpt><trkpt lat="45.945777148733434" lon="12.099667243914798"><ele>255.66666666666669</ele><time>2026-05-04T03:41:57.999Z</time></trkpt><trkpt lat="45.94574673683675" lon="12.099571875145939"><ele>255.33333333333334</ele><time>2026-05-04T03:41:58.999Z</time></trkpt><trkpt lat="45.94570199442255" lon="12.099433537603208"><ele>255.0</ele><time>2026-05-04T03:42:00.999Z</time></trkpt><trkpt lat="45.94576008740632" lon="12.0993553702331"><ele>256.0</ele><time>2026-05-04T03:42:02.999Z</time></trkpt><trkpt lat="45.94588511774487" lon="12.099306911725217"><ele>257.0</ele><time>2026-05-04T03:42:04.999Z</time></trkpt><trkpt lat="45.945949206887505" lon="12.099278322319469"><ele>258.0</ele><time>2026-05-04T03:42:05.999Z</time></trkpt><trkpt lat="45.946020667121886" lon="12.099244603956791"><ele>259.0</ele><time>2026-05-04T03:42:07Z</time></trkpt><trkpt lat="45.946094913747174" lon="12.099214257965413"><ele>260.0</ele><time>2026-05-04T03:42:08Z</time></trkpt><trkpt lat="45.94616997792766" lon="12.099191020310403"><ele>261.0</ele><time>2026-05-04T03:42:09Z</time></trkpt><trkpt lat="45.9462399379494" lon="12.099145126083611"><ele>261.3333333333333</ele><time>2026-05-04T03:42:10Z</time></trkpt><trkpt lat="45.94630562949534" lon="12.099079635533842"><ele>261.6666666666667</ele><time>2026-05-04T03:42:11Z</time></trkpt><trkpt lat="45.94637019546042" lon="12.099001873352847"><ele>262.0</ele><time>2026-05-04T03:42:12Z</time></trkpt><trkpt lat="45.94643946126861" lon="12.09892316204145"><ele>262.33333333333337</ele><time>2026-05-04T03:42:13Z</time></trkpt><trkpt lat="45.946514164550905" lon="12.09884614195286"><ele>262.6666666666667</ele><time>2026-05-04T03:42:14Z</time></trkpt><trkpt lat="45.94658104038725" lon="12.098761573430071"><ele>263.0</ele><time>2026-05-04T03:42:15Z</time></trkpt><trkpt lat="45.94663895679635" lon="12.098705835745566"><ele>263.0</ele><time>2026-05-04T03:42:16Z</time></trkpt><trkpt lat="45.9466925799646" lon="12.098655555303239"><ele>263.0</ele><time>2026-05-04T03:42:32Z</time></trkpt><trkpt lat="45.94678044753444" lon="12.098555650995634"><ele>263.0</ele><time>2026-05-04T03:42:34Z</time></trkpt><trkpt lat="45.946843774373406" lon="12.098492340226821"><ele>263.0</ele><time>2026-05-04T03:42:35Z</time></trkpt><trkpt lat="45.94692132177728" lon="12.098416224543424"><ele>263.0</ele><time>2026-05-04T03:42:36Z</time></trkpt><trkpt lat="45.94700395028808" lon="12.098333912944097"><ele>263.0</ele><time>2026-05-04T03:42:37Z</time></trkpt><trkpt lat="45.94709107057761" lon="12.098245822234235"><ele>263.5</ele><time>2026-05-04T03:42:38Z</time></trkpt><trkpt lat="45.94717818264831" lon="12.098187468719015"><ele>264.0</ele><time>2026-05-04T03:42:39Z</time></trkpt><trkpt lat="45.94725886543618" lon="12.098166971271134"><ele>264.5</ele><time>2026-05-04T03:42:40Z</time></trkpt><trkpt lat="45.94732684562991" lon="12.098172978475422"><ele>265.0</ele><time>2026-05-04T03:42:41Z</time></trkpt><trkpt lat="45.94736954292148" lon="12.098253352261262"><ele>265.5</ele><time>2026-05-04T03:42:42Z</time></trkpt><trkpt lat="45.9472778152542" lon="12.098254275498345"><ele>266.0</ele><time>2026-05-04T03:42:47Z</time></trkpt><trkpt lat="45.94723767895942" lon="12.098173085709705"><ele>266.0</ele><time>2026-05-04T03:42:48Z</time></trkpt><trkpt lat="45.947171471720914" lon="12.098171785793548"><ele>266.0</ele><time>2026-05-04T03:42:49Z</time></trkpt><trkpt lat="45.947100937723455" lon="12.098221915350566"><ele>266.0</ele><time>2026-05-04T03:42:50Z</time></trkpt><trkpt lat="45.94702687616142" lon="12.098290838326063"><ele>266.0</ele><time>2026-05-04T03:42:51Z</time></trkpt><trkpt lat="45.94694084317954" lon="12.098376852829698"><ele>266.0</ele><time>2026-05-04T03:42:52Z</time></trkpt><trkpt lat="45.94685038415097" lon="12.0984706084364"><ele>266.0</ele><time>2026-05-04T03:42:53Z</time></trkpt><trkpt lat="45.94676179672546" lon="12.098561048972924"><ele>265.25</ele><time>2026-05-04T03:42:54Z</time></trkpt><trkpt lat="45.94667311769634" lon="12.098654876197507"><ele>264.5</ele><time>2026-05-04T03:42:55Z</time></trkpt><trkpt lat="45.94658238259635" lon="12.098749962049874"><ele>263.75</ele><time>2026-05-04T03:42:56Z</time></trkpt><trkpt lat="45.94648945115163" lon="12.098849211471638"><ele>263.0</ele><time>2026-05-04T03:42:57Z</time></trkpt><trkpt lat="45.94640047695445" lon="12.09894650457803"><ele>263.0</ele><time>2026-05-04T03:42:58Z</time></trkpt><trkpt lat="45.9463235601175" lon="12.099032964208531"><ele>263.0</ele><time>2026-05-04T03:42:59Z</time></trkpt><trkpt lat="45.9462635488979" lon="12.099101950955141"><ele>263.0</ele><time>2026-05-04T03:43:00Z</time></trkpt><trkpt lat="45.94619765933415" lon="12.09915409976203"><ele>263.0</ele><time>2026-05-04T03:43:01Z</time></trkpt><trkpt lat="45.94611606033752" lon="12.099189155973361"><ele>263.0</ele><time>2026-05-04T03:43:02Z</time></trkpt><trkpt lat="45.94602955800469" lon="12.099215577012387"><ele>263.0</ele><time>2026-05-04T03:43:03Z</time></trkpt><trkpt lat="45.9459406529656" lon="12.099254666921885"><ele>262.33333333333337</ele><time>2026-05-04T03:43:04Z</time></trkpt><trkpt lat="45.945856050925535" lon="12.09930022604114"><ele>261.6666666666667</ele><time>2026-05-04T03:43:05Z</time></trkpt><trkpt lat="45.94578179229734" lon="12.099334425061539"><ele>261.0</ele><time>2026-05-04T03:43:06Z</time></trkpt><trkpt lat="45.94571600977197" lon="12.09934716697185"><ele>260.3333333333333</ele><time>2026-05-04T03:43:09Z</time></trkpt><trkpt lat="45.94564994025625" lon="12.099201286848917"><ele>259.66666666666663</ele><time>2026-05-04T03:43:12Z</time></trkpt><trkpt lat="45.94562405239942" lon="12.099103269457375"><ele>259.0</ele><time>2026-05-04T03:43:13Z</time></trkpt><trkpt lat="45.94559093006877" lon="12.098990745794195"><ele>259.0</ele><time>2026-05-04T03:43:14Z</time></trkpt><trkpt lat="45.9455565681418" lon="12.098867563463967"><ele>259.0</ele><time>2026-05-04T03:43:15Z</time></trkpt><trkpt lat="45.94551759986482" lon="12.09873545967202"><ele>259.0</ele><time>2026-05-04T03:43:16Z</time></trkpt><trkpt lat="45.945484153578946" lon="12.098618950862752"><ele>259.0</ele><time>2026-05-04T03:43:17Z</time></trkpt><trkpt lat="45.94544869567819" lon="12.098500248764205"><ele>259.0</ele><time>2026-05-04T03:43:19Z</time></trkpt><trkpt lat="45.94542360075065" lon="12.098409870153525"><ele>259.0</ele><time>2026-05-04T03:43:35Z</time></trkpt><trkpt lat="45.94536717031161" lon="12.098229393104646"><ele>259.8333333333333</ele><time>2026-05-04T03:43:36.999Z</time></trkpt><trkpt lat="45.94533438038248" lon="12.098119414840125"><ele>260.66666666666663</ele><time>2026-05-04T03:43:37.999Z</time></trkpt><trkpt lat="45.94529752527043" lon="12.097997685683742"><ele>261.5</ele><time>2026-05-04T03:43:38.999Z</time></trkpt><trkpt lat="45.9452602519332" lon="12.097868207882275"><ele>262.3333333333333</ele><time>2026-05-04T03:43:39.999Z</time></trkpt><trkpt lat="45.945224704799806" lon="12.097744019289042"><ele>263.1666666666667</ele><time>2026-05-04T03:43:40.999Z</time></trkpt><trkpt lat="45.94519406938591" lon="12.097633949650984"><ele>264.0</ele><time>2026-05-04T03:43:41.999Z</time></trkpt><trkpt lat="45.94515871779557" lon="12.097518687428709"><ele>264.4</ele><time>2026-05-04T03:43:43.999Z</time></trkpt><trkpt lat="45.945125168701765" lon="12.097413441944187"><ele>264.79999999999995</ele><time>2026-05-04T03:44:00.999Z</time></trkpt><trkpt lat="45.9450793987924" lon="12.09728875567332"><ele>265.20000000000005</ele><time>2026-05-04T03:44:21Z</time></trkpt><trkpt lat="45.945029034151254" lon="12.097135670103313"><ele>265.6</ele><time>2026-05-04T03:44:23Z</time></trkpt><trkpt lat="45.94499902356946" lon="12.09704560372501"><ele>266.0</ele><time>2026-05-04T03:44:24Z</time></trkpt><trkpt lat="45.9449578698957" lon="12.096914342173152"><ele>266.0</ele><time>2026-05-04T03:44:26Z</time></trkpt><trkpt lat="45.945022162997574" lon="12.096813306699227"><ele>266.0</ele><time>2026-05-04T03:44:29Z</time></trkpt><trkpt lat="45.945123643576856" lon="12.096753975720313"><ele>266.0</ele><time>2026-05-04T03:44:31Z</time></trkpt><trkpt lat="45.945187159817614" lon="12.096718453473144"><ele>266.0</ele><time>2026-05-04T03:44:32Z</time></trkpt><trkpt lat="45.945257143765275" lon="12.096674927639171"><ele>266.0</ele><time>2026-05-04T03:44:33Z</time></trkpt><trkpt lat="45.94533008136361" lon="12.096632291539175"><ele>266.0</ele><time>2026-05-04T03:44:34Z</time></trkpt><trkpt lat="45.94540196883528" lon="12.096588049269672"><ele>266.1666666666667</ele><time>2026-05-04T03:44:35Z</time></trkpt><trkpt lat="45.94546661105994" lon="12.096548915094584"><ele>266.33333333333337</ele><time>2026-05-04T03:44:36Z</time></trkpt><trkpt lat="45.945569960567475" lon="12.096481711210577"><ele>266.5</ele><time>2026-05-04T03:44:38Z</time></trkpt><trkpt lat="45.94564254149586" lon="12.096440596714015"><ele>266.6666666666667</ele><time>2026-05-04T03:44:40Z</time></trkpt><trkpt lat="45.94570846733687" lon="12.096397536403924"><ele>266.8333333333333</ele><time>2026-05-04T03:44:56Z</time></trkpt><trkpt lat="45.94581856861363" lon="12.096349142987139"><ele>267.0</ele><time>2026-05-04T03:44:58Z</time></trkpt><trkpt lat="45.94588936838453" lon="12.096305563870946"><ele>268.4</ele><time>2026-05-04T03:45:00Z</time></trkpt><trkpt lat="45.945972455708166" lon="12.096254730114122"><ele>269.79999999999995</ele><time>2026-05-04T03:45:31.999Z</time></trkpt><trkpt lat="45.946060688783675" lon="12.096201684058896"><ele>271.2</ele><time>2026-05-04T03:45:33.999Z</time></trkpt><trkpt lat="45.94615299236214" lon="12.096144923177253"><ele>272.59999999999997</ele><time>2026-05-04T03:45:35.999Z</time></trkpt><trkpt lat="45.94623882030845" lon="12.096092772381382"><ele>274.0</ele><time>2026-05-04T03:45:37.999Z</time></trkpt><trkpt lat="45.946327504283644" lon="12.096041309190968"><ele>274.0</ele><time>2026-05-04T03:45:55.999Z</time></trkpt><trkpt lat="45.9464435202561" lon="12.095965736397273"><ele>274.0</ele><time>2026-05-04T03:45:57.999Z</time></trkpt><trkpt lat="45.946518915827355" lon="12.095919749541968"><ele>274.0</ele><time>2026-05-04T03:45:58.999Z</time></trkpt><trkpt lat="45.94659273774166" lon="12.095872480280747"><ele>274.0</ele><time>2026-05-04T03:45:59.999Z</time></trkpt><trkpt lat="45.94665396303138" lon="12.095831680786533"><ele>274.0</ele><time>2026-05-04T03:46:00.999Z</time></trkpt><trkpt lat="45.94671852055376" lon="12.095796636490158"><ele>274.0</ele><time>2026-05-04T03:46:02.999Z</time></trkpt><trkpt lat="45.94680721361371" lon="12.095742214191292"><ele>275.3333333333333</ele><time>2026-05-04T03:46:19Z</time></trkpt><trkpt lat="45.94687042026782" lon="12.095708101728118"><ele>276.66666666666663</ele><time>2026-05-04T03:46:21Z</time></trkpt><trkpt lat="45.94693195631302" lon="12.095681845367645"><ele>278.0</ele><time>2026-05-04T03:46:37Z</time></trkpt><trkpt lat="45.9470279706822" lon="12.095626958492549"><ele>279.3333333333333</ele><time>2026-05-04T03:46:39Z</time></trkpt><trkpt lat="45.94708894439196" lon="12.095588590036076"><ele>280.6666666666667</ele><time>2026-05-04T03:46:42Z</time></trkpt><trkpt lat="45.947015306826096" lon="12.095636400011806"><ele>282.0</ele><time>2026-05-04T03:47:13Z</time></trkpt><trkpt lat="45.94689808113912" lon="12.095682771014296"><ele>282.0</ele><time>2026-05-04T03:47:15Z</time></trkpt><trkpt lat="45.94683652337364" lon="12.095720504144039"><ele>282.0</ele><time>2026-05-04T03:47:16Z</time></trkpt><trkpt lat="45.94676438555801" lon="12.095726853735924"><ele>282.0</ele><time>2026-05-04T03:47:17Z</time></trkpt><trkpt lat="45.94670130808037" lon="12.095765025392131"><ele>282.0</ele><time>2026-05-04T03:47:18Z</time></trkpt><trkpt lat="45.94663422911616" lon="12.095805618568077"><ele>282.0</ele><time>2026-05-04T03:47:19Z</time></trkpt><trkpt lat="45.946570698889104" lon="12.09584406422876"><ele>282.0</ele><time>2026-05-04T03:47:20Z</time></trkpt><trkpt lat="45.94648374492197" lon="12.095896684856443"><ele>282.0</ele><time>2026-05-04T03:47:22Z</time></trkpt><trkpt lat="45.94640489115707" lon="12.095944820219051"><ele>280.6666666666667</ele><time>2026-05-04T03:47:36.999Z</time></trkpt><trkpt lat="45.94631337839834" lon="12.096001410807231"><ele>279.3333333333333</ele><time>2026-05-04T03:47:51.999Z</time></trkpt><trkpt lat="45.94620949461393" lon="12.096065651512404"><ele>278.0</ele><time>2026-05-04T03:47:53.999Z</time></trkpt><trkpt lat="45.94614521830876" lon="12.096105399336945"><ele>276.66666666666663</ele><time>2026-05-04T03:47:54.999Z</time></trkpt><trkpt lat="45.946077915248246" lon="12.096146685045804"><ele>275.3333333333333</ele><time>2026-05-04T03:47:55.999Z</time></trkpt><trkpt lat="45.94600863716574" lon="12.096188246402813"><ele>274.0</ele><time>2026-05-04T03:47:56.999Z</time></trkpt><trkpt lat="45.9459385604998" lon="12.096230286848225"><ele>272.8333333333333</ele><time>2026-05-04T03:47:57.999Z</time></trkpt><trkpt lat="45.94586655190113" lon="12.096273486324824"><ele>271.66666666666663</ele><time>2026-05-04T03:47:58.999Z</time></trkpt><trkpt lat="45.945792530065646" lon="12.096317893792577"><ele>270.5</ele><time>2026-05-04T03:47:59.999Z</time></trkpt><trkpt lat="45.94571809890729" lon="12.096362628032397"><ele>269.3333333333333</ele><time>2026-05-04T03:48:00.999Z</time></trkpt><trkpt lat="45.94563973479541" lon="12.096407984397265"><ele>268.1666666666667</ele><time>2026-05-04T03:48:01.999Z</time></trkpt><trkpt lat="45.945560339691575" lon="12.096453937461776"><ele>267.0</ele><time>2026-05-04T03:48:02.999Z</time></trkpt><trkpt lat="45.9454802600512" lon="12.09650360954038"><ele>267.0</ele><time>2026-05-04T03:48:03.999Z</time></trkpt><trkpt lat="45.94540275662359" lon="12.096552341481953"><ele>267.0</ele><time>2026-05-04T03:48:04.999Z</time></trkpt><trkpt lat="45.94533951689997" lon="12.09659091905846"><ele>267.0</ele><time>2026-05-04T03:48:05.999Z</time></trkpt><trkpt lat="45.94527653465501" lon="12.096627070326994"><ele>267.0</ele><time>2026-05-04T03:48:19.999Z</time></trkpt><trkpt lat="45.94518196779962" lon="12.096681350830048"><ele>267.0</ele><time>2026-05-04T03:48:21.999Z</time></trkpt><trkpt lat="45.945115803793875" lon="12.096719328394153"><ele>267.0</ele><time>2026-05-04T03:48:22.999Z</time></trkpt><trkpt lat="45.94505550400015" lon="12.096757538701763"><ele>266.1666666666667</ele><time>2026-05-04T03:48:24Z</time></trkpt><trkpt lat="45.9449975249582" lon="12.09679336458029"><ele>265.3333333333333</ele><time>2026-05-04T03:48:26Z</time></trkpt><trkpt lat="45.94493120117933" lon="12.096807864270644"><ele>264.5</ele><time>2026-05-04T03:48:30Z</time></trkpt><trkpt lat="45.944913088989324" lon="12.096711558483262"><ele>263.66666666666663</ele><time>2026-05-04T03:48:31Z</time></trkpt><trkpt lat="45.94486141149113" lon="12.096544984885682"><ele>262.8333333333333</ele><time>2026-05-04T03:48:33Z</time></trkpt><trkpt lat="45.94482935464922" lon="12.09644074819243"><ele>262.0</ele><time>2026-05-04T03:48:34Z</time></trkpt><trkpt lat="45.944795337342484" lon="12.096326354875847"><ele>262.0</ele><time>2026-05-04T03:48:35Z</time></trkpt><trkpt lat="45.94476328227528" lon="12.096216596433983"><ele>262.0</ele><time>2026-05-04T03:48:36Z</time></trkpt><trkpt lat="45.94474085622659" lon="12.096131546399716"><ele>262.0</ele><time>2026-05-04T03:48:37Z</time></trkpt><trkpt lat="45.944711641781964" lon="12.096031325922258"><ele>262.0</ele><time>2026-05-04T03:48:39Z</time></trkpt><trkpt lat="45.94460027469314" lon="12.096088615644828"><ele>262.0</ele><time>2026-05-04T03:48:42Z</time></trkpt><trkpt lat="45.94454835044255" lon="12.096144722600062"><ele>262.0</ele><time>2026-05-04T03:48:56Z</time></trkpt><trkpt lat="45.9444432602812" lon="12.096260571008367"><ele>262.0</ele><time>2026-05-04T03:48:58Z</time></trkpt><trkpt lat="45.94438594729769" lon="12.096325617297726"><ele>262.0</ele><time>2026-05-04T03:48:59Z</time></trkpt><trkpt lat="45.944333453720176" lon="12.096385193936554"><ele>262.0</ele><time>2026-05-04T03:49:01Z</time></trkpt><trkpt lat="45.94426796700739" lon="12.096459371501481"><ele>262.0</ele><time>2026-05-04T03:49:27Z</time></trkpt><trkpt lat="45.944212467167944" lon="12.096520639345407"><ele>262.0</ele><time>2026-05-04T03:49:28Z</time></trkpt><trkpt lat="45.944150498959466" lon="12.096589047724041"><ele>262.0</ele><time>2026-05-04T03:49:29Z</time></trkpt><trkpt lat="45.944078433482595" lon="12.096668602800388"><ele>260.6</ele><time>2026-05-04T03:49:30Z</time></trkpt><trkpt lat="45.9440003784524" lon="12.096754769882663"><ele>259.2</ele><time>2026-05-04T03:49:31Z</time></trkpt><trkpt lat="45.943920025528215" lon="12.096843473709558"><ele>257.8</ele><time>2026-05-04T03:49:32Z</time></trkpt><trkpt lat="45.94384253540666" lon="12.096929017180523"><ele>256.4</ele><time>2026-05-04T03:49:33Z</time></trkpt><trkpt lat="45.94376843677512" lon="12.097010817182055"><ele>255.0</ele><time>2026-05-04T03:49:34Z</time></trkpt><trkpt lat="45.94370009535738" lon="12.097089242418162"><ele>255.0</ele><time>2026-05-04T03:49:35Z</time></trkpt><trkpt lat="45.94364106472655" lon="12.097155617479453"><ele>255.00000000000003</ele><time>2026-05-04T03:49:35.999Z</time></trkpt><trkpt lat="45.94360521860107" lon="12.097231312396419"><ele>255.0</ele><time>2026-05-04T03:49:36.999Z</time></trkpt><trkpt lat="45.943541082861046" lon="12.097297709627908"><ele>255.0</ele><time>2026-05-04T03:49:38.999Z</time></trkpt><trkpt lat="45.94348581702022" lon="12.09735209322526"><ele>255.00000000000003</ele><time>2026-05-04T03:49:41.999Z</time></trkpt><trkpt lat="45.94347793567" lon="12.09748210681053"><ele>255.0</ele><time>2026-05-04T03:49:45.999Z</time></trkpt><trkpt lat="45.9434259348763" lon="12.097422380043385"><ele>255.0</ele><time>2026-05-04T03:50:00.999Z</time></trkpt><trkpt lat="45.943268757447136" lon="12.097500299081998"><ele>254.66666666666666</ele><time>2026-05-04T03:50:03.999Z</time></trkpt><trkpt lat="45.94317328906027" lon="12.097519883689186"><ele>254.33333333333331</ele><time>2026-05-04T03:50:06.999Z</time></trkpt><trkpt lat="45.94309301763354" lon="12.097541082008119"><ele>254.0</ele><time>2026-05-04T03:50:09.999Z</time></trkpt><trkpt lat="45.94302706929107" lon="12.097554922334846"><ele>253.66666666666666</ele><time>2026-05-04T03:50:11.999Z</time></trkpt><trkpt lat="45.942962199980414" lon="12.097571078995653"><ele>253.33333333333331</ele><time>2026-05-04T03:50:13.999Z</time></trkpt><trkpt lat="45.94288758458436" lon="12.097600819273392"><ele>253.0</ele><time>2026-05-04T03:50:15.999Z</time></trkpt><trkpt lat="45.94279881971829" lon="12.09762681042826"><ele>252.99999999999997</ele><time>2026-05-04T03:50:17.999Z</time></trkpt><trkpt lat="45.94271737939252" lon="12.097654459473478"><ele>253.0</ele><time>2026-05-04T03:50:19.999Z</time></trkpt><trkpt lat="45.94263903413675" lon="12.097677638180041"><ele>253.0</ele><time>2026-05-04T03:50:21.999Z</time></trkpt><trkpt lat="45.94256207411471" lon="12.097698196827556"><ele>253.0</ele><time>2026-05-04T03:50:23.999Z</time></trkpt><trkpt lat="45.942467359277636" lon="12.097713977668725"><ele>252.99999999999997</ele><time>2026-05-04T03:50:26.999Z</time></trkpt><trkpt lat="45.94239649054198" lon="12.097719745288092"><ele>253.0</ele><time>2026-05-04T03:50:28.999Z</time></trkpt><trkpt lat="45.94229117587571" lon="12.097718320747058"><ele>254.66666666666666</ele><time>2026-05-04T03:50:32Z</time></trkpt><trkpt lat="45.94221793859159" lon="12.097717673434774"><ele>256.3333333333333</ele><time>2026-05-04T03:50:34Z</time></trkpt><trkpt lat="45.94212001374828" lon="12.09772486893374"><ele>258.0</ele><time>2026-05-04T03:50:37Z</time></trkpt><trkpt lat="45.94203428006521" lon="12.097754250466899"><ele>259.6666666666667</ele><time>2026-05-04T03:50:39Z</time></trkpt><trkpt lat="45.94194459392212" lon="12.09779235738353"><ele>261.33333333333337</ele><time>2026-05-04T03:50:41Z</time></trkpt><trkpt lat="45.94186288854881" lon="12.097782718316038"><ele>263.0</ele><time>2026-05-04T03:50:43Z</time></trkpt><trkpt lat="45.94177764979796" lon="12.097796444873183"><ele>265.6</ele><time>2026-05-04T03:50:45Z</time></trkpt><trkpt lat="45.94168320591712" lon="12.097811653793709"><ele>268.20000000000005</ele><time>2026-05-04T03:50:47Z</time></trkpt><trkpt lat="45.94160393930081" lon="12.09782441861964"><ele>270.8</ele><time>2026-05-04T03:50:49Z</time></trkpt><trkpt lat="45.94150237917159" lon="12.097844630600834"><ele>273.40000000000003</ele><time>2026-05-04T03:50:51Z</time></trkpt><trkpt lat="45.941467187593894" lon="12.098028125221681"><ele>276.0</ele><time>2026-05-04T03:50:52Z</time></trkpt><trkpt lat="45.94139334640796" lon="12.098053406518417"><ele>276.0</ele><time>2026-05-04T03:50:57Z</time></trkpt><trkpt lat="45.94133512975064" lon="12.098091632338459"><ele>276.0</ele><time>2026-05-04T03:51:00Z</time></trkpt><trkpt lat="45.94141432990174" lon="12.098052220756754"><ele>276.0</ele><time>2026-05-04T03:51:20Z</time></trkpt><trkpt lat="45.941489222178184" lon="12.098016117789353"><ele>276.0</ele><time>2026-05-04T03:51:22Z</time></trkpt><trkpt lat="45.941576495277964" lon="12.097975278482892"><ele>276.0</ele><time>2026-05-04T03:51:24Z</time></trkpt><trkpt lat="45.94165065412835" lon="12.097945672491708"><ele>276.0</ele><time>2026-05-04T03:51:25Z</time></trkpt><trkpt lat="45.94175840883014" lon="12.097889831506645"><ele>272.75</ele><time>2026-05-04T03:51:27Z</time></trkpt><trkpt lat="45.94186580163216" lon="12.097831131971503"><ele>269.5</ele><time>2026-05-04T03:51:29Z</time></trkpt><trkpt lat="45.94197574409337" lon="12.097767680005772"><ele>266.25</ele><time>2026-05-04T03:51:31Z</time></trkpt><trkpt lat="45.942095433970344" lon="12.097745174439982"><ele>263.0</ele><time>2026-05-04T03:51:33Z</time></trkpt><trkpt lat="45.94221422653871" lon="12.097709565065395"><ele>263.0</ele><time>2026-05-04T03:51:34.999Z</time></trkpt><trkpt lat="45.94227289795304" lon="12.09774250769825"><ele>263.0</ele><time>2026-05-04T03:51:35.999Z</time></trkpt><trkpt lat="45.94239842466625" lon="12.097732906988531"><ele>263.0</ele><time>2026-05-04T03:51:37.999Z</time></trkpt><trkpt lat="45.942463975223255" lon="12.09773673745048"><ele>263.0</ele><time>2026-05-04T03:51:38.999Z</time></trkpt><trkpt lat="45.94252702550377" lon="12.097727471484747"><ele>263.0</ele><time>2026-05-04T03:51:39.999Z</time></trkpt><trkpt lat="45.94258954038545" lon="12.097703221234017"><ele>263.0</ele><time>2026-05-04T03:51:40.999Z</time></trkpt><trkpt lat="45.94265322740546" lon="12.097678346954417"><ele>263.0</ele><time>2026-05-04T03:51:41.999Z</time></trkpt><trkpt lat="45.94271878947496" lon="12.097655528341987"><ele>261.0</ele><time>2026-05-04T03:51:42.999Z</time></trkpt><trkpt lat="45.9427848694806" lon="12.097634143247744"><ele>259.0</ele><time>2026-05-04T03:51:43.999Z</time></trkpt><trkpt lat="45.94284738002203" lon="12.097611440446558"><ele>257.0</ele><time>2026-05-04T03:51:44.999Z</time></trkpt><trkpt lat="45.94296148220982" lon="12.097599566693397"><ele>255.0</ele><time>2026-05-04T03:51:46.999Z</time></trkpt><trkpt lat="45.94307183162197" lon="12.097567053471312"><ele>253.0</ele><time>2026-05-04T03:51:48.999Z</time></trkpt><trkpt lat="45.943177937787965" lon="12.097514888302783"><ele>252.99999999999997</ele><time>2026-05-04T03:51:50.999Z</time></trkpt><trkpt lat="45.94327631950585" lon="12.097490155010663"><ele>253.0</ele><time>2026-05-04T03:51:52.999Z</time></trkpt><trkpt lat="45.9433660006412" lon="12.09747251578886"><ele>253.0</ele><time>2026-05-04T03:51:54.999Z</time></trkpt><trkpt lat="45.94342920792229" lon="12.097449473473935"><ele>253.0</ele><time>2026-05-04T03:51:56.999Z</time></trkpt><trkpt lat="45.943501729062184" lon="12.09735279113859"><ele>252.99999999999997</ele><time>2026-05-04T03:51:59.999Z</time></trkpt><trkpt lat="45.94355549287533" lon="12.097294443877715"><ele>253.0</ele><time>2026-05-04T03:52:00.999Z</time></trkpt><trkpt lat="45.94361722049814" lon="12.09722906852072"><ele>253.4</ele><time>2026-05-04T03:52:01.999Z</time></trkpt><trkpt lat="45.943688132963764" lon="12.097154107362398"><ele>253.8</ele><time>2026-05-04T03:52:02.999Z</time></trkpt><trkpt lat="45.94376301527993" lon="12.097070033406345"><ele>254.2</ele><time>2026-05-04T03:52:03.999Z</time></trkpt><trkpt lat="45.9438440969902" lon="12.096977411796356"><ele>254.6</ele><time>2026-05-04T03:52:04.999Z</time></trkpt><trkpt lat="45.94393265476251" lon="12.09687869464416"><ele>255.0</ele><time>2026-05-04T03:52:05.999Z</time></trkpt><trkpt lat="45.94402541666757" lon="12.096775387187035"><ele>255.0</ele><time>2026-05-04T03:52:06.999Z</time></trkpt><trkpt lat="45.94411975482203" lon="12.096666587271095"><ele>255.0</ele><time>2026-05-04T03:52:07.999Z</time></trkpt><trkpt lat="45.9442193059377" lon="12.096551858804565"><ele>255.0</ele><time>2026-05-04T03:52:08.999Z</time></trkpt><trkpt lat="45.94431824016041" lon="12.096440035674398"><ele>255.0</ele><time>2026-05-04T03:52:09.999Z</time></trkpt><trkpt lat="45.9444112207279" lon="12.096335259154777"><ele>256.1666666666667</ele><time>2026-05-04T03:52:10.999Z</time></trkpt><trkpt lat="45.94450032613126" lon="12.096237752053684"><ele>257.3333333333333</ele><time>2026-05-04T03:52:11.999Z</time></trkpt><trkpt lat="45.94457253475114" lon="12.09615305973159"><ele>258.5</ele><time>2026-05-04T03:52:12.999Z</time></trkpt><trkpt lat="45.944623694714444" lon="12.09609914893531"><ele>259.66666666666663</ele><time>2026-05-04T03:52:13.999Z</time></trkpt><trkpt lat="45.944690576371514" lon="12.096085464247643"><ele>260.8333333333333</ele><time>2026-05-04T03:52:17.999Z</time></trkpt><trkpt lat="45.94473042810102" lon="12.096185065098068"><ele>262.0</ele><time>2026-05-04T03:52:18.999Z</time></trkpt><trkpt lat="45.94474785029104" lon="12.096286082674219"><ele>262.0</ele><time>2026-05-04T03:52:19.999Z</time></trkpt><trkpt lat="45.94478115356006" lon="12.096401503927407"><ele>262.0</ele><time>2026-05-04T03:52:20.999Z</time></trkpt><trkpt lat="45.94482156860365" lon="12.096528091746805"><ele>262.0</ele><time>2026-05-04T03:52:21.999Z</time></trkpt><trkpt lat="45.94486114493594" lon="12.096664573130779"><ele>262.0</ele><time>2026-05-04T03:52:22.999Z</time></trkpt><trkpt lat="45.94490183574123" lon="12.096800873706584"><ele>262.0</ele><time>2026-05-04T03:52:23.999Z</time></trkpt><trkpt lat="45.94494078082494" lon="12.096939491653073"><ele>261.66666666666663</ele><time>2026-05-04T03:52:24.999Z</time></trkpt><trkpt lat="45.94498146222082" lon="12.097083636965873"><ele>261.3333333333333</ele><time>2026-05-04T03:52:25.999Z</time></trkpt><trkpt lat="45.94502027113006" lon="12.09721409795895"><ele>261.0</ele><time>2026-05-04T03:52:26.999Z</time></trkpt><trkpt lat="45.945053706608256" lon="12.097329152010943"><ele>260.6666666666667</ele><time>2026-05-04T03:52:27.999Z</time></trkpt><trkpt lat="45.94508003634174" lon="12.09742054411795"><ele>260.33333333333337</ele><time>2026-05-04T03:52:28.999Z</time></trkpt><trkpt lat="45.94510774381905" lon="12.097510212473905"><ele>260.0</ele><time>2026-05-04T03:52:30.999Z</time></trkpt><trkpt lat="45.945149405795476" lon="12.09763033958618"><ele>259.8</ele><time>2026-05-04T03:52:44Z</time></trkpt><trkpt lat="45.945177902745144" lon="12.097723074709378"><ele>259.6</ele><time>2026-05-04T03:52:45Z</time></trkpt><trkpt lat="45.94521401556477" lon="12.097841096400089"><ele>259.4</ele><time>2026-05-04T03:52:46Z</time></trkpt><trkpt lat="45.94525178580128" lon="12.097969731019445"><ele>259.2</ele><time>2026-05-04T03:52:47Z</time></trkpt><trkpt lat="45.94529290965776" lon="12.098107858228692"><ele>259.0</ele><time>2026-05-04T03:52:48Z</time></trkpt><trkpt lat="45.94533685669794" lon="12.098253721783873"><ele>259.0</ele><time>2026-05-04T03:52:49Z</time></trkpt><trkpt lat="45.94538057424408" lon="12.098400087688557"><ele>259.0</ele><time>2026-05-04T03:52:50Z</time></trkpt><trkpt lat="45.945423455862326" lon="12.098545879808135"><ele>259.0</ele><time>2026-05-04T03:52:51Z</time></trkpt><trkpt lat="45.945465894879874" lon="12.09868758870639"><ele>259.0</ele><time>2026-05-04T03:52:52Z</time></trkpt><trkpt lat="45.94550862340832" lon="12.098834371921322"><ele>259.0</ele><time>2026-05-04T03:52:53Z</time></trkpt><trkpt lat="45.945553236756005" lon="12.098987207287104"><ele>258.0</ele><time>2026-05-04T03:52:54Z</time></trkpt><trkpt lat="45.94559942397713" lon="12.099144150987199"><ele>257.0</ele><time>2026-05-04T03:52:55Z</time></trkpt><trkpt lat="45.94564639654301" lon="12.09930291243404"><ele>256.0</ele><time>2026-05-04T03:52:56Z</time></trkpt><trkpt lat="45.94569284889432" lon="12.099457752935834"><ele>255.0</ele><time>2026-05-04T03:52:57Z</time></trkpt><trkpt lat="45.94573798494759" lon="12.099608588722035"><ele>255.0</ele><time>2026-05-04T03:52:58Z</time></trkpt><trkpt lat="45.945782759995375" lon="12.099760282673161"><ele>255.0</ele><time>2026-05-04T03:52:59Z</time></trkpt><trkpt lat="45.94582868547899" lon="12.09991153827837"><ele>255.0</ele><time>2026-05-04T03:53:00Z</time></trkpt><trkpt lat="45.9458734126834" lon="12.10006229954561"><ele>255.0</ele><time>2026-05-04T03:53:01Z</time></trkpt><trkpt lat="45.945918678082805" lon="12.100214302167235"><ele>255.5</ele><time>2026-05-04T03:53:02Z</time></trkpt><trkpt lat="45.94596463515995" lon="12.100369750036288"><ele>256.0</ele><time>2026-05-04T03:53:03Z</time></trkpt><trkpt lat="45.94601283471544" lon="12.1005274106664"><ele>256.5</ele><time>2026-05-04T03:53:04Z</time></trkpt><trkpt lat="45.94605695386741" lon="12.100679734472855"><ele>257.0</ele><time>2026-05-04T03:53:05Z</time></trkpt><trkpt lat="45.94609678124011" lon="12.100822512194817"><ele>256.0</ele><time>2026-05-04T03:53:06Z</time></trkpt><trkpt lat="45.946132945924454" lon="12.100949199142153"><ele>255.0</ele><time>2026-05-04T03:53:07Z</time></trkpt><trkpt lat="45.946162976632216" lon="12.101057719644995"><ele>254.0</ele><time>2026-05-04T03:53:08Z</time></trkpt><trkpt lat="45.94618817385362" lon="12.101148952308096"><ele>253.0</ele><time>2026-05-04T03:53:09Z</time></trkpt><trkpt lat="45.946226590686464" lon="12.101281844388138"><ele>252.00000000000003</ele><time>2026-05-04T03:53:11Z</time></trkpt><trkpt lat="45.9462565981707" lon="12.101389444766847"><ele>251.0</ele><time>2026-05-04T03:53:39.999Z</time></trkpt><trkpt lat="45.946283934141974" lon="12.101487827745215"><ele>251.0</ele><time>2026-05-04T03:53:41.999Z</time></trkpt><trkpt lat="45.94630728028961" lon="12.101574343059628"><ele>251.00000000000003</ele><time>2026-05-04T03:53:54.999Z</time></trkpt><trkpt lat="45.9463578981338" lon="12.101732258951616"><ele>251.00000000000003</ele><time>2026-05-04T03:54:08.999Z</time></trkpt><trkpt lat="45.946390260814994" lon="12.101834580924177"><ele>251.0</ele><time>2026-05-04T03:54:09.999Z</time></trkpt><trkpt lat="45.94642712579342" lon="12.101956433609015"><ele>251.0</ele><time>2026-05-04T03:54:10.999Z</time></trkpt><trkpt lat="45.9464684097176" lon="12.102097268090093"><ele>249.75</ele><time>2026-05-04T03:54:11.999Z</time></trkpt><trkpt lat="45.946513813230325" lon="12.102252038841288"><ele>248.5</ele><time>2026-05-04T03:54:12.999Z</time></trkpt><trkpt lat="45.946558488510306" lon="12.102410578276855"><ele>247.25</ele><time>2026-05-04T03:54:13.999Z</time></trkpt><trkpt lat="45.94660281353813" lon="12.102566267928353"><ele>246.0</ele><time>2026-05-04T03:54:14.999Z</time></trkpt><trkpt lat="45.946647464848155" lon="12.102719261740331"><ele>246.20000000000002</ele><time>2026-05-04T03:54:15.999Z</time></trkpt><trkpt lat="45.94669192859959" lon="12.102867366709287"><ele>246.40000000000003</ele><time>2026-05-04T03:54:16.999Z</time></trkpt><trkpt lat="45.946732846817476" lon="12.103000616501642"><ele>246.6</ele><time>2026-05-04T03:54:17.999Z</time></trkpt><trkpt lat="45.94675671837387" lon="12.103105089465725"><ele>246.8</ele><time>2026-05-04T03:54:18.999Z</time></trkpt><trkpt lat="45.94674730638143" lon="12.103194625858677"><ele>247.0</ele><time>2026-05-04T03:54:19.999Z</time></trkpt><trkpt lat="45.94656008792252" lon="12.103254544436162"><ele>246.33333333333331</ele><time>2026-05-04T03:54:22.999Z</time></trkpt><trkpt lat="45.946509235538656" lon="12.103146988310257"><ele>245.66666666666666</ele><time>2026-05-04T03:54:23.999Z</time></trkpt><trkpt lat="45.946467116611736" lon="12.103047602521142"><ele>245.0</ele><time>2026-05-04T03:54:24.999Z</time></trkpt><trkpt lat="45.946409161991404" lon="12.102969138697265"><ele>244.33333333333331</ele><time>2026-05-04T03:54:26.999Z</time></trkpt><trkpt lat="45.94631586164899" lon="12.102862109376606"><ele>243.66666666666666</ele><time>2026-05-04T03:55:05Z</time></trkpt><trkpt lat="45.946265198070414" lon="12.102783910083655"><ele>243.0</ele><time>2026-05-04T03:55:06Z</time></trkpt><trkpt lat="45.94621247284288" lon="12.102693912925035"><ele>243.0</ele><time>2026-05-04T03:55:07Z</time></trkpt><trkpt lat="45.94615521921902" lon="12.102593498200095"><ele>243.0</ele><time>2026-05-04T03:55:08Z</time></trkpt><trkpt lat="45.94609949960675" lon="12.102499893440935"><ele>243.0</ele><time>2026-05-04T03:55:09Z</time></trkpt><trkpt lat="45.94606093947341" lon="12.102427990116126"><ele>243.0</ele><time>2026-05-04T03:55:10Z</time></trkpt><trkpt lat="45.946010184241615" lon="12.102344615604606"><ele>243.0</ele><time>2026-05-04T03:55:31Z</time></trkpt><trkpt lat="45.945932677160094" lon="12.102218965127989"><ele>243.0</ele><time>2026-05-04T03:55:32.999Z</time></trkpt><trkpt lat="45.94588574901419" lon="12.102142056067644"><ele>243.5</ele><time>2026-05-04T03:55:33.999Z</time></trkpt><trkpt lat="45.94583916248048" lon="12.102066790533549"><ele>244.0</ele><time>2026-05-04T03:55:35.999Z</time></trkpt><trkpt lat="45.945759580734254" lon="12.10194172064589"><ele>244.5</ele><time>2026-05-04T03:56:10.999Z</time></trkpt><trkpt lat="45.94571041218314" lon="12.101864124595066"><ele>245.0</ele><time>2026-05-04T03:56:11.999Z</time></trkpt><trkpt lat="45.94565268371618" lon="12.10176803984172"><ele>245.5</ele><time>2026-05-04T03:56:12.999Z</time></trkpt><trkpt lat="45.94559002824021" lon="12.1016646391935"><ele>246.0</ele><time>2026-05-04T03:56:13.999Z</time></trkpt><trkpt lat="45.94553289391568" lon="12.101574271819363"><ele>246.8</ele><time>2026-05-04T03:56:14.999Z</time></trkpt><trkpt lat="45.945474392889686" lon="12.101508031584418"><ele>247.60000000000002</ele><time>2026-05-04T03:56:46.999Z</time></trkpt><trkpt lat="45.9454026253408" lon="12.101395842299137"><ele>248.4</ele><time>2026-05-04T03:56:49Z</time></trkpt><trkpt lat="45.94534935599514" lon="12.101310567730332"><ele>249.2</ele><time>2026-05-04T03:56:50Z</time></trkpt><trkpt lat="45.945290760823916" lon="12.10121420782302"><ele>250.0</ele><time>2026-05-04T03:56:51Z</time></trkpt><trkpt lat="45.945224442905435" lon="12.101103267927657"><ele>250.0</ele><time>2026-05-04T03:56:52Z</time></trkpt><trkpt lat="45.945151252273554" lon="12.100980530112775"><ele>250.0</ele><time>2026-05-04T03:56:53Z</time></trkpt><trkpt lat="45.945070228825784" lon="12.10084861498734"><ele>250.0</ele><time>2026-05-04T03:56:54Z</time></trkpt><trkpt lat="45.94498306836917" lon="12.100706347969812"><ele>250.0</ele><time>2026-05-04T03:56:55Z</time></trkpt><trkpt lat="45.94489029171839" lon="12.100556036438432"><ele>249.66666666666666</ele><time>2026-05-04T03:56:56Z</time></trkpt><trkpt lat="45.94480069769006" lon="12.1003826005478"><ele>249.33333333333331</ele><time>2026-05-04T03:56:57Z</time></trkpt><trkpt lat="45.944698329646215" lon="12.100210403226345"><ele>249.0</ele><time>2026-05-04T03:56:58Z</time></trkpt><trkpt lat="45.94458911921543" lon="12.100027926722367"><ele>250.0</ele><time>2026-05-04T03:56:59Z</time></trkpt><trkpt lat="45.94448054863911" lon="12.099832824448155"><ele>251.0</ele><time>2026-05-04T03:57:00Z</time></trkpt><trkpt lat="45.94438028033712" lon="12.099622678657532"><ele>252.0</ele><time>2026-05-04T03:57:01Z</time></trkpt><trkpt lat="45.94428663599399" lon="12.099397603638822"><ele>252.66666666666669</ele><time>2026-05-04T03:57:02Z</time></trkpt><trkpt lat="45.944193968483034" lon="12.0991640478081"><ele>253.33333333333334</ele><time>2026-05-04T03:57:03Z</time></trkpt><trkpt lat="45.94409836337409" lon="12.098926871919089"><ele>254.0</ele><time>2026-05-04T03:57:04Z</time></trkpt><trkpt lat="45.944001769008295" lon="12.098684715473851"><ele>254.0</ele><time>2026-05-04T03:57:05Z</time></trkpt><trkpt lat="45.94390305637548" lon="12.098438299522112"><ele>254.0</ele><time>2026-05-04T03:57:06Z</time></trkpt><trkpt lat="45.943801869886904" lon="12.09818601746761"><ele>254.0</ele><time>2026-05-04T03:57:07Z</time></trkpt><trkpt lat="45.943700079526266" lon="12.097932006225964"><ele>254.0</ele><time>2026-05-04T03:57:08Z</time></trkpt><trkpt lat="45.94359986833304" lon="12.097678954757692"><ele>254.0</ele><time>2026-05-04T03:57:09Z</time></trkpt><trkpt lat="45.94350635887438" lon="12.09744342655308"><ele>254.0</ele><time>2026-05-04T03:57:10Z</time></trkpt><trkpt lat="45.94341640277176" lon="12.097223503090394"><ele>253.5</ele><time>2026-05-04T03:57:11Z</time></trkpt><trkpt lat="45.94333012565062" lon="12.097024430880047"><ele>253.0</ele><time>2026-05-04T03:57:12Z</time></trkpt><trkpt lat="45.9432541869467" lon="12.096844288932466"><ele>252.5</ele><time>2026-05-04T03:57:13Z</time></trkpt><trkpt lat="45.943188196989645" lon="12.096689905269796"><ele>252.0</ele><time>2026-05-04T03:57:14Z</time></trkpt><trkpt lat="45.943129844889285" lon="12.096550830071598"><ele>252.0</ele><time>2026-05-04T03:57:15Z</time></trkpt><trkpt lat="45.94307575415792" lon="12.096429044421534"><ele>252.0</ele><time>2026-05-04T03:57:16Z</time></trkpt><trkpt lat="45.94303326514198" lon="12.096340704385305"><ele>252.0</ele><time>2026-05-04T03:57:17Z</time></trkpt><trkpt lat="45.94300322967222" lon="12.096224339710137"><ele>252.0</ele><time>2026-05-04T03:57:19Z</time></trkpt><trkpt lat="45.94307532327695" lon="12.096124941037202"><ele>252.0</ele><time>2026-05-04T03:57:21Z</time></trkpt><trkpt lat="45.94314472827901" lon="12.096096094287478"><ele>252.0</ele><time>2026-05-04T03:57:22Z</time></trkpt><trkpt lat="45.94321979679703" lon="12.096055059636015"><ele>252.0</ele><time>2026-05-04T03:57:23Z</time></trkpt><trkpt lat="45.94330003496939" lon="12.096004093837026"><ele>252.0</ele><time>2026-05-04T03:57:24Z</time></trkpt><trkpt lat="45.94338904739141" lon="12.095945976587274"><ele>252.0</ele><time>2026-05-04T03:57:25Z</time></trkpt><trkpt lat="45.94348581607526" lon="12.095885076501629"><ele>252.0</ele><time>2026-05-04T03:57:26Z</time></trkpt><trkpt lat="45.943586662918904" lon="12.09581973957684"><ele>252.0</ele><time>2026-05-04T03:57:27Z</time></trkpt><trkpt lat="45.94368203262143" lon="12.095757766367829"><ele>252.83333333333334</ele><time>2026-05-04T03:57:28Z</time></trkpt><trkpt lat="45.94374663550766" lon="12.095715674267302"><ele>253.66666666666669</ele><time>2026-05-04T03:57:29Z</time></trkpt><trkpt lat="45.9438457642139" lon="12.095657875543623"><ele>254.5</ele><time>2026-05-04T03:57:49.999Z</time></trkpt><trkpt lat="45.943916858963036" lon="12.095616521426807"><ele>255.33333333333334</ele><time>2026-05-04T03:58:05.999Z</time></trkpt><trkpt lat="45.94381525294165" lon="12.095668016309581"><ele>256.1666666666667</ele><time>2026-05-04T03:58:18.999Z</time></trkpt><trkpt lat="45.94374458559455" lon="12.095689341014074"><ele>257.0</ele><time>2026-05-04T03:58:19.999Z</time></trkpt><trkpt lat="45.943667418496794" lon="12.095732781170156"><ele>257.1666666666667</ele><time>2026-05-04T03:58:20.999Z</time></trkpt><trkpt lat="45.94358378384257" lon="12.095783163077202"><ele>257.33333333333337</ele><time>2026-05-04T03:58:21.999Z</time></trkpt><trkpt lat="45.9434924979258" lon="12.095839252071064"><ele>257.5</ele><time>2026-05-04T03:58:22.999Z</time></trkpt><trkpt lat="45.94340145103648" lon="12.095895256892197"><ele>257.6666666666667</ele><time>2026-05-04T03:58:23.999Z</time></trkpt><trkpt lat="45.943330361899555" lon="12.095938357204215"><ele>257.8333333333333</ele><time>2026-05-04T03:58:24.999Z</time></trkpt><trkpt lat="45.943270929520324" lon="12.095980622838521"><ele>258.0</ele><time>2026-05-04T03:58:39.999Z</time></trkpt><trkpt lat="45.94317403118983" lon="12.096049119189821"><ele>256.8</ele><time>2026-05-04T03:58:41.999Z</time></trkpt><trkpt lat="45.94310053785352" lon="12.096102735576194"><ele>255.60000000000002</ele><time>2026-05-04T03:58:42.999Z</time></trkpt><trkpt lat="45.94303628217029" lon="12.096121782490048"><ele>254.39999999999998</ele><time>2026-05-04T03:58:43.999Z</time></trkpt><trkpt lat="45.94295957179219" lon="12.096156070564374"><ele>253.2</ele><time>2026-05-04T03:58:46.999Z</time></trkpt><trkpt lat="45.94288647612318" lon="12.095996577319278"><ele>252.0</ele><time>2026-05-04T03:58:48.999Z</time></trkpt><trkpt lat="45.942840537292014" lon="12.095874329370009"><ele>252.0</ele><time>2026-05-04T03:58:49.999Z</time></trkpt><trkpt lat="45.94277877088941" lon="12.095744625686356"><ele>252.0</ele><time>2026-05-04T03:58:50.999Z</time></trkpt><trkpt lat="45.942704381598894" lon="12.095601996744703"><ele>252.0</ele><time>2026-05-04T03:58:51.999Z</time></trkpt><trkpt lat="45.942612787669496" lon="12.095452706615918"><ele>252.0</ele><time>2026-05-04T03:58:52.999Z</time></trkpt><trkpt lat="45.94250840455675" lon="12.095300242449005"><ele>251.66666666666669</ele><time>2026-05-04T03:58:54Z</time></trkpt><trkpt lat="45.942392709396756" lon="12.095142327009608"><ele>251.33333333333334</ele><time>2026-05-04T03:58:55Z</time></trkpt><trkpt lat="45.94227086212943" lon="12.09497502270752"><ele>251.0</ele><time>2026-05-04T03:58:56Z</time></trkpt><trkpt lat="45.94214370991437" lon="12.094801396336868"><ele>251.0</ele><time>2026-05-04T03:58:57Z</time></trkpt><trkpt lat="45.94201228811336" lon="12.094623644813483"><ele>251.0</ele><time>2026-05-04T03:58:58Z</time></trkpt><trkpt lat="45.94187758060342" lon="12.094442494739472"><ele>251.0</ele><time>2026-05-04T03:58:59Z</time></trkpt><trkpt lat="45.94173973317515" lon="12.094260892345936"><ele>250.33333333333334</ele><time>2026-05-04T03:59:00Z</time></trkpt><trkpt lat="45.941599794468324" lon="12.094074853925735"><ele>249.66666666666669</ele><time>2026-05-04T03:59:01Z</time></trkpt><trkpt lat="45.94146833889564" lon="12.09389273181961"><ele>249.0</ele><time>2026-05-04T03:59:02Z</time></trkpt><trkpt lat="45.941380000681875" lon="12.093763378160865"><ele>249.0</ele><time>2026-05-04T03:59:03Z</time></trkpt><trkpt lat="45.94132421798936" lon="12.093675018250748"><ele>249.0</ele><time>2026-05-04T03:59:04Z</time></trkpt><trkpt lat="45.941277252627" lon="12.093609253620604"><ele>249.0</ele><time>2026-05-04T03:59:06Z</time></trkpt><trkpt lat="45.94120825071034" lon="12.093517785019694"><ele>249.0</ele><time>2026-05-04T03:59:25Z</time></trkpt><trkpt lat="45.941156106984586" lon="12.093447629610893"><ele>249.0</ele><time>2026-05-04T03:59:26Z</time></trkpt><trkpt lat="45.941098117381266" lon="12.09336855523844"><ele>249.0</ele><time>2026-05-04T03:59:27Z</time></trkpt><trkpt lat="45.94103508572046" lon="12.09327848497582"><ele>249.0</ele><time>2026-05-04T03:59:28Z</time></trkpt><trkpt lat="45.940969471665944" lon="12.093175054675774"><ele>248.99999999999997</ele><time>2026-05-04T03:59:29Z</time></trkpt><trkpt lat="45.9409007018082" lon="12.093064094986985"><ele>248.99999999999997</ele><time>2026-05-04T03:59:30Z</time></trkpt><trkpt lat="45.94083043329443" lon="12.09294541520637"><ele>249.0</ele><time>2026-05-04T03:59:31Z</time></trkpt><trkpt lat="45.94076034164689" lon="12.092819936810526"><ele>249.0</ele><time>2026-05-04T03:59:32Z</time></trkpt><trkpt lat="45.94068899648033" lon="12.092687608544576"><ele>249.0</ele><time>2026-05-04T03:59:33Z</time></trkpt><trkpt lat="45.940615191843655" lon="12.092549796315241"><ele>249.0</ele><time>2026-05-04T03:59:34Z</time></trkpt><trkpt lat="45.94053756065026" lon="12.092408213885262"><ele>249.0</ele><time>2026-05-04T03:59:35Z</time></trkpt><trkpt lat="45.94045942427298" lon="12.092266565638504"><ele>249.0</ele><time>2026-05-04T03:59:36Z</time></trkpt><trkpt lat="45.94038975426397" lon="12.09214112443956"><ele>249.2</ele><time>2026-05-04T03:59:36.999Z</time></trkpt><trkpt lat="45.940337711317156" lon="12.092038634416358"><ele>249.39999999999998</ele><time>2026-05-04T03:59:37.999Z</time></trkpt><trkpt lat="45.94030803787246" lon="12.091915570062033"><ele>249.6</ele><time>2026-05-04T03:59:39.999Z</time></trkpt><trkpt lat="45.940353129640705" lon="12.091802844858128"><ele>249.8</ele><time>2026-05-04T03:59:47.999Z</time></trkpt><trkpt lat="45.940427894692924" lon="12.09170715315044"><ele>250.0</ele><time>2026-05-04T03:59:49.999Z</time></trkpt><trkpt lat="45.940520514655724" lon="12.091631543226294"><ele>250.16666666666666</ele><time>2026-05-04T03:59:51.999Z</time></trkpt><trkpt lat="45.940588478503415" lon="12.091565329382686"><ele>250.33333333333331</ele><time>2026-05-04T04:00:50.999Z</time></trkpt><trkpt lat="45.94067882141622" lon="12.091477141883823"><ele>250.5</ele><time>2026-05-04T04:00:52.999Z</time></trkpt><trkpt lat="45.94073794378574" lon="12.091419315229155"><ele>250.66666666666669</ele><time>2026-05-04T04:00:53.999Z</time></trkpt><trkpt lat="45.940799913000454" lon="12.091358704091387"><ele>250.83333333333334</ele><time>2026-05-04T04:00:54.999Z</time></trkpt><trkpt lat="45.94086720770683" lon="12.091291425681407"><ele>251.0</ele><time>2026-05-04T04:00:55.999Z</time></trkpt><trkpt lat="45.940917598121516" lon="12.091189925273039"><ele>251.66666666666669</ele><time>2026-05-04T04:00:56.999Z</time></trkpt><trkpt lat="45.94096493946089" lon="12.091124463064341"><ele>252.33333333333334</ele><time>2026-05-04T04:00:57.999Z</time></trkpt><trkpt lat="45.94103804170593" lon="12.091093719411019"><ele>253.0</ele><time>2026-05-04T04:01:28Z</time></trkpt><trkpt lat="45.941103910901084" lon="12.091002939120855"><ele>253.66666666666669</ele><time>2026-05-04T04:01:30Z</time></trkpt><trkpt lat="45.94118967577006" lon="12.090877891495024"><ele>254.33333333333334</ele><time>2026-05-04T04:01:32Z</time></trkpt><trkpt lat="45.94123403513404" lon="12.090811544871473"><ele>255.0</ele><time>2026-05-04T04:01:33Z</time></trkpt><trkpt lat="45.94128986102281" lon="12.090728048151357"><ele>256.0</ele><time>2026-05-04T04:01:35Z</time></trkpt><trkpt lat="45.94133837727899" lon="12.090655806263099"><ele>257.0</ele><time>2026-05-04T04:01:38.999Z</time></trkpt><trkpt lat="45.94138874649151" lon="12.09058149130678"><ele>258.0</ele><time>2026-05-04T04:04:12.999Z</time></trkpt><trkpt lat="45.94146077163813" lon="12.090479846393096"><ele>259.0</ele><time>2026-05-04T04:04:14.999Z</time></trkpt><trkpt lat="45.94151150163084" lon="12.090408661539989"><ele>260.0</ele><time>2026-05-04T04:04:16.999Z</time></trkpt><trkpt lat="45.9415660773888" lon="12.090328447325804"><ele>261.0</ele><time>2026-05-04T04:04:34.999Z</time></trkpt><trkpt lat="45.941654371894586" lon="12.090199189320563"><ele>261.0</ele><time>2026-05-04T04:04:36.999Z</time></trkpt><trkpt lat="45.941702976925896" lon="12.090128979461669"><ele>261.0</ele><time>2026-05-04T04:04:37.999Z</time></trkpt><trkpt lat="45.941772709190744" lon="12.090024533238381"><ele>261.0</ele><time>2026-05-04T04:04:39.999Z</time></trkpt><trkpt lat="45.94181574836242" lon="12.089951448321427"><ele>261.0</ele><time>2026-05-04T04:04:49.999Z</time></trkpt><trkpt lat="45.94190445007133" lon="12.090013173794087"><ele>261.0</ele><time>2026-05-04T04:04:53.999Z</time></trkpt><trkpt lat="45.941955454152065" lon="12.09012506151014"><ele>261.0</ele><time>2026-05-04T04:04:55.999Z</time></trkpt><trkpt lat="45.94200669014033" lon="12.090206842521678"><ele>261.0</ele><time>2026-05-04T04:05:14Z</time></trkpt><trkpt lat="45.94206179117565" lon="12.090294792754205"><ele>261.0</ele><time>2026-05-04T04:05:16Z</time></trkpt><trkpt lat="45.94213030954244" lon="12.090404027177595"><ele>261.0</ele><time>2026-05-04T04:05:18Z</time></trkpt><trkpt lat="45.942210174623035" lon="12.090530918078722"><ele>261.0</ele><time>2026-05-04T04:05:20Z</time></trkpt><trkpt lat="45.94225385099363" lon="12.090600311805659"><ele>261.0</ele><time>2026-05-04T04:05:21Z</time></trkpt><trkpt lat="45.94229734994185" lon="12.090669424801336"><ele>261.0</ele><time>2026-05-04T04:05:22Z</time></trkpt><trkpt lat="45.942352540618124" lon="12.090739975071923"><ele>261.2</ele><time>2026-05-04T04:05:24Z</time></trkpt><trkpt lat="45.942413079314385" lon="12.090844100674854"><ele>261.40000000000003</ele><time>2026-05-04T04:05:43.999Z</time></trkpt><trkpt lat="45.94248514027577" lon="12.090967852946786"><ele>261.6</ele><time>2026-05-04T04:05:45.999Z</time></trkpt><trkpt lat="45.94254558225128" lon="12.09106574050277"><ele>261.8</ele><time>2026-05-04T04:06:00.999Z</time></trkpt><trkpt lat="45.94261035272181" lon="12.091152241776422"><ele>262.0</ele><time>2026-05-04T04:06:02.999Z</time></trkpt><trkpt lat="45.94266516986986" lon="12.091248113585467"><ele>262.0</ele><time>2026-05-04T04:06:04.999Z</time></trkpt><trkpt lat="45.942808881158214" lon="12.091135438625164"><ele>262.0</ele><time>2026-05-04T04:06:06.999Z</time></trkpt><trkpt lat="45.94289013926305" lon="12.091017371349222"><ele>262.0</ele><time>2026-05-04T04:06:08.999Z</time></trkpt><trkpt lat="45.94293720548299" lon="12.090955668037791"><ele>262.0</ele><time>2026-05-04T04:06:09.999Z</time></trkpt><trkpt lat="45.94298543001271" lon="12.090887449129411"><ele>262.0</ele><time>2026-05-04T04:06:10.999Z</time></trkpt><trkpt lat="45.94304742488108" lon="12.090855664477344"><ele>262.0</ele><time>2026-05-04T04:06:11.999Z</time></trkpt><trkpt lat="45.94315036260579" lon="12.090985656592427"><ele>262.0</ele><time>2026-05-04T04:06:13.999Z</time></trkpt><trkpt lat="45.94319181151518" lon="12.091083433910585"><ele>262.0</ele><time>2026-05-04T04:06:14.999Z</time></trkpt><trkpt lat="45.94323032656604" lon="12.091180547052486"><ele>262.0</ele><time>2026-05-04T04:06:15.999Z</time></trkpt><trkpt lat="45.943261036101966" lon="12.091268649287771"><ele>262.0</ele><time>2026-05-04T04:06:16.999Z</time></trkpt><trkpt lat="45.943306930835945" lon="12.091368166579128"><ele>262.0</ele><time>2026-05-04T04:06:18.999Z</time></trkpt><trkpt lat="45.94326673735845" lon="12.091284696557517"><ele>262.0</ele><time>2026-05-04T04:06:27.999Z</time></trkpt><trkpt lat="45.943235947164155" lon="12.09119803307789"><ele>262.0</ele><time>2026-05-04T04:06:33.999Z</time></trkpt><trkpt lat="45.94371516801481" lon="12.090779748048442"><ele>263.8</ele><time>2026-05-04T04:06:36.999Z</time></trkpt><trkpt lat="45.94379471079388" lon="12.090680433410064"><ele>265.6</ele><time>2026-05-04T04:06:38.999Z</time></trkpt><trkpt lat="45.94384709971149" lon="12.090611155168894"><ele>267.40000000000003</ele><time>2026-05-04T04:06:41.999Z</time></trkpt><trkpt lat="45.94389777411735" lon="12.09054514444079"><ele>269.2</ele><time>2026-05-04T04:06:44.999Z</time></trkpt><trkpt lat="45.943830719703" lon="12.090631259009946"><ele>271.0</ele><time>2026-05-04T04:07:23Z</time></trkpt><trkpt lat="45.94374118473096" lon="12.090738618374266"><ele>270.5</ele><time>2026-05-04T04:07:25Z</time></trkpt><trkpt lat="45.94366744872809" lon="12.090826855125647"><ele>270.0</ele><time>2026-05-04T04:07:27Z</time></trkpt><trkpt lat="45.94361512967531" lon="12.090891774986922"><ele>269.5</ele><time>2026-05-04T04:07:29Z</time></trkpt><trkpt lat="45.94356081538748" lon="12.090974709966508"><ele>269.0</ele><time>2026-05-04T04:07:31Z</time></trkpt><trkpt lat="45.943502521937646" lon="12.091034408256725"><ele>268.5</ele><time>2026-05-04T04:08:02.999Z</time></trkpt><trkpt lat="45.94344469039826" lon="12.09110252405203"><ele>268.0</ele><time>2026-05-04T04:08:04.999Z</time></trkpt><trkpt lat="45.94336851138222" lon="12.09119864956506"><ele>267.4</ele><time>2026-05-04T04:08:06.999Z</time></trkpt><trkpt lat="45.94330348613218" lon="12.091263553504227"><ele>266.8</ele><time>2026-05-04T04:08:08.999Z</time></trkpt><trkpt lat="45.94319521815752" lon="12.091030104892921"><ele>266.2</ele><time>2026-05-04T04:08:10.999Z</time></trkpt><trkpt lat="45.943162944041525" lon="12.090945136013978"><ele>265.6</ele><time>2026-05-04T04:08:11.999Z</time></trkpt><trkpt lat="45.943120015610894" lon="12.090819798399025"><ele>265.0</ele><time>2026-05-04T04:08:13.999Z</time></trkpt><trkpt lat="45.94314161441047" lon="12.090698488892507"><ele>264.99999999999994</ele><time>2026-05-04T04:08:15.999Z</time></trkpt><trkpt lat="45.94319056443179" lon="12.09063832564481"><ele>265.0</ele><time>2026-05-04T04:08:16.999Z</time></trkpt><trkpt lat="45.94324646494068" lon="12.09057167664922"><ele>265.0</ele><time>2026-05-04T04:08:17.999Z</time></trkpt><trkpt lat="45.94330448563068" lon="12.09050612304189"><ele>265.0</ele><time>2026-05-04T04:08:18.999Z</time></trkpt><trkpt lat="45.94336839287889" lon="12.090432390331427"><ele>265.0</ele><time>2026-05-04T04:08:19.999Z</time></trkpt><trkpt lat="45.943433853650035" lon="12.090358883187193"><ele>264.99999999999994</ele><time>2026-05-04T04:08:20.999Z</time></trkpt><trkpt lat="45.943489598625405" lon="12.090294365939837"><ele>265.0</ele><time>2026-05-04T04:08:21.999Z</time></trkpt><trkpt lat="45.94356729110568" lon="12.090186667083106"><ele>266.0</ele><time>2026-05-04T04:08:23.999Z</time></trkpt><trkpt lat="45.94361286070132" lon="12.090123843706023"><ele>267.0</ele><time>2026-05-04T04:08:25.999Z</time></trkpt><trkpt lat="45.94369062060518" lon="12.089996067254177"><ele>268.0</ele><time>2026-05-04T04:08:57.999Z</time></trkpt><trkpt lat="45.943786342657575" lon="12.089895552668402"><ele>269.0</ele><time>2026-05-04T04:08:59.999Z</time></trkpt><trkpt lat="45.94383861122507" lon="12.08984270863327"><ele>270.0</ele><time>2026-05-04T04:09:01.999Z</time></trkpt><trkpt lat="45.943775679827894" lon="12.089902738480864"><ele>271.0</ele><time>2026-05-04T04:10:01.999Z</time></trkpt><trkpt lat="45.943717661247575" lon="12.089974297854607"><ele>271.0</ele><time>2026-05-04T04:10:04.999Z</time></trkpt><trkpt lat="45.94366752955405" lon="12.090037700784265"><ele>271.0</ele><time>2026-05-04T04:10:06.999Z</time></trkpt><trkpt lat="45.943612233704016" lon="12.090107789956878"><ele>271.0</ele><time>2026-05-04T04:10:08.999Z</time></trkpt><trkpt lat="45.943557345827486" lon="12.090170356360955"><ele>271.0</ele><time>2026-05-04T04:10:10.999Z</time></trkpt><trkpt lat="45.94330809231183" lon="12.089738732337105"><ele>270.3333333333333</ele><time>2026-05-04T04:10:26.999Z</time></trkpt><trkpt lat="45.94325433644382" lon="12.08965994501758"><ele>269.66666666666663</ele><time>2026-05-04T04:10:27.999Z</time></trkpt><trkpt lat="45.94320590092165" lon="12.08959311505729"><ele>269.0</ele><time>2026-05-04T04:10:28.999Z</time></trkpt><trkpt lat="45.9431585593323" lon="12.08951881694244"><ele>268.3333333333333</ele><time>2026-05-04T04:10:31.999Z</time></trkpt><trkpt lat="45.94321130025819" lon="12.089616059145975"><ele>267.6666666666667</ele><time>2026-05-04T04:10:52.999Z</time></trkpt><trkpt lat="45.943277447708034" lon="12.089687921791553"><ele>267.0</ele><time>2026-05-04T04:10:55.999Z</time></trkpt><trkpt lat="45.9433258042068" lon="12.089766434951772"><ele>267.0</ele><time>2026-05-04T04:10:58.999Z</time></trkpt><trkpt lat="45.943372422533336" lon="12.089842125965824"><ele>267.0</ele><time>2026-05-04T04:11:04.999Z</time></trkpt><trkpt lat="45.943425816926826" lon="12.089891692970744"><ele>267.0</ele><time>2026-05-04T04:12:07.999Z</time></trkpt><trkpt lat="45.943482732769056" lon="12.090001944165508"><ele>267.0</ele><time>2026-05-04T04:12:11.999Z</time></trkpt><trkpt lat="45.94353182984063" lon="12.09008349532649"><ele>267.0</ele><time>2026-05-04T04:12:13.999Z</time></trkpt><trkpt lat="45.9435599936591" lon="12.090167523991827"><ele>267.0</ele><time>2026-05-04T04:12:17.999Z</time></trkpt><trkpt lat="45.943343556301265" lon="12.09043799509255"><ele>266.6</ele><time>2026-05-04T04:12:20Z</time></trkpt><trkpt lat="45.943292403662944" lon="12.090502967665179"><ele>266.2</ele><time>2026-05-04T04:12:21Z</time></trkpt><trkpt lat="45.94320416527596" lon="12.090591012423872"><ele>265.8</ele><time>2026-05-04T04:12:23Z</time></trkpt><trkpt lat="45.94312758288823" lon="12.09052144140077"><ele>265.4</ele><time>2026-05-04T04:12:25Z</time></trkpt><trkpt lat="45.943058595591054" lon="12.090377499456542"><ele>265.0</ele><time>2026-05-04T04:12:27Z</time></trkpt><trkpt lat="45.94301924603163" lon="12.09030616159722"><ele>265.0</ele><time>2026-05-04T04:12:28Z</time></trkpt><trkpt lat="45.94293570399922" lon="12.090195897717184"><ele>265.0</ele><time>2026-05-04T04:12:30Z</time></trkpt><trkpt lat="45.94284859604989" lon="12.090266610474622"><ele>265.0</ele><time>2026-05-04T04:12:32Z</time></trkpt><trkpt lat="45.94278651219259" lon="12.090360577414625"><ele>265.0</ele><time>2026-05-04T04:12:34Z</time></trkpt><trkpt lat="45.94279856980579" lon="12.090480462050909"><ele>265.0</ele><time>2026-05-04T04:12:36Z</time></trkpt><trkpt lat="45.94288676619562" lon="12.090564745364468"><ele>265.0</ele><time>2026-05-04T04:12:38Z</time></trkpt><trkpt lat="45.942959533410075" lon="12.090680803559033"><ele>265.0</ele><time>2026-05-04T04:12:40Z</time></trkpt><trkpt lat="45.94304217080034" lon="12.090767499994584"><ele>265.0</ele><time>2026-05-04T04:13:18.999Z</time></trkpt><trkpt lat="45.94303458988733" lon="12.090886690781279"><ele>265.0</ele><time>2026-05-04T04:13:22.999Z</time></trkpt><trkpt lat="45.942964788508505" lon="12.090935777601457"><ele>265.0</ele><time>2026-05-04T04:13:23.999Z</time></trkpt><trkpt lat="45.94288843977995" lon="12.0909482666163"><ele>265.0</ele><time>2026-05-04T04:13:24.999Z</time></trkpt><trkpt lat="45.94283488732945" lon="12.09101327771819"><ele>264.4</ele><time>2026-05-04T04:13:25.999Z</time></trkpt><trkpt lat="45.942784195856575" lon="12.091076456496358"><ele>263.8</ele><time>2026-05-04T04:13:26.999Z</time></trkpt><trkpt lat="45.942725399342166" lon="12.091174389166904"><ele>263.2</ele><time>2026-05-04T04:13:28.999Z</time></trkpt><trkpt lat="45.94266651095028" lon="12.091232452046773"><ele>262.6</ele><time>2026-05-04T04:13:34Z</time></trkpt><trkpt lat="45.94274727382579" lon="12.091367143242424"><ele>262.0</ele><time>2026-05-04T04:13:35Z</time></trkpt><trkpt lat="45.942814564108" lon="12.09148842891414"><ele>261.66666666666663</ele><time>2026-05-04T04:13:37Z</time></trkpt><trkpt lat="45.942792405791046" lon="12.091593834754043"><ele>261.3333333333333</ele><time>2026-05-04T04:14:31Z</time></trkpt><trkpt lat="45.94269658460223" lon="12.091657292063385"><ele>261.0</ele><time>2026-05-04T04:14:34Z</time></trkpt><trkpt lat="45.94263388088824" lon="12.091735366974989"><ele>260.6666666666667</ele><time>2026-05-04T04:14:52Z</time></trkpt><trkpt lat="45.94255835976132" lon="12.091829401438758"><ele>260.33333333333337</ele><time>2026-05-04T04:14:54Z</time></trkpt><trkpt lat="45.942513422030295" lon="12.091918713575229"><ele>260.0</ele><time>2026-05-04T04:14:56Z</time></trkpt><trkpt lat="45.942559184467726" lon="12.091828374563221"><ele>260.0</ele><time>2026-05-04T04:15:31.999Z</time></trkpt><trkpt lat="45.94261838448852" lon="12.091754662193162"><ele>260.0</ele><time>2026-05-04T04:16:02Z</time></trkpt><trkpt lat="45.94268674806574" lon="12.091669539824327"><ele>260.0</ele><time>2026-05-04T04:16:04Z</time></trkpt><trkpt lat="45.942750893396706" lon="12.091587726286704"><ele>260.0</ele><time>2026-05-04T04:16:06Z</time></trkpt><trkpt lat="45.94280222224199" lon="12.091521278531886"><ele>260.0</ele><time>2026-05-04T04:16:09Z</time></trkpt><trkpt lat="45.94291404300765" lon="12.09161704164727"><ele>260.0</ele><time>2026-05-04T04:16:13Z</time></trkpt><trkpt lat="45.94298072633079" lon="12.09174226520663"><ele>260.0</ele><time>2026-05-04T04:16:15Z</time></trkpt><trkpt lat="45.943039862115434" lon="12.09184840762914"><ele>260.0</ele><time>2026-05-04T04:16:17Z</time></trkpt><trkpt lat="45.943103680770314" lon="12.091945147378148"><ele>260.0</ele><time>2026-05-04T04:16:33Z</time></trkpt><trkpt lat="45.9431632427671" lon="12.09203413131683"><ele>260.0</ele><time>2026-05-04T04:16:35Z</time></trkpt><trkpt lat="45.943229681624935" lon="12.092115452296841"><ele>260.0</ele><time>2026-05-04T04:16:50Z</time></trkpt><trkpt lat="45.94330488356618" lon="12.092205322729656"><ele>260.0</ele><time>2026-05-04T04:16:52Z</time></trkpt><trkpt lat="45.943375612324175" lon="12.092331550598209"><ele>260.0</ele><time>2026-05-04T04:16:54Z</time></trkpt><trkpt lat="45.94343644820237" lon="12.092444833159584"><ele>260.0</ele><time>2026-05-04T04:16:56Z</time></trkpt><trkpt lat="45.94350175196403" lon="12.092563756743573"><ele>260.0</ele><time>2026-05-04T04:16:58Z</time></trkpt><trkpt lat="45.94354223980516" lon="12.092634825062676"><ele>259.8571428571429</ele><time>2026-05-04T04:16:59Z</time></trkpt><trkpt lat="45.94358950086271" lon="12.092710405496053"><ele>259.7142857142857</ele><time>2026-05-04T04:17:00Z</time></trkpt><trkpt lat="45.94362190971972" lon="12.092801222152884"><ele>259.57142857142856</ele><time>2026-05-04T04:17:01Z</time></trkpt><trkpt lat="45.943665066399724" lon="12.092873991242682"><ele>259.42857142857144</ele><time>2026-05-04T04:17:02Z</time></trkpt><trkpt lat="45.94372766733073" lon="12.092924280689305"><ele>259.2857142857143</ele><time>2026-05-04T04:17:03Z</time></trkpt><trkpt lat="45.9437749604761" lon="12.092998237854667"><ele>259.14285714285717</ele><time>2026-05-04T04:17:04Z</time></trkpt><trkpt lat="45.94382548350025" lon="12.093075704012904"><ele>259.0</ele><time>2026-05-04T04:17:05Z</time></trkpt><trkpt lat="45.94387735151748" lon="12.093152754943992"><ele>259.0</ele><time>2026-05-04T04:17:06Z</time></trkpt><trkpt lat="45.943924321609394" lon="12.093220878067214"><ele>259.0</ele><time>2026-05-04T04:17:07Z</time></trkpt><trkpt lat="45.94399839738619" lon="12.093317746051104"><ele>259.0</ele><time>2026-05-04T04:17:09Z</time></trkpt><trkpt lat="45.94405997749537" lon="12.093379685691826"><ele>259.0</ele><time>2026-05-04T04:17:12Z</time></trkpt><trkpt lat="45.94399394943195" lon="12.093335853514528"><ele>259.0</ele><time>2026-05-04T04:17:20.999Z</time></trkpt><trkpt lat="45.94393296242502" lon="12.093383327067947"><ele>259.0</ele><time>2026-05-04T04:17:24.999Z</time></trkpt><trkpt lat="45.94387867163266" lon="12.093326005904032"><ele>258.3333333333333</ele><time>2026-05-04T04:17:32.999Z</time></trkpt><trkpt lat="45.9438250144767" lon="12.093269353790797"><ele>257.6666666666667</ele><time>2026-05-04T04:17:42.999Z</time></trkpt><trkpt lat="45.943681395690184" lon="12.093677083296821"><ele>257.0</ele><time>2026-05-04T04:18:45Z</time></trkpt><trkpt lat="45.943722673344766" lon="12.093519764021012"><ele>257.0</ele><time>2026-05-04T04:18:46Z</time></trkpt><trkpt lat="45.94373451497468" lon="12.093694516190206"><ele>257.0</ele><time>2026-05-04T04:18:50Z</time></trkpt><trkpt lat="45.943751441171926" lon="12.09381597417554"><ele>257.0</ele><time>2026-05-04T04:18:53Z</time></trkpt><trkpt lat="45.9437269114806" lon="12.093730053835815"><ele>257.0</ele><time>2026-05-04T04:19:19Z</time></trkpt><trkpt lat="45.94371385092434" lon="12.093636701701953"><ele>257.0</ele><time>2026-05-04T04:19:23.999Z</time></trkpt><trkpt lat="45.943696497944984" lon="12.093543829826876"><ele>257.0</ele><time>2026-05-04T04:19:33.999Z</time></trkpt><trkpt lat="45.94409406388987" lon="12.093536295320988"><ele>257.0</ele><time>2026-05-04T04:19:56Z</time></trkpt><trkpt lat="45.94414855936449" lon="12.093480006757796"><ele>257.0</ele><time>2026-05-04T04:20:32Z</time></trkpt><trkpt lat="45.944219545579855" lon="12.093539639682675"><ele>257.0</ele><time>2026-05-04T04:20:35Z</time></trkpt><trkpt lat="45.94428570577712" lon="12.093611878679708"><ele>257.0</ele><time>2026-05-04T04:20:37Z</time></trkpt><trkpt lat="45.94432254962797" lon="12.093737577215713"><ele>257.0</ele><time>2026-05-04T04:20:39Z</time></trkpt><trkpt lat="45.944332149189854" lon="12.093859936819443"><ele>257.0</ele><time>2026-05-04T04:20:54Z</time></trkpt><trkpt lat="45.94434953385194" lon="12.094000525326958"><ele>258.2</ele><time>2026-05-04T04:20:56Z</time></trkpt><trkpt lat="45.94435053022939" lon="12.09417611903206"><ele>259.4</ele><time>2026-05-04T04:20:58Z</time></trkpt><trkpt lat="45.94434765253776" lon="12.094316574947378"><ele>260.6</ele><time>2026-05-04T04:21:00Z</time></trkpt><trkpt lat="45.944345936150306" lon="12.094465171736884"><ele>261.8</ele><time>2026-05-04T04:21:58Z</time></trkpt><trkpt lat="45.944346979195814" lon="12.094602121564803"><ele>263.0</ele><time>2026-05-04T04:22:00Z</time></trkpt><trkpt lat="45.944351313237455" lon="12.09471539741402"><ele>263.0</ele><time>2026-05-04T04:23:06Z</time></trkpt><trkpt lat="45.94436116578047" lon="12.094815236640931"><ele>263.0</ele><time>2026-05-04T04:23:08Z</time></trkpt><trkpt lat="45.94437504358878" lon="12.094921415752651"><ele>263.0</ele><time>2026-05-04T04:23:10Z</time></trkpt><trkpt lat="45.94439981271974" lon="12.095063971026468"><ele>263.0</ele><time>2026-05-04T04:23:40.999Z</time></trkpt><trkpt lat="45.9444298123209" lon="12.095192551946313"><ele>263.0</ele><time>2026-05-04T04:23:42.999Z</time></trkpt><trkpt lat="45.94445728204267" lon="12.095291246722594"><ele>263.0</ele><time>2026-05-04T04:24:13Z</time></trkpt><trkpt lat="45.94449507250349" lon="12.095420979619801"><ele>263.0</ele><time>2026-05-04T04:24:15Z</time></trkpt><trkpt lat="45.944521643330205" lon="12.095512195829185"><ele>263.0</ele><time>2026-05-04T04:24:17Z</time></trkpt><trkpt lat="45.944549621079" lon="12.095608242053265"><ele>263.0</ele><time>2026-05-04T04:25:01Z</time></trkpt><trkpt lat="45.94457784542237" lon="12.095705135585192"><ele>263.0</ele><time>2026-05-04T04:25:03Z</time></trkpt><trkpt lat="45.94466970946516" lon="12.095659117188196"><ele>263.0</ele><time>2026-05-04T04:25:05Z</time></trkpt><trkpt lat="45.94472905010675" lon="12.095566117681612"><ele>263.0</ele><time>2026-05-04T04:25:35.999Z</time></trkpt><trkpt lat="45.94480541369808" lon="12.095485406257273"><ele>263.0</ele><time>2026-05-04T04:25:37.999Z</time></trkpt><trkpt lat="45.94486759895332" lon="12.095418400306514"><ele>263.0</ele><time>2026-05-04T04:25:39.999Z</time></trkpt><trkpt lat="45.94489866870951" lon="12.095338899880412"><ele>263.0</ele><time>2026-05-04T04:26:06.999Z</time></trkpt><trkpt lat="45.944941446997426" lon="12.095226920674385"><ele>263.0</ele><time>2026-05-04T04:26:08.999Z</time></trkpt><trkpt lat="45.94497101457367" lon="12.09510879408371"><ele>263.0</ele><time>2026-05-04T04:26:11Z</time></trkpt><trkpt lat="45.94498440509215" lon="12.094982700742445"><ele>263.0</ele><time>2026-05-04T04:26:14Z</time></trkpt><trkpt lat="45.944992100222244" lon="12.09488753367425"><ele>263.0</ele><time>2026-05-04T04:26:17Z</time></trkpt><trkpt lat="45.94500563935379" lon="12.094798967066609"><ele>263.0</ele><time>2026-05-04T04:26:20Z</time></trkpt><trkpt lat="45.94501152223975" lon="12.094684668491263"><ele>263.0</ele><time>2026-05-04T04:26:44Z</time></trkpt><trkpt lat="45.94506100867359" lon="12.094578379867963"><ele>263.0</ele><time>2026-05-04T04:26:46Z</time></trkpt><trkpt lat="45.94511831639521" lon="12.094413274932775"><ele>263.0</ele><time>2026-05-04T04:26:48Z</time></trkpt><trkpt lat="45.94516899279572" lon="12.094346202343786"><ele>263.0</ele><time>2026-05-04T04:26:49Z</time></trkpt><trkpt lat="45.9452239339817" lon="12.094260177512046"><ele>264.0</ele><time>2026-05-04T04:26:51Z</time></trkpt><trkpt lat="45.945275280846296" lon="12.094363837241257"><ele>265.0</ele><time>2026-05-04T04:26:53Z</time></trkpt><trkpt lat="45.94531512714646" lon="12.0944942767474"><ele>266.0</ele><time>2026-05-04T04:26:55Z</time></trkpt><trkpt lat="45.94534046166542" lon="12.094584737242782"><ele>267.0</ele><time>2026-05-04T04:26:56Z</time></trkpt><trkpt lat="45.94538798374441" lon="12.09471810927412"><ele>268.0</ele><time>2026-05-04T04:26:58Z</time></trkpt><trkpt lat="45.945439009155265" lon="12.094821769062074"><ele>269.0</ele><time>2026-05-04T04:27:00Z</time></trkpt><trkpt lat="45.94547095850254" lon="12.094936917446747"><ele>269.0</ele><time>2026-05-04T04:27:27Z</time></trkpt><trkpt lat="45.94550201582022" lon="12.095041992284239"><ele>269.0</ele><time>2026-05-04T04:27:31.999Z</time></trkpt><trkpt lat="45.945523825388335" lon="12.095128924089844"><ele>269.0</ele><time>2026-05-04T04:27:50.999Z</time></trkpt><trkpt lat="45.945538778975404" lon="12.0952201743349"><ele>269.0</ele><time>2026-05-04T04:27:53.999Z</time></trkpt><trkpt lat="45.945573583240964" lon="12.095347131136888"><ele>269.0</ele><time>2026-05-04T04:27:56.999Z</time></trkpt><trkpt lat="45.94562876633654" lon="12.095401134208545"><ele>269.0</ele><time>2026-05-04T04:27:58.999Z</time></trkpt><trkpt lat="45.94569861773457" lon="12.095446713335129"><ele>269.0</ele><time>2026-05-04T04:28:02.999Z</time></trkpt><trkpt lat="45.94576513981469" lon="12.09549291811581"><ele>269.0</ele><time>2026-05-04T04:29:42.999Z</time></trkpt><trkpt lat="45.94582794706671" lon="12.09551704018796"><ele>269.0</ele><time>2026-05-04T04:29:44.999Z</time></trkpt><trkpt lat="45.945884265710696" lon="12.095566500264237"><ele>269.0</ele><time>2026-05-04T04:29:48.999Z</time></trkpt><trkpt lat="45.94579066633304" lon="12.0955023204424"><ele>269.0</ele><time>2026-05-04T04:30:27Z</time></trkpt><trkpt lat="45.945722819993" lon="12.095451661305995"><ele>269.0</ele><time>2026-05-04T04:30:28Z</time></trkpt><trkpt lat="45.94561605424266" lon="12.095373354101596"><ele>269.0</ele><time>2026-05-04T04:30:30Z</time></trkpt><trkpt lat="45.94555369539593" lon="12.095325708438818"><ele>269.0</ele><time>2026-05-04T04:30:32Z</time></trkpt><trkpt lat="45.94550904754011" lon="12.095243591564943"><ele>269.0</ele><time>2026-05-04T04:30:34Z</time></trkpt><trkpt lat="45.945520809680104" lon="12.09511026812729"><ele>269.0</ele><time>2026-05-04T04:30:36Z</time></trkpt><trkpt lat="45.945493245696944" lon="12.095012400418375"><ele>269.0</ele><time>2026-05-04T04:30:39Z</time></trkpt><trkpt lat="45.945468144564046" lon="12.094927704438726"><ele>269.0</ele><time>2026-05-04T04:30:48Z</time></trkpt><trkpt lat="45.94543323899811" lon="12.09480933077138"><ele>269.0</ele><time>2026-05-04T04:31:01Z</time></trkpt><trkpt lat="45.94536652295725" lon="12.094703255514075"><ele>269.5</ele><time>2026-05-04T04:31:04Z</time></trkpt><trkpt lat="45.945335421667714" lon="12.094588795392344"><ele>270.0</ele><time>2026-05-04T04:31:06Z</time></trkpt><trkpt lat="45.94532032840713" lon="12.094478891045723"><ele>270.5</ele><time>2026-05-04T04:31:09Z</time></trkpt><trkpt lat="45.94527304270381" lon="12.094385241418468"><ele>271.0</ele><time>2026-05-04T04:31:12Z</time></trkpt><trkpt lat="45.94523813629741" lon="12.094307607107359"><ele>271.5</ele><time>2026-05-04T04:31:14Z</time></trkpt><trkpt lat="45.94517086935092" lon="12.09432505424103"><ele>272.0</ele><time>2026-05-04T04:31:46.999Z</time></trkpt><trkpt lat="45.94494160711945" lon="12.094605997631687"><ele>270.5</ele><time>2026-05-04T04:32:09.999Z</time></trkpt><trkpt lat="45.94490039167472" lon="12.09450591959931"><ele>269.0</ele><time>2026-05-04T04:32:13.999Z</time></trkpt><trkpt lat="45.94485753540492" lon="12.094423301438855"><ele>267.5</ele><time>2026-05-04T04:32:15.999Z</time></trkpt><trkpt lat="45.94480573754323" lon="12.094337238962956"><ele>266.0</ele><time>2026-05-04T04:32:41Z</time></trkpt><trkpt lat="45.94478388595268" lon="12.094250113353366"><ele>264.5</ele><time>2026-05-04T04:32:43Z</time></trkpt><trkpt lat="45.94468812142518" lon="12.094170842921915"><ele>263.0</ele><time>2026-05-04T04:32:59Z</time></trkpt><trkpt lat="45.94458210269349" lon="12.094099785671652"><ele>263.1666666666667</ele><time>2026-05-04T04:33:01Z</time></trkpt><trkpt lat="45.94448496560782" lon="12.094065534808069"><ele>263.33333333333337</ele><time>2026-05-04T04:33:03Z</time></trkpt><trkpt lat="45.944408569815494" lon="12.09405650695904"><ele>263.5</ele><time>2026-05-04T04:33:06Z</time></trkpt><trkpt lat="45.94440428693634" lon="12.093946566613496"><ele>263.6666666666667</ele><time>2026-05-04T04:33:08Z</time></trkpt><trkpt lat="45.9443914327407" lon="12.09377029724028"><ele>263.8333333333333</ele><time>2026-05-04T04:36:24.999Z</time></trkpt><trkpt lat="45.94437522413102" lon="12.093668518334695"><ele>264.0</ele><time>2026-05-04T04:36:26.999Z</time></trkpt><trkpt lat="45.944409795666786" lon="12.09357671551136"><ele>264.0</ele><time>2026-05-04T04:36:28.999Z</time></trkpt><trkpt lat="45.94450794008887" lon="12.093568541662558"><ele>264.0</ele><time>2026-05-04T04:36:31.999Z</time></trkpt><trkpt lat="45.94460509126136" lon="12.093611004146739"><ele>264.0</ele><time>2026-05-04T04:36:33.999Z</time></trkpt><trkpt lat="45.94470353061435" lon="12.093646350418181"><ele>264.0</ele><time>2026-05-04T04:36:35.999Z</time></trkpt><trkpt lat="45.94476963935989" lon="12.093662295100206"><ele>264.0</ele><time>2026-05-04T04:36:37.999Z</time></trkpt><trkpt lat="45.94485574601478" lon="12.093662984242616"><ele>264.0</ele><time>2026-05-04T04:37:49.999Z</time></trkpt><trkpt lat="45.94492898785728" lon="12.093681105104094"><ele>264.0</ele><time>2026-05-04T04:38:16.999Z</time></trkpt><trkpt lat="45.94501283104872" lon="12.093688854492282"><ele>264.0</ele><time>2026-05-04T04:38:18.999Z</time></trkpt><trkpt lat="45.94513155958258" lon="12.093707048262951"><ele>264.0</ele><time>2026-05-04T04:38:20.999Z</time></trkpt><trkpt lat="45.9452229013291" lon="12.093725528428491"><ele>264.0</ele><time>2026-05-04T04:38:22.999Z</time></trkpt><trkpt lat="45.94531166809361" lon="12.093747484416635"><ele>266.2</ele><time>2026-05-04T04:38:52Z</time></trkpt><trkpt lat="45.945395182852934" lon="12.093802091631915"><ele>268.4</ele><time>2026-05-04T04:38:54Z</time></trkpt><trkpt lat="45.945444482105664" lon="12.09386871446283"><ele>270.6</ele><time>2026-05-04T04:38:57Z</time></trkpt><trkpt lat="45.945548895266136" lon="12.093731888381031"><ele>272.8</ele><time>2026-05-04T04:38:59Z</time></trkpt><trkpt lat="45.94559549837896" lon="12.09360912900147"><ele>275.0</ele><time>2026-05-04T04:39:01Z</time></trkpt><trkpt lat="45.945614314989626" lon="12.093508462095196"><ele>275.0</ele><time>2026-05-04T04:39:04Z</time></trkpt><trkpt lat="45.945588165416545" lon="12.093626347115132"><ele>275.0</ele><time>2026-05-04T04:39:21Z</time></trkpt><trkpt lat="45.94555728347516" lon="12.093719425730088"><ele>275.0</ele><time>2026-05-04T04:39:24Z</time></trkpt><trkpt lat="45.945521840451754" lon="12.09380191956755"><ele>275.0</ele><time>2026-05-04T04:39:30Z</time></trkpt><trkpt lat="45.9454941036882" lon="12.093886426745799"><ele>275.0</ele><time>2026-05-04T04:39:39Z</time></trkpt><trkpt lat="45.94555835814192" lon="12.09403868848309"><ele>275.0</ele><time>2026-05-04T04:39:40Z</time></trkpt><trkpt lat="45.945640462207116" lon="12.09406053452961"><ele>275.0</ele><time>2026-05-04T04:39:40.999Z</time></trkpt><trkpt lat="45.94575563395215" lon="12.094139814073126"><ele>275.0</ele><time>2026-05-04T04:39:42.999Z</time></trkpt><trkpt lat="45.94581725876094" lon="12.09418223414533"><ele>275.0</ele><time>2026-05-04T04:39:43.999Z</time></trkpt><trkpt lat="45.94588262217097" lon="12.094227799733806"><ele>275.0</ele><time>2026-05-04T04:39:44.999Z</time></trkpt><trkpt lat="45.94595095970687" lon="12.094276924764738"><ele>275.0</ele><time>2026-05-04T04:39:45.999Z</time></trkpt><trkpt lat="45.94602066781615" lon="12.09432703501489"><ele>275.0</ele><time>2026-05-04T04:39:46.999Z</time></trkpt><trkpt lat="45.946092899042625" lon="12.094378959072964"><ele>275.0</ele><time>2026-05-04T04:39:47.999Z</time></trkpt><trkpt lat="45.946169386959234" lon="12.094430289563993"><ele>275.0</ele><time>2026-05-04T04:39:48.999Z</time></trkpt><trkpt lat="45.94625540875609" lon="12.094454403044727"><ele>275.0</ele><time>2026-05-04T04:39:49.999Z</time></trkpt><trkpt lat="45.9463356865335" lon="12.094479793016431"><ele>275.0</ele><time>2026-05-04T04:39:50.999Z</time></trkpt><trkpt lat="45.94640861075776" lon="12.09451601852568"><ele>275.0</ele><time>2026-05-04T04:39:51.999Z</time></trkpt><trkpt lat="45.94648543012837" lon="12.094495900519329"><ele>275.0</ele><time>2026-05-04T04:39:52.999Z</time></trkpt><trkpt lat="45.946556496243375" lon="12.094520201808752"><ele>275.0</ele><time>2026-05-04T04:39:53.999Z</time></trkpt><trkpt lat="45.946626271545256" lon="12.094517675904886"><ele>275.0</ele><time>2026-05-04T04:39:54.999Z</time></trkpt><trkpt lat="45.94669313424643" lon="12.094515927855515"><ele>275.0</ele><time>2026-05-04T04:39:55.999Z</time></trkpt><trkpt lat="45.946760833111554" lon="12.094509822580767"><ele>275.0</ele><time>2026-05-04T04:39:56.999Z</time></trkpt><trkpt lat="45.94682777733998" lon="12.094461000835024"><ele>275.0</ele><time>2026-05-04T04:39:57.999Z</time></trkpt><trkpt lat="45.94689380011047" lon="12.094426669880614"><ele>275.0</ele><time>2026-05-04T04:39:58.999Z</time></trkpt><trkpt lat="45.94696359427675" lon="12.094412772828228"><ele>275.0</ele><time>2026-05-04T04:39:59.999Z</time></trkpt><trkpt lat="45.94706189666248" lon="12.094364203542714"><ele>275.8</ele><time>2026-05-04T04:40:01.999Z</time></trkpt><trkpt lat="45.947129464484235" lon="12.094307966775256"><ele>276.6</ele><time>2026-05-04T04:40:29.999Z</time></trkpt><trkpt lat="45.94723950741334" lon="12.0942669837812"><ele>277.4</ele><time>2026-05-04T04:40:31.999Z</time></trkpt><trkpt lat="45.947356343867774" lon="12.094214383483756"><ele>278.2</ele><time>2026-05-04T04:40:33.999Z</time></trkpt><trkpt lat="45.94747283643303" lon="12.094167501688139"><ele>279.0</ele><time>2026-05-04T04:40:35.999Z</time></trkpt><trkpt lat="45.94757494809813" lon="12.094143915193667"><ele>280.3333333333333</ele><time>2026-05-04T04:40:37.999Z</time></trkpt><trkpt lat="45.94752744242373" lon="12.093968132530476"><ele>281.6666666666667</ele><time>2026-05-04T04:40:40.999Z</time></trkpt><trkpt lat="45.94758710455359" lon="12.09401682572611"><ele>283.0</ele><time>2026-05-04T04:40:47.999Z</time></trkpt><trkpt lat="45.947629660670536" lon="12.094085321557348"><ele>284.33333333333337</ele><time>2026-05-04T04:40:51Z</time></trkpt><trkpt lat="45.94755039414335" lon="12.094020431971515"><ele>285.6666666666667</ele><time>2026-05-04T04:41:13Z</time></trkpt><trkpt lat="45.94749020752353" lon="12.09397179214824"><ele>287.0</ele><time>2026-05-04T04:41:14Z</time></trkpt><trkpt lat="45.94741496800145" lon="12.09393262139904"><ele>287.0</ele><time>2026-05-04T04:41:15Z</time></trkpt><trkpt lat="45.94733405106084" lon="12.093899880116842"><ele>287.0</ele><time>2026-05-04T04:41:16Z</time></trkpt><trkpt lat="45.947246550329574" lon="12.093865879339155"><ele>287.0</ele><time>2026-05-04T04:41:17Z</time></trkpt><trkpt lat="45.94715415972778" lon="12.093831585309461"><ele>287.0</ele><time>2026-05-04T04:41:18Z</time></trkpt><trkpt lat="45.947063871728716" lon="12.093803124295743"><ele>287.0</ele><time>2026-05-04T04:41:19Z</time></trkpt><trkpt lat="45.946992578378456" lon="12.093784920068215"><ele>287.0</ele><time>2026-05-04T04:41:20Z</time></trkpt><trkpt lat="45.94689981845855" lon="12.093760770768803"><ele>287.0</ele><time>2026-05-04T04:41:22Z</time></trkpt><trkpt lat="45.9468501247071" lon="12.09370491505324"><ele>287.0</ele><time>2026-05-04T04:41:39.999Z</time></trkpt><trkpt lat="45.94679016710708" lon="12.093593286645307"><ele>287.0</ele><time>2026-05-04T04:41:41.999Z</time></trkpt><trkpt lat="45.94673714635336" lon="12.093501551968423"><ele>287.0</ele><time>2026-05-04T04:41:43.999Z</time></trkpt><trkpt lat="45.946682732003914" lon="12.09344823608779"><ele>287.0</ele><time>2026-05-04T04:41:45.999Z</time></trkpt><trkpt lat="45.946610927035074" lon="12.09338671813059"><ele>287.0</ele><time>2026-05-04T04:42:03.999Z</time></trkpt><trkpt lat="45.94656654782193" lon="12.093303669123285"><ele>286.0</ele><time>2026-05-04T04:42:28.999Z</time></trkpt><trkpt lat="45.9465107336124" lon="12.093215258514281"><ele>285.0</ele><time>2026-05-04T04:42:31.999Z</time></trkpt><trkpt lat="45.94647868267907" lon="12.093130981798435"><ele>284.0</ele><time>2026-05-04T04:42:50.999Z</time></trkpt><trkpt lat="45.94632412609075" lon="12.093185706240854"><ele>283.0</ele><time>2026-05-04T04:43:01Z</time></trkpt><trkpt lat="45.94623989152147" lon="12.09326316571006"><ele>282.0</ele><time>2026-05-04T04:43:04Z</time></trkpt><trkpt lat="45.94616503069085" lon="12.093344640662886"><ele>282.0</ele><time>2026-05-04T04:43:06Z</time></trkpt><trkpt lat="45.946090957399605" lon="12.093429411678484"><ele>282.0</ele><time>2026-05-04T04:43:08Z</time></trkpt><trkpt lat="45.946030814880444" lon="12.093489789875171"><ele>282.0</ele><time>2026-05-04T04:43:10Z</time></trkpt><trkpt lat="45.94595570150967" lon="12.093514458905313"><ele>282.0</ele><time>2026-05-04T04:43:41.999Z</time></trkpt><trkpt lat="45.94596273383413" lon="12.093387797742045"><ele>282.0</ele><time>2026-05-04T04:43:43.999Z</time></trkpt><trkpt lat="45.94594269717352" lon="12.093267846510146"><ele>282.0</ele><time>2026-05-04T04:43:45.999Z</time></trkpt><trkpt lat="45.94590589596966" lon="12.093183768393304"><ele>282.5</ele><time>2026-05-04T04:43:47.999Z</time></trkpt><trkpt lat="45.94583684086" lon="12.0931662588514"><ele>283.0</ele><time>2026-05-04T04:43:48.999Z</time></trkpt><trkpt lat="45.94572090717509" lon="12.09312531145896"><ele>283.5</ele><time>2026-05-04T04:43:50.999Z</time></trkpt><trkpt lat="45.945612443287445" lon="12.09308845190273"><ele>284.0</ele><time>2026-05-04T04:43:52.999Z</time></trkpt><trkpt lat="45.945541900797686" lon="12.093063708212384"><ele>284.5</ele><time>2026-05-04T04:43:54.999Z</time></trkpt><trkpt lat="45.94548008827535" lon="12.09304225507416"><ele>285.0</ele><time>2026-05-04T04:44:28.999Z</time></trkpt><trkpt lat="45.94540484637694" lon="12.093021808506704"><ele>285.0</ele><time>2026-05-04T04:44:35.999Z</time></trkpt><trkpt lat="45.94533298225295" lon="12.093019541136806"><ele>285.0</ele><time>2026-05-04T04:44:38.999Z</time></trkpt><trkpt lat="45.94524589752831" lon="12.093006286669853"><ele>285.0</ele><time>2026-05-04T04:45:12Z</time></trkpt><trkpt lat="45.9451904893579" lon="12.092935229458602"><ele>285.0</ele><time>2026-05-04T04:45:15Z</time></trkpt><trkpt lat="45.945122929352124" lon="12.09285883627772"><ele>285.0</ele><time>2026-05-04T04:45:17Z</time></trkpt><trkpt lat="45.94505141923087" lon="12.092777976542392"><ele>285.0</ele><time>2026-05-04T04:45:19Z</time></trkpt><trkpt lat="45.94497940484919" lon="12.09270346221519"><ele>283.6666666666667</ele><time>2026-05-04T04:45:21Z</time></trkpt><trkpt lat="45.944913772745956" lon="12.092695050326416"><ele>282.3333333333333</ele><time>2026-05-04T04:45:23Z</time></trkpt><trkpt lat="45.94488036960738" lon="12.092521687197628"><ele>281.0</ele><time>2026-05-04T04:45:49.999Z</time></trkpt><trkpt lat="45.94484181009819" lon="12.092434473573809"><ele>279.66666666666663</ele><time>2026-05-04T04:45:53.999Z</time></trkpt><trkpt lat="45.944802643009666" lon="12.092347459549256"><ele>278.3333333333333</ele><time>2026-05-04T04:45:55.999Z</time></trkpt><trkpt lat="45.9447553664701" lon="12.092248750294724"><ele>277.0</ele><time>2026-05-04T04:45:57.999Z</time></trkpt><trkpt lat="45.9447036264945" lon="12.092140721772514"><ele>277.0</ele><time>2026-05-04T04:46:00.999Z</time></trkpt><trkpt lat="45.94464569944315" lon="12.0920424377862"><ele>277.0</ele><time>2026-05-04T04:46:02.999Z</time></trkpt><trkpt lat="45.94460307046606" lon="12.09196604188983"><ele>277.0</ele><time>2026-05-04T04:46:04.999Z</time></trkpt><trkpt lat="45.94456334978506" lon="12.091883296594629"><ele>277.0</ele><time>2026-05-04T04:46:10.999Z</time></trkpt><trkpt lat="45.9445192427403" lon="12.091803301777238"><ele>277.0</ele><time>2026-05-04T04:46:16.999Z</time></trkpt><trkpt lat="45.94446524015909" lon="12.09172216333255"><ele>277.0</ele><time>2026-05-04T04:46:20.999Z</time></trkpt><trkpt lat="45.944413691301754" lon="12.091633404142934"><ele>277.0</ele><time>2026-05-04T04:46:24.999Z</time></trkpt><trkpt lat="45.94450782488272" lon="12.091507712815693"><ele>277.0</ele><time>2026-05-04T04:46:31.999Z</time></trkpt><trkpt lat="45.944440083510536" lon="12.091562484400294"><ele>277.0</ele><time>2026-05-04T04:46:52.999Z</time></trkpt><trkpt lat="45.94436895246253" lon="12.091627921308262"><ele>277.0</ele><time>2026-05-04T04:46:55.999Z</time></trkpt><trkpt lat="45.94430373972945" lon="12.091685992472216"><ele>277.0</ele><time>2026-05-04T04:46:58.999Z</time></trkpt><trkpt lat="45.944393901232495" lon="12.09159144475354"><ele>275.5</ele><time>2026-05-04T04:47:06.999Z</time></trkpt><trkpt lat="45.94434734415836" lon="12.09149513238383"><ele>274.0</ele><time>2026-05-04T04:47:20Z</time></trkpt><trkpt lat="45.9442673708124" lon="12.091477737120625"><ele>272.5</ele><time>2026-05-04T04:47:21Z</time></trkpt><trkpt lat="45.94418424238673" lon="12.091328100405182"><ele>271.0</ele><time>2026-05-04T04:47:23Z</time></trkpt><trkpt lat="45.94414024677544" lon="12.091243022992327"><ele>269.5</ele><time>2026-05-04T04:47:24Z</time></trkpt><trkpt lat="45.94410005206356" lon="12.091168606755874"><ele>268.0</ele><time>2026-05-04T04:47:25Z</time></trkpt><trkpt lat="45.94405645708673" lon="12.091056652259441"><ele>268.0</ele><time>2026-05-04T04:47:27Z</time></trkpt><trkpt lat="45.94407445830751" lon="12.090967248588019"><ele>268.0</ele><time>2026-05-04T04:47:29Z</time></trkpt><trkpt lat="45.9440649030193" lon="12.09107463102709"><ele>268.0</ele><time>2026-05-04T04:47:45.999Z</time></trkpt><trkpt lat="45.944090925460785" lon="12.091193389935356"><ele>268.0</ele><time>2026-05-04T04:47:59.999Z</time></trkpt><trkpt lat="45.94415219679098" lon="12.09125795016984"><ele>268.0</ele><time>2026-05-04T04:48:16.999Z</time></trkpt><trkpt lat="45.94420636546023" lon="12.091421693557711"><ele>268.0</ele><time>2026-05-04T04:48:18.999Z</time></trkpt><trkpt lat="45.94424744311581" lon="12.09150171064317"><ele>269.5</ele><time>2026-05-04T04:48:19.999Z</time></trkpt><trkpt lat="45.94429808212802" lon="12.091609657862726"><ele>271.0</ele><time>2026-05-04T04:48:21.999Z</time></trkpt><trkpt lat="45.944331688286496" lon="12.091695373919542"><ele>272.5</ele><time>2026-05-04T04:48:25.999Z</time></trkpt><trkpt lat="45.94439516347704" lon="12.091651945729964"><ele>274.0</ele><time>2026-05-04T04:48:26.999Z</time></trkpt><trkpt lat="45.94448123654013" lon="12.09178957052829"><ele>275.5</ele><time>2026-05-04T04:48:33.999Z</time></trkpt><trkpt lat="45.94451702651561" lon="12.091873549345992"><ele>277.0</ele><time>2026-05-04T04:48:36.999Z</time></trkpt><trkpt lat="45.94455821086243" lon="12.091956765969623"><ele>277.0</ele><time>2026-05-04T04:48:41.999Z</time></trkpt><trkpt lat="45.944603867658245" lon="12.092044843796957"><ele>277.0</ele><time>2026-05-04T04:48:47.999Z</time></trkpt><trkpt lat="45.94465460076435" lon="12.092114035097694"><ele>277.0</ele><time>2026-05-04T04:49:04.999Z</time></trkpt><trkpt lat="45.94469228242652" lon="12.092201340854842"><ele>277.0</ele><time>2026-05-04T04:49:06.999Z</time></trkpt><trkpt lat="45.94473069057333" lon="12.092281533658726"><ele>277.0</ele><time>2026-05-04T04:49:10.999Z</time></trkpt><trkpt lat="45.944797568329605" lon="12.092400067075491"><ele>277.0</ele><time>2026-05-04T04:49:37Z</time></trkpt><trkpt lat="45.94484191746366" lon="12.092499818812199"><ele>275.5</ele><time>2026-05-04T04:49:39Z</time></trkpt><trkpt lat="45.94488282770079" lon="12.092583105250299"><ele>274.0</ele><time>2026-05-04T04:49:41Z</time></trkpt><trkpt lat="45.944901984219065" lon="12.09268768176596"><ele>272.5</ele><time>2026-05-04T04:49:44Z</time></trkpt><trkpt lat="45.944823831347605" lon="12.092680161727479"><ele>271.0</ele><time>2026-05-04T04:49:45.999Z</time></trkpt><trkpt lat="45.94470525778904" lon="12.092719616052248"><ele>269.5</ele><time>2026-05-04T04:49:47.999Z</time></trkpt><trkpt lat="45.94464551419845" lon="12.092774553917712"><ele>268.0</ele><time>2026-05-04T04:49:48.999Z</time></trkpt><trkpt lat="45.944572265491864" lon="12.092822687940671"><ele>268.0</ele><time>2026-05-04T04:49:50.999Z</time></trkpt><trkpt lat="45.94451940462386" lon="12.09290842925943"><ele>268.0</ele><time>2026-05-04T04:50:44.999Z</time></trkpt><trkpt lat="45.94445155358805" lon="12.092957418904371"><ele>268.0</ele><time>2026-05-04T04:50:59.999Z</time></trkpt><trkpt lat="45.9444007201602" lon="12.093013816267902"><ele>268.0</ele><time>2026-05-04T04:51:01.999Z</time></trkpt><trkpt lat="45.944349318598384" lon="12.093089886475207"><ele>268.0</ele><time>2026-05-04T04:51:24Z</time></trkpt><trkpt lat="45.94428262192195" lon="12.093173539782956"><ele>268.0</ele><time>2026-05-04T04:51:26Z</time></trkpt><trkpt lat="45.944302042704294" lon="12.09330946044402"><ele>267.3333333333333</ele><time>2026-05-04T04:51:28Z</time></trkpt><trkpt lat="45.94430914799837" lon="12.093428894449929"><ele>266.66666666666663</ele><time>2026-05-04T04:51:30Z</time></trkpt><trkpt lat="45.944320453033626" lon="12.093524204308311"><ele>266.0</ele><time>2026-05-04T04:51:32Z</time></trkpt><trkpt lat="45.94422253593693" lon="12.09352343164356"><ele>265.3333333333333</ele><time>2026-05-04T04:51:35Z</time></trkpt><trkpt lat="45.94413212350932" lon="12.093432052454146"><ele>264.6666666666667</ele><time>2026-05-04T04:51:37Z</time></trkpt><trkpt lat="45.944079031030626" lon="12.093374957652154"><ele>264.0</ele><time>2026-05-04T04:51:38Z</time></trkpt><trkpt lat="45.9440219460697" lon="12.093311352841974"><ele>263.2857142857143</ele><time>2026-05-04T04:51:39Z</time></trkpt><trkpt lat="45.94396570482752" lon="12.093248482094967"><ele>262.57142857142856</ele><time>2026-05-04T04:51:40Z</time></trkpt><trkpt lat="45.943912342181946" lon="12.093183316206346"><ele>261.8571428571429</ele><time>2026-05-04T04:51:41Z</time></trkpt><trkpt lat="45.943865200574926" lon="12.093113364266319"><ele>261.1428571428571</ele><time>2026-05-04T04:51:42Z</time></trkpt><trkpt lat="45.94381938756754" lon="12.093042427457595"><ele>260.42857142857144</ele><time>2026-05-04T04:51:43Z</time></trkpt><trkpt lat="45.943758957277204" lon="12.09293735321895"><ele>259.7142857142857</ele><time>2026-05-04T04:51:45Z</time></trkpt><trkpt lat="45.943705502940446" lon="12.092868693245535"><ele>259.0</ele><time>2026-05-04T04:52:13.999Z</time></trkpt><trkpt lat="45.94365120851082" lon="12.09280109663362"><ele>259.0</ele><time>2026-05-04T04:52:21.999Z</time></trkpt><trkpt lat="45.943597056090525" lon="12.092713284774774"><ele>259.0</ele><time>2026-05-04T04:52:24.999Z</time></trkpt><trkpt lat="45.94356619516866" lon="12.092631806771974"><ele>259.0</ele><time>2026-05-04T04:53:18.999Z</time></trkpt><trkpt lat="45.943618223240776" lon="12.092551538625811"><ele>259.0</ele><time>2026-05-04T04:53:21.999Z</time></trkpt><trkpt lat="45.943710453715035" lon="12.092481144388353"><ele>259.0</ele><time>2026-05-04T04:53:23.999Z</time></trkpt><trkpt lat="45.9437988007323" lon="12.092399442719787"><ele>259.0</ele><time>2026-05-04T04:53:26Z</time></trkpt><trkpt lat="45.94385469884902" lon="12.092354499626266"><ele>259.0</ele><time>2026-05-04T04:53:28Z</time></trkpt><trkpt lat="45.94392867086023" lon="12.092382363160752"><ele>259.0</ele><time>2026-05-04T04:53:57.999Z</time></trkpt><trkpt lat="45.944009650672626" lon="12.092444144219643"><ele>259.0</ele><time>2026-05-04T04:53:59.999Z</time></trkpt><trkpt lat="45.944070863373994" lon="12.092513048022727"><ele>259.0</ele><time>2026-05-04T04:54:48.999Z</time></trkpt><trkpt lat="45.94412680011498" lon="12.092594375492213"><ele>259.0</ele><time>2026-05-04T04:54:50.999Z</time></trkpt><trkpt lat="45.94415805517917" lon="12.092695875692405"><ele>259.0</ele><time>2026-05-04T04:54:52.999Z</time></trkpt><trkpt lat="45.94418373664999" lon="12.092815695307014"><ele>259.0</ele><time>2026-05-04T04:54:55.999Z</time></trkpt><trkpt lat="45.9441868184879" lon="12.092907938926743"><ele>259.0</ele><time>2026-05-04T04:55:10.999Z</time></trkpt><trkpt lat="45.944226135503136" lon="12.093013142706345"><ele>259.0</ele><time>2026-05-04T04:55:12.999Z</time></trkpt><trkpt lat="45.94424151992559" lon="12.093126733876295"><ele>259.0</ele><time>2026-05-04T04:55:26.999Z</time></trkpt><trkpt lat="45.944299875452586" lon="12.09320833648125"><ele>259.0</ele><time>2026-05-04T04:55:36Z</time></trkpt><trkpt lat="45.94434043950119" lon="12.09328076875864"><ele>259.0</ele><time>2026-05-04T04:55:38Z</time></trkpt><trkpt lat="45.94436810986403" lon="12.09339858961593"><ele>258.66666666666663</ele><time>2026-05-04T04:55:40Z</time></trkpt><trkpt lat="45.94435644996443" lon="12.09349505527284"><ele>258.3333333333333</ele><time>2026-05-04T04:55:42Z</time></trkpt><trkpt lat="45.9442965044286" lon="12.093529713043479"><ele>258.0</ele><time>2026-05-04T04:55:44Z</time></trkpt><trkpt lat="45.94415659335613" lon="12.093451713328445"><ele>257.6666666666667</ele><time>2026-05-04T04:55:49Z</time></trkpt><trkpt lat="45.94410087444123" lon="12.093400169436226"><ele>257.33333333333337</ele><time>2026-05-04T04:55:50Z</time></trkpt><trkpt lat="45.94403988212343" lon="12.093336660835304"><ele>257.0</ele><time>2026-05-04T04:55:51Z</time></trkpt><trkpt lat="45.94397367981199" lon="12.09326062297543"><ele>257.33333333333337</ele><time>2026-05-04T04:55:52Z</time></trkpt><trkpt lat="45.94390509521537" lon="12.093171111329442"><ele>257.6666666666667</ele><time>2026-05-04T04:55:53Z</time></trkpt><trkpt lat="45.943836482779915" lon="12.09307187597881"><ele>258.0</ele><time>2026-05-04T04:55:54Z</time></trkpt><trkpt lat="45.94377272730175" lon="12.09296862542947"><ele>258.3333333333333</ele><time>2026-05-04T04:55:55Z</time></trkpt><trkpt lat="45.94371714653232" lon="12.092872976510534"><ele>258.66666666666663</ele><time>2026-05-04T04:55:55.999Z</time></trkpt><trkpt lat="45.943673539309714" lon="12.092797451426678"><ele>259.0</ele><time>2026-05-04T04:55:56.999Z</time></trkpt><trkpt lat="45.94361444061361" lon="12.0927138537311"><ele>259.0</ele><time>2026-05-04T04:55:58.999Z</time></trkpt><trkpt lat="45.94351832379816" lon="12.092767449742679"><ele>259.0</ele><time>2026-05-04T04:56:00.999Z</time></trkpt><trkpt lat="45.94342338500165" lon="12.092815932661518"><ele>259.0</ele><time>2026-05-04T04:56:02.999Z</time></trkpt><trkpt lat="45.943341378888746" lon="12.092856667590965"><ele>259.0</ele><time>2026-05-04T04:56:46.999Z</time></trkpt><trkpt lat="45.943254519995286" lon="12.092902039866566"><ele>259.0</ele><time>2026-05-04T04:56:48.999Z</time></trkpt><trkpt lat="45.94315861792632" lon="12.092962371023324"><ele>258.5</ele><time>2026-05-04T04:58:06.999Z</time></trkpt><trkpt lat="45.94308145847962" lon="12.093015559133246"><ele>258.0</ele><time>2026-05-04T04:58:08.999Z</time></trkpt><trkpt lat="45.94300877404657" lon="12.09310652319237"><ele>257.5</ele><time>2026-05-04T04:58:10.999Z</time></trkpt><trkpt lat="45.94292155272192" lon="12.093173881916432"><ele>257.0</ele><time>2026-05-04T04:58:12.999Z</time></trkpt><trkpt lat="45.942853908859426" lon="12.093247772876646"><ele>256.5</ele><time>2026-05-04T04:58:14.999Z</time></trkpt><trkpt lat="45.942794220932946" lon="12.09331445043126"><ele>256.0</ele><time>2026-05-04T04:58:30.999Z</time></trkpt><trkpt lat="45.94270598166756" lon="12.09341566660236"><ele>255.49999999999997</ele><time>2026-05-04T04:58:32.999Z</time></trkpt><trkpt lat="45.942653435704464" lon="12.09347594033727"><ele>255.0</ele><time>2026-05-04T04:58:33.999Z</time></trkpt><trkpt lat="45.94258759911373" lon="12.093551459559293"><ele>254.5</ele><time>2026-05-04T04:58:35.999Z</time></trkpt><trkpt lat="45.94252630135979" lon="12.093621772252737"><ele>254.0</ele><time>2026-05-04T04:59:00.999Z</time></trkpt><trkpt lat="45.94242325691636" lon="12.09373706657681"><ele>253.49999999999997</ele><time>2026-05-04T04:59:02.999Z</time></trkpt><trkpt lat="45.94235977324913" lon="12.093806930070691"><ele>253.0</ele><time>2026-05-04T04:59:03.999Z</time></trkpt><trkpt lat="45.942288718513176" lon="12.093885125691"><ele>252.60000000000002</ele><time>2026-05-04T04:59:04.999Z</time></trkpt><trkpt lat="45.94221209951308" lon="12.09396944473329"><ele>252.20000000000002</ele><time>2026-05-04T04:59:05.999Z</time></trkpt><trkpt lat="45.9421360938775" lon="12.094053089032421"><ele>251.8</ele><time>2026-05-04T04:59:06.999Z</time></trkpt><trkpt lat="45.942061027117916" lon="12.094130202622075"><ele>251.4</ele><time>2026-05-04T04:59:07.999Z</time></trkpt><trkpt lat="45.94199769680414" lon="12.094225097861369"><ele>251.0</ele><time>2026-05-04T04:59:08.999Z</time></trkpt><trkpt lat="45.94193066605414" lon="12.094282707388329"><ele>251.0</ele><time>2026-05-04T04:59:09.999Z</time></trkpt><trkpt lat="45.94181736025011" lon="12.094318246867797"><ele>251.0</ele><time>2026-05-04T04:59:11.999Z</time></trkpt><trkpt lat="45.941707782409075" lon="12.094193080024548"><ele>251.0</ele><time>2026-05-04T04:59:13.999Z</time></trkpt><trkpt lat="45.94163447772487" lon="12.094112530984447"><ele>251.0</ele><time>2026-05-04T04:59:14.999Z</time></trkpt><trkpt lat="45.94156303076957" lon="12.094006774541002"><ele>250.5</ele><time>2026-05-04T04:59:15.999Z</time></trkpt><trkpt lat="45.94148289601579" lon="12.093896232288806"><ele>250.0</ele><time>2026-05-04T04:59:16.999Z</time></trkpt><trkpt lat="45.941392662578615" lon="12.093773240082374"><ele>249.5</ele><time>2026-05-04T04:59:17.999Z</time></trkpt><trkpt lat="45.9412966749071" lon="12.093638213256694"><ele>249.0</ele><time>2026-05-04T04:59:18.999Z</time></trkpt><trkpt lat="45.941194723956016" lon="12.093493766326391"><ele>249.0</ele><time>2026-05-04T04:59:19.999Z</time></trkpt><trkpt lat="45.941087486670746" lon="12.093342047333572"><ele>249.0</ele><time>2026-05-04T04:59:20.999Z</time></trkpt><trkpt lat="45.94097686284561" lon="12.093181409960536"><ele>249.0</ele><time>2026-05-04T04:59:21.999Z</time></trkpt><trkpt lat="45.940866837394715" lon="12.093003699977045"><ele>249.0</ele><time>2026-05-04T04:59:22.999Z</time></trkpt><trkpt lat="45.94075874123153" lon="12.092812145950568"><ele>249.0</ele><time>2026-05-04T04:59:23.999Z</time></trkpt><trkpt lat="45.94064703524825" lon="12.092611022910203"><ele>249.0</ele><time>2026-05-04T04:59:24.999Z</time></trkpt><trkpt lat="45.94053892211609" lon="12.092411216871874"><ele>249.16666666666666</ele><time>2026-05-04T04:59:25.999Z</time></trkpt><trkpt lat="45.94047331628477" lon="12.092288135556563"><ele>249.33333333333331</ele><time>2026-05-04T04:59:26.999Z</time></trkpt><trkpt lat="45.94042933849114" lon="12.092203833423454"><ele>249.5</ele><time>2026-05-04T04:59:27.999Z</time></trkpt><trkpt lat="45.94038198227217" lon="12.09211453695335"><ele>249.66666666666666</ele><time>2026-05-04T04:59:28.999Z</time></trkpt><trkpt lat="45.940339539150514" lon="12.092029201599086"><ele>249.83333333333331</ele><time>2026-05-04T04:59:29.999Z</time></trkpt><trkpt lat="45.94028923503494" lon="12.09192641148159"><ele>250.0</ele><time>2026-05-04T04:59:31.999Z</time></trkpt><trkpt lat="45.94019993220891" lon="12.091817932085325"><ele>249.99999999999997</ele><time>2026-05-04T04:59:38.999Z</time></trkpt><trkpt lat="45.94014893764285" lon="12.09174791762471"><ele>250.0</ele><time>2026-05-04T04:59:39.999Z</time></trkpt><trkpt lat="45.94011039675076" lon="12.091652375357118"><ele>250.0</ele><time>2026-05-04T04:59:40.999Z</time></trkpt><trkpt lat="45.94005800879826" lon="12.09156086084006"><ele>250.0</ele><time>2026-05-04T04:59:41.999Z</time></trkpt><trkpt lat="45.93998800986014" lon="12.091476014074967"><ele>249.99999999999997</ele><time>2026-05-04T04:59:42.999Z</time></trkpt><trkpt lat="45.93992789446172" lon="12.091368014544537"><ele>250.0</ele><time>2026-05-04T04:59:44Z</time></trkpt><trkpt lat="45.93987110259185" lon="12.091246696811684"><ele>249.6</ele><time>2026-05-04T04:59:45Z</time></trkpt><trkpt lat="45.93980477424109" lon="12.091130338629897"><ele>249.2</ele><time>2026-05-04T04:59:46Z</time></trkpt><trkpt lat="45.939736939804256" lon="12.091011278081"><ele>248.8</ele><time>2026-05-04T04:59:47Z</time></trkpt><trkpt lat="45.93967114436079" lon="12.090891758667135"><ele>248.4</ele><time>2026-05-04T04:59:48Z</time></trkpt><trkpt lat="45.93961256501059" lon="12.090778802456235"><ele>248.0</ele><time>2026-05-04T04:59:49Z</time></trkpt><trkpt lat="45.939567667308935" lon="12.090685081640354"><ele>248.50000000000003</ele><time>2026-05-04T04:59:50Z</time></trkpt><trkpt lat="45.93952579384599" lon="12.090586554898426"><ele>249.0</ele><time>2026-05-04T04:59:52Z</time></trkpt><trkpt lat="45.939481708097055" lon="12.090508062586384"><ele>249.5</ele><time>2026-05-04T04:59:57Z</time></trkpt><trkpt lat="45.93940681776032" lon="12.09053517988939"><ele>250.0</ele><time>2026-05-04T05:00:11.999Z</time></trkpt><trkpt lat="45.939300020077575" lon="12.090608883687118"><ele>250.50000000000003</ele><time>2026-05-04T05:00:13.999Z</time></trkpt><trkpt lat="45.93922875422996" lon="12.090643399016201"><ele>251.0</ele><time>2026-05-04T05:00:14.999Z</time></trkpt><trkpt lat="45.939154826936004" lon="12.090673496198207"><ele>251.0</ele><time>2026-05-04T05:00:15.999Z</time></trkpt><trkpt lat="45.93909078446269" lon="12.090719293072786"><ele>251.00000000000003</ele><time>2026-05-04T05:00:16.999Z</time></trkpt><trkpt lat="45.93901295396956" lon="12.090752127123809"><ele>251.00000000000003</ele><time>2026-05-04T05:00:17.999Z</time></trkpt><trkpt lat="45.939081479210614" lon="12.090991826333635"><ele>251.0</ele><time>2026-05-04T05:00:19.999Z</time></trkpt><trkpt lat="45.93911794786718" lon="12.091085052091463"><ele>251.0</ele><time>2026-05-04T05:00:20.999Z</time></trkpt><trkpt lat="45.93917585867553" lon="12.091172644356904"><ele>250.4</ele><time>2026-05-04T05:00:21.999Z</time></trkpt><trkpt lat="45.939236589542425" lon="12.091279078329515"><ele>249.8</ele><time>2026-05-04T05:00:22.999Z</time></trkpt><trkpt lat="45.93930433647942" lon="12.091396461119366"><ele>249.20000000000002</ele><time>2026-05-04T05:00:23.999Z</time></trkpt><trkpt lat="45.93937131232407" lon="12.09152852906951"><ele>248.60000000000002</ele><time>2026-05-04T05:00:24.999Z</time></trkpt><trkpt lat="45.93944338920903" lon="12.091649437811835"><ele>248.0</ele><time>2026-05-04T05:00:25.999Z</time></trkpt><trkpt lat="45.93951322148599" lon="12.091759882148269"><ele>247.4</ele><time>2026-05-04T05:00:26.999Z</time></trkpt><trkpt lat="45.939556619327305" lon="12.091866555413628"><ele>246.8</ele><time>2026-05-04T05:00:27.999Z</time></trkpt><trkpt lat="45.93957714300021" lon="12.091965303941226"><ele>246.2</ele><time>2026-05-04T05:00:29.999Z</time></trkpt><trkpt lat="45.93957615856383" lon="12.092060236654369"><ele>245.6</ele><time>2026-05-04T05:00:45.999Z</time></trkpt><trkpt lat="45.939413898262885" lon="12.092148493975255"><ele>245.0</ele><time>2026-05-04T05:00:49.999Z</time></trkpt><trkpt lat="45.93934810846555" lon="12.092220896966605"><ele>245.00000000000003</ele><time>2026-05-04T05:00:51.999Z</time></trkpt><trkpt lat="45.93929634155922" lon="12.092281534449663"><ele>245.0</ele><time>2026-05-04T05:00:54.999Z</time></trkpt><trkpt lat="45.939347593501935" lon="12.092221500000484"><ele>245.0</ele><time>2026-05-04T05:02:17Z</time></trkpt><trkpt lat="45.93943388912837" lon="12.0921448873316"><ele>245.0</ele><time>2026-05-04T05:02:19Z</time></trkpt><trkpt lat="45.939503714038366" lon="12.092035994505295"><ele>245.00000000000003</ele><time>2026-05-04T05:02:20Z</time></trkpt><trkpt lat="45.93956809902934" lon="12.091990534571691"><ele>245.0</ele><time>2026-05-04T05:02:21Z</time></trkpt><trkpt lat="45.93959381468122" lon="12.091865372047296"><ele>245.0</ele><time>2026-05-04T05:02:23Z</time></trkpt><trkpt lat="45.93951517779425" lon="12.091716529983549"><ele>245.0</ele><time>2026-05-04T05:02:25Z</time></trkpt><trkpt lat="45.939465782798706" lon="12.091632849807313"><ele>245.0</ele><time>2026-05-04T05:02:26Z</time></trkpt><trkpt lat="45.93940918882463" lon="12.091538418969717"><ele>245.0</ele><time>2026-05-04T05:02:27Z</time></trkpt><trkpt lat="45.93935201470089" lon="12.09144343337112"><ele>245.0</ele><time>2026-05-04T05:02:28Z</time></trkpt><trkpt lat="45.93929735690248" lon="12.091352795107207"><ele>245.50000000000003</ele><time>2026-05-04T05:02:29Z</time></trkpt><trkpt lat="45.93923928578375" lon="12.091252823860673"><ele>246.0</ele><time>2026-05-04T05:02:30Z</time></trkpt><trkpt lat="45.939181417387196" lon="12.09115058175976"><ele>246.5</ele><time>2026-05-04T05:02:31Z</time></trkpt><trkpt lat="45.93912837555542" lon="12.0910518743577"><ele>247.0</ele><time>2026-05-04T05:02:32Z</time></trkpt><trkpt lat="45.93908319771854" lon="12.090967271038956"><ele>247.50000000000003</ele><time>2026-05-04T05:02:33Z</time></trkpt><trkpt lat="45.939055784000246" lon="12.09083221024208"><ele>248.0</ele><time>2026-05-04T05:02:35Z</time></trkpt><trkpt lat="45.93910017507614" lon="12.09072450037819"><ele>248.50000000000003</ele><time>2026-05-04T05:02:37Z</time></trkpt><trkpt lat="45.93916229049962" lon="12.090691949386478"><ele>249.0</ele><time>2026-05-04T05:02:38Z</time></trkpt><trkpt lat="45.93924246488801" lon="12.090673774152833"><ele>249.5</ele><time>2026-05-04T05:02:39Z</time></trkpt><trkpt lat="45.9393311446261" lon="12.090634265597433"><ele>250.0</ele><time>2026-05-04T05:02:40Z</time></trkpt><trkpt lat="45.93941798533471" lon="12.090569083218437"><ele>250.50000000000003</ele><time>2026-05-04T05:02:41Z</time></trkpt><trkpt lat="45.939502478474644" lon="12.090487190201872"><ele>251.0</ele><time>2026-05-04T05:02:42Z</time></trkpt><trkpt lat="45.939591644136364" lon="12.09039253731149"><ele>251.75</ele><time>2026-05-04T05:02:43Z</time></trkpt><trkpt lat="45.939679841950365" lon="12.090287009710682"><ele>252.5</ele><time>2026-05-04T05:02:44Z</time></trkpt><trkpt lat="45.93977231739561" lon="12.090176930946054"><ele>253.25</ele><time>2026-05-04T05:02:45Z</time></trkpt><trkpt lat="45.93986669166933" lon="12.090058178676989"><ele>254.0</ele><time>2026-05-04T05:02:46Z</time></trkpt><trkpt lat="45.93995798225402" lon="12.089941336729927"><ele>254.39999999999998</ele><time>2026-05-04T05:02:47Z</time></trkpt><trkpt lat="45.94003504075137" lon="12.089837607018534"><ele>254.79999999999998</ele><time>2026-05-04T05:02:48Z</time></trkpt><trkpt lat="45.940092259690985" lon="12.089761139059268"><ele>255.20000000000002</ele><time>2026-05-04T05:02:49Z</time></trkpt><trkpt lat="45.94014693433456" lon="12.089690756270196"><ele>255.60000000000002</ele><time>2026-05-04T05:02:51Z</time></trkpt><trkpt lat="45.94022249652377" lon="12.089600560810903"><ele>256.0</ele><time>2026-05-04T05:03:05Z</time></trkpt><trkpt lat="45.94030918818918" lon="12.089490451090724"><ele>256.6</ele><time>2026-05-04T05:03:07Z</time></trkpt><trkpt lat="45.940392659681834" lon="12.089399372931938"><ele>257.20000000000005</ele><time>2026-05-04T05:03:09Z</time></trkpt><trkpt lat="45.940462758402745" lon="12.08931502609639"><ele>257.79999999999995</ele><time>2026-05-04T05:03:51.999Z</time></trkpt><trkpt lat="45.94052242888247" lon="12.089240050125653"><ele>258.4</ele><time>2026-05-04T05:03:53.999Z</time></trkpt><trkpt lat="45.940602793266535" lon="12.089138314454825"><ele>259.0</ele><time>2026-05-04T05:03:56Z</time></trkpt><trkpt lat="45.94067954538492" lon="12.089078380539402"><ele>259.66666666666663</ele><time>2026-05-04T05:03:58Z</time></trkpt><trkpt lat="45.94073202689114" lon="12.089019090821958"><ele>260.3333333333333</ele><time>2026-05-04T05:04:31Z</time></trkpt><trkpt lat="45.940780020104405" lon="12.088937513235253"><ele>261.0</ele><time>2026-05-04T05:04:45Z</time></trkpt><trkpt lat="45.94086551021872" lon="12.088871494082374"><ele>261.6666666666667</ele><time>2026-05-04T05:05:19Z</time></trkpt><trkpt lat="45.94093197190687" lon="12.088813656597257"><ele>262.33333333333337</ele><time>2026-05-04T05:05:21Z</time></trkpt><trkpt lat="45.940994471205144" lon="12.08876772844986"><ele>263.0</ele><time>2026-05-04T05:05:23Z</time></trkpt><trkpt lat="45.941060548573795" lon="12.088756384981302"><ele>263.0</ele><time>2026-05-04T05:05:27Z</time></trkpt><trkpt lat="45.94109123609611" lon="12.088668513972372"><ele>263.0</ele><time>2026-05-04T05:05:58.999Z</time></trkpt><trkpt lat="45.94116306455615" lon="12.088699743405668"><ele>263.0</ele><time>2026-05-04T05:06:03Z</time></trkpt><trkpt lat="45.941218477098886" lon="12.088828167988456"><ele>263.0</ele><time>2026-05-04T05:06:05Z</time></trkpt><trkpt lat="45.9413022437224" lon="12.088952713343897"><ele>263.0</ele><time>2026-05-04T05:06:06Z</time></trkpt><trkpt lat="45.94135854883539" lon="12.089032774687832"><ele>263.0</ele><time>2026-05-04T05:06:07Z</time></trkpt><trkpt lat="45.941412027244304" lon="12.089110963063064"><ele>263.0</ele><time>2026-05-04T05:06:08Z</time></trkpt><trkpt lat="45.94145362544241" lon="12.089184703408264"><ele>263.0</ele><time>2026-05-04T05:06:09Z</time></trkpt><trkpt lat="45.94153951798917" lon="12.089316238830317"><ele>263.0</ele><time>2026-05-04T05:06:11Z</time></trkpt><trkpt lat="45.941586084138265" lon="12.089388042763096"><ele>263.0</ele><time>2026-05-04T05:06:12Z</time></trkpt><trkpt lat="45.94162155262307" lon="12.089481501491695"><ele>263.0</ele><time>2026-05-04T05:06:13Z</time></trkpt><trkpt lat="45.94166985203135" lon="12.089576411276811"><ele>263.0</ele><time>2026-05-04T05:06:14Z</time></trkpt><trkpt lat="45.94172075084821" lon="12.089655016376836"><ele>262.6666666666667</ele><time>2026-05-04T05:06:15Z</time></trkpt><trkpt lat="45.941757652102105" lon="12.089736821283303"><ele>262.33333333333337</ele><time>2026-05-04T05:06:16Z</time></trkpt><trkpt lat="45.94179374491651" lon="12.08981220982824"><ele>262.0</ele><time>2026-05-04T05:06:17Z</time></trkpt><trkpt lat="45.941840813165356" lon="12.089929759557872"><ele>261.6666666666667</ele><time>2026-05-04T05:06:19Z</time></trkpt><trkpt lat="45.941889571391236" lon="12.09001720236563"><ele>261.3333333333333</ele><time>2026-05-04T05:06:21Z</time></trkpt><trkpt lat="45.94193778822475" lon="12.090142139981424"><ele>261.0</ele><time>2026-05-04T05:07:24Z</time></trkpt><trkpt lat="45.9420238015221" lon="12.09028816401964"><ele>261.0</ele><time>2026-05-04T05:07:26Z</time></trkpt><trkpt lat="45.94208211573907" lon="12.090369929387704"><ele>261.0</ele><time>2026-05-04T05:07:27Z</time></trkpt><trkpt lat="45.94213315423337" lon="12.090462829965789"><ele>261.0</ele><time>2026-05-04T05:07:28Z</time></trkpt><trkpt lat="45.94219036769046" lon="12.090545008943097"><ele>261.0</ele><time>2026-05-04T05:07:29Z</time></trkpt><trkpt lat="45.942248675617755" lon="12.09063317660306"><ele>261.0</ele><time>2026-05-04T05:07:30Z</time></trkpt><trkpt lat="45.9423070601558" lon="12.090728473627511"><ele>261.0</ele><time>2026-05-04T05:07:31Z</time></trkpt><trkpt lat="45.94236941617232" lon="12.090821044241547"><ele>261.2</ele><time>2026-05-04T05:07:32Z</time></trkpt><trkpt lat="45.942430662221334" lon="12.090918010467027"><ele>261.40000000000003</ele><time>2026-05-04T05:07:33Z</time></trkpt><trkpt lat="45.94249492974024" lon="12.091017000333398"><ele>261.6</ele><time>2026-05-04T05:07:34Z</time></trkpt><trkpt lat="45.94256163278385" lon="12.091116242960796"><ele>261.8</ele><time>2026-05-04T05:07:34.999Z</time></trkpt><trkpt lat="45.94262893363805" lon="12.091220255750175"><ele>262.0</ele><time>2026-05-04T05:07:35.999Z</time></trkpt><trkpt lat="45.94269651127258" lon="12.09132377010441"><ele>262.0</ele><time>2026-05-04T05:07:36.999Z</time></trkpt><trkpt lat="45.94276278221476" lon="12.091435904794755"><ele>262.0</ele><time>2026-05-04T05:07:37.999Z</time></trkpt><trkpt lat="45.94283527962661" lon="12.09154542001847"><ele>262.0</ele><time>2026-05-04T05:07:38.999Z</time></trkpt><trkpt lat="45.942907386914186" lon="12.09165752478918"><ele>262.0</ele><time>2026-05-04T05:07:39.999Z</time></trkpt><trkpt lat="45.94298124083744" lon="12.09177217206218"><ele>262.0</ele><time>2026-05-04T05:07:40.999Z</time></trkpt><trkpt lat="45.94305410554625" lon="12.091889157566763"><ele>261.6</ele><time>2026-05-04T05:07:41.999Z</time></trkpt><trkpt lat="45.94312645855902" lon="12.092003073570094"><ele>261.2</ele><time>2026-05-04T05:07:42.999Z</time></trkpt><trkpt lat="45.94319782208829" lon="12.092115537583474"><ele>260.8</ele><time>2026-05-04T05:07:43.999Z</time></trkpt><trkpt lat="45.943267965778766" lon="12.09222473715867"><ele>260.4</ele><time>2026-05-04T05:07:44.999Z</time></trkpt><trkpt lat="45.943334649490254" lon="12.092339779939959"><ele>260.0</ele><time>2026-05-04T05:07:45.999Z</time></trkpt><trkpt lat="45.94339398928903" lon="12.092438741666054"><ele>259.83333333333337</ele><time>2026-05-04T05:07:46.999Z</time></trkpt><trkpt lat="45.943438929279004" lon="12.092517888646935"><ele>259.6666666666667</ele><time>2026-05-04T05:07:47.999Z</time></trkpt><trkpt lat="45.9435087885994" lon="12.092632832832253"><ele>259.5</ele><time>2026-05-04T05:07:49.999Z</time></trkpt><trkpt lat="45.94359993686592" lon="12.092654706840571"><ele>259.3333333333333</ele><time>2026-05-04T05:07:51.999Z</time></trkpt><trkpt lat="45.94365763413379" lon="12.092567322979415"><ele>259.16666666666663</ele><time>2026-05-04T05:07:53.999Z</time></trkpt><trkpt lat="45.94371600882035" lon="12.09249872626871"><ele>259.0</ele><time>2026-05-04T05:07:55.999Z</time></trkpt><trkpt lat="45.943789188701516" lon="12.092465064833414"><ele>259.0</ele><time>2026-05-04T05:07:57.999Z</time></trkpt><trkpt lat="45.9438426878197" lon="12.092404725601629"><ele>263.0</ele><time>2026-05-04T05:08:00.999Z</time></trkpt></trkseg><trkseg><trkpt lat="45.943537224373024" lon="12.092323143245796"><ele>263.0</ele><time>2026-05-04T05:35:22.005Z</time></trkpt><trkpt lat="45.943599764922595" lon="12.09234527716009"><ele>263.0</ele><time>2026-05-04T05:35:22.544Z</time></trkpt><trkpt lat="45.9437118929549" lon="12.092355351599144"><ele>263.0</ele><time>2026-05-04T05:35:26.544Z</time></trkpt><trkpt lat="45.943895953716556" lon="12.092469185500468"><ele>263.0</ele><time>2026-05-04T05:35:35.001Z</time></trkpt><trkpt lat="45.94386320967664" lon="12.09237425901449"><ele>263.0</ele><time>2026-05-04T05:35:55Z</time></trkpt><trkpt lat="45.94393035595813" lon="12.092394540076276"><ele>263.0</ele><time>2026-05-04T05:35:59Z</time></trkpt><trkpt lat="45.94399007562053" lon="12.09243182996171"><ele>263.0</ele><time>2026-05-04T05:36:01Z</time></trkpt><trkpt lat="45.944046602094645" lon="12.092519188458073"><ele>263.0</ele><time>2026-05-04T05:36:03Z</time></trkpt><trkpt lat="45.94412071813248" lon="12.092622776523843"><ele>263.0</ele><time>2026-05-04T05:36:05Z</time></trkpt><trkpt lat="45.94415872643485" lon="12.092732486412004"><ele>263.0</ele><time>2026-05-04T05:36:07Z</time></trkpt><trkpt lat="45.94417443339458" lon="12.092865856689576"><ele>263.1666666666667</ele><time>2026-05-04T05:36:09Z</time></trkpt><trkpt lat="45.944214433367655" lon="12.09301554582528"><ele>263.33333333333337</ele><time>2026-05-04T05:36:11Z</time></trkpt><trkpt lat="45.94425032782671" lon="12.09315220741867"><ele>263.5</ele><time>2026-05-04T05:36:13Z</time></trkpt><trkpt lat="45.94428919062189" lon="12.093241200556898"><ele>263.6666666666667</ele><time>2026-05-04T05:36:16Z</time></trkpt><trkpt lat="45.94432007468311" lon="12.093330780626665"><ele>263.8333333333333</ele><time>2026-05-04T05:36:18Z</time></trkpt><trkpt lat="45.94433650692055" lon="12.093452671732132"><ele>264.0</ele><time>2026-05-04T05:36:20Z</time></trkpt><trkpt lat="45.944298295314" lon="12.093542557460346"><ele>264.0</ele><time>2026-05-04T05:36:23Z</time></trkpt><trkpt lat="45.944217312207556" lon="12.093513744706991"><ele>264.0</ele><time>2026-05-04T05:36:37Z</time></trkpt><trkpt lat="45.94412876888471" lon="12.093455651216475"><ele>264.0</ele><time>2026-05-04T05:36:39Z</time></trkpt><trkpt lat="45.94402704087804" lon="12.09335112389469"><ele>264.0</ele><time>2026-05-04T05:36:41Z</time></trkpt><trkpt lat="45.94396385440761" lon="12.093287372430625"><ele>264.0</ele><time>2026-05-04T05:36:42Z</time></trkpt><trkpt lat="45.94389715681328" lon="12.093223087075867"><ele>263.0</ele><time>2026-05-04T05:36:43Z</time></trkpt><trkpt lat="45.943827387318606" lon="12.093133081231812"><ele>262.0</ele><time>2026-05-04T05:36:44Z</time></trkpt><trkpt lat="45.94377220344026" lon="12.093020896396038"><ele>261.0</ele><time>2026-05-04T05:36:45Z</time></trkpt><trkpt lat="45.943716360258016" lon="12.092916583184367"><ele>260.0</ele><time>2026-05-04T05:36:46Z</time></trkpt><trkpt lat="45.94365340816691" lon="12.092806330043326"><ele>259.0</ele><time>2026-05-04T05:36:47Z</time></trkpt><trkpt lat="45.94359704193677" lon="12.092703867152881"><ele>259.0</ele><time>2026-05-04T05:36:48Z</time></trkpt><trkpt lat="45.94354326648116" lon="12.09260487268252"><ele>259.0</ele><time>2026-05-04T05:36:49Z</time></trkpt><trkpt lat="45.94349682861275" lon="12.0925085018142"><ele>259.0</ele><time>2026-05-04T05:36:50Z</time></trkpt><trkpt lat="45.94344719764758" lon="12.092417764279944"><ele>259.0</ele><time>2026-05-04T05:36:51Z</time></trkpt><trkpt lat="45.943391625769024" lon="12.092323525914091"><ele>259.0</ele><time>2026-05-04T05:36:52Z</time></trkpt><trkpt lat="45.94333203559058" lon="12.092230615145162"><ele>259.0</ele><time>2026-05-04T05:36:53Z</time></trkpt><trkpt lat="45.94326886195601" lon="12.092137487064226"><ele>259.2</ele><time>2026-05-04T05:36:54Z</time></trkpt><trkpt lat="45.943209478483446" lon="12.092036429625956"><ele>259.4</ele><time>2026-05-04T05:36:55Z</time></trkpt><trkpt lat="45.9431459034168" lon="12.091932699666678"><ele>259.6</ele><time>2026-05-04T05:36:56Z</time></trkpt><trkpt lat="45.94307736155278" lon="12.091831664274263"><ele>259.8</ele><time>2026-05-04T05:36:57Z</time></trkpt><trkpt lat="45.94301297339425" lon="12.091721282810774"><ele>260.0</ele><time>2026-05-04T05:36:58Z</time></trkpt><trkpt lat="45.94294093482474" lon="12.0916124290209"><ele>260.4</ele><time>2026-05-04T05:36:59Z</time></trkpt><trkpt lat="45.942874252516255" lon="12.09149899608664"><ele>260.8</ele><time>2026-05-04T05:36:59.999Z</time></trkpt><trkpt lat="45.94280351968954" lon="12.09139186838554"><ele>261.2</ele><time>2026-05-04T05:37:00.999Z</time></trkpt><trkpt lat="45.942736012801795" lon="12.091281684004255"><ele>261.6</ele><time>2026-05-04T05:37:01.999Z</time></trkpt><trkpt lat="45.942670734229594" lon="12.091159588003464"><ele>262.0</ele><time>2026-05-04T05:37:02.999Z</time></trkpt><trkpt lat="45.94259099430962" lon="12.091058339445913"><ele>261.8</ele><time>2026-05-04T05:37:03.999Z</time></trkpt><trkpt lat="45.94251579681996" lon="12.090949412134668"><ele>261.6</ele><time>2026-05-04T05:37:04.999Z</time></trkpt><trkpt lat="45.94244551836902" lon="12.090841239965"><ele>261.40000000000003</ele><time>2026-05-04T05:37:05.999Z</time></trkpt><trkpt lat="45.94237689417179" lon="12.090729086158765"><ele>261.2</ele><time>2026-05-04T05:37:06.999Z</time></trkpt><trkpt lat="45.942310539000744" lon="12.090631151657222"><ele>261.0</ele><time>2026-05-04T05:37:07.999Z</time></trkpt><trkpt lat="45.94225648162369" lon="12.090527913006618"><ele>261.0</ele><time>2026-05-04T05:37:08.999Z</time></trkpt><trkpt lat="45.94220183800681" lon="12.090430810867886"><ele>261.0</ele><time>2026-05-04T05:37:09.999Z</time></trkpt><trkpt lat="45.94214145204443" lon="12.090341414575231"><ele>261.0</ele><time>2026-05-04T05:37:10.999Z</time></trkpt><trkpt lat="45.94208111771432" lon="12.090250559560102"><ele>261.0</ele><time>2026-05-04T05:37:11.999Z</time></trkpt><trkpt lat="45.942018840352546" lon="12.090170763018007"><ele>261.0</ele><time>2026-05-04T05:37:12.999Z</time></trkpt><trkpt lat="45.94197226899508" lon="12.090080489595424"><ele>261.0</ele><time>2026-05-04T05:37:13.999Z</time></trkpt><trkpt lat="45.94192822509042" lon="12.090010188073851"><ele>261.8333333333333</ele><time>2026-05-04T05:37:14.999Z</time></trkpt><trkpt lat="45.94186981246324" lon="12.089903413287969"><ele>262.6666666666667</ele><time>2026-05-04T05:37:16.999Z</time></trkpt><trkpt lat="45.941819187059565" lon="12.089821660814886"><ele>263.5</ele><time>2026-05-04T05:37:19.999Z</time></trkpt><trkpt lat="45.941874584579644" lon="12.089759162295756"><ele>264.33333333333337</ele><time>2026-05-04T05:37:24.999Z</time></trkpt><trkpt lat="45.941940682623176" lon="12.089689257873566"><ele>265.1666666666667</ele><time>2026-05-04T05:37:27.999Z</time></trkpt><trkpt lat="45.94199375069562" lon="12.08959134890788"><ele>266.0</ele><time>2026-05-04T05:37:30.999Z</time></trkpt><trkpt lat="45.94203655886154" lon="12.08951351814869"><ele>266.0</ele><time>2026-05-04T05:37:34Z</time></trkpt><trkpt lat="45.94209321562834" lon="12.089445668398026"><ele>266.0</ele><time>2026-05-04T05:37:40Z</time></trkpt><trkpt lat="45.94215512468873" lon="12.089351072341254"><ele>266.0</ele><time>2026-05-04T05:37:46Z</time></trkpt><trkpt lat="45.94218607171633" lon="12.08926360967412"><ele>266.0</ele><time>2026-05-04T05:37:50Z</time></trkpt><trkpt lat="45.94219059233025" lon="12.089161871473019"><ele>266.0</ele><time>2026-05-04T05:37:53Z</time></trkpt><trkpt lat="45.94220739551346" lon="12.089039972245564"><ele>266.0</ele><time>2026-05-04T05:38:33Z</time></trkpt><trkpt lat="45.94221399422585" lon="12.088944117097531"><ele>266.6</ele><time>2026-05-04T05:38:35Z</time></trkpt><trkpt lat="45.94222141687765" lon="12.08881739130351"><ele>267.20000000000005</ele><time>2026-05-04T05:38:38Z</time></trkpt><trkpt lat="45.942221891476656" lon="12.088708458774732"><ele>267.79999999999995</ele><time>2026-05-04T05:39:13.999Z</time></trkpt><trkpt lat="45.94211244011166" lon="12.088618633225764"><ele>268.4</ele><time>2026-05-04T05:39:21.999Z</time></trkpt><trkpt lat="45.94203390956208" lon="12.08843437247437"><ele>269.0</ele><time>2026-05-04T05:39:45Z</time></trkpt><trkpt lat="45.942008351340895" lon="12.0883056629032"><ele>269.57142857142856</ele><time>2026-05-04T05:39:47Z</time></trkpt><trkpt lat="45.94197853833124" lon="12.08820161016676"><ele>270.14285714285717</ele><time>2026-05-04T05:39:50Z</time></trkpt><trkpt lat="45.94195950923207" lon="12.088114981144786"><ele>270.7142857142857</ele><time>2026-05-04T05:40:09Z</time></trkpt><trkpt lat="45.941935192329886" lon="12.088006794497032"><ele>271.2857142857143</ele><time>2026-05-04T05:40:15Z</time></trkpt><trkpt lat="45.941915602993035" lon="12.08791963962918"><ele>271.8571428571429</ele><time>2026-05-04T05:40:17Z</time></trkpt><trkpt lat="45.9418937637765" lon="12.087822474826233"><ele>272.42857142857144</ele><time>2026-05-04T05:40:23Z</time></trkpt><trkpt lat="45.94187273349974" lon="12.087728909078244"><ele>273.0</ele><time>2026-05-04T05:40:27Z</time></trkpt><trkpt lat="45.94189564900464" lon="12.087830862397198"><ele>273.0</ele><time>2026-05-04T05:41:00Z</time></trkpt><trkpt lat="45.941916715373914" lon="12.08792458871999"><ele>273.0</ele><time>2026-05-04T05:41:04Z</time></trkpt><trkpt lat="45.94194424559507" lon="12.088047073354494"><ele>273.0</ele><time>2026-05-04T05:41:06.999Z</time></trkpt><trkpt lat="45.94196636684326" lon="12.088145551162707"><ele>273.0</ele><time>2026-05-04T05:41:10.999Z</time></trkpt><trkpt lat="45.94197648431206" lon="12.088246429825617"><ele>273.0</ele><time>2026-05-04T05:41:17.999Z</time></trkpt><trkpt lat="45.94202216923853" lon="12.088349246013033"><ele>273.0</ele><time>2026-05-04T05:41:34.999Z</time></trkpt><trkpt lat="45.94203673669441" lon="12.088441792958612"><ele>272.3333333333333</ele><time>2026-05-04T05:41:36.999Z</time></trkpt><trkpt lat="45.94208659802403" lon="12.088526285968507"><ele>271.6666666666667</ele><time>2026-05-04T05:41:38.999Z</time></trkpt><trkpt lat="45.94212136122523" lon="12.08860615949664"><ele>271.0</ele><time>2026-05-04T05:41:46Z</time></trkpt><trkpt lat="45.942183159575606" lon="12.088696681310898"><ele>270.33333333333337</ele><time>2026-05-04T05:41:49Z</time></trkpt><trkpt lat="45.94222211420065" lon="12.088585577327947"><ele>269.6666666666667</ele><time>2026-05-04T05:41:50Z</time></trkpt><trkpt lat="45.94228816075381" lon="12.08858197663192"><ele>269.0</ele><time>2026-05-04T05:42:20Z</time></trkpt><trkpt lat="45.94227502964153" lon="12.088488540061125"><ele>269.0</ele><time>2026-05-04T05:42:23Z</time></trkpt><trkpt lat="45.94235381614418" lon="12.088483398569476"><ele>269.0</ele><time>2026-05-04T05:42:25Z</time></trkpt><trkpt lat="45.94240917407668" lon="12.088406965460033"><ele>269.0</ele><time>2026-05-04T05:43:26.999Z</time></trkpt><trkpt lat="45.94247664090684" lon="12.088327337559692"><ele>269.0</ele><time>2026-05-04T05:43:42.999Z</time></trkpt><trkpt lat="45.94254539743695" lon="12.088233715733633"><ele>269.0</ele><time>2026-05-04T05:43:44.999Z</time></trkpt><trkpt lat="45.942597206095876" lon="12.088171278815668"><ele>269.0</ele><time>2026-05-04T05:43:46.999Z</time></trkpt><trkpt lat="45.94266919990769" lon="12.088088107699974"><ele>270.1666666666667</ele><time>2026-05-04T05:44:32Z</time></trkpt><trkpt lat="45.942740925282465" lon="12.088059853197729"><ele>271.33333333333337</ele><time>2026-05-04T05:44:34Z</time></trkpt><trkpt lat="45.94280242378163" lon="12.08798631089875"><ele>272.5</ele><time>2026-05-04T05:44:36Z</time></trkpt><trkpt lat="45.94289272789909" lon="12.088030923990816"><ele>273.6666666666667</ele><time>2026-05-04T05:44:39Z</time></trkpt><trkpt lat="45.9429514602495" lon="12.08806684658333"><ele>274.8333333333333</ele><time>2026-05-04T05:44:41Z</time></trkpt><trkpt lat="45.94303996765975" lon="12.088104791974741"><ele>276.0</ele><time>2026-05-04T05:44:43Z</time></trkpt><trkpt lat="45.94315937003971" lon="12.088151150723828"><ele>276.0</ele><time>2026-05-04T05:44:45Z</time></trkpt><trkpt lat="45.94323781531022" lon="12.088185845926608"><ele>276.0</ele><time>2026-05-04T05:44:47Z</time></trkpt><trkpt lat="45.94332376629196" lon="12.08818049031824"><ele>276.0</ele><time>2026-05-04T05:45:02.999Z</time></trkpt><trkpt lat="45.943420136643525" lon="12.088150374181826"><ele>276.0</ele><time>2026-05-04T05:45:04.999Z</time></trkpt><trkpt lat="45.94350806631896" lon="12.088122894401932"><ele>276.0</ele><time>2026-05-04T05:45:06.999Z</time></trkpt><trkpt lat="45.94361829382708" lon="12.088091079345872"><ele>276.8333333333333</ele><time>2026-05-04T05:45:08.999Z</time></trkpt><trkpt lat="45.94372802840776" lon="12.08805633534434"><ele>277.6666666666667</ele><time>2026-05-04T05:45:10.999Z</time></trkpt><trkpt lat="45.94383346709493" lon="12.088023876229702"><ele>278.5</ele><time>2026-05-04T05:45:12.999Z</time></trkpt><trkpt lat="45.94389564704599" lon="12.088002188241711"><ele>279.33333333333337</ele><time>2026-05-04T05:45:13.999Z</time></trkpt><trkpt lat="45.943958514333346" lon="12.087980692620132"><ele>280.1666666666667</ele><time>2026-05-04T05:45:14.999Z</time></trkpt><trkpt lat="45.94402301045576" lon="12.087959947438788"><ele>281.0</ele><time>2026-05-04T05:45:15.999Z</time></trkpt><trkpt lat="45.94408574071188" lon="12.087941083451568"><ele>281.0</ele><time>2026-05-04T05:45:16.999Z</time></trkpt><trkpt lat="45.94419698351156" lon="12.087908184640215"><ele>281.0</ele><time>2026-05-04T05:45:18.999Z</time></trkpt><trkpt lat="45.94426590965383" lon="12.08787206765585"><ele>281.0</ele><time>2026-05-04T05:45:20.999Z</time></trkpt><trkpt lat="45.944333200361385" lon="12.087772947223153"><ele>281.0</ele><time>2026-05-04T05:45:38.999Z</time></trkpt><trkpt lat="45.94442458567674" lon="12.087678280586413"><ele>281.0</ele><time>2026-05-04T05:45:40.999Z</time></trkpt><trkpt lat="45.944495069033444" lon="12.087616376674163"><ele>281.0</ele><time>2026-05-04T05:45:42.999Z</time></trkpt><trkpt lat="45.94444224103325" lon="12.08768017491851"><ele>281.0</ele><time>2026-05-04T05:46:51Z</time></trkpt><trkpt lat="45.944379093252515" lon="12.087743756498375"><ele>281.0</ele><time>2026-05-04T05:46:57Z</time></trkpt><trkpt lat="45.94430023229917" lon="12.087822391999477"><ele>281.0</ele><time>2026-05-04T05:47:12.999Z</time></trkpt><trkpt lat="45.94422629258523" lon="12.087886120694625"><ele>281.0</ele><time>2026-05-04T05:47:14.999Z</time></trkpt><trkpt lat="45.94415792282982" lon="12.087921940494358"><ele>281.0</ele><time>2026-05-04T05:47:29.999Z</time></trkpt><trkpt lat="45.94406935582154" lon="12.087951266767536"><ele>281.0</ele><time>2026-05-04T05:47:31.999Z</time></trkpt><trkpt lat="45.94398422656275" lon="12.087977731049277"><ele>281.0</ele><time>2026-05-04T05:47:33.999Z</time></trkpt><trkpt lat="45.943897792523224" lon="12.088004050379762"><ele>281.0</ele><time>2026-05-04T05:47:35.999Z</time></trkpt><trkpt lat="45.94380572804237" lon="12.088032084021535"><ele>281.0</ele><time>2026-05-04T05:47:37.999Z</time></trkpt><trkpt lat="45.943719146072546" lon="12.088059292120844"><ele>281.0</ele><time>2026-05-04T05:47:48.999Z</time></trkpt><trkpt lat="45.943633551551166" lon="12.088088082716789"><ele>281.0</ele><time>2026-05-04T05:48:23Z</time></trkpt><trkpt lat="45.94355870238793" lon="12.088113259006303"><ele>281.0</ele><time>2026-05-04T05:48:25Z</time></trkpt><trkpt lat="45.943458237348935" lon="12.088144916659283"><ele>281.0</ele><time>2026-05-04T05:48:41Z</time></trkpt><trkpt lat="45.94364977116859" lon="12.087869174258568"><ele>281.0</ele><time>2026-05-04T05:48:43Z</time></trkpt><trkpt lat="45.942991264033964" lon="12.08779359881467"><ele>280.1666666666667</ele><time>2026-05-04T05:48:45Z</time></trkpt><trkpt lat="45.942915253274904" lon="12.087848540986132"><ele>279.33333333333337</ele><time>2026-05-04T05:48:47Z</time></trkpt><trkpt lat="45.943009735958746" lon="12.087778616364083"><ele>278.5</ele><time>2026-05-04T05:48:55Z</time></trkpt><trkpt lat="45.943087658597854" lon="12.087689898289398"><ele>277.6666666666667</ele><time>2026-05-04T05:48:57Z</time></trkpt><trkpt lat="45.943144065090664" lon="12.087638102610379"><ele>276.8333333333333</ele><time>2026-05-04T05:48:59Z</time></trkpt><trkpt lat="45.943203353668366" lon="12.087584337880568"><ele>276.0</ele><time>2026-05-04T05:49:15.999Z</time></trkpt><trkpt lat="45.9432782218468" lon="12.08751484509878"><ele>276.0</ele><time>2026-05-04T05:49:17.999Z</time></trkpt><trkpt lat="45.94334554487569" lon="12.08745693758199"><ele>276.0</ele><time>2026-05-04T05:49:34.999Z</time></trkpt><trkpt lat="45.94341803676848" lon="12.08738489518583"><ele>276.0</ele><time>2026-05-04T05:49:56.999Z</time></trkpt><trkpt lat="45.943493888630584" lon="12.087312030287169"><ele>276.0</ele><time>2026-05-04T05:49:59.999Z</time></trkpt><trkpt lat="45.94352633133824" lon="12.087218898932543"><ele>276.0</ele><time>2026-05-04T05:51:12.999Z</time></trkpt><trkpt lat="45.94358639399795" lon="12.087174063623838"><ele>276.0</ele><time>2026-05-04T05:51:44.999Z</time></trkpt><trkpt lat="45.94368190070911" lon="12.087109869738203"><ele>277.1666666666667</ele><time>2026-05-04T05:51:46.999Z</time></trkpt><trkpt lat="45.94373916680228" lon="12.087062276407561"><ele>278.3333333333333</ele><time>2026-05-04T05:51:48.999Z</time></trkpt><trkpt lat="45.943797003554636" lon="12.087014323159893"><ele>279.5</ele><time>2026-05-04T05:51:51.999Z</time></trkpt><trkpt lat="45.9438565198563" lon="12.086947467249834"><ele>280.66666666666663</ele><time>2026-05-04T05:51:53.999Z</time></trkpt><trkpt lat="45.94392781185264" lon="12.086864276233705"><ele>281.8333333333333</ele><time>2026-05-04T05:51:55.999Z</time></trkpt><trkpt lat="45.94401481333618" lon="12.086795919568766"><ele>283.0</ele><time>2026-05-04T05:51:57.999Z</time></trkpt><trkpt lat="45.94407257201889" lon="12.08671707343843"><ele>283.0</ele><time>2026-05-04T05:51:59.999Z</time></trkpt><trkpt lat="45.94411743768012" lon="12.086638534741661"><ele>283.0</ele><time>2026-05-04T05:52:02.999Z</time></trkpt><trkpt lat="45.944152954053294" lon="12.086515473446028"><ele>283.0</ele><time>2026-05-04T05:53:19.999Z</time></trkpt><trkpt lat="45.9441723408969" lon="12.086394901098934"><ele>283.0</ele><time>2026-05-04T05:53:21.999Z</time></trkpt><trkpt lat="45.94417894693906" lon="12.086250199657126"><ele>283.0</ele><time>2026-05-04T05:53:23.999Z</time></trkpt><trkpt lat="45.944182522647814" lon="12.086098237662496"><ele>283.4</ele><time>2026-05-04T05:53:25.999Z</time></trkpt><trkpt lat="45.94418540957316" lon="12.085963194047375"><ele>283.8</ele><time>2026-05-04T05:53:27.999Z</time></trkpt><trkpt lat="45.944186059413354" lon="12.085821539228432"><ele>284.2</ele><time>2026-05-04T05:53:29.999Z</time></trkpt><trkpt lat="45.94418731891433" lon="12.085673525350192"><ele>284.6</ele><time>2026-05-04T05:53:31.999Z</time></trkpt><trkpt lat="45.94418855770446" lon="12.085518986842697"><ele>285.0</ele><time>2026-05-04T05:53:33.999Z</time></trkpt><trkpt lat="45.94420363594012" lon="12.08536456052406"><ele>285.8</ele><time>2026-05-04T05:53:35.999Z</time></trkpt><trkpt lat="45.944206382096155" lon="12.085263132703114"><ele>286.6</ele><time>2026-05-04T05:53:37.999Z</time></trkpt><trkpt lat="45.94421690249611" lon="12.085143509525032"><ele>287.4</ele><time>2026-05-04T05:54:05.999Z</time></trkpt><trkpt lat="45.94425038611035" lon="12.085007331492857"><ele>288.2</ele><time>2026-05-04T05:54:07.999Z</time></trkpt><trkpt lat="45.94431615115758" lon="12.084865196214357"><ele>289.0</ele><time>2026-05-04T05:54:09.999Z</time></trkpt><trkpt lat="45.94437018704297" lon="12.084722446074641"><ele>290.2</ele><time>2026-05-04T05:54:11.999Z</time></trkpt><trkpt lat="45.94443151047437" lon="12.084628928988742"><ele>291.4</ele><time>2026-05-04T05:54:13.999Z</time></trkpt><trkpt lat="45.94448094291666" lon="12.084559022955425"><ele>292.6</ele><time>2026-05-04T05:54:16.999Z</time></trkpt><trkpt lat="45.94434559986414" lon="12.084456362504278"><ele>293.8</ele><time>2026-05-04T05:54:21Z</time></trkpt><trkpt lat="45.94428107219509" lon="12.084415661649839"><ele>295.0</ele><time>2026-05-04T05:54:51Z</time></trkpt><trkpt lat="45.94420783866661" lon="12.084381622568555"><ele>295.0</ele><time>2026-05-04T05:54:53Z</time></trkpt><trkpt lat="45.944141061697295" lon="12.084355098169222"><ele>295.0</ele><time>2026-05-04T05:55:09.999Z</time></trkpt><trkpt lat="45.94412824739757" lon="12.084249183253567"><ele>295.0</ele><time>2026-05-04T05:55:12.999Z</time></trkpt><trkpt lat="45.944127715782344" lon="12.084345655490544"><ele>295.0</ele><time>2026-05-04T05:55:28.999Z</time></trkpt><trkpt lat="45.94420248760089" lon="12.084398263855357"><ele>295.0</ele><time>2026-05-04T05:55:31.999Z</time></trkpt><trkpt lat="45.944291051384326" lon="12.08445084958711"><ele>295.0</ele><time>2026-05-04T05:55:33.999Z</time></trkpt><trkpt lat="45.944393609345795" lon="12.084505864895927"><ele>295.8333333333333</ele><time>2026-05-04T05:55:35.999Z</time></trkpt><trkpt lat="45.94445697141305" lon="12.08454235859277"><ele>296.66666666666663</ele><time>2026-05-04T05:55:38.999Z</time></trkpt><trkpt lat="45.94455301165982" lon="12.084524132469415"><ele>297.5</ele><time>2026-05-04T05:55:41.999Z</time></trkpt><trkpt lat="45.94463968686817" lon="12.08446859353766"><ele>298.3333333333333</ele><time>2026-05-04T05:55:43.999Z</time></trkpt><trkpt lat="45.944751416815144" lon="12.084422694201784"><ele>299.1666666666667</ele><time>2026-05-04T05:55:45.999Z</time></trkpt><trkpt lat="45.94481542800123" lon="12.08439483834622"><ele>300.0</ele><time>2026-05-04T05:55:46.999Z</time></trkpt><trkpt lat="45.94488214774882" lon="12.084362575022068"><ele>300.0</ele><time>2026-05-04T05:55:47.999Z</time></trkpt><trkpt lat="45.94494724878435" lon="12.084330673020611"><ele>300.0</ele><time>2026-05-04T05:55:48.999Z</time></trkpt><trkpt lat="45.945022906741194" lon="12.0842895604737"><ele>300.0</ele><time>2026-05-04T05:55:50.999Z</time></trkpt><trkpt lat="45.94509085627538" lon="12.084225253531482"><ele>300.0</ele><time>2026-05-04T05:56:13.999Z</time></trkpt><trkpt lat="45.945181187469785" lon="12.084145424232926"><ele>300.0</ele><time>2026-05-04T05:56:15.999Z</time></trkpt><trkpt lat="45.94514754172958" lon="12.083931680707334"><ele>301.4</ele><time>2026-05-04T05:56:17.999Z</time></trkpt><trkpt lat="45.94511697951132" lon="12.083822266551469"><ele>302.8</ele><time>2026-05-04T05:56:18.999Z</time></trkpt><trkpt lat="45.945074349901844" lon="12.083717258440698"><ele>304.2</ele><time>2026-05-04T05:56:19.999Z</time></trkpt><trkpt lat="45.94502657265893" lon="12.08359957022821"><ele>305.6</ele><time>2026-05-04T05:56:20.999Z</time></trkpt><trkpt lat="45.94495912618426" lon="12.083480059122511"><ele>307.0</ele><time>2026-05-04T05:56:21.999Z</time></trkpt><trkpt lat="45.94490622599453" lon="12.08334481203859"><ele>308.0</ele><time>2026-05-04T05:56:22.999Z</time></trkpt><trkpt lat="45.944858636123925" lon="12.083230676256916"><ele>309.0</ele><time>2026-05-04T05:56:23.999Z</time></trkpt><trkpt lat="45.94484048870028" lon="12.08314179570363"><ele>310.0</ele><time>2026-05-04T05:56:24.999Z</time></trkpt><trkpt lat="45.944798793916384" lon="12.083066097097658"><ele>311.0</ele><time>2026-05-04T05:56:28Z</time></trkpt><trkpt lat="45.944676912926944" lon="12.083155524255844"><ele>312.0</ele><time>2026-05-04T05:56:29Z</time></trkpt><trkpt lat="45.94455453342425" lon="12.083190055062595"><ele>312.0</ele><time>2026-05-04T05:56:31Z</time></trkpt><trkpt lat="45.94448532962414" lon="12.083199604501855"><ele>312.0</ele><time>2026-05-04T05:56:32Z</time></trkpt><trkpt lat="45.94440588648808" lon="12.083225066923305"><ele>312.0</ele><time>2026-05-04T05:56:33Z</time></trkpt><trkpt lat="45.944322055022035" lon="12.0832397360768"><ele>312.0</ele><time>2026-05-04T05:56:34Z</time></trkpt><trkpt lat="45.94424114212644" lon="12.083265957138833"><ele>312.0</ele><time>2026-05-04T05:56:35Z</time></trkpt><trkpt lat="45.94416736172048" lon="12.083309831569286"><ele>312.0</ele><time>2026-05-04T05:56:36Z</time></trkpt><trkpt lat="45.944106069904315" lon="12.083372344035896"><ele>310.1666666666667</ele><time>2026-05-04T05:56:37Z</time></trkpt><trkpt lat="45.94405219829999" lon="12.083432049822564"><ele>308.3333333333333</ele><time>2026-05-04T05:56:39Z</time></trkpt><trkpt lat="45.94396505566098" lon="12.083476966497994"><ele>306.5</ele><time>2026-05-04T05:57:12.999Z</time></trkpt><trkpt lat="45.9438970216307" lon="12.083516203595991"><ele>304.66666666666663</ele><time>2026-05-04T05:57:14.999Z</time></trkpt><trkpt lat="45.94382487560488" lon="12.083537003814069"><ele>302.8333333333333</ele><time>2026-05-04T05:57:16.999Z</time></trkpt><trkpt lat="45.94375990314502" lon="12.08348951380963"><ele>301.0</ele><time>2026-05-04T05:57:18.999Z</time></trkpt><trkpt lat="45.94368421144553" lon="12.083456847905081"><ele>301.0</ele><time>2026-05-04T05:57:34.999Z</time></trkpt><trkpt lat="45.943591563012376" lon="12.08344737974154"><ele>301.0</ele><time>2026-05-04T05:57:37.999Z</time></trkpt><trkpt lat="45.943534614078814" lon="12.083371091075684"><ele>301.0</ele><time>2026-05-04T05:57:43.999Z</time></trkpt><trkpt lat="45.94358521552658" lon="12.083308163287628"><ele>301.0</ele><time>2026-05-04T05:57:44.999Z</time></trkpt><trkpt lat="45.94359006617056" lon="12.083155345628757"><ele>301.0</ele><time>2026-05-04T05:57:46.999Z</time></trkpt><trkpt lat="45.943590686729884" lon="12.083061020540748"><ele>301.0</ele><time>2026-05-04T05:57:47.999Z</time></trkpt><trkpt lat="45.94358954587093" lon="12.082957991458368"><ele>302.5</ele><time>2026-05-04T05:57:48.999Z</time></trkpt><trkpt lat="45.943587457677324" lon="12.082854998341114"><ele>304.0</ele><time>2026-05-04T05:57:49.999Z</time></trkpt><trkpt lat="45.94357711032026" lon="12.082756503305495"><ele>305.5</ele><time>2026-05-04T05:57:50.999Z</time></trkpt><trkpt lat="45.94355595445299" lon="12.082661495260924"><ele>307.0</ele><time>2026-05-04T05:57:51.999Z</time></trkpt><trkpt lat="45.943520626115024" lon="12.08257839983649"><ele>308.5</ele><time>2026-05-04T05:57:52.999Z</time></trkpt><trkpt lat="45.943433562557786" lon="12.082442099372528"><ele>310.0</ele><time>2026-05-04T05:57:54.999Z</time></trkpt><trkpt lat="45.94338479063054" lon="12.082374337951071"><ele>311.3333333333333</ele><time>2026-05-04T05:57:55.999Z</time></trkpt><trkpt lat="45.943310457808195" lon="12.082284870695384"><ele>312.66666666666663</ele><time>2026-05-04T05:57:57.999Z</time></trkpt><trkpt lat="45.94326021175869" lon="12.082229333526113"><ele>314.0</ele><time>2026-05-04T05:58:29.999Z</time></trkpt><trkpt lat="45.94320297285353" lon="12.082183609936624"><ele>315.3333333333333</ele><time>2026-05-04T05:58:32Z</time></trkpt><trkpt lat="45.943119056232064" lon="12.082101658701818"><ele>316.6666666666667</ele><time>2026-05-04T05:58:34Z</time></trkpt><trkpt lat="45.94303358543261" lon="12.081996063243299"><ele>318.0</ele><time>2026-05-04T05:58:36Z</time></trkpt><trkpt lat="45.94293996707905" lon="12.081900131627044"><ele>318.0</ele><time>2026-05-04T05:58:38Z</time></trkpt><trkpt lat="45.942895756437544" lon="12.081824736234967"><ele>318.0</ele><time>2026-05-04T05:58:40Z</time></trkpt><trkpt lat="45.94295559738427" lon="12.081763409719965"><ele>318.0</ele><time>2026-05-04T05:59:14.999Z</time></trkpt><trkpt lat="45.94302288910287" lon="12.08177095772772"><ele>318.0</ele><time>2026-05-04T05:59:16.999Z</time></trkpt><trkpt lat="45.94311242224363" lon="12.08179506833017"><ele>318.0</ele><time>2026-05-04T05:59:18.999Z</time></trkpt><trkpt lat="45.94320646415853" lon="12.081790239384706"><ele>318.0</ele><time>2026-05-04T05:59:20.999Z</time></trkpt><trkpt lat="45.94330746270099" lon="12.081761087723978"><ele>318.4</ele><time>2026-05-04T05:59:22.999Z</time></trkpt><trkpt lat="45.94341146790964" lon="12.081696341813316"><ele>318.8</ele><time>2026-05-04T05:59:24.999Z</time></trkpt><trkpt lat="45.9435229167808" lon="12.08162950586723"><ele>319.2</ele><time>2026-05-04T05:59:26.999Z</time></trkpt><trkpt lat="45.943583053391905" lon="12.081593619465721"><ele>319.6</ele><time>2026-05-04T05:59:27.999Z</time></trkpt><trkpt lat="45.94364339093658" lon="12.081560095826584"><ele>320.0</ele><time>2026-05-04T05:59:28.999Z</time></trkpt><trkpt lat="45.9437557637906" lon="12.081504363743955"><ele>320.0</ele><time>2026-05-04T05:59:30.999Z</time></trkpt><trkpt lat="45.94387127520028" lon="12.081486239087221"><ele>320.0</ele><time>2026-05-04T05:59:32.999Z</time></trkpt><trkpt lat="45.94398598874242" lon="12.081518993348867"><ele>320.0</ele><time>2026-05-04T05:59:34.999Z</time></trkpt><trkpt lat="45.94409632105524" lon="12.081581717848902"><ele>320.0</ele><time>2026-05-04T05:59:36.999Z</time></trkpt><trkpt lat="45.944197471036155" lon="12.081651223890459"><ele>320.0</ele><time>2026-05-04T05:59:38.999Z</time></trkpt><trkpt lat="45.94431491799974" lon="12.081640098911269"><ele>320.0</ele><time>2026-05-04T05:59:40.999Z</time></trkpt><trkpt lat="45.94437861931098" lon="12.081605408698685"><ele>320.0</ele><time>2026-05-04T05:59:41.999Z</time></trkpt><trkpt lat="45.94444112859894" lon="12.081559583833203"><ele>320.0</ele><time>2026-05-04T05:59:42.999Z</time></trkpt><trkpt lat="45.944500687241366" lon="12.081505302843897"><ele>320.0</ele><time>2026-05-04T05:59:43.999Z</time></trkpt><trkpt lat="45.944554825131384" lon="12.08143850842613"><ele>320.0</ele><time>2026-05-04T05:59:44.999Z</time></trkpt><trkpt lat="45.944616355934734" lon="12.08137434860599"><ele>322.6666666666667</ele><time>2026-05-04T05:59:45.999Z</time></trkpt><trkpt lat="45.94467560274939" lon="12.081305851265249"><ele>325.33333333333337</ele><time>2026-05-04T05:59:46.999Z</time></trkpt><trkpt lat="45.94473676293069" lon="12.081240426110247"><ele>328.0</ele><time>2026-05-04T05:59:47.999Z</time></trkpt><trkpt lat="45.94479611586532" lon="12.081170578521068"><ele>330.6666666666667</ele><time>2026-05-04T05:59:48.999Z</time></trkpt><trkpt lat="45.94485913430962" lon="12.08110535024949"><ele>333.3333333333333</ele><time>2026-05-04T05:59:49.999Z</time></trkpt><trkpt lat="45.944930032114286" lon="12.081060964294448"><ele>336.0</ele><time>2026-05-04T05:59:50.999Z</time></trkpt><trkpt lat="45.94499965989695" lon="12.081006734644287"><ele>335.6666666666667</ele><time>2026-05-04T05:59:51.999Z</time></trkpt><trkpt lat="45.9450689630399" lon="12.080941189590327"><ele>335.3333333333333</ele><time>2026-05-04T05:59:52.999Z</time></trkpt><trkpt lat="45.945155003728665" lon="12.080895245920138"><ele>335.0</ele><time>2026-05-04T05:59:53.999Z</time></trkpt><trkpt lat="45.945227426241544" lon="12.080825327238045"><ele>334.66666666666663</ele><time>2026-05-04T05:59:54.999Z</time></trkpt><trkpt lat="45.94529351345536" lon="12.080750790163707"><ele>334.3333333333333</ele><time>2026-05-04T05:59:55.999Z</time></trkpt><trkpt lat="45.94537245019169" lon="12.080693303226289"><ele>334.0</ele><time>2026-05-04T05:59:56.999Z</time></trkpt><trkpt lat="45.945445898295155" lon="12.08062133259907"><ele>337.4</ele><time>2026-05-04T05:59:57.999Z</time></trkpt><trkpt lat="45.945522323257" lon="12.080546445047466"><ele>340.79999999999995</ele><time>2026-05-04T05:59:58.999Z</time></trkpt><trkpt lat="45.94560108836627" lon="12.080469264406464"><ele>344.20000000000005</ele><time>2026-05-04T05:59:59.999Z</time></trkpt><trkpt lat="45.945680334128454" lon="12.080391612782456"><ele>347.6</ele><time>2026-05-04T06:00:00.999Z</time></trkpt><trkpt lat="45.94576252401088" lon="12.080315042119109"><ele>351.0</ele><time>2026-05-04T06:00:01.999Z</time></trkpt><trkpt lat="45.94584819050632" lon="12.080241810690884"><ele>350.20000000000005</ele><time>2026-05-04T06:00:02.999Z</time></trkpt><trkpt lat="45.94593242248619" lon="12.080154534613282"><ele>349.40000000000003</ele><time>2026-05-04T06:00:03.999Z</time></trkpt><trkpt lat="45.94601807946888" lon="12.080070941069742"><ele>348.6</ele><time>2026-05-04T06:00:04.999Z</time></trkpt><trkpt lat="45.94610176406301" lon="12.0799681829382"><ele>347.8</ele><time>2026-05-04T06:00:05.999Z</time></trkpt><trkpt lat="45.94618253633578" lon="12.079851166843397"><ele>347.0</ele><time>2026-05-04T06:00:06.999Z</time></trkpt><trkpt lat="45.94626452975539" lon="12.07973277366117"><ele>350.5</ele><time>2026-05-04T06:00:07.999Z</time></trkpt><trkpt lat="45.94634171131888" lon="12.079612574221438"><ele>354.0</ele><time>2026-05-04T06:00:08.999Z</time></trkpt><trkpt lat="45.9464194361213" lon="12.079491557977232"><ele>357.5</ele><time>2026-05-04T06:00:09.999Z</time></trkpt><trkpt lat="45.94649423129565" lon="12.079366893267355"><ele>361.0</ele><time>2026-05-04T06:00:10.999Z</time></trkpt><trkpt lat="45.946564987377926" lon="12.079241981861957"><ele>361.0</ele><time>2026-05-04T06:00:11.999Z</time></trkpt><trkpt lat="45.946628290361296" lon="12.079128944440123"><ele>361.0</ele><time>2026-05-04T06:00:12.999Z</time></trkpt><trkpt lat="45.94668421615543" lon="12.079038979217982"><ele>361.0</ele><time>2026-05-04T06:00:13.999Z</time></trkpt><trkpt lat="45.94674513741802" lon="12.07897853684612"><ele>361.0</ele><time>2026-05-04T06:00:14.999Z</time></trkpt><trkpt lat="45.94681818188926" lon="12.07893498217012"><ele>361.0</ele><time>2026-05-04T06:00:15.999Z</time></trkpt><trkpt lat="45.94689973392311" lon="12.078903796818599"><ele>361.0</ele><time>2026-05-04T06:00:16.999Z</time></trkpt><trkpt lat="45.94698123665049" lon="12.078885726107595"><ele>362.0</ele><time>2026-05-04T06:00:17.999Z</time></trkpt><trkpt lat="45.94706568932231" lon="12.07887158074508"><ele>363.0</ele><time>2026-05-04T06:00:18.999Z</time></trkpt><trkpt lat="45.9471483985673" lon="12.078886380025919"><ele>364.0</ele><time>2026-05-04T06:00:19.999Z</time></trkpt><trkpt lat="45.94722678502302" lon="12.078920892318232"><ele>365.0</ele><time>2026-05-04T06:00:20.999Z</time></trkpt><trkpt lat="45.94730147175149" lon="12.078984109818732"><ele>366.0</ele><time>2026-05-04T06:00:21.999Z</time></trkpt><trkpt lat="45.94737207575346" lon="12.079056177850434"><ele>367.0</ele><time>2026-05-04T06:00:22.999Z</time></trkpt><trkpt lat="45.947437634373934" lon="12.079138618166246"><ele>367.0</ele><time>2026-05-04T06:00:23.999Z</time></trkpt><trkpt lat="45.94749525333817" lon="12.079206966883929"><ele>367.0</ele><time>2026-05-04T06:00:24.999Z</time></trkpt><trkpt lat="45.94755885515329" lon="12.07923943965472"><ele>367.0</ele><time>2026-05-04T06:00:25.999Z</time></trkpt><trkpt lat="45.94762659055614" lon="12.079225747215197"><ele>367.0</ele><time>2026-05-04T06:00:26.999Z</time></trkpt><trkpt lat="45.947720919379776" lon="12.079112142026176"><ele>367.0</ele><time>2026-05-04T06:00:28.999Z</time></trkpt><trkpt lat="45.94773415628681" lon="12.079017719043996"><ele>367.0</ele><time>2026-05-04T06:00:29.999Z</time></trkpt><trkpt lat="45.947721599066746" lon="12.078902282908572"><ele>370.5</ele><time>2026-05-04T06:00:31.999Z</time></trkpt><trkpt lat="45.94770693514244" lon="12.078784847612926"><ele>374.0</ele><time>2026-05-04T06:01:10.999Z</time></trkpt><trkpt lat="45.94768902521175" lon="12.078644874886901"><ele>377.5</ele><time>2026-05-04T06:01:12.999Z</time></trkpt><trkpt lat="45.94766081782049" lon="12.078476160671334"><ele>381.0</ele><time>2026-05-04T06:01:14.999Z</time></trkpt><trkpt lat="45.94764019890158" lon="12.078378649883543"><ele>384.50000000000006</ele><time>2026-05-04T06:01:15.999Z</time></trkpt><trkpt lat="45.94761290468083" lon="12.07827687983353"><ele>388.0</ele><time>2026-05-04T06:01:16.999Z</time></trkpt><trkpt lat="45.947567631935414" lon="12.07817335130358"><ele>389.50000000000006</ele><time>2026-05-04T06:01:17.999Z</time></trkpt><trkpt lat="45.94751290966779" lon="12.078081575185106"><ele>391.0</ele><time>2026-05-04T06:01:18.999Z</time></trkpt><trkpt lat="45.94745091009148" lon="12.077997519485406"><ele>392.5</ele><time>2026-05-04T06:01:19.999Z</time></trkpt><trkpt lat="45.94738659680268" lon="12.07791829286425"><ele>394.0</ele><time>2026-05-04T06:01:20.999Z</time></trkpt><trkpt lat="45.947313519985556" lon="12.077845795887605"><ele>395.50000000000006</ele><time>2026-05-04T06:01:21.999Z</time></trkpt><trkpt lat="45.947239620411025" lon="12.0777780258116"><ele>397.0</ele><time>2026-05-04T06:01:22.999Z</time></trkpt><trkpt lat="45.94716550197661" lon="12.077713611709354"><ele>397.00000000000006</ele><time>2026-05-04T06:01:23.999Z</time></trkpt><trkpt lat="45.947091394015196" lon="12.077652703758222"><ele>397.0</ele><time>2026-05-04T06:01:24.999Z</time></trkpt><trkpt lat="45.94700677322807" lon="12.077608255203579"><ele>397.0</ele><time>2026-05-04T06:01:25.999Z</time></trkpt><trkpt lat="45.946919509919745" lon="12.077569066859208"><ele>397.0</ele><time>2026-05-04T06:01:26.999Z</time></trkpt><trkpt lat="45.946830362389505" lon="12.077573525342768"><ele>397.00000000000006</ele><time>2026-05-04T06:01:27.999Z</time></trkpt><trkpt lat="45.94674479165896" lon="12.07760969439319"><ele>397.0</ele><time>2026-05-04T06:01:28.999Z</time></trkpt><trkpt lat="45.946648323450425" lon="12.077625001713137"><ele>398.20000000000005</ele><time>2026-05-04T06:01:29.999Z</time></trkpt><trkpt lat="45.94655826006874" lon="12.077658607422523"><ele>399.4</ele><time>2026-05-04T06:01:30.999Z</time></trkpt><trkpt lat="45.94646790691951" lon="12.07769591853609"><ele>400.6</ele><time>2026-05-04T06:01:31.999Z</time></trkpt><trkpt lat="45.94637872683965" lon="12.077757418664191"><ele>401.79999999999995</ele><time>2026-05-04T06:01:32.999Z</time></trkpt><trkpt lat="45.94629101285356" lon="12.077794819598807"><ele>403.0</ele><time>2026-05-04T06:01:33.999Z</time></trkpt><trkpt lat="45.94620904337103" lon="12.07785663043331"><ele>403.0</ele><time>2026-05-04T06:01:34.999Z</time></trkpt><trkpt lat="45.94613613499065" lon="12.077942212952623"><ele>403.0</ele><time>2026-05-04T06:01:35.999Z</time></trkpt><trkpt lat="45.94606696743946" lon="12.078036371279401"><ele>403.0</ele><time>2026-05-04T06:01:36.999Z</time></trkpt><trkpt lat="45.94599971241199" lon="12.078129048998322"><ele>403.0</ele><time>2026-05-04T06:01:37.999Z</time></trkpt><trkpt lat="45.94593685667387" lon="12.078204469029483"><ele>403.0</ele><time>2026-05-04T06:01:38.999Z</time></trkpt><trkpt lat="45.945851751251205" lon="12.078227361731162"><ele>403.0</ele><time>2026-05-04T06:01:40.999Z</time></trkpt><trkpt lat="45.945829458161754" lon="12.078138340967945"><ele>403.0</ele><time>2026-05-04T06:01:42.999Z</time></trkpt><trkpt lat="45.945919259056765" lon="12.07809106481066"><ele>403.0</ele><time>2026-05-04T06:01:44.999Z</time></trkpt><trkpt lat="45.94596837808541" lon="12.07803108042107"><ele>403.0</ele><time>2026-05-04T06:01:45.999Z</time></trkpt><trkpt lat="45.94601449425316" lon="12.077964170525224"><ele>403.0</ele><time>2026-05-04T06:01:46.999Z</time></trkpt><trkpt lat="45.94606433205359" lon="12.07788107527238"><ele>403.0</ele><time>2026-05-04T06:01:47.999Z</time></trkpt><trkpt lat="45.94611605339916" lon="12.077790437023712"><ele>403.0</ele><time>2026-05-04T06:01:48.999Z</time></trkpt><trkpt lat="45.94617067483171" lon="12.077695031531139"><ele>403.0</ele><time>2026-05-04T06:01:49.999Z</time></trkpt><trkpt lat="45.94622799372718" lon="12.077597036904686"><ele>403.0</ele><time>2026-05-04T06:01:50.999Z</time></trkpt><trkpt lat="45.94629027968295" lon="12.077501183199457"><ele>403.0</ele><time>2026-05-04T06:01:51.999Z</time></trkpt><trkpt lat="45.94635327127022" lon="12.07740682927111"><ele>403.0</ele><time>2026-05-04T06:01:52.999Z</time></trkpt><trkpt lat="45.94641496606458" lon="12.077297948641135"><ele>403.0</ele><time>2026-05-04T06:01:53.999Z</time></trkpt><trkpt lat="45.94648581782024" lon="12.077229633188413"><ele>406.0</ele><time>2026-05-04T06:01:54.999Z</time></trkpt><trkpt lat="45.94657825103505" lon="12.07714537254211"><ele>409.0</ele><time>2026-05-04T06:01:55.999Z</time></trkpt><trkpt lat="45.94665451092266" lon="12.077050953999276"><ele>412.0</ele><time>2026-05-04T06:01:56.999Z</time></trkpt><trkpt lat="45.94673229751118" lon="12.07695002789148"><ele>415.0</ele><time>2026-05-04T06:01:57.999Z</time></trkpt><trkpt lat="45.94683031778257" lon="12.076889893208676"><ele>418.0</ele><time>2026-05-04T06:01:58.999Z</time></trkpt><trkpt lat="45.94692889564236" lon="12.076859239571183"><ele>418.0</ele><time>2026-05-04T06:01:59.999Z</time></trkpt><trkpt lat="45.947040799635566" lon="12.07680140209939"><ele>418.0</ele><time>2026-05-04T06:02:00.999Z</time></trkpt><trkpt lat="45.947134394710076" lon="12.076696908619988"><ele>418.0</ele><time>2026-05-04T06:02:01.999Z</time></trkpt><trkpt lat="45.947202364718635" lon="12.07656628422705"><ele>418.0</ele><time>2026-05-04T06:02:02.999Z</time></trkpt><trkpt lat="45.947283412083884" lon="12.0764613808405"><ele>423.59999999999997</ele><time>2026-05-04T06:02:03.999Z</time></trkpt><trkpt lat="45.94736451538174" lon="12.076387282908177"><ele>429.2</ele><time>2026-05-04T06:02:04.999Z</time></trkpt><trkpt lat="45.94745415401736" lon="12.076334193830697"><ele>434.8</ele><time>2026-05-04T06:02:05.999Z</time></trkpt><trkpt lat="45.94755552169441" lon="12.076330956414486"><ele>440.4</ele><time>2026-05-04T06:02:06.999Z</time></trkpt><trkpt lat="45.947672183596985" lon="12.076320032904727"><ele>446.0</ele><time>2026-05-04T06:02:07.999Z</time></trkpt><trkpt lat="45.94778326165025" lon="12.07635984120011"><ele>447.0</ele><time>2026-05-04T06:02:08.999Z</time></trkpt><trkpt lat="45.94789951717387" lon="12.07637270965521"><ele>448.0</ele><time>2026-05-04T06:02:09.999Z</time></trkpt><trkpt lat="45.948018371969354" lon="12.076365110766348"><ele>449.0</ele><time>2026-05-04T06:02:10.999Z</time></trkpt><trkpt lat="45.948121026324834" lon="12.07634104387311"><ele>450.0</ele><time>2026-05-04T06:02:11.999Z</time></trkpt><trkpt lat="45.9482136406055" lon="12.076321345105407"><ele>451.0</ele><time>2026-05-04T06:02:12.999Z</time></trkpt><trkpt lat="45.94831353445954" lon="12.076332824264716"><ele>453.0</ele><time>2026-05-04T06:02:13.999Z</time></trkpt><trkpt lat="45.948416643464235" lon="12.076379946474528"><ele>455.0</ele><time>2026-05-04T06:02:14.999Z</time></trkpt><trkpt lat="45.94852075490995" lon="12.076442041346374"><ele>457.0</ele><time>2026-05-04T06:02:15.999Z</time></trkpt><trkpt lat="45.94862912920611" lon="12.076491111987012"><ele>459.0</ele><time>2026-05-04T06:02:16.999Z</time></trkpt><trkpt lat="45.948739551380086" lon="12.076527788907969"><ele>461.0</ele><time>2026-05-04T06:02:17.999Z</time></trkpt><trkpt lat="45.94885297918078" lon="12.076563457718091"><ele>461.0</ele><time>2026-05-04T06:02:18.999Z</time></trkpt><trkpt lat="45.94895940034763" lon="12.076587845331359"><ele>461.0</ele><time>2026-05-04T06:02:19.999Z</time></trkpt><trkpt lat="45.94905318985484" lon="12.076599045500004"><ele>461.0</ele><time>2026-05-04T06:02:20.999Z</time></trkpt><trkpt lat="45.94914129544317" lon="12.076584259242495"><ele>461.0</ele><time>2026-05-04T06:02:21.999Z</time></trkpt><trkpt lat="45.94922854959311" lon="12.076533877535548"><ele>461.0</ele><time>2026-05-04T06:02:22.999Z</time></trkpt><trkpt lat="45.94930612894467" lon="12.076445700027579"><ele>461.6</ele><time>2026-05-04T06:02:23.999Z</time></trkpt><trkpt lat="45.949390829676986" lon="12.07636795559164"><ele>462.20000000000005</ele><time>2026-05-04T06:02:24.999Z</time></trkpt><trkpt lat="45.9494723026087" lon="12.076292094929832"><ele>462.79999999999995</ele><time>2026-05-04T06:02:25.999Z</time></trkpt><trkpt lat="45.94956101439073" lon="12.076230505499684"><ele>463.4</ele><time>2026-05-04T06:02:26.999Z</time></trkpt><trkpt lat="45.94965422657868" lon="12.076181899929507"><ele>464.0</ele><time>2026-05-04T06:02:27.999Z</time></trkpt><trkpt lat="45.94975414118658" lon="12.076125898846485"><ele>464.0</ele><time>2026-05-04T06:02:28.999Z</time></trkpt><trkpt lat="45.94986041817655" lon="12.076117122635182"><ele>464.0</ele><time>2026-05-04T06:02:29.999Z</time></trkpt><trkpt lat="45.94996805535101" lon="12.076133933042364"><ele>464.0</ele><time>2026-05-04T06:02:30.999Z</time></trkpt><trkpt lat="45.950072485980876" lon="12.076176073324433"><ele>464.0</ele><time>2026-05-04T06:02:31.999Z</time></trkpt><trkpt lat="45.95016356233386" lon="12.07623423740315"><ele>464.0</ele><time>2026-05-04T06:02:32.999Z</time></trkpt><trkpt lat="45.95022515162156" lon="12.076276904361691"><ele>465.0</ele><time>2026-05-04T06:02:33.999Z</time></trkpt><trkpt lat="45.95030520522167" lon="12.076246284506901"><ele>466.0</ele><time>2026-05-04T06:02:35.999Z</time></trkpt><trkpt lat="45.95034007860814" lon="12.07614353190018"><ele>467.0</ele><time>2026-05-04T06:03:04.999Z</time></trkpt><trkpt lat="45.95027754187987" lon="12.076078154947293"><ele>468.0</ele><time>2026-05-04T06:03:05.999Z</time></trkpt><trkpt lat="45.95019392741698" lon="12.075990276196345"><ele>469.0</ele><time>2026-05-04T06:03:07.999Z</time></trkpt><trkpt lat="45.95008225435097" lon="12.07591753930384"><ele>468.1666666666667</ele><time>2026-05-04T06:03:09.999Z</time></trkpt><trkpt lat="45.95001488613361" lon="12.075882875028189"><ele>467.33333333333337</ele><time>2026-05-04T06:03:10.999Z</time></trkpt><trkpt lat="45.94993933865375" lon="12.07584797914668"><ele>466.5</ele><time>2026-05-04T06:03:11.999Z</time></trkpt><trkpt lat="45.94986083759516" lon="12.07580559711545"><ele>465.66666666666663</ele><time>2026-05-04T06:03:12.999Z</time></trkpt><trkpt lat="45.949780057157334" lon="12.075755410963302"><ele>464.8333333333333</ele><time>2026-05-04T06:03:13.999Z</time></trkpt><trkpt lat="45.94969639959963" lon="12.075703635793817"><ele>464.0</ele><time>2026-05-04T06:03:14.999Z</time></trkpt><trkpt lat="45.949610595078646" lon="12.075661127689106"><ele>468.57142857142867</ele><time>2026-05-04T06:03:15.999Z</time></trkpt><trkpt lat="45.949527137587985" lon="12.075653003610146"><ele>473.14285714285717</ele><time>2026-05-04T06:03:16.999Z</time></trkpt><trkpt lat="45.94946254462173" lon="12.07563461126356"><ele>477.7142857142858</ele><time>2026-05-04T06:03:17.999Z</time></trkpt><trkpt lat="45.94943339628" lon="12.075548728357163"><ele>482.28571428571433</ele><time>2026-05-04T06:03:20.999Z</time></trkpt><trkpt lat="45.949495949180246" lon="12.075571334098525"><ele>486.8571428571429</ele><time>2026-05-04T06:03:22.999Z</time></trkpt><trkpt lat="45.94959280710012" lon="12.075557183984548"><ele>491.42857142857144</ele><time>2026-05-04T06:03:24.999Z</time></trkpt><trkpt lat="45.94965757659063" lon="12.075575475072311"><ele>496.0</ele><time>2026-05-04T06:03:25.999Z</time></trkpt><trkpt lat="45.94973032883266" lon="12.075553138297524"><ele>496.00000000000006</ele><time>2026-05-04T06:03:26.999Z</time></trkpt><trkpt lat="45.949810071717295" lon="12.075551107836636"><ele>496.0</ele><time>2026-05-04T06:03:27.999Z</time></trkpt><trkpt lat="45.94988588185043" lon="12.075545165852752"><ele>496.0</ele><time>2026-05-04T06:03:28.999Z</time></trkpt><trkpt lat="45.94996435570848" lon="12.07554150664377"><ele>496.0</ele><time>2026-05-04T06:03:29.999Z</time></trkpt><trkpt lat="45.95004059575937" lon="12.075536070978643"><ele>496.00000000000006</ele><time>2026-05-04T06:03:30.999Z</time></trkpt><trkpt lat="45.95011667391351" lon="12.07551611927898"><ele>496.0</ele><time>2026-05-04T06:03:31.999Z</time></trkpt><trkpt lat="45.95018358143646" lon="12.075523627384403"><ele>496.00000000000006</ele><time>2026-05-04T06:03:32.999Z</time></trkpt><trkpt lat="45.95026229501082" lon="12.075487583753752"><ele>496.0</ele><time>2026-05-04T06:03:34.999Z</time></trkpt><trkpt lat="45.95032937690419" lon="12.075396766955993"><ele>496.0</ele><time>2026-05-04T06:03:37.999Z</time></trkpt><trkpt lat="45.9502828525245" lon="12.07531427417645"><ele>496.0</ele><time>2026-05-04T06:03:38.999Z</time></trkpt><trkpt lat="45.95021757124641" lon="12.075334315562806"><ele>496.00000000000006</ele><time>2026-05-04T06:03:39.999Z</time></trkpt><trkpt lat="45.95013871939791" lon="12.075372275975324"><ele>496.0</ele><time>2026-05-04T06:03:41.999Z</time></trkpt><trkpt lat="45.95002598463149" lon="12.075346246446385"><ele>496.0</ele><time>2026-05-04T06:03:43.999Z</time></trkpt><trkpt lat="45.94990567877757" lon="12.075341844306644"><ele>496.0</ele><time>2026-05-04T06:03:45.999Z</time></trkpt><trkpt lat="45.94979003821652" lon="12.075289601577738"><ele>496.0</ele><time>2026-05-04T06:03:47.999Z</time></trkpt><trkpt lat="45.949677086058294" lon="12.075248349429284"><ele>496.0</ele><time>2026-05-04T06:03:49.999Z</time></trkpt><trkpt lat="45.94957453845115" lon="12.075236195056954"><ele>496.0</ele><time>2026-05-04T06:03:51.999Z</time></trkpt><trkpt lat="45.949477871286604" lon="12.075210516913739"><ele>496.0</ele><time>2026-05-04T06:03:53.999Z</time></trkpt><trkpt lat="45.94941098804633" lon="12.075175217159591"><ele>496.0</ele><time>2026-05-04T06:03:55.999Z</time></trkpt><trkpt lat="45.949505680075006" lon="12.075233866787206"><ele>496.0</ele><time>2026-05-04T06:05:00.999Z</time></trkpt><trkpt lat="45.949605960308126" lon="12.07525549004749"><ele>496.0</ele><time>2026-05-04T06:05:02.999Z</time></trkpt><trkpt lat="45.94971954375307" lon="12.075295198000669"><ele>496.0</ele><time>2026-05-04T06:05:04.999Z</time></trkpt><trkpt lat="45.94978090935762" lon="12.075323803224247"><ele>496.0</ele><time>2026-05-04T06:05:05.999Z</time></trkpt><trkpt lat="45.94984373077758" lon="12.075564572632489"><ele>496.0</ele><time>2026-05-04T06:05:06.999Z</time></trkpt><trkpt lat="45.94991357905385" lon="12.0755604818629"><ele>496.0</ele><time>2026-05-04T06:05:07.999Z</time></trkpt><trkpt lat="45.95002722169554" lon="12.075552054133384"><ele>496.0</ele><time>2026-05-04T06:05:09.999Z</time></trkpt><trkpt lat="45.95013385966181" lon="12.07553405262008"><ele>496.0</ele><time>2026-05-04T06:05:11.999Z</time></trkpt><trkpt lat="45.950222394381434" lon="12.075514851813473"><ele>496.0</ele><time>2026-05-04T06:05:13.999Z</time></trkpt><trkpt lat="45.95013014210273" lon="12.075349287769974"><ele>496.0</ele><time>2026-05-04T06:06:43.999Z</time></trkpt><trkpt lat="45.950003399870646" lon="12.075344989113036"><ele>496.0</ele><time>2026-05-04T06:06:45.999Z</time></trkpt><trkpt lat="45.9499250185755" lon="12.07533494454948"><ele>496.0</ele><time>2026-05-04T06:06:46.999Z</time></trkpt><trkpt lat="45.94984532290263" lon="12.075311589275977"><ele>496.0</ele><time>2026-05-04T06:06:47.999Z</time></trkpt><trkpt lat="45.949739517802335" lon="12.075283985245516"><ele>496.0</ele><time>2026-05-04T06:06:48.999Z</time></trkpt><trkpt lat="45.949596071192765" lon="12.075617488664303"><ele>496.0</ele><time>2026-05-04T06:06:49.999Z</time></trkpt><trkpt lat="45.94951783788646" lon="12.075613533537751"><ele>496.0</ele><time>2026-05-04T06:06:50.999Z</time></trkpt><trkpt lat="45.94945548861022" lon="12.075526116079093"><ele>496.00000000000006</ele><time>2026-05-04T06:06:51.999Z</time></trkpt><trkpt lat="45.94939002334788" lon="12.075534098546909"><ele>496.0</ele><time>2026-05-04T06:06:53.999Z</time></trkpt><trkpt lat="45.949428315717405" lon="12.075609402916921"><ele>496.0</ele><time>2026-05-04T06:06:56.999Z</time></trkpt><trkpt lat="45.94949895368701" lon="12.075596391072814"><ele>496.00000000000006</ele><time>2026-05-04T06:06:57.999Z</time></trkpt><trkpt lat="45.949566515386806" lon="12.075601066740374"><ele>496.0</ele><time>2026-05-04T06:06:58.999Z</time></trkpt><trkpt lat="45.94964976018798" lon="12.07559981103494"><ele>496.0</ele><time>2026-05-04T06:06:59.999Z</time></trkpt><trkpt lat="45.94974709777881" lon="12.07559411033069"><ele>496.0</ele><time>2026-05-04T06:07:00.999Z</time></trkpt><trkpt lat="45.9498603066886" lon="12.07558748010693"><ele>496.0</ele><time>2026-05-04T06:07:01.999Z</time></trkpt><trkpt lat="45.94998675512621" lon="12.075580074434226"><ele>496.0</ele><time>2026-05-04T06:07:02.999Z</time></trkpt><trkpt lat="45.95008773655957" lon="12.075571012591997"><ele>496.0</ele><time>2026-05-04T06:07:03.999Z</time></trkpt><trkpt lat="45.950150285292295" lon="12.075555229845072"><ele>496.0</ele><time>2026-05-04T06:07:04.999Z</time></trkpt><trkpt lat="45.950233602008296" lon="12.075596722458574"><ele>482.5</ele><time>2026-05-04T06:07:06.999Z</time></trkpt><trkpt lat="45.95025338881848" lon="12.076233433424179"><ele>469.0</ele><time>2026-05-04T06:07:08.999Z</time></trkpt><trkpt lat="45.950188130337224" lon="12.076226095561616"><ele>469.0</ele><time>2026-05-04T06:07:09.999Z</time></trkpt><trkpt lat="45.950123822373584" lon="12.07616842110078"><ele>469.0</ele><time>2026-05-04T06:07:10.999Z</time></trkpt><trkpt lat="45.950099336512906" lon="12.07592432097358"><ele>469.0</ele><time>2026-05-04T06:07:11.999Z</time></trkpt><trkpt lat="45.950005766374744" lon="12.075870906317125"><ele>469.0</ele><time>2026-05-04T06:07:12.999Z</time></trkpt><trkpt lat="45.94989994606877" lon="12.07581049864594"><ele>475.75</ele><time>2026-05-04T06:07:13.999Z</time></trkpt><trkpt lat="45.94979628049921" lon="12.075751321032342"><ele>482.5</ele><time>2026-05-04T06:07:14.999Z</time></trkpt><trkpt lat="45.94959556946034" lon="12.075642255108544"><ele>489.25</ele><time>2026-05-04T06:07:15.999Z</time></trkpt><trkpt lat="45.94948153184331" lon="12.07563557109196"><ele>496.0</ele><time>2026-05-04T06:07:16.999Z</time></trkpt><trkpt lat="45.94938233503801" lon="12.075648496502934"><ele>496.0</ele><time>2026-05-04T06:07:17.999Z</time></trkpt><trkpt lat="45.94927656566083" lon="12.075675167169218"><ele>496.0</ele><time>2026-05-04T06:07:19.999Z</time></trkpt><trkpt lat="45.94919985322692" lon="12.075692749365166"><ele>496.0</ele><time>2026-05-04T06:07:20.999Z</time></trkpt><trkpt lat="45.949038930548056" lon="12.076569269469557"><ele>487.25</ele><time>2026-05-04T06:07:21.999Z</time></trkpt><trkpt lat="45.948924242096744" lon="12.076560997785776"><ele>478.5</ele><time>2026-05-04T06:07:22.999Z</time></trkpt><trkpt lat="45.948799032962896" lon="12.076522366741045"><ele>469.75</ele><time>2026-05-04T06:07:23.999Z</time></trkpt><trkpt lat="45.9486698514627" lon="12.076443291279407"><ele>461.0</ele><time>2026-05-04T06:07:24.999Z</time></trkpt><trkpt lat="45.948549694673474" lon="12.076386123735027"><ele>460.99999999999994</ele><time>2026-05-04T06:07:25.999Z</time></trkpt><trkpt lat="45.94845417586415" lon="12.076340678279154"><ele>461.0</ele><time>2026-05-04T06:07:26.999Z</time></trkpt><trkpt lat="45.9483713074625" lon="12.0763036069341"><ele>461.0</ele><time>2026-05-04T06:07:27.999Z</time></trkpt><trkpt lat="45.94828109997946" lon="12.076251562754988"><ele>461.0</ele><time>2026-05-04T06:07:29.999Z</time></trkpt><trkpt lat="45.94820672424765" lon="12.076282584167688"><ele>460.99999999999994</ele><time>2026-05-04T06:07:33.999Z</time></trkpt><trkpt lat="45.94827496336539" lon="12.076276541596794"><ele>461.0</ele><time>2026-05-04T06:07:38.999Z</time></trkpt><trkpt lat="45.94834421348044" lon="12.076289656411326"><ele>461.0</ele><time>2026-05-04T06:07:40.999Z</time></trkpt><trkpt lat="45.94842782959942" lon="12.076321504787296"><ele>461.0</ele><time>2026-05-04T06:07:42.999Z</time></trkpt><trkpt lat="45.94842455751927" lon="12.076587840560759"><ele>461.0</ele><time>2026-05-04T06:07:43.999Z</time></trkpt><trkpt lat="45.94848642813614" lon="12.076673569925326"><ele>461.0</ele><time>2026-05-04T06:07:45.999Z</time></trkpt><trkpt lat="45.94853705313093" lon="12.07677252738234"><ele>461.0</ele><time>2026-05-04T06:07:47.999Z</time></trkpt><trkpt lat="45.9485888412994" lon="12.076900999866735"><ele>456.49999999999994</ele><time>2026-05-04T06:07:49.999Z</time></trkpt><trkpt lat="45.94862954429385" lon="12.077025577607017"><ele>452.0</ele><time>2026-05-04T06:07:51.999Z</time></trkpt><trkpt lat="45.94865488339233" lon="12.077124074184223"><ele>447.5</ele><time>2026-05-04T06:07:53.999Z</time></trkpt><trkpt lat="45.9486331562637" lon="12.07721297067241"><ele>443.0</ele><time>2026-05-04T06:07:56.999Z</time></trkpt><trkpt lat="45.94861112688341" lon="12.07730858538048"><ele>438.49999999999994</ele><time>2026-05-04T06:08:19.999Z</time></trkpt><trkpt lat="45.948589442893315" lon="12.07741430808978"><ele>434.0</ele><time>2026-05-04T06:08:22.999Z</time></trkpt><trkpt lat="45.948596121810304" lon="12.077534763158965"><ele>429.8333333333333</ele><time>2026-05-04T06:08:25.999Z</time></trkpt><trkpt lat="45.94861447691151" lon="12.077624863004505"><ele>425.66666666666663</ele><time>2026-05-04T06:08:28.999Z</time></trkpt><trkpt lat="45.94866540242872" lon="12.077691314769096"><ele>421.5</ele><time>2026-05-04T06:08:32.999Z</time></trkpt><trkpt lat="45.948736771863075" lon="12.077692849046473"><ele>417.33333333333337</ele><time>2026-05-04T06:08:35.999Z</time></trkpt><trkpt lat="45.948808935908076" lon="12.077691993762443"><ele>413.1666666666667</ele><time>2026-05-04T06:08:38.999Z</time></trkpt><trkpt lat="45.94889569768325" lon="12.077669512975035"><ele>409.0</ele><time>2026-05-04T06:08:41.999Z</time></trkpt><trkpt lat="45.9489832026363" lon="12.077638865414768"><ele>409.00000000000006</ele><time>2026-05-04T06:08:44.999Z</time></trkpt><trkpt lat="45.949068721168885" lon="12.077605745530771"><ele>409.0</ele><time>2026-05-04T06:08:47.999Z</time></trkpt><trkpt lat="45.94914112948303" lon="12.07757770299627"><ele>409.0</ele><time>2026-05-04T06:08:49.999Z</time></trkpt><trkpt lat="45.94921424797323" lon="12.077550370321958"><ele>409.0</ele><time>2026-05-04T06:08:51.999Z</time></trkpt><trkpt lat="45.94928634718971" lon="12.07752358502896"><ele>409.00000000000006</ele><time>2026-05-04T06:08:53.999Z</time></trkpt><trkpt lat="45.949365888453066" lon="12.077493379494767"><ele>409.0</ele><time>2026-05-04T06:08:55.999Z</time></trkpt><trkpt lat="45.949446887970204" lon="12.077466532000077"><ele>411.00000000000006</ele><time>2026-05-04T06:08:57.999Z</time></trkpt><trkpt lat="45.94952757672642" lon="12.077452099635478"><ele>413.0</ele><time>2026-05-04T06:08:59.999Z</time></trkpt><trkpt lat="45.949569983425945" lon="12.077550569151839"><ele>415.0</ele><time>2026-05-04T06:09:01.999Z</time></trkpt><trkpt lat="45.94955281125737" lon="12.077656421184125"><ele>417.0</ele><time>2026-05-04T06:09:03.999Z</time></trkpt><trkpt lat="45.94949449858302" lon="12.077765789318022"><ele>419.00000000000006</ele><time>2026-05-04T06:09:05.999Z</time></trkpt><trkpt lat="45.949430372416614" lon="12.077891305521995"><ele>421.0</ele><time>2026-05-04T06:09:07.999Z</time></trkpt><trkpt lat="45.94938133684588" lon="12.077971684345634"><ele>421.00000000000006</ele><time>2026-05-04T06:09:09.999Z</time></trkpt><trkpt lat="45.94933029863265" lon="12.078037320569209"><ele>421.0</ele><time>2026-05-04T06:09:12.999Z</time></trkpt><trkpt lat="45.949259971475925" lon="12.078119605706116"><ele>421.0</ele><time>2026-05-04T06:09:14.999Z</time></trkpt><trkpt lat="45.94918554383457" lon="12.078170931358144"><ele>421.0</ele><time>2026-05-04T06:09:16.999Z</time></trkpt><trkpt lat="45.94913326188776" lon="12.078250922606356"><ele>421.00000000000006</ele><time>2026-05-04T06:09:18.999Z</time></trkpt><trkpt lat="45.94911415395965" lon="12.07834173845141"><ele>421.0</ele><time>2026-05-04T06:09:20.999Z</time></trkpt><trkpt lat="45.94909901993246" lon="12.078452625563513"><ele>416.0</ele><time>2026-05-04T06:09:22.999Z</time></trkpt><trkpt lat="45.94912506836587" lon="12.078566754888636"><ele>411.0</ele><time>2026-05-04T06:09:24.999Z</time></trkpt><trkpt lat="45.94914070618778" lon="12.078690415841045"><ele>406.0</ele><time>2026-05-04T06:09:26.999Z</time></trkpt><trkpt lat="45.94914235641194" lon="12.078829439064004"><ele>401.0</ele><time>2026-05-04T06:09:28.999Z</time></trkpt><trkpt lat="45.94912798512794" lon="12.078967057649256"><ele>396.0</ele><time>2026-05-04T06:09:30.999Z</time></trkpt><trkpt lat="45.949068227785524" lon="12.079112638850901"><ele>395.25</ele><time>2026-05-04T06:09:32.999Z</time></trkpt><trkpt lat="45.94900748003551" lon="12.079269772438268"><ele>394.5</ele><time>2026-05-04T06:09:34.999Z</time></trkpt><trkpt lat="45.94894616405246" lon="12.079426944273136"><ele>393.75</ele><time>2026-05-04T06:09:36.999Z</time></trkpt><trkpt lat="45.94891142204632" lon="12.079576913608795"><ele>393.0</ele><time>2026-05-04T06:09:38.999Z</time></trkpt><trkpt lat="45.94888051853503" lon="12.079745847914179"><ele>393.0</ele><time>2026-05-04T06:09:40.999Z</time></trkpt><trkpt lat="45.94883970826635" lon="12.079906232499022"><ele>393.0</ele><time>2026-05-04T06:09:42.999Z</time></trkpt><trkpt lat="45.94874232737952" lon="12.080019682921101"><ele>393.0</ele><time>2026-05-04T06:09:44.999Z</time></trkpt><trkpt lat="45.948680136997034" lon="12.080080417888027"><ele>393.0</ele><time>2026-05-04T06:09:45.999Z</time></trkpt><trkpt lat="45.948622931483314" lon="12.0801260106316"><ele>393.0</ele><time>2026-05-04T06:09:46.999Z</time></trkpt><trkpt lat="45.94856880738938" lon="12.080172752597296"><ele>393.0</ele><time>2026-05-04T06:09:47.999Z</time></trkpt><trkpt lat="45.948504564005205" lon="12.08021130540572"><ele>393.0</ele><time>2026-05-04T06:09:48.999Z</time></trkpt><trkpt lat="45.94843127063264" lon="12.08023992683097"><ele>393.0</ele><time>2026-05-04T06:09:49.999Z</time></trkpt><trkpt lat="45.94835712530736" lon="12.080274395169068"><ele>393.0</ele><time>2026-05-04T06:09:50.999Z</time></trkpt><trkpt lat="45.94827926882923" lon="12.08031424547109"><ele>393.0</ele><time>2026-05-04T06:09:51.999Z</time></trkpt><trkpt lat="45.94819495321144" lon="12.08035909161832"><ele>393.0</ele><time>2026-05-04T06:09:52.999Z</time></trkpt><trkpt lat="45.948109423048685" lon="12.080402167975096"><ele>393.0</ele><time>2026-05-04T06:09:53.999Z</time></trkpt><trkpt lat="45.94802931714939" lon="12.08044113028498"><ele>389.5</ele><time>2026-05-04T06:09:54.999Z</time></trkpt><trkpt lat="45.94795567044027" lon="12.080472570397095"><ele>386.0</ele><time>2026-05-04T06:09:55.999Z</time></trkpt><trkpt lat="45.947876932164874" lon="12.080503597771992"><ele>382.5</ele><time>2026-05-04T06:09:56.999Z</time></trkpt><trkpt lat="45.947795429008956" lon="12.080523876696747"><ele>379.0</ele><time>2026-05-04T06:09:57.999Z</time></trkpt><trkpt lat="45.94772129130745" lon="12.080540310587256"><ele>375.5</ele><time>2026-05-04T06:09:59.999Z</time></trkpt><trkpt lat="45.94764548786981" lon="12.080555160745131"><ele>372.0</ele><time>2026-05-04T06:10:08.999Z</time></trkpt><trkpt lat="45.94758117346989" lon="12.080560817234547"><ele>369.0</ele><time>2026-05-04T06:10:10.999Z</time></trkpt><trkpt lat="45.94749333945038" lon="12.080576682100896"><ele>366.0</ele><time>2026-05-04T06:10:12.999Z</time></trkpt><trkpt lat="45.94738531028324" lon="12.080618891156016"><ele>363.0</ele><time>2026-05-04T06:10:14.999Z</time></trkpt><trkpt lat="45.94727661953465" lon="12.080683375722582"><ele>360.0</ele><time>2026-05-04T06:10:16.999Z</time></trkpt><trkpt lat="45.94716492010742" lon="12.080752213595318"><ele>357.0</ele><time>2026-05-04T06:10:18.999Z</time></trkpt><trkpt lat="45.94706592788491" lon="12.080818409767595"><ele>356.6666666666667</ele><time>2026-05-04T06:10:20.999Z</time></trkpt><trkpt lat="45.94697692225819" lon="12.08093458006639"><ele>356.3333333333333</ele><time>2026-05-04T06:10:22.999Z</time></trkpt><trkpt lat="45.94689247288126" lon="12.081072347355505"><ele>356.0</ele><time>2026-05-04T06:10:24.999Z</time></trkpt><trkpt lat="45.94684794092605" lon="12.08114174296778"><ele>355.66666666666663</ele><time>2026-05-04T06:10:25.999Z</time></trkpt><trkpt lat="45.946804610505986" lon="12.081207520429002"><ele>355.3333333333333</ele><time>2026-05-04T06:10:26.999Z</time></trkpt><trkpt lat="45.94675814639183" lon="12.081272175799477"><ele>355.0</ele><time>2026-05-04T06:10:27.999Z</time></trkpt><trkpt lat="45.94670350255294" lon="12.081328419598128"><ele>352.0</ele><time>2026-05-04T06:10:28.999Z</time></trkpt><trkpt lat="45.9466478531229" lon="12.081383521862675"><ele>349.0</ele><time>2026-05-04T06:10:29.999Z</time></trkpt><trkpt lat="45.94659269347288" lon="12.08144613922034"><ele>346.0</ele><time>2026-05-04T06:10:30.999Z</time></trkpt><trkpt lat="45.94649008904154" lon="12.081547171832483"><ele>343.0</ele><time>2026-05-04T06:10:32.999Z</time></trkpt><trkpt lat="45.94639299623844" lon="12.081659809362314"><ele>340.0</ele><time>2026-05-04T06:10:34.999Z</time></trkpt><trkpt lat="45.94634689604739" lon="12.08172771551998"><ele>339.5</ele><time>2026-05-04T06:10:35.999Z</time></trkpt><trkpt lat="45.94626869388134" lon="12.081859393059283"><ele>339.0</ele><time>2026-05-04T06:10:37.999Z</time></trkpt><trkpt lat="45.94619748551067" lon="12.081991250321039"><ele>338.5</ele><time>2026-05-04T06:10:39.999Z</time></trkpt><trkpt lat="45.94614105859279" lon="12.082138556187054"><ele>338.0</ele><time>2026-05-04T06:10:41.999Z</time></trkpt><trkpt lat="45.946084064691824" lon="12.08227190165556"><ele>338.0</ele><time>2026-05-04T06:10:43.999Z</time></trkpt><trkpt lat="45.94600262748261" lon="12.082333517183898"><ele>338.0</ele><time>2026-05-04T06:10:45.999Z</time></trkpt><trkpt lat="45.94590487458375" lon="12.082324739350291"><ele>338.0</ele><time>2026-05-04T06:10:47.999Z</time></trkpt><trkpt lat="45.94579883460471" lon="12.082304589784794"><ele>338.0</ele><time>2026-05-04T06:10:49.999Z</time></trkpt><trkpt lat="45.945698578014124" lon="12.082343152188182"><ele>338.0</ele><time>2026-05-04T06:10:51.999Z</time></trkpt><trkpt lat="45.94559746792087" lon="12.082395697067044"><ele>334.0</ele><time>2026-05-04T06:10:53.998Z</time></trkpt><trkpt lat="45.94549428868284" lon="12.082443236388022"><ele>330.0</ele><time>2026-05-04T06:10:55.998Z</time></trkpt><trkpt lat="45.945385981444794" lon="12.08246053445677"><ele>326.0</ele><time>2026-05-04T06:10:57.998Z</time></trkpt><trkpt lat="45.945287264547574" lon="12.082497388514968"><ele>322.0</ele><time>2026-05-04T06:10:59.998Z</time></trkpt><trkpt lat="45.945196848987" lon="12.082573767756188"><ele>318.0</ele><time>2026-05-04T06:11:01.998Z</time></trkpt><trkpt lat="45.94513906580068" lon="12.082665233118345"><ele>318.0</ele><time>2026-05-04T06:11:03.998Z</time></trkpt><trkpt lat="45.94509259888155" lon="12.082800085535135"><ele>318.0</ele><time>2026-05-04T06:12:06.999Z</time></trkpt><trkpt lat="45.94503522106641" lon="12.082918403763548"><ele>318.0</ele><time>2026-05-04T06:12:08.999Z</time></trkpt><trkpt lat="45.94495286417583" lon="12.083017520358743"><ele>318.0</ele><time>2026-05-04T06:12:10.999Z</time></trkpt><trkpt lat="45.94484201153589" lon="12.08308313464758"><ele>318.0</ele><time>2026-05-04T06:12:12.999Z</time></trkpt><trkpt lat="45.944782140001735" lon="12.083112613994645"><ele>317.1428571428571</ele><time>2026-05-04T06:12:13.999Z</time></trkpt><trkpt lat="45.94472192007157" lon="12.08314288645666"><ele>316.28571428571433</ele><time>2026-05-04T06:12:14.999Z</time></trkpt><trkpt lat="45.94465969803286" lon="12.083170037822388"><ele>315.42857142857144</ele><time>2026-05-04T06:12:15.999Z</time></trkpt><trkpt lat="45.94459564537651" lon="12.083193743344399"><ele>314.57142857142856</ele><time>2026-05-04T06:12:16.999Z</time></trkpt><trkpt lat="45.94452966883079" lon="12.083211285311464"><ele>313.71428571428567</ele><time>2026-05-04T06:12:17.999Z</time></trkpt><trkpt lat="45.944462715161315" lon="12.083218225836578"><ele>312.8571428571429</ele><time>2026-05-04T06:12:18.999Z</time></trkpt><trkpt lat="45.944394805118485" lon="12.083223668439418"><ele>312.0</ele><time>2026-05-04T06:12:19.999Z</time></trkpt><trkpt lat="45.94432690259321" lon="12.083232060473481"><ele>312.0</ele><time>2026-05-04T06:12:20.999Z</time></trkpt><trkpt lat="45.944259298645605" lon="12.083245320591807"><ele>312.0</ele><time>2026-05-04T06:12:21.999Z</time></trkpt><trkpt lat="45.94419475550095" lon="12.083278192212573"><ele>312.0</ele><time>2026-05-04T06:12:22.999Z</time></trkpt><trkpt lat="45.94413601756257" lon="12.083329450990073"><ele>312.0</ele><time>2026-05-04T06:12:23.999Z</time></trkpt><trkpt lat="45.94408013766743" lon="12.083390291767856"><ele>312.0</ele><time>2026-05-04T06:12:24.999Z</time></trkpt><trkpt lat="45.944022249119904" lon="12.083443264338502"><ele>312.0</ele><time>2026-05-04T06:12:25.999Z</time></trkpt><trkpt lat="45.94396097254736" lon="12.08348483899156"><ele>312.0</ele><time>2026-05-04T06:12:26.999Z</time></trkpt><trkpt lat="45.94384745280091" lon="12.083525483995789"><ele>309.8</ele><time>2026-05-04T06:12:28.999Z</time></trkpt><trkpt lat="45.94375360246309" lon="12.083504742208266"><ele>307.6</ele><time>2026-05-04T06:12:30.999Z</time></trkpt><trkpt lat="45.943661145228496" lon="12.083458331944287"><ele>305.40000000000003</ele><time>2026-05-04T06:12:32.999Z</time></trkpt><trkpt lat="45.943583637461124" lon="12.083421049472596"><ele>303.2</ele><time>2026-05-04T06:12:34.999Z</time></trkpt><trkpt lat="45.94351357206597" lon="12.083402830135102"><ele>301.0</ele><time>2026-05-04T06:12:38.999Z</time></trkpt><trkpt lat="45.94345930387255" lon="12.083539771446691"><ele>301.0</ele><time>2026-05-04T06:12:40.999Z</time></trkpt><trkpt lat="45.943399396884416" lon="12.083649367673353"><ele>301.0</ele><time>2026-05-04T06:12:42.999Z</time></trkpt><trkpt lat="45.94334184666603" lon="12.08377975819579"><ele>301.0</ele><time>2026-05-04T06:12:44.999Z</time></trkpt><trkpt lat="45.943295407549314" lon="12.083921735345248"><ele>301.0</ele><time>2026-05-04T06:12:46.999Z</time></trkpt><trkpt lat="45.94325263329797" lon="12.084071525202813"><ele>301.0</ele><time>2026-05-04T06:12:48.999Z</time></trkpt><trkpt lat="45.94321292765221" lon="12.08422299788752"><ele>299.3333333333333</ele><time>2026-05-04T06:12:50.999Z</time></trkpt><trkpt lat="45.943179498102545" lon="12.084371445160206"><ele>297.66666666666663</ele><time>2026-05-04T06:12:52.999Z</time></trkpt><trkpt lat="45.94315485814019" lon="12.08449581337416"><ele>296.0</ele><time>2026-05-04T06:12:54.999Z</time></trkpt><trkpt lat="45.94314546440383" lon="12.084612114156576"><ele>294.3333333333333</ele><time>2026-05-04T06:13:19.999Z</time></trkpt><trkpt lat="45.94310802136628" lon="12.084710669152628"><ele>292.6666666666667</ele><time>2026-05-04T06:13:21.999Z</time></trkpt><trkpt lat="45.94308709090266" lon="12.08481933397474"><ele>291.0</ele><time>2026-05-04T06:13:53.999Z</time></trkpt><trkpt lat="45.94303357639902" lon="12.084974077659803"><ele>290.3333333333333</ele><time>2026-05-04T06:13:55.999Z</time></trkpt><trkpt lat="45.9430023927829" lon="12.085059995656852"><ele>289.6666666666667</ele><time>2026-05-04T06:13:56.999Z</time></trkpt><trkpt lat="45.94293345336884" lon="12.085194190519509"><ele>289.0</ele><time>2026-05-04T06:13:58.999Z</time></trkpt><trkpt lat="45.942863250223" lon="12.085233582298505"><ele>288.33333333333337</ele><time>2026-05-04T06:14:00.999Z</time></trkpt><trkpt lat="45.942801770365925" lon="12.085281926861077"><ele>287.6666666666667</ele><time>2026-05-04T06:14:29.999Z</time></trkpt><trkpt lat="45.94272831369756" lon="12.08533577364288"><ele>287.0</ele><time>2026-05-04T06:14:31.999Z</time></trkpt><trkpt lat="45.94265092955346" lon="12.085399355997337"><ele>287.0</ele><time>2026-05-04T06:15:13.999Z</time></trkpt><trkpt lat="45.94258932479727" lon="12.085437265031889"><ele>287.0</ele><time>2026-05-04T06:15:16.999Z</time></trkpt><trkpt lat="45.94251960476033" lon="12.085500908326663"><ele>287.0</ele><time>2026-05-04T06:16:11.999Z</time></trkpt><trkpt lat="45.94244626880401" lon="12.085574971251"><ele>287.0</ele><time>2026-05-04T06:16:15.999Z</time></trkpt><trkpt lat="45.942401796950236" lon="12.08565193441178"><ele>287.0</ele><time>2026-05-04T06:16:23.999Z</time></trkpt><trkpt lat="45.94234856299893" lon="12.08570715860825"><ele>287.0</ele><time>2026-05-04T06:16:27.999Z</time></trkpt><trkpt lat="45.94244340298341" lon="12.085886137592485"><ele>286.33333333333337</ele><time>2026-05-04T06:16:33.999Z</time></trkpt><trkpt lat="45.94250430453641" lon="12.08597112975185"><ele>285.6666666666667</ele><time>2026-05-04T06:16:35.999Z</time></trkpt><trkpt lat="45.942553107838876" lon="12.086046442533013"><ele>285.0</ele><time>2026-05-04T06:16:37.999Z</time></trkpt><trkpt lat="45.9426064246455" lon="12.086111327071523"><ele>284.3333333333333</ele><time>2026-05-04T06:16:39.999Z</time></trkpt><trkpt lat="45.94267946437822" lon="12.086198353442018"><ele>283.66666666666663</ele><time>2026-05-04T06:16:42.999Z</time></trkpt><trkpt lat="45.94272459363125" lon="12.0863106760881"><ele>283.0</ele><time>2026-05-04T06:16:44.999Z</time></trkpt><trkpt lat="45.9427872102107" lon="12.086423170067295"><ele>283.0</ele><time>2026-05-04T06:16:46.999Z</time></trkpt><trkpt lat="45.942840390263704" lon="12.08654082010992"><ele>283.0</ele><time>2026-05-04T06:16:48.999Z</time></trkpt><trkpt lat="45.94288517922577" lon="12.086613733561597"><ele>283.0</ele><time>2026-05-04T06:16:50.999Z</time></trkpt><trkpt lat="45.94283703575839" lon="12.086544887588543"><ele>283.0</ele><time>2026-05-04T06:17:04.999Z</time></trkpt><trkpt lat="45.94280450315967" lon="12.086455394618955"><ele>283.0</ele><time>2026-05-04T06:17:26Z</time></trkpt><trkpt lat="45.942778001382024" lon="12.086372081577906"><ele>283.0</ele><time>2026-05-04T06:17:28Z</time></trkpt><trkpt lat="45.9427105337125" lon="12.086286665111084"><ele>283.0</ele><time>2026-05-04T06:17:30Z</time></trkpt><trkpt lat="45.942651009694394" lon="12.086186113924875"><ele>283.0</ele><time>2026-05-04T06:17:32Z</time></trkpt><trkpt lat="45.942594617365835" lon="12.08610381338384"><ele>283.0</ele><time>2026-05-04T06:17:34Z</time></trkpt><trkpt lat="45.942550821045025" lon="12.086018622906748"><ele>283.0</ele><time>2026-05-04T06:17:36Z</time></trkpt><trkpt lat="45.94249370134451" lon="12.08593815274508"><ele>283.0</ele><time>2026-05-04T06:17:39Z</time></trkpt><trkpt lat="45.94242138706563" lon="12.085849295851233"><ele>283.0</ele><time>2026-05-04T06:17:42Z</time></trkpt><trkpt lat="45.942371485505156" lon="12.085784107747886"><ele>282.4</ele><time>2026-05-04T06:18:00Z</time></trkpt><trkpt lat="45.94219218151192" lon="12.08590817350014"><ele>281.8</ele><time>2026-05-04T06:18:12Z</time></trkpt><trkpt lat="45.94217612397401" lon="12.086004917260302"><ele>281.2</ele><time>2026-05-04T06:18:13.999Z</time></trkpt><trkpt lat="45.9421195359143" lon="12.08608192392358"><ele>280.6</ele><time>2026-05-04T06:19:42.001Z</time></trkpt><trkpt lat="45.942069405289224" lon="12.086137202025773"><ele>280.0</ele><time>2026-05-04T06:19:44.001Z</time></trkpt><trkpt lat="45.94200987119098" lon="12.086220882538813"><ele>280.0</ele><time>2026-05-04T06:19:46.001Z</time></trkpt><trkpt lat="45.941966973008704" lon="12.086300245912737"><ele>280.0</ele><time>2026-05-04T06:19:48.001Z</time></trkpt><trkpt lat="45.94192597517708" lon="12.086376073974028"><ele>280.0</ele><time>2026-05-04T06:19:50.001Z</time></trkpt><trkpt lat="45.941870653075746" lon="12.086459309255584"><ele>280.0</ele><time>2026-05-04T06:19:52.001Z</time></trkpt><trkpt lat="45.94181872752628" lon="12.086546813974763"><ele>280.0</ele><time>2026-05-04T06:19:55.001Z</time></trkpt><trkpt lat="45.94188490550125" lon="12.086657356132424"><ele>280.0</ele><time>2026-05-04T06:19:58.001Z</time></trkpt><trkpt lat="45.94191237514646" lon="12.086773198901357"><ele>279.2</ele><time>2026-05-04T06:20:00.001Z</time></trkpt><trkpt lat="45.94197716784918" lon="12.086899729867204"><ele>278.4</ele><time>2026-05-04T06:20:02.001Z</time></trkpt><trkpt lat="45.942036370410214" lon="12.087052324849797"><ele>277.6</ele><time>2026-05-04T06:20:04.001Z</time></trkpt><trkpt lat="45.94208623207488" lon="12.087167852377323"><ele>276.8</ele><time>2026-05-04T06:20:06.001Z</time></trkpt><trkpt lat="45.94212046337956" lon="12.08728029104692"><ele>276.0</ele><time>2026-05-04T06:20:45Z</time></trkpt><trkpt lat="45.94217673202044" lon="12.08739331636534"><ele>275.40000000000003</ele><time>2026-05-04T06:20:47Z</time></trkpt><trkpt lat="45.94224180022295" lon="12.087522453846969"><ele>274.8</ele><time>2026-05-04T06:20:49Z</time></trkpt><trkpt lat="45.942308497094395" lon="12.087649900886339"><ele>274.20000000000005</ele><time>2026-05-04T06:20:51Z</time></trkpt><trkpt lat="45.94234304151063" lon="12.087726741077152"><ele>273.6</ele><time>2026-05-04T06:20:53Z</time></trkpt><trkpt lat="45.94228819143386" lon="12.087611469176261"><ele>273.0</ele><time>2026-05-04T06:21:31Z</time></trkpt><trkpt lat="45.94222633137807" lon="12.087491847236434"><ele>273.75</ele><time>2026-05-04T06:21:33Z</time></trkpt><trkpt lat="45.94210405198362" lon="12.087187653400454"><ele>274.5</ele><time>2026-05-04T06:21:35.001Z</time></trkpt><trkpt lat="45.942057781653546" lon="12.087077153478297"><ele>275.25</ele><time>2026-05-04T06:21:38.001Z</time></trkpt><trkpt lat="45.94202410100017" lon="12.086989157441216"><ele>276.0</ele><time>2026-05-04T06:21:39.001Z</time></trkpt><trkpt lat="45.94198622920997" lon="12.086899000805326"><ele>276.0</ele><time>2026-05-04T06:21:40.001Z</time></trkpt><trkpt lat="45.941945659317916" lon="12.086806713116523"><ele>276.0</ele><time>2026-05-04T06:21:41.001Z</time></trkpt><trkpt lat="45.94191062111009" lon="12.08672113271583"><ele>276.0</ele><time>2026-05-04T06:21:42.001Z</time></trkpt><trkpt lat="45.94188916070665" lon="12.086591169361522"><ele>276.0</ele><time>2026-05-04T06:21:44.001Z</time></trkpt><trkpt lat="45.94181842218347" lon="12.086532788366302"><ele>276.0</ele><time>2026-05-04T06:21:49.001Z</time></trkpt><trkpt lat="45.94174777344893" lon="12.086568982167016"><ele>276.0</ele><time>2026-05-04T06:21:51.001Z</time></trkpt><trkpt lat="45.94165873241793" lon="12.08662908564009"><ele>275.2</ele><time>2026-05-04T06:21:53.001Z</time></trkpt><trkpt lat="45.94155556062267" lon="12.086686561769262"><ele>274.40000000000003</ele><time>2026-05-04T06:21:55.001Z</time></trkpt><trkpt lat="45.94147895764411" lon="12.086763864071347"><ele>273.6</ele><time>2026-05-04T06:21:57.001Z</time></trkpt><trkpt lat="45.94141877744409" lon="12.086832674857265"><ele>272.8</ele><time>2026-05-04T06:22:01Z</time></trkpt><trkpt lat="45.941364457143656" lon="12.086890825805629"><ele>272.0</ele><time>2026-05-04T06:22:03Z</time></trkpt><trkpt lat="45.94127347992852" lon="12.08697974257579"><ele>272.0</ele><time>2026-05-04T06:22:05Z</time></trkpt><trkpt lat="45.9412203582283" lon="12.087029482366976"><ele>272.0</ele><time>2026-05-04T06:22:06Z</time></trkpt><trkpt lat="45.94116601544812" lon="12.08707942852635"><ele>272.0</ele><time>2026-05-04T06:22:07Z</time></trkpt><trkpt lat="45.94107773147073" lon="12.087167379745086"><ele>272.0</ele><time>2026-05-04T06:22:09Z</time></trkpt><trkpt lat="45.94101521755932" lon="12.08724335701929"><ele>272.0</ele><time>2026-05-04T06:22:12Z</time></trkpt><trkpt lat="45.940945064814315" lon="12.087369172016563"><ele>272.0</ele><time>2026-05-04T06:22:42Z</time></trkpt><trkpt lat="45.94087536876392" lon="12.087492259006584"><ele>270.83333333333337</ele><time>2026-05-04T06:22:44Z</time></trkpt><trkpt lat="45.94080843762341" lon="12.08756204518739"><ele>269.6666666666667</ele><time>2026-05-04T06:23:31Z</time></trkpt><trkpt lat="45.94073445564642" lon="12.087643045401029"><ele>268.5</ele><time>2026-05-04T06:23:33Z</time></trkpt><trkpt lat="45.94067926569483" lon="12.08770782957904"><ele>267.3333333333333</ele><time>2026-05-04T06:23:35Z</time></trkpt><trkpt lat="45.94061996783532" lon="12.087768223761705"><ele>266.16666666666663</ele><time>2026-05-04T06:23:45Z</time></trkpt><trkpt lat="45.94069682396648" lon="12.087909332511567"><ele>265.0</ele><time>2026-05-04T06:24:11Z</time></trkpt><trkpt lat="45.94072817851463" lon="12.087994397589704"><ele>265.0</ele><time>2026-05-04T06:24:13Z</time></trkpt><trkpt lat="45.94077775461629" lon="12.088096318119728"><ele>265.0</ele><time>2026-05-04T06:24:29Z</time></trkpt><trkpt lat="45.94084509565779" lon="12.088222822285495"><ele>265.0</ele><time>2026-05-04T06:24:31Z</time></trkpt><trkpt lat="45.94088316425206" lon="12.088300906816267"><ele>265.0</ele><time>2026-05-04T06:24:32Z</time></trkpt><trkpt lat="45.940923766841046" lon="12.088383932679333"><ele>265.0</ele><time>2026-05-04T06:24:33Z</time></trkpt><trkpt lat="45.94096572241113" lon="12.088465516828348"><ele>265.0</ele><time>2026-05-04T06:24:34Z</time></trkpt><trkpt lat="45.94100656294905" lon="12.088535878859563"><ele>265.16666666666663</ele><time>2026-05-04T06:24:35Z</time></trkpt><trkpt lat="45.94106903342165" lon="12.088632820085143"><ele>265.3333333333333</ele><time>2026-05-04T06:24:37Z</time></trkpt><trkpt lat="45.94103356571005" lon="12.088739295564855"><ele>265.5</ele><time>2026-05-04T06:24:41Z</time></trkpt><trkpt lat="45.940950907251406" lon="12.088776201863814"><ele>265.6666666666667</ele><time>2026-05-04T06:24:43Z</time></trkpt><trkpt lat="45.940846750142796" lon="12.088838186011891"><ele>265.83333333333337</ele><time>2026-05-04T06:24:45Z</time></trkpt><trkpt lat="45.94079031528053" lon="12.08889843808848"><ele>266.0</ele><time>2026-05-04T06:24:46Z</time></trkpt><trkpt lat="45.94073079886998" lon="12.088972683855431"><ele>265.40000000000003</ele><time>2026-05-04T06:24:47Z</time></trkpt><trkpt lat="45.940663365561086" lon="12.089048343372436"><ele>264.8</ele><time>2026-05-04T06:24:48Z</time></trkpt><trkpt lat="45.94059086020915" lon="12.0891308674664"><ele>264.20000000000005</ele><time>2026-05-04T06:24:49Z</time></trkpt><trkpt lat="45.94051455988924" lon="12.089219075785508"><ele>263.6</ele><time>2026-05-04T06:24:50Z</time></trkpt><trkpt lat="45.94043697241273" lon="12.089303393364395"><ele>263.0</ele><time>2026-05-04T06:24:51Z</time></trkpt><trkpt lat="45.94035668419429" lon="12.089389056331738"><ele>262.2</ele><time>2026-05-04T06:24:52Z</time></trkpt><trkpt lat="45.94027715863594" lon="12.089483557326059"><ele>261.4</ele><time>2026-05-04T06:24:53Z</time></trkpt><trkpt lat="45.94019435570314" lon="12.089582358681252"><ele>260.59999999999997</ele><time>2026-05-04T06:24:54Z</time></trkpt><trkpt lat="45.9401108983736" lon="12.08968790557539"><ele>259.8</ele><time>2026-05-04T06:24:55Z</time></trkpt><trkpt lat="45.940026187864845" lon="12.089799258982177"><ele>259.0</ele><time>2026-05-04T06:24:56Z</time></trkpt><trkpt lat="45.93994095463642" lon="12.089913229630262"><ele>257.75</ele><time>2026-05-04T06:24:57Z</time></trkpt><trkpt lat="45.93985253400868" lon="12.090027268688972"><ele>256.5</ele><time>2026-05-04T06:24:58Z</time></trkpt><trkpt lat="45.93976217612942" lon="12.090142800156201"><ele>255.25</ele><time>2026-05-04T06:24:59Z</time></trkpt><trkpt lat="45.939670966125206" lon="12.090258787935689"><ele>254.0</ele><time>2026-05-04T06:25:00Z</time></trkpt><trkpt lat="45.93957465876065" lon="12.090368365813355"><ele>254.0</ele><time>2026-05-04T06:25:01Z</time></trkpt><trkpt lat="45.93947251547005" lon="12.090469246374473"><ele>254.0</ele><time>2026-05-04T06:25:02Z</time></trkpt><trkpt lat="45.93936359011106" lon="12.09054986040447"><ele>254.0</ele><time>2026-05-04T06:25:03Z</time></trkpt><trkpt lat="45.93925118541405" lon="12.090621481706073"><ele>254.0</ele><time>2026-05-04T06:25:04Z</time></trkpt><trkpt lat="45.93913329188199" lon="12.090689616574807"><ele>253.25</ele><time>2026-05-04T06:25:05Z</time></trkpt><trkpt lat="45.93901608028761" lon="12.090754544374338"><ele>252.5</ele><time>2026-05-04T06:25:06Z</time></trkpt><trkpt lat="45.93889944870672" lon="12.090824704671974"><ele>251.75</ele><time>2026-05-04T06:25:07Z</time></trkpt><trkpt lat="45.938784586637865" lon="12.090900906666077"><ele>251.0</ele><time>2026-05-04T06:25:08Z</time></trkpt><trkpt lat="45.938678915870796" lon="12.09097647699401"><ele>250.4</ele><time>2026-05-04T06:25:09Z</time></trkpt><trkpt lat="45.9385828931016" lon="12.091045055000773"><ele>249.8</ele><time>2026-05-04T06:25:10Z</time></trkpt><trkpt lat="45.938498694754045" lon="12.091104582342666"><ele>249.20000000000002</ele><time>2026-05-04T06:25:11Z</time></trkpt><trkpt lat="45.938437539188634" lon="12.09116077437732"><ele>248.60000000000002</ele><time>2026-05-04T06:25:12Z</time></trkpt><trkpt lat="45.938435973438494" lon="12.091357161178925"><ele>248.0</ele><time>2026-05-04T06:25:15Z</time></trkpt><trkpt lat="45.938511306925804" lon="12.09147319091258"><ele>248.00000000000003</ele><time>2026-05-04T06:25:17Z</time></trkpt><trkpt lat="45.9385522320752" lon="12.091543357491792"><ele>248.0</ele><time>2026-05-04T06:25:18Z</time></trkpt><trkpt lat="45.93859816049907" lon="12.091623404161965"><ele>248.0</ele><time>2026-05-04T06:25:19Z</time></trkpt><trkpt lat="45.93864959388552" lon="12.091711643636053"><ele>248.0</ele><time>2026-05-04T06:25:20Z</time></trkpt><trkpt lat="45.93870648835715" lon="12.09180802660265"><ele>248.00000000000003</ele><time>2026-05-04T06:25:21Z</time></trkpt><trkpt lat="45.93876672056829" lon="12.091911425404831"><ele>248.0</ele><time>2026-05-04T06:25:22Z</time></trkpt><trkpt lat="45.93883024716941" lon="12.092023721890316"><ele>247.4</ele><time>2026-05-04T06:25:23Z</time></trkpt><trkpt lat="45.93889731741347" lon="12.09213823302869"><ele>246.8</ele><time>2026-05-04T06:25:24Z</time></trkpt><trkpt lat="45.93896694791368" lon="12.092254792368658"><ele>246.2</ele><time>2026-05-04T06:25:25Z</time></trkpt><trkpt lat="45.93903641853317" lon="12.092371488249702"><ele>245.6</ele><time>2026-05-04T06:25:26Z</time></trkpt><trkpt lat="45.93910193981747" lon="12.092481732475544"><ele>245.0</ele><time>2026-05-04T06:25:27Z</time></trkpt><trkpt lat="45.93915368383384" lon="12.092568081073038"><ele>245.0</ele><time>2026-05-04T06:25:28Z</time></trkpt><trkpt lat="45.9392143301588" lon="12.092670143727448"><ele>245.0</ele><time>2026-05-04T06:25:30Z</time></trkpt><trkpt lat="45.93926936054552" lon="12.092755279499634"><ele>245.0</ele><time>2026-05-04T06:25:33Z</time></trkpt><trkpt lat="45.93937113010093" lon="12.092690972910344"><ele>245.0</ele><time>2026-05-04T06:25:34Z</time></trkpt><trkpt lat="45.939484278501" lon="12.092588632117574"><ele>245.0</ele><time>2026-05-04T06:25:36Z</time></trkpt><trkpt lat="45.939551602031855" lon="12.092527738926668"><ele>245.00000000000003</ele><time>2026-05-04T06:25:37Z</time></trkpt><trkpt lat="45.93961437501892" lon="12.09244555680573"><ele>245.0</ele><time>2026-05-04T06:25:38Z</time></trkpt><trkpt lat="45.93969144986033" lon="12.092380354601282"><ele>245.0</ele><time>2026-05-04T06:25:39Z</time></trkpt><trkpt lat="45.93976729305627" lon="12.092314542042104"><ele>245.0</ele><time>2026-05-04T06:25:40Z</time></trkpt><trkpt lat="45.93983694278866" lon="12.09225453899397"><ele>245.00000000000003</ele><time>2026-05-04T06:25:41Z</time></trkpt><trkpt lat="45.939901324692876" lon="12.092199114014942"><ele>245.0</ele><time>2026-05-04T06:25:42Z</time></trkpt><trkpt lat="45.939960973558875" lon="12.092145270112548"><ele>245.0</ele><time>2026-05-04T06:25:43Z</time></trkpt><trkpt lat="45.9400136548544" lon="12.092093740601696"><ele>245.0</ele><time>2026-05-04T06:25:44Z</time></trkpt><trkpt lat="45.94008281433615" lon="12.092039320172834"><ele>245.0</ele><time>2026-05-04T06:26:13Z</time></trkpt><trkpt lat="45.94018935666265" lon="12.091795099373291"><ele>245.0</ele><time>2026-05-04T06:30:36Z</time></trkpt><trkpt lat="45.93996424730047" lon="12.092069782749487"><ele>245.0</ele><time>2026-05-04T06:30:38Z</time></trkpt><trkpt lat="45.93988778372334" lon="12.092148433481203"><ele>245.0</ele><time>2026-05-04T06:30:40Z</time></trkpt><trkpt lat="45.939782476826416" lon="12.092249071795944"><ele>245.0</ele><time>2026-05-04T06:30:42Z</time></trkpt><trkpt lat="45.93972243249099" lon="12.0923041174604"><ele>245.0</ele><time>2026-05-04T06:30:43Z</time></trkpt><trkpt lat="45.93965691206735" lon="12.092362209798535"><ele>245.0</ele><time>2026-05-04T06:30:44Z</time></trkpt><trkpt lat="45.93958793937681" lon="12.092425490195481"><ele>245.0</ele><time>2026-05-04T06:30:45Z</time></trkpt><trkpt lat="45.939514908658" lon="12.092492217580986"><ele>245.0</ele><time>2026-05-04T06:30:46Z</time></trkpt><trkpt lat="45.9394393729496" lon="12.092562208786193"><ele>245.0</ele><time>2026-05-04T06:30:47Z</time></trkpt><trkpt lat="45.93936206382425" lon="12.09263388550417"><ele>245.0</ele><time>2026-05-04T06:30:48Z</time></trkpt><trkpt lat="45.93928259825286" lon="12.092708054191936"><ele>245.0</ele><time>2026-05-04T06:30:49Z</time></trkpt><trkpt lat="45.93920161035369" lon="12.092786368965662"><ele>244.6</ele><time>2026-05-04T06:30:50Z</time></trkpt><trkpt lat="45.939119920805716" lon="12.092867982201048"><ele>244.2</ele><time>2026-05-04T06:30:51Z</time></trkpt><trkpt lat="45.939035887228954" lon="12.09295211865873"><ele>243.8</ele><time>2026-05-04T06:30:52Z</time></trkpt><trkpt lat="45.93894972685352" lon="12.09303717409459"><ele>243.4</ele><time>2026-05-04T06:30:53Z</time></trkpt><trkpt lat="45.93886296050879" lon="12.093126510807915"><ele>243.0</ele><time>2026-05-04T06:30:54Z</time></trkpt><trkpt lat="45.93877425395355" lon="12.093219397115448"><ele>242.25</ele><time>2026-05-04T06:30:55Z</time></trkpt><trkpt lat="45.938684172732316" lon="12.093315396129595"><ele>241.5</ele><time>2026-05-04T06:30:56Z</time></trkpt><trkpt lat="45.93859368286669" lon="12.093414944247787"><ele>240.75</ele><time>2026-05-04T06:30:57Z</time></trkpt><trkpt lat="45.93850216385243" lon="12.093518691914692"><ele>240.0</ele><time>2026-05-04T06:30:58Z</time></trkpt><trkpt lat="45.93841126854895" lon="12.093629555657648"><ele>239.0</ele><time>2026-05-04T06:30:59Z</time></trkpt><trkpt lat="45.93832342626026" lon="12.0937506243328"><ele>238.0</ele><time>2026-05-04T06:31:00Z</time></trkpt><trkpt lat="45.9382393626411" lon="12.09388102037298"><ele>237.0</ele><time>2026-05-04T06:31:01Z</time></trkpt><trkpt lat="45.9381572240117" lon="12.09401903270906"><ele>236.0</ele><time>2026-05-04T06:31:02Z</time></trkpt><trkpt lat="45.93807309627743" lon="12.094161216501416"><ele>235.5</ele><time>2026-05-04T06:31:03Z</time></trkpt><trkpt lat="45.93799003930826" lon="12.094308856130997"><ele>235.0</ele><time>2026-05-04T06:31:04Z</time></trkpt><trkpt lat="45.93790592869791" lon="12.094460398871176"><ele>234.5</ele><time>2026-05-04T06:31:05Z</time></trkpt><trkpt lat="45.93782054954075" lon="12.094614615210748"><ele>234.0</ele><time>2026-05-04T06:31:06Z</time></trkpt><trkpt lat="45.93773339327428" lon="12.094769692628544"><ele>235.0</ele><time>2026-05-04T06:31:07Z</time></trkpt><trkpt lat="45.93765239317758" lon="12.094933758690617"><ele>236.0</ele><time>2026-05-04T06:31:08Z</time></trkpt><trkpt lat="45.937572982440926" lon="12.095101927040568"><ele>237.0</ele><time>2026-05-04T06:31:09Z</time></trkpt><trkpt lat="45.93749929393597" lon="12.09527888048074"><ele>238.0</ele><time>2026-05-04T06:31:10Z</time></trkpt><trkpt lat="45.93743375728605" lon="12.09546288672367"><ele>238.25</ele><time>2026-05-04T06:31:11Z</time></trkpt><trkpt lat="45.93737017052229" lon="12.095651779997471"><ele>238.5</ele><time>2026-05-04T06:31:12Z</time></trkpt><trkpt lat="45.937309756487366" lon="12.095843587866632"><ele>238.75</ele><time>2026-05-04T06:31:13Z</time></trkpt><trkpt lat="45.93724610362293" lon="12.09603128332462"><ele>239.0</ele><time>2026-05-04T06:31:14Z</time></trkpt><trkpt lat="45.937168357527575" lon="12.096208460964657"><ele>239.75</ele><time>2026-05-04T06:31:15Z</time></trkpt><trkpt lat="45.93707965902488" lon="12.096374718532402"><ele>240.5</ele><time>2026-05-04T06:31:16Z</time></trkpt><trkpt lat="45.93697667609933" lon="12.096522645838798"><ele>241.25</ele><time>2026-05-04T06:31:17Z</time></trkpt><trkpt lat="45.936863244022334" lon="12.09664921905579"><ele>242.0</ele><time>2026-05-04T06:31:18Z</time></trkpt><trkpt lat="45.936743419638866" lon="12.096750570685261"><ele>240.5</ele><time>2026-05-04T06:31:19Z</time></trkpt><trkpt lat="45.936620982258226" lon="12.09682515751258"><ele>239.0</ele><time>2026-05-04T06:31:20Z</time></trkpt><trkpt lat="45.93649496420545" lon="12.096878189767706"><ele>237.5</ele><time>2026-05-04T06:31:21Z</time></trkpt><trkpt lat="45.93637185754287" lon="12.096922283961215"><ele>236.0</ele><time>2026-05-04T06:31:22Z</time></trkpt><trkpt lat="45.936262915087845" lon="12.096973992231183"><ele>236.00000000000003</ele><time>2026-05-04T06:31:23Z</time></trkpt><trkpt lat="45.93617207642839" lon="12.097040983204387"><ele>236.0</ele><time>2026-05-04T06:31:24Z</time></trkpt><trkpt lat="45.936106133724124" lon="12.097104202063667"><ele>236.0</ele><time>2026-05-04T06:31:25Z</time></trkpt><trkpt lat="45.93604414751547" lon="12.097146839295423"><ele>236.0</ele><time>2026-05-04T06:31:26Z</time></trkpt><trkpt lat="45.93597754128155" lon="12.097154484158946"><ele>236.00000000000003</ele><time>2026-05-04T06:31:27Z</time></trkpt><trkpt lat="45.93591443561314" lon="12.097130536876868"><ele>236.0</ele><time>2026-05-04T06:31:28Z</time></trkpt><trkpt lat="45.93580924032674" lon="12.097046595505894"><ele>236.16666666666669</ele><time>2026-05-04T06:31:30Z</time></trkpt><trkpt lat="45.935724221314324" lon="12.096990802689103"><ele>236.33333333333334</ele><time>2026-05-04T06:31:32Z</time></trkpt><trkpt lat="45.935679157750876" lon="12.096926745224685"><ele>236.5</ele><time>2026-05-04T06:32:19Z</time></trkpt><trkpt lat="45.935607568113454" lon="12.096912680499258"><ele>236.66666666666669</ele><time>2026-05-04T06:32:22Z</time></trkpt><trkpt lat="45.9356348258184" lon="12.096765747639697"><ele>236.83333333333334</ele><time>2026-05-04T06:32:24Z</time></trkpt><trkpt lat="45.93568887541062" lon="12.096835220486252"><ele>237.0</ele><time>2026-05-04T06:36:41.999Z</time></trkpt><trkpt lat="45.93566349232658" lon="12.097018076732116"><ele>237.0</ele><time>2026-05-04T06:36:45.999Z</time></trkpt><trkpt lat="45.93574238680216" lon="12.097031595242402"><ele>237.0</ele><time>2026-05-04T06:36:53Z</time></trkpt><trkpt lat="45.93583666429041" lon="12.097098327941227"><ele>237.0</ele><time>2026-05-04T06:36:55Z</time></trkpt><trkpt lat="45.93592267373042" lon="12.09715132755376"><ele>237.0</ele><time>2026-05-04T06:36:57Z</time></trkpt><trkpt lat="45.93597814205352" lon="12.097228979244857"><ele>237.0</ele><time>2026-05-04T06:37:07Z</time></trkpt><trkpt lat="45.93607704418988" lon="12.097169682506168"><ele>236.8</ele><time>2026-05-04T06:37:09Z</time></trkpt><trkpt lat="45.93619436770148" lon="12.097071861331242"><ele>236.6</ele><time>2026-05-04T06:37:11Z</time></trkpt><trkpt lat="45.936270973177066" lon="12.097020974894917"><ele>236.40000000000003</ele><time>2026-05-04T06:37:12Z</time></trkpt><trkpt lat="45.93636019923473" lon="12.096973930645209"><ele>236.20000000000002</ele><time>2026-05-04T06:37:13Z</time></trkpt><trkpt lat="45.93645796932702" lon="12.096930725117693"><ele>236.0</ele><time>2026-05-04T06:37:14Z</time></trkpt><trkpt lat="45.93656667543327" lon="12.09688771968794"><ele>236.0</ele><time>2026-05-04T06:37:15Z</time></trkpt><trkpt lat="45.93667686505661" lon="12.096833125253593"><ele>236.0</ele><time>2026-05-04T06:37:16Z</time></trkpt><trkpt lat="45.936790917983714" lon="12.096760366398573"><ele>236.0</ele><time>2026-05-04T06:37:17Z</time></trkpt><trkpt lat="45.93690174885832" lon="12.096662238329356"><ele>236.0</ele><time>2026-05-04T06:37:18Z</time></trkpt><trkpt lat="45.93700854468967" lon="12.096543460033171"><ele>235.75</ele><time>2026-05-04T06:37:19Z</time></trkpt><trkpt lat="45.93710353053281" lon="12.096398681207345"><ele>235.5</ele><time>2026-05-04T06:37:20Z</time></trkpt><trkpt lat="45.93718567322951" lon="12.096233540598098"><ele>235.25</ele><time>2026-05-04T06:37:21Z</time></trkpt><trkpt lat="45.93727392834033" lon="12.096067330034558"><ele>235.0</ele><time>2026-05-04T06:37:22Z</time></trkpt><trkpt lat="45.93733794381699" lon="12.095870466566238"><ele>236.33333333333331</ele><time>2026-05-04T06:37:23Z</time></trkpt><trkpt lat="45.937400864862205" lon="12.095671902892395"><ele>237.66666666666669</ele><time>2026-05-04T06:37:24Z</time></trkpt><trkpt lat="45.93745589524563" lon="12.095461544143573"><ele>239.0</ele><time>2026-05-04T06:37:25Z</time></trkpt><trkpt lat="45.93753211658792" lon="12.09526316105098"><ele>238.66666666666669</ele><time>2026-05-04T06:37:26Z</time></trkpt><trkpt lat="45.93761734972635" lon="12.095070845685818"><ele>238.33333333333331</ele><time>2026-05-04T06:37:27Z</time></trkpt><trkpt lat="45.93771164565453" lon="12.094884925299255"><ele>238.0</ele><time>2026-05-04T06:37:28Z</time></trkpt><trkpt lat="45.9378104228775" lon="12.094701346188039"><ele>236.66666666666666</ele><time>2026-05-04T06:37:29Z</time></trkpt><trkpt lat="45.93791058374109" lon="12.094517038593654"><ele>235.33333333333331</ele><time>2026-05-04T06:37:30Z</time></trkpt><trkpt lat="45.93801335389585" lon="12.094332766778999"><ele>234.0</ele><time>2026-05-04T06:37:31Z</time></trkpt><trkpt lat="45.93811624440765" lon="12.094147807929527"><ele>234.66666666666669</ele><time>2026-05-04T06:37:32Z</time></trkpt><trkpt lat="45.93822243724032" lon="12.093966368846703"><ele>235.33333333333334</ele><time>2026-05-04T06:37:33Z</time></trkpt><trkpt lat="45.93833603075789" lon="12.09379471311924"><ele>236.0</ele><time>2026-05-04T06:37:34Z</time></trkpt><trkpt lat="45.93845752724337" lon="12.093632278384431"><ele>237.33333333333334</ele><time>2026-05-04T06:37:35Z</time></trkpt><trkpt lat="45.93858611176201" lon="12.09348119281282"><ele>238.66666666666669</ele><time>2026-05-04T06:37:36Z</time></trkpt><trkpt lat="45.93871991558901" lon="12.093334211013099"><ele>240.0</ele><time>2026-05-04T06:37:37Z</time></trkpt><trkpt lat="45.93885524678159" lon="12.093191919049012"><ele>241.0</ele><time>2026-05-04T06:37:38Z</time></trkpt><trkpt lat="45.93899091976126" lon="12.0930501500373"><ele>242.0</ele><time>2026-05-04T06:37:39Z</time></trkpt><trkpt lat="45.939129511719464" lon="12.092910691190909"><ele>243.0</ele><time>2026-05-04T06:37:40Z</time></trkpt><trkpt lat="45.93927030400746" lon="12.092775663305387"><ele>243.66666666666669</ele><time>2026-05-04T06:37:41Z</time></trkpt><trkpt lat="45.93941215050705" lon="12.09264551577094"><ele>244.33333333333334</ele><time>2026-05-04T06:37:42Z</time></trkpt><trkpt lat="45.93955382802617" lon="12.092516736298064"><ele>245.0</ele><time>2026-05-04T06:37:43Z</time></trkpt><trkpt lat="45.939694263787494" lon="12.092387630058232"><ele>245.0</ele><time>2026-05-04T06:37:44Z</time></trkpt><trkpt lat="45.939832119162936" lon="12.092256415687741"><ele>245.0</ele><time>2026-05-04T06:37:45Z</time></trkpt><trkpt lat="45.939967374957405" lon="12.092127999093218"><ele>245.0</ele><time>2026-05-04T06:37:46Z</time></trkpt><trkpt lat="45.940099762427366" lon="12.092002957490173"><ele>246.25</ele><time>2026-05-04T06:37:47Z</time></trkpt><trkpt lat="45.94023561657199" lon="12.091902454421607"><ele>247.5</ele><time>2026-05-04T06:37:48Z</time></trkpt><trkpt lat="45.94035949427515" lon="12.09178771946424"><ele>248.75</ele><time>2026-05-04T06:37:49Z</time></trkpt><trkpt lat="45.940477782146544" lon="12.091673173681517"><ele>250.0</ele><time>2026-05-04T06:37:50Z</time></trkpt><trkpt lat="45.940580112337805" lon="12.091549044311785"><ele>250.16666666666666</ele><time>2026-05-04T06:37:51Z</time></trkpt><trkpt lat="45.940648933941496" lon="12.091484069061941"><ele>250.33333333333331</ele><time>2026-05-04T06:37:52Z</time></trkpt><trkpt lat="45.94072070268301" lon="12.091422234933171"><ele>250.5</ele><time>2026-05-04T06:37:54Z</time></trkpt><trkpt lat="45.94078683181457" lon="12.09134861437826"><ele>250.66666666666669</ele><time>2026-05-04T06:37:56Z</time></trkpt><trkpt lat="45.94085006733413" lon="12.09130928413308"><ele>250.83333333333334</ele><time>2026-05-04T06:37:57Z</time></trkpt><trkpt lat="45.94090847881532" lon="12.091219722208358"><ele>251.0</ele><time>2026-05-04T06:37:58Z</time></trkpt><trkpt lat="45.94099036304155" lon="12.091141242329162"><ele>251.8</ele><time>2026-05-04T06:37:58.999Z</time></trkpt><trkpt lat="45.94106899109103" lon="12.091045387968348"><ele>252.60000000000002</ele><time>2026-05-04T06:37:59.999Z</time></trkpt><trkpt lat="45.94115063466821" lon="12.090938342228833"><ele>253.4</ele><time>2026-05-04T06:38:00.999Z</time></trkpt><trkpt lat="45.94123188286546" lon="12.090823444313548"><ele>254.2</ele><time>2026-05-04T06:38:01.999Z</time></trkpt><trkpt lat="45.94131218759559" lon="12.090702055457228"><ele>255.0</ele><time>2026-05-04T06:38:02.999Z</time></trkpt><trkpt lat="45.94139307420048" lon="12.090578736140941"><ele>256.2</ele><time>2026-05-04T06:38:03.999Z</time></trkpt><trkpt lat="45.94147056162672" lon="12.090459605113226"><ele>257.4</ele><time>2026-05-04T06:38:04.999Z</time></trkpt><trkpt lat="45.94154652887083" lon="12.090349457841377"><ele>258.6</ele><time>2026-05-04T06:38:05.999Z</time></trkpt><trkpt lat="45.94161720905455" lon="12.090249796612389"><ele>259.8</ele><time>2026-05-04T06:38:06.999Z</time></trkpt><trkpt lat="45.94167788580173" lon="12.090161201820644"><ele>261.0</ele><time>2026-05-04T06:38:08Z</time></trkpt><trkpt lat="45.94173139747365" lon="12.090085655835436"><ele>261.0</ele><time>2026-05-04T06:38:08.999Z</time></trkpt><trkpt lat="45.94178902090866" lon="12.090002828402854"><ele>261.0</ele><time>2026-05-04T06:38:10.999Z</time></trkpt><trkpt lat="45.94183329145257" lon="12.089923055771065"><ele>261.0</ele><time>2026-05-04T06:38:42.999Z</time></trkpt><trkpt lat="45.94180338899205" lon="12.089795451138198"><ele>261.0</ele><time>2026-05-04T06:38:45.999Z</time></trkpt><trkpt lat="45.94175226635065" lon="12.089682905305871"><ele>261.0</ele><time>2026-05-04T06:38:47.999Z</time></trkpt><trkpt lat="45.941709377979464" lon="12.089608579546566"><ele>261.0</ele><time>2026-05-04T06:38:49.999Z</time></trkpt><trkpt lat="45.94165705428292" lon="12.0895077855073"><ele>261.3333333333333</ele><time>2026-05-04T06:39:34.999Z</time></trkpt><trkpt lat="45.94159215123622" lon="12.089377523031592"><ele>261.6666666666667</ele><time>2026-05-04T06:39:36.999Z</time></trkpt><trkpt lat="45.94153679718728" lon="12.089275987029914"><ele>262.0</ele><time>2026-05-04T06:39:38.999Z</time></trkpt><trkpt lat="45.94149472419526" lon="12.089195619266782"><ele>262.33333333333337</ele><time>2026-05-04T06:40:02.999Z</time></trkpt><trkpt lat="45.94149648187686" lon="12.089095235187227"><ele>262.6666666666667</ele><time>2026-05-04T06:40:05.999Z</time></trkpt><trkpt lat="45.94156766501007" lon="12.089044936106614"><ele>263.0</ele><time>2026-05-04T06:40:07.999Z</time></trkpt><trkpt lat="45.941618899892845" lon="12.088987730972503"><ele>263.6</ele><time>2026-05-04T06:40:09.999Z</time></trkpt><trkpt lat="45.94168870849121" lon="12.088924176413498"><ele>264.20000000000005</ele><time>2026-05-04T06:40:11.999Z</time></trkpt><trkpt lat="45.94179128456452" lon="12.088840055048824"><ele>264.8</ele><time>2026-05-04T06:40:13.999Z</time></trkpt><trkpt lat="45.94189960881909" lon="12.088756941704858"><ele>265.40000000000003</ele><time>2026-05-04T06:40:15.999Z</time></trkpt><trkpt lat="45.942000434867076" lon="12.088688910291586"><ele>266.0</ele><time>2026-05-04T06:40:17.999Z</time></trkpt><trkpt lat="45.94207952904119" lon="12.088654680338813"><ele>266.6</ele><time>2026-05-04T06:40:19.999Z</time></trkpt><trkpt lat="45.94215848220246" lon="12.08862831888287"><ele>267.20000000000005</ele><time>2026-05-04T06:40:21.999Z</time></trkpt><trkpt lat="45.94223609488463" lon="12.088630236847235"><ele>267.79999999999995</ele><time>2026-05-04T06:40:23.999Z</time></trkpt><trkpt lat="45.94230240578911" lon="12.088609206031707"><ele>268.4</ele><time>2026-05-04T06:40:25.999Z</time></trkpt><trkpt lat="45.94236909694585" lon="12.088456912197744"><ele>269.0</ele><time>2026-05-04T06:40:38Z</time></trkpt><trkpt lat="45.94226377980971" lon="12.088687779668236"><ele>269.0</ele><time>2026-05-04T06:40:40Z</time></trkpt><trkpt lat="45.94220459438861" lon="12.088759205373558"><ele>269.0</ele><time>2026-05-04T06:40:42Z</time></trkpt><trkpt lat="45.94185859089009" lon="12.08874760151117"><ele>269.0</ele><time>2026-05-04T06:41:01Z</time></trkpt><trkpt lat="45.941757970443994" lon="12.088828469335452"><ele>268.5</ele><time>2026-05-04T06:41:03Z</time></trkpt><trkpt lat="45.94166112253301" lon="12.088912071392022"><ele>268.0</ele><time>2026-05-04T06:41:05Z</time></trkpt><trkpt lat="45.94159093675019" lon="12.088958441945557"><ele>267.5</ele><time>2026-05-04T06:41:23Z</time></trkpt><trkpt lat="45.94152176371102" lon="12.089038009982318"><ele>267.0</ele><time>2026-05-04T06:41:25Z</time></trkpt><trkpt lat="45.941474146101385" lon="12.089119029319507"><ele>266.5</ele><time>2026-05-04T06:41:31Z</time></trkpt><trkpt lat="45.94140691025423" lon="12.089081380251773"><ele>266.0</ele><time>2026-05-04T06:41:33Z</time></trkpt><trkpt lat="45.941352900943166" lon="12.088990148764108"><ele>266.0</ele><time>2026-05-04T06:41:35Z</time></trkpt><trkpt lat="45.94128332584598" lon="12.088885817866167"><ele>266.0</ele><time>2026-05-04T06:41:53Z</time></trkpt><trkpt lat="45.94121136784568" lon="12.088789402116012"><ele>266.0</ele><time>2026-05-04T06:41:55Z</time></trkpt><trkpt lat="45.9411496057208" lon="12.088703165086262"><ele>266.0</ele><time>2026-05-04T06:41:57Z</time></trkpt><trkpt lat="45.94110758915195" lon="12.088628237307573"><ele>266.0</ele><time>2026-05-04T06:41:59Z</time></trkpt><trkpt lat="45.94105927826022" lon="12.088546229092278"><ele>266.0</ele><time>2026-05-04T06:42:01Z</time></trkpt><trkpt lat="45.94100053835492" lon="12.088441280199882"><ele>266.0</ele><time>2026-05-04T06:42:03Z</time></trkpt><trkpt lat="45.94093754386482" lon="12.088326255071769"><ele>266.0</ele><time>2026-05-04T06:42:05Z</time></trkpt><trkpt lat="45.94088873911614" lon="12.088233024810222"><ele>266.0</ele><time>2026-05-04T06:42:07Z</time></trkpt><trkpt lat="45.94084322488384" lon="12.088143440352072"><ele>266.0</ele><time>2026-05-04T06:42:09Z</time></trkpt><trkpt lat="45.94079711536324" lon="12.088048565416589"><ele>266.0</ele><time>2026-05-04T06:42:11Z</time></trkpt><trkpt lat="45.940755730964526" lon="12.08795457487165"><ele>266.0</ele><time>2026-05-04T06:42:13Z</time></trkpt><trkpt lat="45.94071151302111" lon="12.087848695466505"><ele>265.8</ele><time>2026-05-04T06:42:15Z</time></trkpt><trkpt lat="45.940665184639286" lon="12.087737366257171"><ele>265.6</ele><time>2026-05-04T06:42:17Z</time></trkpt><trkpt lat="45.940611877078204" lon="12.087607930021544"><ele>265.4</ele><time>2026-05-04T06:42:19Z</time></trkpt><trkpt lat="45.9405600252146" lon="12.087470185336683"><ele>265.2</ele><time>2026-05-04T06:42:21Z</time></trkpt><trkpt lat="45.94050391654559" lon="12.087329451210424"><ele>265.0</ele><time>2026-05-04T06:42:23Z</time></trkpt><trkpt lat="45.94044602543751" lon="12.087185877640207"><ele>265.6</ele><time>2026-05-04T06:42:25Z</time></trkpt><trkpt lat="45.94038631825025" lon="12.087037875821503"><ele>266.2</ele><time>2026-05-04T06:42:27Z</time></trkpt><trkpt lat="45.94033040952399" lon="12.086894895788488"><ele>266.8</ele><time>2026-05-04T06:42:29Z</time></trkpt><trkpt lat="45.94028953531836" lon="12.086794475381547"><ele>267.4</ele><time>2026-05-04T06:42:31Z</time></trkpt><trkpt lat="45.940226104561866" lon="12.086661897786104"><ele>268.0</ele><time>2026-05-04T06:42:48Z</time></trkpt><trkpt lat="45.940164941904804" lon="12.086530372930614"><ele>268.2</ele><time>2026-05-04T06:42:50Z</time></trkpt><trkpt lat="45.94012337626918" lon="12.08644393776837"><ele>268.4</ele><time>2026-05-04T06:42:52Z</time></trkpt><trkpt lat="45.940036249304036" lon="12.086370872822016"><ele>268.59999999999997</ele><time>2026-05-04T06:43:13Z</time></trkpt><trkpt lat="45.939958829697744" lon="12.086258636775405"><ele>268.8</ele><time>2026-05-04T06:43:15Z</time></trkpt><trkpt lat="45.9398530819135" lon="12.086157845655391"><ele>269.0</ele><time>2026-05-04T06:43:17Z</time></trkpt><trkpt lat="45.93979867275002" lon="12.08610884921065"><ele>269.0</ele><time>2026-05-04T06:43:18Z</time></trkpt><trkpt lat="45.93969756820236" lon="12.086045515920905"><ele>269.0</ele><time>2026-05-04T06:43:20Z</time></trkpt><trkpt lat="45.93963515268635" lon="12.085964500551079"><ele>269.0</ele><time>2026-05-04T06:43:22Z</time></trkpt><trkpt lat="45.93957562543014" lon="12.08591195249943"><ele>269.0</ele><time>2026-05-04T06:43:24Z</time></trkpt><trkpt lat="45.93950677243444" lon="12.085851171837087"><ele>269.0</ele><time>2026-05-04T06:43:27Z</time></trkpt><trkpt lat="45.939527391464495" lon="12.085744722095527"><ele>269.0</ele><time>2026-05-04T06:43:38Z</time></trkpt><trkpt lat="45.93955646330353" lon="12.085641706779855"><ele>270.2</ele><time>2026-05-04T06:43:42Z</time></trkpt><trkpt lat="45.93948285481894" lon="12.085732004566403"><ele>271.4</ele><time>2026-05-04T06:43:44Z</time></trkpt><trkpt lat="45.9395370914515" lon="12.08560551218913"><ele>272.6</ele><time>2026-05-04T06:43:49Z</time></trkpt><trkpt lat="45.93948184386738" lon="12.085731112324337"><ele>273.8</ele><time>2026-05-04T06:43:55Z</time></trkpt><trkpt lat="45.93951941910576" lon="12.085603920966777"><ele>275.0</ele><time>2026-05-04T06:44:08Z</time></trkpt><trkpt lat="45.939459901594034" lon="12.085571152312491"><ele>275.0</ele><time>2026-05-04T06:44:11Z</time></trkpt><trkpt lat="45.93939085213442" lon="12.085508585154349"><ele>275.0</ele><time>2026-05-04T06:44:16Z</time></trkpt><trkpt lat="45.939306586792014" lon="12.08549256765931"><ele>275.0</ele><time>2026-05-04T06:44:38Z</time></trkpt><trkpt lat="45.93922564291596" lon="12.08548425268965"><ele>275.0</ele><time>2026-05-04T06:44:41.001Z</time></trkpt><trkpt lat="45.93915418538246" lon="12.085468301962955"><ele>275.0</ele><time>2026-05-04T06:44:45.001Z</time></trkpt><trkpt lat="45.93908862416724" lon="12.085481625886171"><ele>275.0</ele><time>2026-05-04T06:44:53.001Z</time></trkpt><trkpt lat="45.93915390940461" lon="12.085541319953212"><ele>275.33333333333337</ele><time>2026-05-04T06:45:05Z</time></trkpt><trkpt lat="45.93907460799038" lon="12.08549506254442"><ele>275.6666666666667</ele><time>2026-05-04T06:45:36Z</time></trkpt><trkpt lat="45.939001990705684" lon="12.085427080418436"><ele>276.0</ele><time>2026-05-04T06:45:38Z</time></trkpt><trkpt lat="45.93890862293096" lon="12.085339025427889"><ele>276.3333333333333</ele><time>2026-05-04T06:45:40Z</time></trkpt><trkpt lat="45.938856709209894" lon="12.085284450383272"><ele>276.66666666666663</ele><time>2026-05-04T06:45:41Z</time></trkpt><trkpt lat="45.938804605224725" lon="12.08522410017356"><ele>277.0</ele><time>2026-05-04T06:45:42Z</time></trkpt><trkpt lat="45.938737115150275" lon="12.085129494517675"><ele>277.0</ele><time>2026-05-04T06:45:44Z</time></trkpt><trkpt lat="45.93867205927948" lon="12.085015767795904"><ele>277.0</ele><time>2026-05-04T06:46:01Z</time></trkpt><trkpt lat="45.938624696336625" lon="12.084941487196591"><ele>277.0</ele><time>2026-05-04T06:46:03Z</time></trkpt><trkpt lat="45.938575093262706" lon="12.084862915189339"><ele>277.0</ele><time>2026-05-04T06:46:25Z</time></trkpt><trkpt lat="45.93848641428469" lon="12.084765004496722"><ele>277.0</ele><time>2026-05-04T06:46:27Z</time></trkpt><trkpt lat="45.938406994516946" lon="12.084704486196216"><ele>277.0</ele><time>2026-05-04T06:46:29Z</time></trkpt><trkpt lat="45.93833913803876" lon="12.08466144156791"><ele>278.16666666666663</ele><time>2026-05-04T06:47:21Z</time></trkpt><trkpt lat="45.93826766141939" lon="12.084646927365135"><ele>279.3333333333333</ele><time>2026-05-04T06:47:40Z</time></trkpt><trkpt lat="45.938197665088936" lon="12.084639655733005"><ele>280.5</ele><time>2026-05-04T06:47:42Z</time></trkpt><trkpt lat="45.93813235145143" lon="12.084604567980652"><ele>281.6666666666667</ele><time>2026-05-04T06:47:44Z</time></trkpt><trkpt lat="45.93808251833684" lon="12.084506974371457"><ele>282.83333333333337</ele><time>2026-05-04T06:47:46Z</time></trkpt><trkpt lat="45.93813706251861" lon="12.084454039400685"><ele>284.0</ele><time>2026-05-04T06:47:47Z</time></trkpt><trkpt lat="45.93816066708739" lon="12.084331724734628"><ele>284.0</ele><time>2026-05-04T06:48:16Z</time></trkpt><trkpt lat="45.938183972384174" lon="12.084210960869909"><ele>284.0</ele><time>2026-05-04T06:48:18Z</time></trkpt><trkpt lat="45.938205180763134" lon="12.084108484653598"><ele>284.0</ele><time>2026-05-04T06:48:20Z</time></trkpt><trkpt lat="45.938207524264115" lon="12.084014030041024"><ele>284.0</ele><time>2026-05-04T06:48:22Z</time></trkpt><trkpt lat="45.93827240873163" lon="12.08399550918745"><ele>284.0</ele><time>2026-05-04T06:48:24Z</time></trkpt><trkpt lat="45.93834153404954" lon="12.08401191804903"><ele>284.0</ele><time>2026-05-04T06:49:22Z</time></trkpt><trkpt lat="45.93840422048938" lon="12.083984278128494"><ele>284.0</ele><time>2026-05-04T06:49:42Z</time></trkpt><trkpt lat="45.9384731943287" lon="12.083967945708611"><ele>286.0</ele><time>2026-05-04T06:49:44Z</time></trkpt><trkpt lat="45.9385426700559" lon="12.083926974802349"><ele>288.0</ele><time>2026-05-04T06:49:49Z</time></trkpt><trkpt lat="45.9386140891187" lon="12.083861554891241"><ele>290.0</ele><time>2026-05-04T06:49:59Z</time></trkpt><trkpt lat="45.93868467314688" lon="12.083822880888366"><ele>292.0</ele><time>2026-05-04T06:51:17Z</time></trkpt><trkpt lat="45.9387601302403" lon="12.083775558926138"><ele>294.0</ele><time>2026-05-04T06:51:19Z</time></trkpt><trkpt lat="45.9388220349985" lon="12.083734331807003"><ele>296.0</ele><time>2026-05-04T06:51:21Z</time></trkpt><trkpt lat="45.9388834548453" lon="12.083700584106312"><ele>296.0</ele><time>2026-05-04T06:51:31Z</time></trkpt><trkpt lat="45.938947082198254" lon="12.083685422236039"><ele>296.0</ele><time>2026-05-04T06:52:15Z</time></trkpt><trkpt lat="45.93902272001178" lon="12.083674124613697"><ele>296.0</ele><time>2026-05-04T06:52:32Z</time></trkpt><trkpt lat="45.93910487844215" lon="12.083653434762459"><ele>296.0</ele><time>2026-05-04T06:52:34Z</time></trkpt><trkpt lat="45.93919778954721" lon="12.083632829448957"><ele>296.0</ele><time>2026-05-04T06:52:36Z</time></trkpt><trkpt lat="45.939284884934374" lon="12.083611572864735"><ele>296.0</ele><time>2026-05-04T06:52:38Z</time></trkpt><trkpt lat="45.93935074918112" lon="12.083590012220796"><ele>295.2</ele><time>2026-05-04T06:52:40Z</time></trkpt><trkpt lat="45.93943065991455" lon="12.083555671587643"><ele>294.40000000000003</ele><time>2026-05-04T06:52:43Z</time></trkpt><trkpt lat="45.93949081630553" lon="12.083502056138814"><ele>293.6</ele><time>2026-05-04T06:52:49Z</time></trkpt><trkpt lat="45.93946868387268" lon="12.08370155245927"><ele>292.8</ele><time>2026-05-04T06:52:53Z</time></trkpt><trkpt lat="45.93949262939922" lon="12.08381596682612"><ele>292.0</ele><time>2026-05-04T06:52:55Z</time></trkpt><trkpt lat="45.93949217101039" lon="12.083954048913535"><ele>292.0</ele><time>2026-05-04T06:52:57Z</time></trkpt><trkpt lat="45.93950441001836" lon="12.084079054646931"><ele>292.0</ele><time>2026-05-04T06:52:59Z</time></trkpt><trkpt lat="45.9395123976732" lon="12.084171844830445"><ele>292.0</ele><time>2026-05-04T06:53:02Z</time></trkpt><trkpt lat="45.93950204727547" lon="12.084267309525838"><ele>292.0</ele><time>2026-05-04T06:53:46Z</time></trkpt><trkpt lat="45.93949030747026" lon="12.084368544315367"><ele>292.0</ele><time>2026-05-04T06:53:48Z</time></trkpt><trkpt lat="45.939457002282786" lon="12.084472615824938"><ele>292.0</ele><time>2026-05-04T06:53:50Z</time></trkpt><trkpt lat="45.93941400322637" lon="12.084579933222065"><ele>290.16666666666663</ele><time>2026-05-04T06:53:52Z</time></trkpt><trkpt lat="45.9393718808843" lon="12.084691134636161"><ele>288.3333333333333</ele><time>2026-05-04T06:53:54Z</time></trkpt><trkpt lat="45.93933243627149" lon="12.084801368304916"><ele>286.5</ele><time>2026-05-04T06:53:56Z</time></trkpt><trkpt lat="45.939296690487446" lon="12.08488582399098"><ele>284.6666666666667</ele><time>2026-05-04T06:54:43Z</time></trkpt><trkpt lat="45.939263945161436" lon="12.084982262711733"><ele>282.83333333333337</ele><time>2026-05-04T06:54:47Z</time></trkpt><trkpt lat="45.93922682080604" lon="12.085065789997483"><ele>281.0</ele><time>2026-05-04T06:54:52Z</time></trkpt><trkpt lat="45.93916891731275" lon="12.0852295737559"><ele>280.33333333333337</ele><time>2026-05-04T06:55:47Z</time></trkpt><trkpt lat="45.93912910161051" lon="12.085312370613345"><ele>279.6666666666667</ele><time>2026-05-04T06:55:49Z</time></trkpt><trkpt lat="45.93909009729989" lon="12.085399178673603"><ele>279.0</ele><time>2026-05-04T06:56:05Z</time></trkpt><trkpt lat="45.93903454567078" lon="12.085446403735292"><ele>278.3333333333333</ele><time>2026-05-04T06:56:10Z</time></trkpt><trkpt lat="45.938959919681444" lon="12.085387825335365"><ele>277.66666666666663</ele><time>2026-05-04T06:56:12Z</time></trkpt><trkpt lat="45.938875294941816" lon="12.085290075841128"><ele>277.0</ele><time>2026-05-04T06:56:14Z</time></trkpt><trkpt lat="45.93880805200326" lon="12.085211724548872"><ele>277.0</ele><time>2026-05-04T06:56:16Z</time></trkpt><trkpt lat="45.938724580121246" lon="12.08511014308857"><ele>277.0</ele><time>2026-05-04T06:56:18Z</time></trkpt><trkpt lat="45.938678201419876" lon="12.085045863922952"><ele>277.0</ele><time>2026-05-04T06:56:19Z</time></trkpt><trkpt lat="45.93863129099561" lon="12.084972535511701"><ele>277.0</ele><time>2026-05-04T06:56:20Z</time></trkpt><trkpt lat="45.9385825153523" lon="12.084894506880282"><ele>277.0</ele><time>2026-05-04T06:56:21Z</time></trkpt><trkpt lat="45.938532735968984" lon="12.084818669562269"><ele>277.0</ele><time>2026-05-04T06:56:22Z</time></trkpt><trkpt lat="45.93847016259995" lon="12.084757550559631"><ele>278.16666666666663</ele><time>2026-05-04T06:56:23Z</time></trkpt><trkpt lat="45.938397785471075" lon="12.08471132279692"><ele>279.3333333333333</ele><time>2026-05-04T06:56:24Z</time></trkpt><trkpt lat="45.93831990296498" lon="12.084675803247633"><ele>280.5</ele><time>2026-05-04T06:56:25Z</time></trkpt><trkpt lat="45.93823754133967" lon="12.084645177283669"><ele>281.6666666666667</ele><time>2026-05-04T06:56:26Z</time></trkpt><trkpt lat="45.93815045222815" lon="12.084616515228449"><ele>282.83333333333337</ele><time>2026-05-04T06:56:27Z</time></trkpt><trkpt lat="45.93806040877986" lon="12.08459289290749"><ele>284.0</ele><time>2026-05-04T06:56:28Z</time></trkpt><trkpt lat="45.93797483017803" lon="12.084569801790055"><ele>284.0</ele><time>2026-05-04T06:56:29Z</time></trkpt><trkpt lat="45.937890902809045" lon="12.084536700414912"><ele>284.0</ele><time>2026-05-04T06:56:30Z</time></trkpt><trkpt lat="45.93781776123544" lon="12.084476033481044"><ele>284.0</ele><time>2026-05-04T06:56:31Z</time></trkpt><trkpt lat="45.93775258025132" lon="12.08440316464526"><ele>284.0</ele><time>2026-05-04T06:56:32Z</time></trkpt><trkpt lat="45.937696918228426" lon="12.084307908956541"><ele>284.0</ele><time>2026-05-04T06:56:33Z</time></trkpt><trkpt lat="45.93765076362597" lon="12.084208255251069"><ele>284.0</ele><time>2026-05-04T06:56:34Z</time></trkpt><trkpt lat="45.937612601692045" lon="12.084108065843079"><ele>285.0</ele><time>2026-05-04T06:56:35Z</time></trkpt><trkpt lat="45.93757597167827" lon="12.08401826732742"><ele>286.0</ele><time>2026-05-04T06:56:36Z</time></trkpt><trkpt lat="45.93753132866195" lon="12.083901318036274"><ele>287.0</ele><time>2026-05-04T06:56:38Z</time></trkpt><trkpt lat="45.937518825735424" lon="12.083789089882739"><ele>288.0</ele><time>2026-05-04T06:56:41Z</time></trkpt><trkpt lat="45.93746079250514" lon="12.083682799028743"><ele>289.0</ele><time>2026-05-04T06:57:14Z</time></trkpt><trkpt lat="45.937400820992565" lon="12.083562026428861"><ele>290.0</ele><time>2026-05-04T06:57:16Z</time></trkpt><trkpt lat="45.93736456246775" lon="12.08348642246232"><ele>290.0</ele><time>2026-05-04T06:57:17Z</time></trkpt><trkpt lat="45.93732422916267" lon="12.083405743531861"><ele>290.0</ele><time>2026-05-04T06:57:18Z</time></trkpt><trkpt lat="45.937262037439275" lon="12.083294675259722"><ele>290.0</ele><time>2026-05-04T06:57:20Z</time></trkpt><trkpt lat="45.937192416503386" lon="12.083178034411931"><ele>290.0</ele><time>2026-05-04T06:57:35Z</time></trkpt><trkpt lat="45.93714152278782" lon="12.083099763459256"><ele>290.0</ele><time>2026-05-04T06:57:36Z</time></trkpt><trkpt lat="45.937083699794556" lon="12.083006726190591"><ele>290.0</ele><time>2026-05-04T06:57:37Z</time></trkpt><trkpt lat="45.93702124831418" lon="12.082899245518291"><ele>291.2</ele><time>2026-05-04T06:57:38Z</time></trkpt><trkpt lat="45.93695969391018" lon="12.082784321777236"><ele>292.4</ele><time>2026-05-04T06:57:39Z</time></trkpt><trkpt lat="45.93690126943369" lon="12.082653576440713"><ele>293.6</ele><time>2026-05-04T06:57:40Z</time></trkpt><trkpt lat="45.93685000303982" lon="12.082510588003398"><ele>294.8</ele><time>2026-05-04T06:57:41Z</time></trkpt><trkpt lat="45.93680684938518" lon="12.082356738581005"><ele>296.0</ele><time>2026-05-04T06:57:42Z</time></trkpt><trkpt lat="45.936774198485544" lon="12.082191531875699"><ele>297.0</ele><time>2026-05-04T06:57:43Z</time></trkpt><trkpt lat="45.93675049108384" lon="12.082032710815007"><ele>298.0</ele><time>2026-05-04T06:57:44Z</time></trkpt><trkpt lat="45.93673869269282" lon="12.081883635802324"><ele>299.0</ele><time>2026-05-04T06:57:45Z</time></trkpt><trkpt lat="45.93673611821177" lon="12.081749196410623"><ele>300.0</ele><time>2026-05-04T06:57:46Z</time></trkpt><trkpt lat="45.93673991836032" lon="12.081621770099993"><ele>301.0</ele><time>2026-05-04T06:57:47Z</time></trkpt><trkpt lat="45.93674461693187" lon="12.081506814398857"><ele>300.3333333333333</ele><time>2026-05-04T06:57:48Z</time></trkpt><trkpt lat="45.93674558233378" lon="12.08141281017886"><ele>299.66666666666663</ele><time>2026-05-04T06:57:49Z</time></trkpt><trkpt lat="45.93674861643737" lon="12.081288375107171"><ele>299.0</ele><time>2026-05-04T06:57:51Z</time></trkpt><trkpt lat="45.93664196414296" lon="12.081235405196106"><ele>298.3333333333333</ele><time>2026-05-04T06:57:52Z</time></trkpt><trkpt lat="45.93660596131985" lon="12.081150164387555"><ele>297.6666666666667</ele><time>2026-05-04T06:57:53Z</time></trkpt><trkpt lat="45.93655618126436" lon="12.08106474363458"><ele>297.0</ele><time>2026-05-04T06:57:54Z</time></trkpt><trkpt lat="45.93650070744624" lon="12.080970469283335"><ele>297.0</ele><time>2026-05-04T06:57:55Z</time></trkpt><trkpt lat="45.93644098879072" lon="12.080871943549592"><ele>297.0</ele><time>2026-05-04T06:57:56Z</time></trkpt><trkpt lat="45.93638183226544" lon="12.080774792221519"><ele>297.0</ele><time>2026-05-04T06:57:57Z</time></trkpt><trkpt lat="45.93633184595896" lon="12.080692700848168"><ele>297.0</ele><time>2026-05-04T06:57:58Z</time></trkpt><trkpt lat="45.93626430354741" lon="12.080581776530055"><ele>297.0</ele><time>2026-05-04T06:58:00Z</time></trkpt><trkpt lat="45.93621167049753" lon="12.080505376770699"><ele>297.0</ele><time>2026-05-04T06:58:02Z</time></trkpt><trkpt lat="45.93615124496671" lon="12.080456463174297"><ele>296.2</ele><time>2026-05-04T06:58:03Z</time></trkpt><trkpt lat="45.93609112475753" lon="12.08037358487792"><ele>295.4</ele><time>2026-05-04T06:58:04Z</time></trkpt><trkpt lat="45.936015503639496" lon="12.080273652087758"><ele>294.6</ele><time>2026-05-04T06:58:05Z</time></trkpt><trkpt lat="45.935929989864555" lon="12.080167350510285"><ele>293.8</ele><time>2026-05-04T06:58:06Z</time></trkpt><trkpt lat="45.93584693033824" lon="12.080032096031147"><ele>293.0</ele><time>2026-05-04T06:58:07Z</time></trkpt><trkpt lat="45.93573649868189" lon="12.079926339956"><ele>297.25</ele><time>2026-05-04T06:58:08Z</time></trkpt><trkpt lat="45.93562316800858" lon="12.079823333362318"><ele>301.5</ele><time>2026-05-04T06:58:09Z</time></trkpt><trkpt lat="45.93551613056859" lon="12.079722227810176"><ele>305.75</ele><time>2026-05-04T06:58:10Z</time></trkpt><trkpt lat="45.93541387966347" lon="12.079614970935035"><ele>310.0</ele><time>2026-05-04T06:58:11Z</time></trkpt><trkpt lat="45.93530647008806" lon="12.079517042509346"><ele>310.0</ele><time>2026-05-04T06:58:12Z</time></trkpt><trkpt lat="45.935211424651214" lon="12.079386037061232"><ele>310.0</ele><time>2026-05-04T06:58:13Z</time></trkpt><trkpt lat="45.93512508234028" lon="12.079232381300919"><ele>310.0</ele><time>2026-05-04T06:58:14Z</time></trkpt><trkpt lat="45.93501042342836" lon="12.079114023359907"><ele>310.0</ele><time>2026-05-04T06:58:15Z</time></trkpt><trkpt lat="45.93491184477882" lon="12.078966463092193"><ele>310.25</ele><time>2026-05-04T06:58:16Z</time></trkpt><trkpt lat="45.93479693084071" lon="12.078845427738957"><ele>310.5</ele><time>2026-05-04T06:58:17Z</time></trkpt><trkpt lat="45.93467367421875" lon="12.07874878328183"><ele>310.75</ele><time>2026-05-04T06:58:18Z</time></trkpt><trkpt lat="45.93456934054121" lon="12.078622550565246"><ele>311.0</ele><time>2026-05-04T06:58:19Z</time></trkpt><trkpt lat="45.934466331109036" lon="12.078513654595113"><ele>311.0</ele><time>2026-05-04T06:58:20Z</time></trkpt><trkpt lat="45.93436182981014" lon="12.078424348693295"><ele>311.0</ele><time>2026-05-04T06:58:21Z</time></trkpt><trkpt lat="45.93426114725957" lon="12.078345632582527"><ele>311.0</ele><time>2026-05-04T06:58:22Z</time></trkpt><trkpt lat="45.93416591299371" lon="12.078279304862036"><ele>311.0</ele><time>2026-05-04T06:58:23Z</time></trkpt><trkpt lat="45.93407482537446" lon="12.078227811602101"><ele>311.0</ele><time>2026-05-04T06:58:24Z</time></trkpt><trkpt lat="45.93399413784028" lon="12.078185162996183"><ele>311.33333333333337</ele><time>2026-05-04T06:58:25Z</time></trkpt><trkpt lat="45.9339300992701" lon="12.078150213223415"><ele>311.6666666666667</ele><time>2026-05-04T06:58:26Z</time></trkpt><trkpt lat="45.93386797331057" lon="12.078110728908563"><ele>312.0</ele><time>2026-05-04T06:58:28Z</time></trkpt><trkpt lat="45.93379582059962" lon="12.078066701097057"><ele>312.3333333333333</ele><time>2026-05-04T06:58:49Z</time></trkpt><trkpt lat="45.93368323869611" lon="12.077991214001502"><ele>312.66666666666663</ele><time>2026-05-04T06:58:51Z</time></trkpt><trkpt lat="45.93363522774949" lon="12.077924203799316"><ele>313.0</ele><time>2026-05-04T06:58:52Z</time></trkpt><trkpt lat="45.93355629194065" lon="12.077811037647292"><ele>313.0</ele><time>2026-05-04T06:58:54Z</time></trkpt><trkpt lat="45.93351102739572" lon="12.077739497122863"><ele>313.0</ele><time>2026-05-04T06:58:56Z</time></trkpt><trkpt lat="45.933621758820635" lon="12.077916282532279"><ele>313.0</ele><time>2026-05-04T06:59:09Z</time></trkpt><trkpt lat="45.93368575335303" lon="12.077988805311453"><ele>313.0</ele><time>2026-05-04T06:59:10Z</time></trkpt><trkpt lat="45.93376416269509" lon="12.078045110895056"><ele>313.0</ele><time>2026-05-04T06:59:11Z</time></trkpt><trkpt lat="45.933855268300654" lon="12.078097837471441"><ele>313.0</ele><time>2026-05-04T06:59:12Z</time></trkpt><trkpt lat="45.933957983311004" lon="12.078155097923217"><ele>313.0</ele><time>2026-05-04T06:59:13Z</time></trkpt><trkpt lat="45.93406818206496" lon="12.07821595512134"><ele>313.0</ele><time>2026-05-04T06:59:14Z</time></trkpt><trkpt lat="45.93418424006954" lon="12.078284173500283"><ele>313.0</ele><time>2026-05-04T06:59:15Z</time></trkpt><trkpt lat="45.93430275097227" lon="12.078368063132798"><ele>312.5</ele><time>2026-05-04T06:59:16Z</time></trkpt><trkpt lat="45.934419769543" lon="12.078465100117715"><ele>312.0</ele><time>2026-05-04T06:59:17Z</time></trkpt><trkpt lat="45.93453217033263" lon="12.0785721719763"><ele>311.5</ele><time>2026-05-04T06:59:18Z</time></trkpt><trkpt lat="45.934636560989155" lon="12.078695867556148"><ele>311.0</ele><time>2026-05-04T06:59:19Z</time></trkpt><trkpt lat="45.93474546746859" lon="12.07881718107133"><ele>311.0</ele><time>2026-05-04T06:59:20Z</time></trkpt><trkpt lat="45.934854564251964" lon="12.078927473584365"><ele>311.0</ele><time>2026-05-04T06:59:21Z</time></trkpt><trkpt lat="45.93495950266839" lon="12.079042968057383"><ele>311.0</ele><time>2026-05-04T06:59:22Z</time></trkpt><trkpt lat="45.93505939656104" lon="12.079169153422866"><ele>311.0</ele><time>2026-05-04T06:59:23Z</time></trkpt><trkpt lat="45.93515393042054" lon="12.079296709270672"><ele>310.75</ele><time>2026-05-04T06:59:24Z</time></trkpt><trkpt lat="45.9352449514846" lon="12.079422366761856"><ele>310.5</ele><time>2026-05-04T06:59:25Z</time></trkpt><trkpt lat="45.93533404624893" lon="12.079544324564687"><ele>310.25</ele><time>2026-05-04T06:59:26Z</time></trkpt><trkpt lat="45.93542891621247" lon="12.07965385869725"><ele>310.0</ele><time>2026-05-04T06:59:27Z</time></trkpt><trkpt lat="45.93553087039733" lon="12.079757058813563"><ele>310.0</ele><time>2026-05-04T06:59:28Z</time></trkpt><trkpt lat="45.935637681956706" lon="12.079856722851801"><ele>310.0</ele><time>2026-05-04T06:59:29Z</time></trkpt><trkpt lat="45.93574642466629" lon="12.079953967887022"><ele>310.0</ele><time>2026-05-04T06:59:30Z</time></trkpt><trkpt lat="45.935853176238325" lon="12.080061662866951"><ele>310.0</ele><time>2026-05-04T06:59:31Z</time></trkpt><trkpt lat="45.93595492670767" lon="12.080184154099006"><ele>310.2</ele><time>2026-05-04T06:59:32Z</time></trkpt><trkpt lat="45.9360525063277" lon="12.080313287600701"><ele>310.4</ele><time>2026-05-04T06:59:33Z</time></trkpt><trkpt lat="45.93613827143774" lon="12.080429285329835"><ele>310.6</ele><time>2026-05-04T06:59:34Z</time></trkpt><trkpt lat="45.93620395239756" lon="12.080519493302873"><ele>310.8</ele><time>2026-05-04T06:59:35Z</time></trkpt><trkpt lat="45.93626270549969" lon="12.080611024346599"><ele>311.0</ele><time>2026-05-04T06:59:37Z</time></trkpt><trkpt lat="45.93631301308522" lon="12.080685260936123"><ele>308.2</ele><time>2026-05-04T06:59:39Z</time></trkpt><trkpt lat="45.93637756116618" lon="12.080840335182735"><ele>305.40000000000003</ele><time>2026-05-04T06:59:41Z</time></trkpt><trkpt lat="45.93642772607547" lon="12.080922719831921"><ele>302.6</ele><time>2026-05-04T06:59:42Z</time></trkpt><trkpt lat="45.93647857056469" lon="12.081006769712804"><ele>299.8</ele><time>2026-05-04T06:59:43Z</time></trkpt><trkpt lat="45.93652147347748" lon="12.081079288658847"><ele>297.0</ele><time>2026-05-04T06:59:44Z</time></trkpt><trkpt lat="45.936592957203764" lon="12.081201022263611"><ele>297.0</ele><time>2026-05-04T06:59:46Z</time></trkpt><trkpt lat="45.9366526986028" lon="12.081275764951313"><ele>297.0</ele><time>2026-05-04T06:59:48Z</time></trkpt><trkpt lat="45.936705588564294" lon="12.081377778635531"><ele>297.0</ele><time>2026-05-04T07:00:05Z</time></trkpt><trkpt lat="45.936713181538856" lon="12.081557821704596"><ele>297.0</ele><time>2026-05-04T07:00:07Z</time></trkpt><trkpt lat="45.936713042908835" lon="12.0816748061148"><ele>297.0</ele><time>2026-05-04T07:00:08Z</time></trkpt><trkpt lat="45.93671395299649" lon="12.08180869728899"><ele>296.75</ele><time>2026-05-04T07:00:09Z</time></trkpt><trkpt lat="45.936722300386975" lon="12.081957113786173"><ele>296.5</ele><time>2026-05-04T07:00:10Z</time></trkpt><trkpt lat="45.93674077900984" lon="12.082115039872125"><ele>296.25</ele><time>2026-05-04T07:00:11Z</time></trkpt><trkpt lat="45.9367695324051" lon="12.082282159861403"><ele>296.0</ele><time>2026-05-04T07:00:12Z</time></trkpt><trkpt lat="45.93681097311817" lon="12.082455964687913"><ele>296.0</ele><time>2026-05-04T07:00:13Z</time></trkpt><trkpt lat="45.93686358533852" lon="12.082630587650183"><ele>296.0</ele><time>2026-05-04T07:00:14Z</time></trkpt><trkpt lat="45.93693270608839" lon="12.08279168021164"><ele>296.0</ele><time>2026-05-04T07:00:15Z</time></trkpt><trkpt lat="45.93700940551169" lon="12.082939208049902"><ele>296.0</ele><time>2026-05-04T07:00:16Z</time></trkpt><trkpt lat="45.93707660159823" lon="12.08305909698766"><ele>296.0</ele><time>2026-05-04T07:00:17Z</time></trkpt><trkpt lat="45.93713119987847" lon="12.083149453878871"><ele>296.0</ele><time>2026-05-04T07:00:18Z</time></trkpt><trkpt lat="45.937182744348426" lon="12.08323801946215"><ele>296.0</ele><time>2026-05-04T07:00:20Z</time></trkpt><trkpt lat="45.93722665279217" lon="12.083314463852037"><ele>296.0</ele><time>2026-05-04T07:00:36Z</time></trkpt><trkpt lat="45.93730283725938" lon="12.08345134712309"><ele>296.0</ele><time>2026-05-04T07:00:38Z</time></trkpt><trkpt lat="45.93734335988457" lon="12.08356821573077"><ele>296.0</ele><time>2026-05-04T07:00:40Z</time></trkpt><trkpt lat="45.937388244665186" lon="12.083642557746662"><ele>295.0</ele><time>2026-05-04T07:00:43Z</time></trkpt><trkpt lat="45.93733631701669" lon="12.08358661851348"><ele>294.0</ele><time>2026-05-04T07:00:54.999Z</time></trkpt><trkpt lat="45.9372667689148" lon="12.08354183177056"><ele>293.0</ele><time>2026-05-04T07:01:02.999Z</time></trkpt><trkpt lat="45.93722856885708" lon="12.083460390680171"><ele>292.0</ele><time>2026-05-04T07:01:09.999Z</time></trkpt><trkpt lat="45.937180890010026" lon="12.083376552921715"><ele>291.0</ele><time>2026-05-04T07:01:17.999Z</time></trkpt><trkpt lat="45.93724302470816" lon="12.083491562176379"><ele>290.0</ele><time>2026-05-04T07:02:06Z</time></trkpt><trkpt lat="45.93730320144174" lon="12.083607177354047"><ele>290.0</ele><time>2026-05-04T07:02:08Z</time></trkpt><trkpt lat="45.937362608956924" lon="12.083666967857232"><ele>290.0</ele><time>2026-05-04T07:02:11Z</time></trkpt><trkpt lat="45.93741550427717" lon="12.083724088941327"><ele>290.0</ele><time>2026-05-04T07:02:13Z</time></trkpt><trkpt lat="45.937456062879356" lon="12.08381421531687"><ele>290.0</ele><time>2026-05-04T07:02:15Z</time></trkpt><trkpt lat="45.9375131923965" lon="12.08387233845397"><ele>290.0</ele><time>2026-05-04T07:02:34Z</time></trkpt><trkpt lat="45.93759002801311" lon="12.083807112281669"><ele>290.0</ele><time>2026-05-04T07:02:36.999Z</time></trkpt><trkpt lat="45.93761779309179" lon="12.083700826084561"><ele>290.6</ele><time>2026-05-04T07:02:39.999Z</time></trkpt><trkpt lat="45.937641464653375" lon="12.083583300391995"><ele>291.2</ele><time>2026-05-04T07:02:41.999Z</time></trkpt><trkpt lat="45.937672854800745" lon="12.0834344713168"><ele>291.8</ele><time>2026-05-04T07:02:43.999Z</time></trkpt><trkpt lat="45.93771050285365" lon="12.083268901358847"><ele>292.4</ele><time>2026-05-04T07:02:45.999Z</time></trkpt><trkpt lat="45.93774929522973" lon="12.083110859906363"><ele>293.0</ele><time>2026-05-04T07:02:47.999Z</time></trkpt><trkpt lat="45.93777191106281" lon="12.083021574150575"><ele>294.1666666666667</ele><time>2026-05-04T07:02:49.999Z</time></trkpt><trkpt lat="45.9378144606842" lon="12.082933041199265"><ele>295.33333333333337</ele><time>2026-05-04T07:02:51.999Z</time></trkpt><trkpt lat="45.9378817741313" lon="12.082825524845827"><ele>296.5</ele><time>2026-05-04T07:02:53.999Z</time></trkpt><trkpt lat="45.93795330349438" lon="12.082680699222028"><ele>297.6666666666667</ele><time>2026-05-04T07:02:55.999Z</time></trkpt><trkpt lat="45.9379224009526" lon="12.08277131796036"><ele>298.8333333333333</ele><time>2026-05-04T07:03:17.999Z</time></trkpt><trkpt lat="45.937887023958716" lon="12.082848060653506"><ele>300.0</ele><time>2026-05-04T07:03:20.999Z</time></trkpt><trkpt lat="45.93782384716426" lon="12.082904805347294"><ele>300.0</ele><time>2026-05-04T07:03:24.999Z</time></trkpt><trkpt lat="45.937738100645475" lon="12.08282811964806"><ele>300.0</ele><time>2026-05-04T07:03:38.999Z</time></trkpt><trkpt lat="45.937649412474975" lon="12.082768517093502"><ele>300.0</ele><time>2026-05-04T07:03:41Z</time></trkpt><trkpt lat="45.93754905303201" lon="12.08269101362537"><ele>300.0</ele><time>2026-05-04T07:03:43Z</time></trkpt><trkpt lat="45.93745047568996" lon="12.082589465981066"><ele>300.0</ele><time>2026-05-04T07:03:45Z</time></trkpt><trkpt lat="45.93738978925694" lon="12.082514043201952"><ele>300.1666666666667</ele><time>2026-05-04T07:03:47Z</time></trkpt><trkpt lat="45.93733418295013" lon="12.082433653831036"><ele>300.3333333333333</ele><time>2026-05-04T07:04:03Z</time></trkpt><trkpt lat="45.93726378176743" lon="12.082302209459344"><ele>300.5</ele><time>2026-05-04T07:04:05Z</time></trkpt><trkpt lat="45.93722052719348" lon="12.082219015783071"><ele>300.66666666666663</ele><time>2026-05-04T07:04:06Z</time></trkpt><trkpt lat="45.93717475767258" lon="12.082130975013293"><ele>300.8333333333333</ele><time>2026-05-04T07:04:07Z</time></trkpt><trkpt lat="45.93712767866898" lon="12.08203845259728"><ele>301.0</ele><time>2026-05-04T07:04:08Z</time></trkpt><trkpt lat="45.93708035016959" lon="12.081944858733923"><ele>301.0</ele><time>2026-05-04T07:04:25Z</time></trkpt><trkpt lat="45.93702952207134" lon="12.08184393267563"><ele>301.0</ele><time>2026-05-04T07:04:27Z</time></trkpt><trkpt lat="45.93697821652891" lon="12.081784373128643"><ele>301.0</ele><time>2026-05-04T07:04:28Z</time></trkpt><trkpt lat="45.93694752502846" lon="12.081690464335548"><ele>301.0</ele><time>2026-05-04T07:04:29Z</time></trkpt><trkpt lat="45.93689200595255" lon="12.081622313136524"><ele>301.0</ele><time>2026-05-04T07:04:30Z</time></trkpt><trkpt lat="45.936849135833306" lon="12.081544496347142"><ele>301.0</ele><time>2026-05-04T07:04:31Z</time></trkpt><trkpt lat="45.936802278270754" lon="12.08143583018901"><ele>300.3333333333333</ele><time>2026-05-04T07:04:33Z</time></trkpt><trkpt lat="45.936746850393554" lon="12.081372636262268"><ele>299.66666666666663</ele><time>2026-05-04T07:04:37Z</time></trkpt><trkpt lat="45.93674005157466" lon="12.08123689719566"><ele>299.0</ele><time>2026-05-04T07:04:39Z</time></trkpt><trkpt lat="45.93674290439492" lon="12.081140289824038"><ele>298.3333333333333</ele><time>2026-05-04T07:04:40Z</time></trkpt><trkpt lat="45.93674342731152" lon="12.081044882082093"><ele>297.6666666666667</ele><time>2026-05-04T07:04:41Z</time></trkpt><trkpt lat="45.93672808629804" lon="12.080926814933202"><ele>297.0</ele><time>2026-05-04T07:04:57Z</time></trkpt><trkpt lat="45.936711857891446" lon="12.080799489167036"><ele>299.3333333333333</ele><time>2026-05-04T07:04:59Z</time></trkpt><trkpt lat="45.93667307027417" lon="12.080679578786016"><ele>301.6666666666667</ele><time>2026-05-04T07:05:38Z</time></trkpt><trkpt lat="45.93663376355299" lon="12.080553302394824"><ele>304.0</ele><time>2026-05-04T07:05:40Z</time></trkpt><trkpt lat="45.93657555819749" lon="12.080396267426902"><ele>306.33333333333337</ele><time>2026-05-04T07:05:42Z</time></trkpt><trkpt lat="45.93654014829382" lon="12.080315985489086"><ele>308.6666666666667</ele><time>2026-05-04T07:05:43Z</time></trkpt><trkpt lat="45.93650192603359" lon="12.080230039783594"><ele>311.0</ele><time>2026-05-04T07:05:44Z</time></trkpt><trkpt lat="45.936460248575514" lon="12.08014112239804"><ele>311.0</ele><time>2026-05-04T07:05:45Z</time></trkpt><trkpt lat="45.93641630280087" lon="12.080047857207639"><ele>311.0</ele><time>2026-05-04T07:05:46Z</time></trkpt><trkpt lat="45.936369079253694" lon="12.07994937316933"><ele>311.0</ele><time>2026-05-04T07:05:47Z</time></trkpt><trkpt lat="45.93631796643957" lon="12.079846264455643"><ele>311.0</ele><time>2026-05-04T07:05:48Z</time></trkpt><trkpt lat="45.936263766573745" lon="12.079741256854318"><ele>311.0</ele><time>2026-05-04T07:05:49Z</time></trkpt><trkpt lat="45.9362221038322" lon="12.079619967370922"><ele>311.0</ele><time>2026-05-04T07:05:50Z</time></trkpt><trkpt lat="45.9361497828777" lon="12.079523099472443"><ele>314.4</ele><time>2026-05-04T07:05:51Z</time></trkpt><trkpt lat="45.936086618474825" lon="12.079413134998571"><ele>317.8</ele><time>2026-05-04T07:05:52Z</time></trkpt><trkpt lat="45.936016846979726" lon="12.079305398377581"><ele>321.2</ele><time>2026-05-04T07:05:53Z</time></trkpt><trkpt lat="45.93594162583492" lon="12.079198897279493"><ele>324.59999999999997</ele><time>2026-05-04T07:05:54Z</time></trkpt><trkpt lat="45.93586443951739" lon="12.079088319370538"><ele>328.0</ele><time>2026-05-04T07:05:55Z</time></trkpt><trkpt lat="45.935784658750876" lon="12.07897548233469"><ele>328.0</ele><time>2026-05-04T07:05:56Z</time></trkpt><trkpt lat="45.9357014395828" lon="12.078860493396128"><ele>328.0</ele><time>2026-05-04T07:05:57Z</time></trkpt><trkpt lat="45.93561751743554" lon="12.078744036846489"><ele>328.0</ele><time>2026-05-04T07:05:58Z</time></trkpt><trkpt lat="45.93553204719836" lon="12.078625617818792"><ele>328.0</ele><time>2026-05-04T07:05:59Z</time></trkpt><trkpt lat="45.93544413681146" lon="12.078505955417828"><ele>328.0</ele><time>2026-05-04T07:06:00Z</time></trkpt><trkpt lat="45.935354735649334" lon="12.07838607091977"><ele>328.0</ele><time>2026-05-04T07:06:01Z</time></trkpt><trkpt lat="45.93526451863221" lon="12.078265174817183"><ele>328.0</ele><time>2026-05-04T07:06:02Z</time></trkpt><trkpt lat="45.93517440927288" lon="12.078141101582595"><ele>328.0</ele><time>2026-05-04T07:06:03Z</time></trkpt><trkpt lat="45.93508455919525" lon="12.078014283390754"><ele>328.25</ele><time>2026-05-04T07:06:04Z</time></trkpt><trkpt lat="45.934994220730474" lon="12.07788570303784"><ele>328.5</ele><time>2026-05-04T07:06:05Z</time></trkpt><trkpt lat="45.93490296645716" lon="12.077757534293834"><ele>328.75</ele><time>2026-05-04T07:06:06Z</time></trkpt><trkpt lat="45.934811076376555" lon="12.07763116165043"><ele>329.0</ele><time>2026-05-04T07:06:07Z</time></trkpt><trkpt lat="45.93471895638364" lon="12.077504286587065"><ele>337.0</ele><time>2026-05-04T07:06:08Z</time></trkpt><trkpt lat="45.934625115192176" lon="12.077376274710547"><ele>345.0</ele><time>2026-05-04T07:06:09Z</time></trkpt><trkpt lat="45.93453166546872" lon="12.07724890570827"><ele>353.0</ele><time>2026-05-04T07:06:10Z</time></trkpt><trkpt lat="45.934437674346434" lon="12.077122257941094"><ele>361.0</ele><time>2026-05-04T07:06:11Z</time></trkpt><trkpt lat="45.93434370173713" lon="12.076994891508273"><ele>361.0</ele><time>2026-05-04T07:06:12Z</time></trkpt><trkpt lat="45.93424601689939" lon="12.07687441777578"><ele>361.0</ele><time>2026-05-04T07:06:13Z</time></trkpt><trkpt lat="45.93414570686532" lon="12.07675893943905"><ele>361.0</ele><time>2026-05-04T07:06:14Z</time></trkpt><trkpt lat="45.934045473568865" lon="12.07664435546424"><ele>361.0</ele><time>2026-05-04T07:06:15Z</time></trkpt><trkpt lat="45.933949114161614" lon="12.076535885785294"><ele>359.66666666666663</ele><time>2026-05-04T07:06:16Z</time></trkpt><trkpt lat="45.93389034301716" lon="12.0764404104896"><ele>358.3333333333333</ele><time>2026-05-04T07:06:17Z</time></trkpt><trkpt lat="45.933949680686275" lon="12.07650826531387"><ele>357.0</ele><time>2026-05-04T07:06:24Z</time></trkpt><trkpt lat="45.9338815768667" lon="12.076457586312195"><ele>355.6666666666667</ele><time>2026-05-04T07:07:52Z</time></trkpt><trkpt lat="45.93379607444286" lon="12.076358821090318"><ele>354.33333333333337</ele><time>2026-05-04T07:07:54Z</time></trkpt><trkpt lat="45.93374619897121" lon="12.07630194230017"><ele>353.0</ele><time>2026-05-04T07:07:55Z</time></trkpt><trkpt lat="45.93369277868275" lon="12.076239331150962"><ele>353.0</ele><time>2026-05-04T07:07:56Z</time></trkpt><trkpt lat="45.93363864673611" lon="12.076175252216386"><ele>353.0</ele><time>2026-05-04T07:07:57Z</time></trkpt><trkpt lat="45.93358123084094" lon="12.076109350759406"><ele>353.0</ele><time>2026-05-04T07:07:58Z</time></trkpt><trkpt lat="45.9335209232748" lon="12.076039804911778"><ele>353.0</ele><time>2026-05-04T07:07:59Z</time></trkpt><trkpt lat="45.93345977519513" lon="12.075966073757764"><ele>353.0</ele><time>2026-05-04T07:08:00Z</time></trkpt><trkpt lat="45.9333959330608" lon="12.07589133614923"><ele>353.0</ele><time>2026-05-04T07:08:01Z</time></trkpt><trkpt lat="45.933329698141655" lon="12.07581449556794"><ele>352.59999999999997</ele><time>2026-05-04T07:08:02Z</time></trkpt><trkpt lat="45.933261007140146" lon="12.075732962892854"><ele>352.2</ele><time>2026-05-04T07:08:03Z</time></trkpt><trkpt lat="45.93319114224482" lon="12.075651150569563"><ele>351.8</ele><time>2026-05-04T07:08:04Z</time></trkpt><trkpt lat="45.93311946139569" lon="12.075567673443672"><ele>351.4</ele><time>2026-05-04T07:08:05Z</time></trkpt><trkpt lat="45.9330471273129" lon="12.07548209618502"><ele>351.0</ele><time>2026-05-04T07:08:06Z</time></trkpt><trkpt lat="45.93297330337613" lon="12.075397047264689"><ele>351.0</ele><time>2026-05-04T07:08:07Z</time></trkpt><trkpt lat="45.93289916131265" lon="12.075312654091821"><ele>351.0</ele><time>2026-05-04T07:08:08Z</time></trkpt><trkpt lat="45.93282548021735" lon="12.075230471234876"><ele>351.0</ele><time>2026-05-04T07:08:09Z</time></trkpt><trkpt lat="45.93276363570718" lon="12.075159200028994"><ele>351.0</ele><time>2026-05-04T07:08:10Z</time></trkpt><trkpt lat="45.93270565962364" lon="12.075074122296211"><ele>351.0</ele><time>2026-05-04T07:08:39Z</time></trkpt><trkpt lat="45.93265242225166" lon="12.075013893188377"><ele>351.0</ele><time>2026-05-04T07:08:41Z</time></trkpt><trkpt lat="45.93257419757229" lon="12.074929650268082"><ele>351.5</ele><time>2026-05-04T07:08:43Z</time></trkpt><trkpt lat="45.932480430075366" lon="12.07480531346652"><ele>352.0</ele><time>2026-05-04T07:08:45Z</time></trkpt><trkpt lat="45.93243154880075" lon="12.07472849578585"><ele>352.5</ele><time>2026-05-04T07:08:46Z</time></trkpt><trkpt lat="45.9323862564144" lon="12.074648107704496"><ele>353.0</ele><time>2026-05-04T07:08:47Z</time></trkpt><trkpt lat="45.93234240679068" lon="12.074561440866153"><ele>353.5</ele><time>2026-05-04T07:08:48Z</time></trkpt><trkpt lat="45.93229931070209" lon="12.074470983057108"><ele>354.0</ele><time>2026-05-04T07:08:49Z</time></trkpt><trkpt lat="45.932256181453404" lon="12.074375838365151"><ele>354.0</ele><time>2026-05-04T07:08:50Z</time></trkpt><trkpt lat="45.932210970835385" lon="12.074277735154498"><ele>354.0</ele><time>2026-05-04T07:08:51Z</time></trkpt><trkpt lat="45.93216018626254" lon="12.074179112403533"><ele>354.0</ele><time>2026-05-04T07:08:52Z</time></trkpt><trkpt lat="45.93210192794272" lon="12.07408712298496"><ele>354.0</ele><time>2026-05-04T07:08:53Z</time></trkpt><trkpt lat="45.93203505413759" lon="12.073999844704828"><ele>354.0</ele><time>2026-05-04T07:08:54Z</time></trkpt><trkpt lat="45.93196168990419" lon="12.07391871810407"><ele>354.0</ele><time>2026-05-04T07:08:55Z</time></trkpt><trkpt lat="45.93188447209897" lon="12.073838833904777"><ele>354.79999999999995</ele><time>2026-05-04T07:08:56Z</time></trkpt><trkpt lat="45.931807779876" lon="12.073757580333755"><ele>355.59999999999997</ele><time>2026-05-04T07:08:57Z</time></trkpt><trkpt lat="45.93174083119259" lon="12.073661503797181"><ele>356.4</ele><time>2026-05-04T07:08:58Z</time></trkpt><trkpt lat="45.93168719510483" lon="12.07354696675194"><ele>357.2</ele><time>2026-05-04T07:08:59Z</time></trkpt><trkpt lat="45.93164553021953" lon="12.073419830496748"><ele>358.0</ele><time>2026-05-04T07:09:00Z</time></trkpt><trkpt lat="45.931613674196306" lon="12.073282810496423"><ele>362.4</ele><time>2026-05-04T07:09:01Z</time></trkpt><trkpt lat="45.931586275985204" lon="12.073142117712338"><ele>366.79999999999995</ele><time>2026-05-04T07:09:02Z</time></trkpt><trkpt lat="45.93155939216009" lon="12.072999776031175"><ele>371.2</ele><time>2026-05-04T07:09:03Z</time></trkpt><trkpt lat="45.931531253322206" lon="12.072857443453243"><ele>375.6</ele><time>2026-05-04T07:09:04Z</time></trkpt><trkpt lat="45.93149031467495" lon="12.072717491104354"><ele>380.0</ele><time>2026-05-04T07:09:05Z</time></trkpt><trkpt lat="45.93142957845879" lon="12.072593574195606"><ele>380.0</ele><time>2026-05-04T07:09:06Z</time></trkpt><trkpt lat="45.93135166788398" lon="12.072486824048474"><ele>380.0</ele><time>2026-05-04T07:09:07Z</time></trkpt><trkpt lat="45.93126406112504" lon="12.072394979148957"><ele>380.0</ele><time>2026-05-04T07:09:08Z</time></trkpt><trkpt lat="45.93117480423741" lon="12.072308974622429"><ele>380.0</ele><time>2026-05-04T07:09:09Z</time></trkpt><trkpt lat="45.93109305945204" lon="12.072211823491665"><ele>380.0</ele><time>2026-05-04T07:09:10Z</time></trkpt><trkpt lat="45.931031267588466" lon="12.072091164711066"><ele>381.6</ele><time>2026-05-04T07:09:11Z</time></trkpt><trkpt lat="45.930992936622935" lon="12.07194925928071"><ele>383.2</ele><time>2026-05-04T07:09:12Z</time></trkpt><trkpt lat="45.93097700521111" lon="12.071799228433992"><ele>384.79999999999995</ele><time>2026-05-04T07:09:13Z</time></trkpt><trkpt lat="45.930983183337524" lon="12.071645917781005"><ele>386.4</ele><time>2026-05-04T07:09:14Z</time></trkpt><trkpt lat="45.93099939659337" lon="12.071490953959009"><ele>388.0</ele><time>2026-05-04T07:09:15Z</time></trkpt><trkpt lat="45.93101342377647" lon="12.071334331668584"><ele>390.0</ele><time>2026-05-04T07:09:16Z</time></trkpt><trkpt lat="45.93102505837453" lon="12.07117760019391"><ele>392.0</ele><time>2026-05-04T07:09:17Z</time></trkpt><trkpt lat="45.93103668595169" lon="12.071022431800253"><ele>394.0</ele><time>2026-05-04T07:09:18Z</time></trkpt><trkpt lat="45.93104910664554" lon="12.070873627338848"><ele>396.0</ele><time>2026-05-04T07:09:19Z</time></trkpt><trkpt lat="45.93105824160836" lon="12.070738670498573"><ele>398.0</ele><time>2026-05-04T07:09:20Z</time></trkpt><trkpt lat="45.931042557036285" lon="12.070619992691599"><ele>398.4</ele><time>2026-05-04T07:09:21Z</time></trkpt><trkpt lat="45.9309871956444" lon="12.070507179422146"><ele>398.79999999999995</ele><time>2026-05-04T07:09:22Z</time></trkpt><trkpt lat="45.93090307042226" lon="12.070471215406867"><ele>399.2</ele><time>2026-05-04T07:09:23Z</time></trkpt><trkpt lat="45.930817112833175" lon="12.070496238959514"><ele>399.6</ele><time>2026-05-04T07:09:24Z</time></trkpt><trkpt lat="45.930751717725286" lon="12.070587660117381"><ele>400.0</ele><time>2026-05-04T07:09:25Z</time></trkpt><trkpt lat="45.930721535880636" lon="12.070712407323876"><ele>397.83333333333337</ele><time>2026-05-04T07:09:26Z</time></trkpt><trkpt lat="45.930681527655686" lon="12.070816447450683"><ele>395.6666666666667</ele><time>2026-05-04T07:09:27Z</time></trkpt><trkpt lat="45.93063339571948" lon="12.070922903839957"><ele>393.5</ele><time>2026-05-04T07:09:28Z</time></trkpt><trkpt lat="45.9305879186231" lon="12.071033728299547"><ele>391.33333333333337</ele><time>2026-05-04T07:09:29Z</time></trkpt><trkpt lat="45.930547663452835" lon="12.0711300436356"><ele>389.1666666666667</ele><time>2026-05-04T07:09:30Z</time></trkpt><trkpt lat="45.930507465986466" lon="12.071208779455917"><ele>387.0</ele><time>2026-05-04T07:09:31Z</time></trkpt><trkpt lat="45.93042206854541" lon="12.071316659040793"><ele>387.0</ele><time>2026-05-04T07:09:33Z</time></trkpt><trkpt lat="45.93035687239152" lon="12.07134375954828"><ele>387.0</ele><time>2026-05-04T07:09:35Z</time></trkpt><trkpt lat="45.93028250281537" lon="12.071380093197705"><ele>387.0</ele><time>2026-05-04T07:09:54Z</time></trkpt><trkpt lat="45.930173481314554" lon="12.071336800125934"><ele>387.0</ele><time>2026-05-04T07:09:56Z</time></trkpt><trkpt lat="45.93008958952767" lon="12.071266911994204"><ele>387.0</ele><time>2026-05-04T07:09:58Z</time></trkpt><trkpt lat="45.93014424687044" lon="12.071201670799327"><ele>387.0</ele><time>2026-05-04T07:10:03Z</time></trkpt><trkpt lat="45.93023868290743" lon="12.071180530288858"><ele>387.0</ele><time>2026-05-04T07:10:05Z</time></trkpt><trkpt lat="45.93035250363435" lon="12.071142880142027"><ele>387.0</ele><time>2026-05-04T07:10:07Z</time></trkpt><trkpt lat="45.93044294391958" lon="12.07104267713202"><ele>387.0</ele><time>2026-05-04T07:10:09Z</time></trkpt><trkpt lat="45.93045971620395" lon="12.070948968424942"><ele>387.0</ele><time>2026-05-04T07:10:11Z</time></trkpt><trkpt lat="45.930445158353855" lon="12.070844838310567"><ele>387.0</ele><time>2026-05-04T07:10:27Z</time></trkpt><trkpt lat="45.93039312085678" lon="12.070708273791206"><ele>389.6</ele><time>2026-05-04T07:10:29Z</time></trkpt><trkpt lat="45.93035402594979" lon="12.070580428220183"><ele>392.20000000000005</ele><time>2026-05-04T07:10:31Z</time></trkpt><trkpt lat="45.93035574128698" lon="12.070429525920813"><ele>394.8</ele><time>2026-05-04T07:10:33Z</time></trkpt><trkpt lat="45.93038771472273" lon="12.070262363354358"><ele>397.4</ele><time>2026-05-04T07:10:35Z</time></trkpt><trkpt lat="45.9304147204" lon="12.070091510293572"><ele>400.0</ele><time>2026-05-04T07:10:37Z</time></trkpt><trkpt lat="45.930417221430986" lon="12.070000248001131"><ele>402.4</ele><time>2026-05-04T07:10:38Z</time></trkpt><trkpt lat="45.9304403940036" lon="12.069831449995132"><ele>404.8</ele><time>2026-05-04T07:10:40Z</time></trkpt><trkpt lat="45.930453645642295" lon="12.069697961305689"><ele>407.20000000000005</ele><time>2026-05-04T07:10:42Z</time></trkpt><trkpt lat="45.930525977496025" lon="12.069612640873961"><ele>409.6</ele><time>2026-05-04T07:10:44Z</time></trkpt><trkpt lat="45.93057215965278" lon="12.069536420450545"><ele>412.0</ele><time>2026-05-04T07:10:49Z</time></trkpt><trkpt lat="45.93065660018001" lon="12.069534885839076"><ele>412.00000000000006</ele><time>2026-05-04T07:10:50Z</time></trkpt><trkpt lat="45.93075078953767" lon="12.069438188942117"><ele>412.0</ele><time>2026-05-04T07:10:52Z</time></trkpt><trkpt lat="45.9308252779605" lon="12.06934605194934"><ele>412.0</ele><time>2026-05-04T07:10:54Z</time></trkpt><trkpt lat="45.9308720230458" lon="12.069283235373131"><ele>412.0</ele><time>2026-05-04T07:10:57Z</time></trkpt><trkpt lat="45.93091875815914" lon="12.069215358439711"><ele>412.00000000000006</ele><time>2026-05-04T07:11:00Z</time></trkpt><trkpt lat="45.930972264164474" lon="12.069116135890452"><ele>412.0</ele><time>2026-05-04T07:11:02Z</time></trkpt><trkpt lat="45.93103241383386" lon="12.068991555946182"><ele>414.83333333333337</ele><time>2026-05-04T07:11:04Z</time></trkpt><trkpt lat="45.93110229480919" lon="12.068864516191013"><ele>417.6666666666667</ele><time>2026-05-04T07:11:06Z</time></trkpt><trkpt lat="45.93118651793788" lon="12.068770552754199"><ele>420.5</ele><time>2026-05-04T07:11:08Z</time></trkpt><trkpt lat="45.93125992001117" lon="12.068749543681099"><ele>423.33333333333337</ele><time>2026-05-04T07:11:10Z</time></trkpt><trkpt lat="45.931296090350294" lon="12.068838964604732"><ele>426.1666666666667</ele><time>2026-05-04T07:11:13Z</time></trkpt><trkpt lat="45.931249248274504" lon="12.068765931246354"><ele>429.0</ele><time>2026-05-04T07:11:43Z</time></trkpt><trkpt lat="45.93129101093193" lon="12.06899354108428"><ele>429.0</ele><time>2026-05-04T07:11:54Z</time></trkpt><trkpt lat="45.93126895378221" lon="12.069094220807017"><ele>429.0</ele><time>2026-05-04T07:11:55.999Z</time></trkpt><trkpt lat="45.93124264353783" lon="12.069217666873698"><ele>429.0</ele><time>2026-05-04T07:11:57.999Z</time></trkpt><trkpt lat="45.93121900716281" lon="12.069328569582703"><ele>429.0</ele><time>2026-05-04T07:11:59.999Z</time></trkpt><trkpt lat="45.93119738312231" lon="12.069430030345377"><ele>429.0</ele><time>2026-05-04T07:12:02.999Z</time></trkpt><trkpt lat="45.93074200190223" lon="12.069416553884341"><ele>425.6</ele><time>2026-05-04T07:12:27Z</time></trkpt><trkpt lat="45.930648536794514" lon="12.069519091578524"><ele>422.2</ele><time>2026-05-04T07:12:29Z</time></trkpt><trkpt lat="45.93056028653946" lon="12.069567367220031"><ele>418.8</ele><time>2026-05-04T07:12:31Z</time></trkpt><trkpt lat="45.9304790826902" lon="12.069641476974923"><ele>415.40000000000003</ele><time>2026-05-04T07:12:35Z</time></trkpt><trkpt lat="45.930429054612425" lon="12.06970243936383"><ele>412.0</ele><time>2026-05-04T07:12:55Z</time></trkpt><trkpt lat="45.93041862147827" lon="12.069812036840613"><ele>409.6</ele><time>2026-05-04T07:12:57Z</time></trkpt><trkpt lat="45.93039342094733" lon="12.069976807612004"><ele>407.20000000000005</ele><time>2026-05-04T07:12:59Z</time></trkpt><trkpt lat="45.9303872790699" lon="12.070071914884196"><ele>404.8</ele><time>2026-05-04T07:13:00Z</time></trkpt><trkpt lat="45.93036924609434" lon="12.070235669124616"><ele>402.4</ele><time>2026-05-04T07:13:02Z</time></trkpt><trkpt lat="45.93034479413313" lon="12.07036674293891"><ele>400.0</ele><time>2026-05-04T07:13:04Z</time></trkpt><trkpt lat="45.93033943720523" lon="12.07050400862242"><ele>400.0</ele><time>2026-05-04T07:13:06Z</time></trkpt><trkpt lat="45.930337917060285" lon="12.070625899447442"><ele>400.0</ele><time>2026-05-04T07:13:08Z</time></trkpt><trkpt lat="45.930386425079924" lon="12.070784721300424"><ele>400.0</ele><time>2026-05-04T07:13:28Z</time></trkpt><trkpt lat="45.930427560662544" lon="12.070920765933916"><ele>400.0</ele><time>2026-05-04T07:13:30Z</time></trkpt><trkpt lat="45.93042043068341" lon="12.0710242959907"><ele>400.0</ele><time>2026-05-04T07:13:32Z</time></trkpt><trkpt lat="45.93034171707434" lon="12.071094802120372"><ele>398.33333333333337</ele><time>2026-05-04T07:13:34Z</time></trkpt><trkpt lat="45.93023625077237" lon="12.071137464811132"><ele>396.6666666666667</ele><time>2026-05-04T07:13:36Z</time></trkpt><trkpt lat="45.93013247309448" lon="12.07116027900081"><ele>395.0</ele><time>2026-05-04T07:13:38Z</time></trkpt><trkpt lat="45.93006674031906" lon="12.071176852430789"><ele>393.33333333333337</ele><time>2026-05-04T07:13:41Z</time></trkpt><trkpt lat="45.93000371311669" lon="12.071195743948868"><ele>391.6666666666667</ele><time>2026-05-04T07:13:47Z</time></trkpt><trkpt lat="45.92994258765" lon="12.071220878435351"><ele>390.0</ele><time>2026-05-04T07:13:49Z</time></trkpt><trkpt lat="45.9298961003212" lon="12.071153769037128"><ele>390.0</ele><time>2026-05-04T07:13:51Z</time></trkpt><trkpt lat="45.92987111160242" lon="12.071066389990277"><ele>390.0</ele><time>2026-05-04T07:13:54Z</time></trkpt><trkpt lat="45.92981803856227" lon="12.070988510451066"><ele>390.0</ele><time>2026-05-04T07:14:53Z</time></trkpt><trkpt lat="45.929775557225206" lon="12.070916596704517"><ele>390.0</ele><time>2026-05-04T07:14:56Z</time></trkpt><trkpt lat="45.929734956331444" lon="12.070834824138819"><ele>390.0</ele><time>2026-05-04T07:15:27Z</time></trkpt><trkpt lat="45.92968974104174" lon="12.070750531662899"><ele>390.0</ele><time>2026-05-04T07:15:31Z</time></trkpt><trkpt lat="45.92939286800041" lon="12.070864235305423"><ele>390.0</ele><time>2026-05-04T07:16:42Z</time></trkpt><trkpt lat="45.92933083187793" lon="12.070918431083943"><ele>390.0</ele><time>2026-05-04T07:17:18Z</time></trkpt><trkpt lat="45.9292744373368" lon="12.070969525627719"><ele>390.0</ele><time>2026-05-04T07:17:20Z</time></trkpt><trkpt lat="45.929211102055014" lon="12.071038263776115"><ele>390.0</ele><time>2026-05-04T07:17:22Z</time></trkpt><trkpt lat="45.92913943829254" lon="12.071109544547793"><ele>390.0</ele><time>2026-05-04T07:17:24Z</time></trkpt><trkpt lat="45.92907635465864" lon="12.07118632051745"><ele>390.0</ele><time>2026-05-04T07:17:26Z</time></trkpt><trkpt lat="45.92899693408932" lon="12.071234000163019"><ele>387.5</ele><time>2026-05-04T07:17:28Z</time></trkpt><trkpt lat="45.9289351833938" lon="12.071270979249567"><ele>385.0</ele><time>2026-05-04T07:17:30Z</time></trkpt><trkpt lat="45.92887270912356" lon="12.070886377394068"><ele>382.5</ele><time>2026-05-04T07:17:44Z</time></trkpt><trkpt lat="45.92886355936102" lon="12.070732970377392"><ele>380.0</ele><time>2026-05-04T07:17:46Z</time></trkpt><trkpt lat="45.92885788535213" lon="12.070631218253105"><ele>380.0</ele><time>2026-05-04T07:17:48Z</time></trkpt><trkpt lat="45.92884720602022" lon="12.07050242795873"><ele>380.0</ele><time>2026-05-04T07:18:11Z</time></trkpt><trkpt lat="45.928842014856215" lon="12.070400400713666"><ele>380.0</ele><time>2026-05-04T07:18:13Z</time></trkpt><trkpt lat="45.928836158304115" lon="12.07024711248404"><ele>380.0</ele><time>2026-05-04T07:18:15Z</time></trkpt><trkpt lat="45.928830505799866" lon="12.070150969804986"><ele>380.0</ele><time>2026-05-04T07:18:16Z</time></trkpt><trkpt lat="45.92882229076361" lon="12.070052491499206"><ele>380.0</ele><time>2026-05-04T07:18:17Z</time></trkpt><trkpt lat="45.928813995475394" lon="12.069949707236747"><ele>380.8</ele><time>2026-05-04T07:18:18Z</time></trkpt><trkpt lat="45.92880673440869" lon="12.069845145764027"><ele>381.6</ele><time>2026-05-04T07:18:19Z</time></trkpt><trkpt lat="45.928798017620935" lon="12.06970961711019"><ele>382.4</ele><time>2026-05-04T07:18:21Z</time></trkpt><trkpt lat="45.928790900145266" lon="12.069598387157361"><ele>383.2</ele><time>2026-05-04T07:18:37Z</time></trkpt><trkpt lat="45.92877741545556" lon="12.0694032698398"><ele>384.0</ele><time>2026-05-04T07:18:39Z</time></trkpt><trkpt lat="45.92876893519839" lon="12.069288112582157"><ele>384.0</ele><time>2026-05-04T07:18:40Z</time></trkpt><trkpt lat="45.928765247090666" lon="12.069189893132604"><ele>384.0</ele><time>2026-05-04T07:18:41Z</time></trkpt><trkpt lat="45.92876731410743" lon="12.069077775175534"><ele>384.0</ele><time>2026-05-04T07:18:43Z</time></trkpt><trkpt lat="45.928702605869496" lon="12.069042587976123"><ele>384.0</ele><time>2026-05-04T07:18:46Z</time></trkpt><trkpt lat="45.92863265867197" lon="12.069067914414362"><ele>384.0</ele><time>2026-05-04T07:18:48Z</time></trkpt><trkpt lat="45.92855005883192" lon="12.069096270625641"><ele>384.0</ele><time>2026-05-04T07:18:50Z</time></trkpt><trkpt lat="45.92845204345009" lon="12.069124843583998"><ele>381.8333333333333</ele><time>2026-05-04T07:18:52Z</time></trkpt><trkpt lat="45.928341497801185" lon="12.069141703839785"><ele>379.6666666666667</ele><time>2026-05-04T07:18:54Z</time></trkpt><trkpt lat="45.92821725635765" lon="12.069132724334821"><ele>377.5</ele><time>2026-05-04T07:18:56Z</time></trkpt><trkpt lat="45.92815172213861" lon="12.06913013535516"><ele>375.33333333333337</ele><time>2026-05-04T07:18:57Z</time></trkpt><trkpt lat="45.92808441666379" lon="12.069128706173199"><ele>373.1666666666667</ele><time>2026-05-04T07:18:58Z</time></trkpt><trkpt lat="45.92801624423595" lon="12.06912748927019"><ele>371.0</ele><time>2026-05-04T07:18:59Z</time></trkpt><trkpt lat="45.9279430502694" lon="12.069134236122117"><ele>371.0</ele><time>2026-05-04T07:19:00Z</time></trkpt><trkpt lat="45.927870800714224" lon="12.069147670878868"><ele>371.0</ele><time>2026-05-04T07:19:01Z</time></trkpt><trkpt lat="45.927805853394794" lon="12.069158147492574"><ele>371.0</ele><time>2026-05-04T07:19:02Z</time></trkpt><trkpt lat="45.92770061335286" lon="12.069197107891526"><ele>371.0</ele><time>2026-05-04T07:19:04Z</time></trkpt><trkpt lat="45.92772135121957" lon="12.069475161562401"><ele>371.0</ele><time>2026-05-04T07:19:09Z</time></trkpt><trkpt lat="45.927758686402996" lon="12.069600423451767"><ele>371.0</ele><time>2026-05-04T07:19:11Z</time></trkpt><trkpt lat="45.92776186917717" lon="12.069712161633804"><ele>371.0</ele><time>2026-05-04T07:19:13Z</time></trkpt><trkpt lat="45.92784605271247" lon="12.06971811778403"><ele>371.0</ele><time>2026-05-04T07:19:16Z</time></trkpt><trkpt lat="45.9277983580866" lon="12.069648963997835"><ele>371.0</ele><time>2026-05-04T07:19:27Z</time></trkpt><trkpt lat="45.927773545367614" lon="12.069564788916601"><ele>371.0</ele><time>2026-05-04T07:19:52Z</time></trkpt><trkpt lat="45.92774873654192" lon="12.069466617920272"><ele>371.0</ele><time>2026-05-04T07:19:54Z</time></trkpt><trkpt lat="45.927713305639" lon="12.069353127446753"><ele>371.0</ele><time>2026-05-04T07:20:17Z</time></trkpt><trkpt lat="45.9276866683475" lon="12.069255843908337"><ele>371.0</ele><time>2026-05-04T07:20:19Z</time></trkpt><trkpt lat="45.92764850371039" lon="12.069175709638124"><ele>371.0</ele><time>2026-05-04T07:20:23Z</time></trkpt><trkpt lat="45.92755141474326" lon="12.069205423977102"><ele>371.0</ele><time>2026-05-04T07:20:25Z</time></trkpt><trkpt lat="45.92746285657006" lon="12.069227074932915"><ele>371.0</ele><time>2026-05-04T07:20:27Z</time></trkpt><trkpt lat="45.92735555623189" lon="12.069241383949288"><ele>371.0</ele><time>2026-05-04T07:20:29Z</time></trkpt><trkpt lat="45.92723662245582" lon="12.069254252956371"><ele>368.8</ele><time>2026-05-04T07:20:31Z</time></trkpt><trkpt lat="45.92717324879818" lon="12.069268245491466"><ele>366.6</ele><time>2026-05-04T07:20:32Z</time></trkpt><trkpt lat="45.927059185244545" lon="12.069309555523628"><ele>364.4</ele><time>2026-05-04T07:20:34Z</time></trkpt><trkpt lat="45.92697821082258" lon="12.069343309397349"><ele>362.2</ele><time>2026-05-04T07:20:36Z</time></trkpt><trkpt lat="45.92691271062725" lon="12.069405326615044"><ele>360.0</ele><time>2026-05-04T07:20:39Z</time></trkpt><trkpt lat="45.92693962606769" lon="12.069564826849307"><ele>360.0</ele><time>2026-05-04T07:20:43Z</time></trkpt><trkpt lat="45.927011712916915" lon="12.069679919378487"><ele>360.0</ele><time>2026-05-04T07:20:45Z</time></trkpt><trkpt lat="45.92704709164302" lon="12.069755232012124"><ele>360.0</ele><time>2026-05-04T07:20:46Z</time></trkpt><trkpt lat="45.92708519124325" lon="12.069834993588872"><ele>360.0</ele><time>2026-05-04T07:20:47Z</time></trkpt><trkpt lat="45.92712621025609" lon="12.069916503386377"><ele>360.0</ele><time>2026-05-04T07:20:48Z</time></trkpt><trkpt lat="45.92717064577789" lon="12.070000898467738"><ele>360.0</ele><time>2026-05-04T07:20:49Z</time></trkpt><trkpt lat="45.927222211778165" lon="12.07008586297592"><ele>358.8</ele><time>2026-05-04T07:20:50Z</time></trkpt><trkpt lat="45.92728582041324" lon="12.07016461373786"><ele>357.6</ele><time>2026-05-04T07:20:51Z</time></trkpt><trkpt lat="45.92735773169443" lon="12.070240157214045"><ele>356.4</ele><time>2026-05-04T07:20:52Z</time></trkpt><trkpt lat="45.92743381509619" lon="12.070321462230515"><ele>355.2</ele><time>2026-05-04T07:20:53Z</time></trkpt><trkpt lat="45.927515160508634" lon="12.070408627784813"><ele>354.0</ele><time>2026-05-04T07:20:54Z</time></trkpt><trkpt lat="45.92760043357788" lon="12.070499959670345"><ele>355.79999999999995</ele><time>2026-05-04T07:20:55Z</time></trkpt><trkpt lat="45.92768734970618" lon="12.070594737572188"><ele>357.59999999999997</ele><time>2026-05-04T07:20:56Z</time></trkpt><trkpt lat="45.92777559682937" lon="12.070690208668125"><ele>359.4</ele><time>2026-05-04T07:20:57Z</time></trkpt><trkpt lat="45.92784691371168" lon="12.070757157261724"><ele>361.2</ele><time>2026-05-04T07:20:58Z</time></trkpt><trkpt lat="45.92792341831158" lon="12.070843344450024"><ele>363.0</ele><time>2026-05-04T07:21:44Z</time></trkpt><trkpt lat="45.928019733587725" lon="12.070947137388838"><ele>363.0</ele><time>2026-05-04T07:21:46Z</time></trkpt><trkpt lat="45.92808130351208" lon="12.07101177872607"><ele>363.0</ele><time>2026-05-04T07:21:47Z</time></trkpt><trkpt lat="45.92814643586591" lon="12.071082485806416"><ele>363.0</ele><time>2026-05-04T07:21:48Z</time></trkpt><trkpt lat="45.92821513775582" lon="12.071158015111092"><ele>363.0</ele><time>2026-05-04T07:21:49Z</time></trkpt><trkpt lat="45.9282892387523" lon="12.071238169549245"><ele>363.0</ele><time>2026-05-04T07:21:50Z</time></trkpt><trkpt lat="45.92836217006956" lon="12.071326665601886"><ele>363.0</ele><time>2026-05-04T07:21:51Z</time></trkpt><trkpt lat="45.92842734849491" lon="12.071427226749412"><ele>365.4</ele><time>2026-05-04T07:21:52Z</time></trkpt><trkpt lat="45.92848291050193" lon="12.071545064196618"><ele>367.79999999999995</ele><time>2026-05-04T07:21:53Z</time></trkpt><trkpt lat="45.92852979123681" lon="12.071677668715735"><ele>370.2</ele><time>2026-05-04T07:21:54Z</time></trkpt><trkpt lat="45.92857497446475" lon="12.071815232825802"><ele>372.6</ele><time>2026-05-04T07:21:55Z</time></trkpt><trkpt lat="45.92862758497808" lon="12.071942826658224"><ele>375.0</ele><time>2026-05-04T07:21:56Z</time></trkpt><trkpt lat="45.928687661915866" lon="12.072047812872038"><ele>375.0</ele><time>2026-05-04T07:21:57Z</time></trkpt><trkpt lat="45.928751245857505" lon="12.072116472822923"><ele>375.0</ele><time>2026-05-04T07:21:58Z</time></trkpt><trkpt lat="45.92883124417683" lon="12.072144840782576"><ele>375.0</ele><time>2026-05-04T07:21:59Z</time></trkpt><trkpt lat="45.92889780750998" lon="12.072103515505743"><ele>375.0</ele><time>2026-05-04T07:22:00Z</time></trkpt><trkpt lat="45.9289491524045" lon="12.072025711316526"><ele>375.0</ele><time>2026-05-04T07:22:01Z</time></trkpt><trkpt lat="45.92896420353616" lon="12.071926178045787"><ele>375.0</ele><time>2026-05-04T07:22:02Z</time></trkpt><trkpt lat="45.92894838252576" lon="12.071789115407107"><ele>375.0</ele><time>2026-05-04T07:22:22Z</time></trkpt><trkpt lat="45.928936750055406" lon="12.07162526563472"><ele>375.0</ele><time>2026-05-04T07:22:24Z</time></trkpt><trkpt lat="45.92892756096135" lon="12.07152322778278"><ele>375.0</ele><time>2026-05-04T07:22:25Z</time></trkpt><trkpt lat="45.92891969356978" lon="12.071417675014526"><ele>375.0</ele><time>2026-05-04T07:22:26Z</time></trkpt><trkpt lat="45.92891075319567" lon="12.071315315281232"><ele>375.0</ele><time>2026-05-04T07:22:27Z</time></trkpt><trkpt lat="45.928901892767584" lon="12.071213856232998"><ele>375.0</ele><time>2026-05-04T07:22:28Z</time></trkpt><trkpt lat="45.92889303090662" lon="12.071114075819635"><ele>375.42857142857144</ele><time>2026-05-04T07:22:29Z</time></trkpt><trkpt lat="45.92888455597044" lon="12.071014074891199"><ele>375.85714285714283</ele><time>2026-05-04T07:22:30Z</time></trkpt><trkpt lat="45.92887615760086" lon="12.070914803334414"><ele>376.2857142857143</ele><time>2026-05-04T07:22:31Z</time></trkpt><trkpt lat="45.928867636744165" lon="12.070817356257312"><ele>376.7142857142857</ele><time>2026-05-04T07:22:32Z</time></trkpt><trkpt lat="45.928859648806046" lon="12.070722889713613"><ele>377.1428571428571</ele><time>2026-05-04T07:22:33Z</time></trkpt><trkpt lat="45.92886887750011" lon="12.07062475947761"><ele>377.57142857142856</ele><time>2026-05-04T07:22:34Z</time></trkpt><trkpt lat="45.92884511585875" lon="12.070530953805061"><ele>378.0</ele><time>2026-05-04T07:22:35Z</time></trkpt><trkpt lat="45.92883952617135" lon="12.070434172499269"><ele>378.2857142857143</ele><time>2026-05-04T07:22:36Z</time></trkpt><trkpt lat="45.9288339899629" lon="12.070335601867857"><ele>378.57142857142856</ele><time>2026-05-04T07:22:37Z</time></trkpt><trkpt lat="45.928827908308776" lon="12.070234758387738"><ele>378.8571428571429</ele><time>2026-05-04T07:22:38Z</time></trkpt><trkpt lat="45.92882140344381" lon="12.070133449961615"><ele>379.1428571428571</ele><time>2026-05-04T07:22:39Z</time></trkpt><trkpt lat="45.92881461830943" lon="12.070030045909919"><ele>379.42857142857144</ele><time>2026-05-04T07:22:40Z</time></trkpt><trkpt lat="45.92880677971673" lon="12.069923329206025"><ele>379.7142857142857</ele><time>2026-05-04T07:22:41Z</time></trkpt><trkpt lat="45.92879889334596" lon="12.069816482794042"><ele>380.0</ele><time>2026-05-04T07:22:42Z</time></trkpt><trkpt lat="45.92879084471696" lon="12.069708220820333"><ele>380.8</ele><time>2026-05-04T07:22:43Z</time></trkpt><trkpt lat="45.92878310625282" lon="12.069600811105717"><ele>381.6</ele><time>2026-05-04T07:22:44Z</time></trkpt><trkpt lat="45.9287767209593" lon="12.069494476217397"><ele>382.4</ele><time>2026-05-04T07:22:45Z</time></trkpt><trkpt lat="45.92876988348173" lon="12.06939297321436"><ele>383.2</ele><time>2026-05-04T07:22:46Z</time></trkpt><trkpt lat="45.928760524668846" lon="12.069224178163655"><ele>384.0</ele><time>2026-05-04T07:22:48Z</time></trkpt><trkpt lat="45.92878017229798" lon="12.069058031931466"><ele>385.79999999999995</ele><time>2026-05-04T07:22:50Z</time></trkpt><trkpt lat="45.92884944803151" lon="12.068925014087675"><ele>387.59999999999997</ele><time>2026-05-04T07:22:52Z</time></trkpt><trkpt lat="45.92887673202875" lon="12.068770948898788"><ele>389.4</ele><time>2026-05-04T07:22:54Z</time></trkpt><trkpt lat="45.92885301841729" lon="12.068641084204506"><ele>391.2</ele><time>2026-05-04T07:22:56Z</time></trkpt><trkpt lat="45.92883891149798" lon="12.06852528848804"><ele>393.0</ele><time>2026-05-04T07:23:00Z</time></trkpt><trkpt lat="45.928760161076376" lon="12.068360835313463"><ele>396.79999999999995</ele><time>2026-05-04T07:23:02Z</time></trkpt><trkpt lat="45.92870203073768" lon="12.06826208565942"><ele>400.6</ele><time>2026-05-04T07:23:03Z</time></trkpt><trkpt lat="45.92863607414914" lon="12.068158736734512"><ele>404.4</ele><time>2026-05-04T07:23:04Z</time></trkpt><trkpt lat="45.928570675810505" lon="12.068048588798536"><ele>408.20000000000005</ele><time>2026-05-04T07:23:05Z</time></trkpt><trkpt lat="45.928508186197384" lon="12.067943942012217"><ele>412.0</ele><time>2026-05-04T07:23:06Z</time></trkpt><trkpt lat="45.92843881446443" lon="12.067857863480498"><ele>409.20000000000005</ele><time>2026-05-04T07:23:07Z</time></trkpt><trkpt lat="45.92835270148173" lon="12.06779733318715"><ele>406.4</ele><time>2026-05-04T07:23:08Z</time></trkpt><trkpt lat="45.92825457660312" lon="12.067769626427454"><ele>403.6</ele><time>2026-05-04T07:23:09Z</time></trkpt><trkpt lat="45.92814797753877" lon="12.067785685623113"><ele>400.79999999999995</ele><time>2026-05-04T07:23:10Z</time></trkpt><trkpt lat="45.928042964976164" lon="12.067859338368189"><ele>398.0</ele><time>2026-05-04T07:23:11Z</time></trkpt><trkpt lat="45.92794949644027" lon="12.067961260471346"><ele>398.0</ele><time>2026-05-04T07:23:12Z</time></trkpt><trkpt lat="45.92785498082692" lon="12.068045281200146"><ele>398.0</ele><time>2026-05-04T07:23:13Z</time></trkpt><trkpt lat="45.92774810743752" lon="12.068083633049715"><ele>398.0</ele><time>2026-05-04T07:23:14Z</time></trkpt><trkpt lat="45.9276311858799" lon="12.068080668276224"><ele>398.0</ele><time>2026-05-04T07:23:15Z</time></trkpt><trkpt lat="45.92751012495506" lon="12.068042509245707"><ele>396.0</ele><time>2026-05-04T07:23:16Z</time></trkpt><trkpt lat="45.92738795502082" lon="12.067969487813004"><ele>394.0</ele><time>2026-05-04T07:23:17Z</time></trkpt><trkpt lat="45.927260363938345" lon="12.067890971833425"><ele>392.0</ele><time>2026-05-04T07:23:18Z</time></trkpt><trkpt lat="45.927136184836435" lon="12.067812061848876"><ele>390.0</ele><time>2026-05-04T07:23:19Z</time></trkpt><trkpt lat="45.92704907383446" lon="12.067695735978916"><ele>390.0</ele><time>2026-05-04T07:23:20Z</time></trkpt><trkpt lat="45.92701024298658" lon="12.067531472488222"><ele>390.0</ele><time>2026-05-04T07:23:21Z</time></trkpt><trkpt lat="45.92701150135783" lon="12.067356872440246"><ele>390.0</ele><time>2026-05-04T07:23:22Z</time></trkpt><trkpt lat="45.92705930217994" lon="12.067199876892687"><ele>390.0</ele><time>2026-05-04T07:23:23Z</time></trkpt><trkpt lat="45.927150246046885" lon="12.067076336059387"><ele>390.75</ele><time>2026-05-04T07:23:24Z</time></trkpt><trkpt lat="45.927256713620544" lon="12.066965936512009"><ele>391.5</ele><time>2026-05-04T07:23:25Z</time></trkpt><trkpt lat="45.9273635972472" lon="12.066843449026809"><ele>392.25</ele><time>2026-05-04T07:23:26Z</time></trkpt><trkpt lat="45.92744806326441" lon="12.066693106707824"><ele>393.0</ele><time>2026-05-04T07:23:27Z</time></trkpt><trkpt lat="45.92749239452565" lon="12.066525349915553"><ele>396.0</ele><time>2026-05-04T07:23:28Z</time></trkpt><trkpt lat="45.92748896816381" lon="12.066343238657623"><ele>399.0</ele><time>2026-05-04T07:23:29Z</time></trkpt><trkpt lat="45.92743025891255" lon="12.066184521856988"><ele>402.0</ele><time>2026-05-04T07:23:30Z</time></trkpt><trkpt lat="45.927341864408554" lon="12.066059279476237"><ele>405.0</ele><time>2026-05-04T07:23:31Z</time></trkpt><trkpt lat="45.92724172218855" lon="12.065961360806165"><ele>405.0</ele><time>2026-05-04T07:23:32Z</time></trkpt><trkpt lat="45.92714453925707" lon="12.065860875209085"><ele>405.0</ele><time>2026-05-04T07:23:33Z</time></trkpt><trkpt lat="45.92706178979396" lon="12.065741042501429"><ele>405.0</ele><time>2026-05-04T07:23:34Z</time></trkpt><trkpt lat="45.927006586904554" lon="12.065586958107783"><ele>405.0</ele><time>2026-05-04T07:23:35Z</time></trkpt><trkpt lat="45.926955192454315" lon="12.065430372298868"><ele>403.25</ele><time>2026-05-04T07:23:36Z</time></trkpt><trkpt lat="45.92687162187151" lon="12.065317804614768"><ele>401.5</ele><time>2026-05-04T07:23:37Z</time></trkpt><trkpt lat="45.926760669115616" lon="12.065265670246626"><ele>399.75</ele><time>2026-05-04T07:23:38Z</time></trkpt><trkpt lat="45.926644638022715" lon="12.065254123817942"><ele>398.0</ele><time>2026-05-04T07:23:39Z</time></trkpt><trkpt lat="45.92654508474436" lon="12.065202493371771"><ele>398.0</ele><time>2026-05-04T07:23:40Z</time></trkpt><trkpt lat="45.926457148290524" lon="12.065150864271718"><ele>398.0</ele><time>2026-05-04T07:23:41Z</time></trkpt><trkpt lat="45.92639283147114" lon="12.065049290635047"><ele>398.0</ele><time>2026-05-04T07:23:42Z</time></trkpt><trkpt lat="45.926345723966946" lon="12.064927896846234"><ele>398.0</ele><time>2026-05-04T07:23:43Z</time></trkpt><trkpt lat="45.92632316004474" lon="12.064785645813394"><ele>398.0</ele><time>2026-05-04T07:23:44Z</time></trkpt><trkpt lat="45.92630651338591" lon="12.064628411583913"><ele>403.75</ele><time>2026-05-04T07:23:45Z</time></trkpt><trkpt lat="45.92628268487852" lon="12.064464756825497"><ele>409.5</ele><time>2026-05-04T07:23:46Z</time></trkpt><trkpt lat="45.92626286275892" lon="12.06429176527462"><ele>415.25</ele><time>2026-05-04T07:23:47Z</time></trkpt><trkpt lat="45.92624111582875" lon="12.064110619109867"><ele>421.0</ele><time>2026-05-04T07:23:48Z</time></trkpt><trkpt lat="45.926218480744936" lon="12.063923063615935"><ele>423.0</ele><time>2026-05-04T07:23:49Z</time></trkpt><trkpt lat="45.92619264458006" lon="12.063732566887433"><ele>425.0</ele><time>2026-05-04T07:23:50Z</time></trkpt><trkpt lat="45.926171016212194" lon="12.063541685471359"><ele>427.0</ele><time>2026-05-04T07:23:51Z</time></trkpt><trkpt lat="45.926150147833866" lon="12.063368059389035"><ele>429.0</ele><time>2026-05-04T07:23:52Z</time></trkpt><trkpt lat="45.92612911679152" lon="12.063210077324257"><ele>429.0</ele><time>2026-05-04T07:23:53Z</time></trkpt><trkpt lat="45.92608598422726" lon="12.06309209455288"><ele>429.0</ele><time>2026-05-04T07:23:54Z</time></trkpt><trkpt lat="45.926033042529916" lon="12.06302679433388"><ele>429.0</ele><time>2026-05-04T07:23:55Z</time></trkpt><trkpt lat="45.92595256212264" lon="12.063018823077645"><ele>429.0</ele><time>2026-05-04T07:23:57Z</time></trkpt><trkpt lat="45.92609582467705" lon="12.063281803701297"><ele>429.0</ele><time>2026-05-04T07:25:08.999Z</time></trkpt><trkpt lat="45.926117606382576" lon="12.06339070035123"><ele>429.0</ele><time>2026-05-04T07:25:09.999Z</time></trkpt><trkpt lat="45.92612640844606" lon="12.063518705616467"><ele>429.0</ele><time>2026-05-04T07:25:10.999Z</time></trkpt><trkpt lat="45.92614249615885" lon="12.063653133143337"><ele>429.0</ele><time>2026-05-04T07:25:11.999Z</time></trkpt><trkpt lat="45.926160656522256" lon="12.063798319925684"><ele>429.0</ele><time>2026-05-04T07:25:12.999Z</time></trkpt><trkpt lat="45.926181662283476" lon="12.063950310918882"><ele>429.0</ele><time>2026-05-04T07:25:13.999Z</time></trkpt><trkpt lat="45.92620268490572" lon="12.064109582356899"><ele>429.0</ele><time>2026-05-04T07:25:14.999Z</time></trkpt><trkpt lat="45.92622232642787" lon="12.064272210615743"><ele>429.0</ele><time>2026-05-04T07:25:15.999Z</time></trkpt><trkpt lat="45.92624245324394" lon="12.064435594682687"><ele>429.0</ele><time>2026-05-04T07:25:16.999Z</time></trkpt><trkpt lat="45.926263087544065" lon="12.064599456924325"><ele>427.6666666666667</ele><time>2026-05-04T07:25:17.999Z</time></trkpt><trkpt lat="45.926282036804274" lon="12.06475617512756"><ele>426.33333333333337</ele><time>2026-05-04T07:25:18.999Z</time></trkpt><trkpt lat="45.92630117159204" lon="12.06489348728003"><ele>425.0</ele><time>2026-05-04T07:25:19.999Z</time></trkpt><trkpt lat="45.926327742766325" lon="12.064998960104958"><ele>423.6666666666667</ele><time>2026-05-04T07:25:20.999Z</time></trkpt><trkpt lat="45.926362778443966" lon="12.065128311736716"><ele>422.33333333333337</ele><time>2026-05-04T07:25:22.999Z</time></trkpt><trkpt lat="45.92639384291988" lon="12.065207760381046"><ele>421.0</ele><time>2026-05-04T07:25:24.999Z</time></trkpt><trkpt lat="45.92647033289882" lon="12.065221534480392"><ele>421.33333333333337</ele><time>2026-05-04T07:26:31.999Z</time></trkpt><trkpt lat="45.92657476291604" lon="12.065259952907228"><ele>421.6666666666667</ele><time>2026-05-04T07:26:33.999Z</time></trkpt><trkpt lat="45.926647586693626" lon="12.065272186412171"><ele>422.0</ele><time>2026-05-04T07:26:34.999Z</time></trkpt><trkpt lat="45.92672991759899" lon="12.065283408401733"><ele>422.33333333333337</ele><time>2026-05-04T07:26:35.999Z</time></trkpt><trkpt lat="45.92680924832669" lon="12.065313041404188"><ele>422.6666666666667</ele><time>2026-05-04T07:26:36.999Z</time></trkpt><trkpt lat="45.92688097963656" lon="12.065376178447753"><ele>423.0</ele><time>2026-05-04T07:26:37.999Z</time></trkpt><trkpt lat="45.926945246045406" lon="12.065478218342328"><ele>423.0</ele><time>2026-05-04T07:26:38.999Z</time></trkpt><trkpt lat="45.92699557128709" lon="12.065616936866236"><ele>423.0</ele><time>2026-05-04T07:26:39.999Z</time></trkpt><trkpt lat="45.92705815977239" lon="12.065760182366684"><ele>423.0</ele><time>2026-05-04T07:26:40.999Z</time></trkpt><trkpt lat="45.92715063808446" lon="12.065890073769324"><ele>423.0</ele><time>2026-05-04T07:26:41.999Z</time></trkpt><trkpt lat="45.92725167021991" lon="12.066038335099948"><ele>418.5</ele><time>2026-05-04T07:26:42.999Z</time></trkpt><trkpt lat="45.92736344030541" lon="12.066144164422854"><ele>414.0</ele><time>2026-05-04T07:26:43.999Z</time></trkpt><trkpt lat="45.92743492790205" lon="12.066293096861447"><ele>409.5</ele><time>2026-05-04T07:26:44.999Z</time></trkpt><trkpt lat="45.927468055436115" lon="12.066488308155742"><ele>405.0</ele><time>2026-05-04T07:26:45.999Z</time></trkpt><trkpt lat="45.927436750235394" lon="12.066665782887025"><ele>402.0</ele><time>2026-05-04T07:26:46.999Z</time></trkpt><trkpt lat="45.92733276906932" lon="12.066801867262615"><ele>399.0</ele><time>2026-05-04T07:26:47.999Z</time></trkpt><trkpt lat="45.92722533534061" lon="12.066944408608212"><ele>396.0</ele><time>2026-05-04T07:26:48.999Z</time></trkpt><trkpt lat="45.92711147220909" lon="12.067078319434087"><ele>393.0</ele><time>2026-05-04T07:26:49.999Z</time></trkpt><trkpt lat="45.92702326197285" lon="12.067202401399667"><ele>393.0</ele><time>2026-05-04T07:26:50.999Z</time></trkpt><trkpt lat="45.92697144476902" lon="12.067329426246237"><ele>393.0</ele><time>2026-05-04T07:26:51.999Z</time></trkpt><trkpt lat="45.926953797808665" lon="12.067472763576342"><ele>393.0</ele><time>2026-05-04T07:26:52.999Z</time></trkpt><trkpt lat="45.92697590916315" lon="12.067623628029285"><ele>393.0</ele><time>2026-05-04T07:26:53.999Z</time></trkpt><trkpt lat="45.92703189424383" lon="12.067758076295995"><ele>393.0</ele><time>2026-05-04T07:26:54.999Z</time></trkpt><trkpt lat="45.927119655006756" lon="12.067861539900692"><ele>392.25</ele><time>2026-05-04T07:26:55.999Z</time></trkpt><trkpt lat="45.92723128049931" lon="12.06792903790786"><ele>391.5</ele><time>2026-05-04T07:26:56.999Z</time></trkpt><trkpt lat="45.92735358263228" lon="12.067995349473751"><ele>390.75</ele><time>2026-05-04T07:26:57.999Z</time></trkpt><trkpt lat="45.92748262420856" lon="12.068069958184939"><ele>390.0</ele><time>2026-05-04T07:26:58.999Z</time></trkpt><trkpt lat="45.927605709165725" lon="12.068112956381292"><ele>392.0</ele><time>2026-05-04T07:26:59.999Z</time></trkpt><trkpt lat="45.92771718307986" lon="12.06812555612743"><ele>394.0</ele><time>2026-05-04T07:27:00.999Z</time></trkpt><trkpt lat="45.92782034341501" lon="12.068097016463314"><ele>396.0</ele><time>2026-05-04T07:27:01.999Z</time></trkpt><trkpt lat="45.92792736956781" lon="12.068024352533048"><ele>398.0</ele><time>2026-05-04T07:27:02.999Z</time></trkpt><trkpt lat="45.92802996394589" lon="12.067914003272255"><ele>398.0</ele><time>2026-05-04T07:27:03.999Z</time></trkpt><trkpt lat="45.92813387227296" lon="12.067836715098373"><ele>398.0</ele><time>2026-05-04T07:27:04.999Z</time></trkpt><trkpt lat="45.928242170850346" lon="12.067809143822853"><ele>398.0</ele><time>2026-05-04T07:27:05.999Z</time></trkpt><trkpt lat="45.92834156689743" lon="12.0678360006097"><ele>398.0</ele><time>2026-05-04T07:27:06.999Z</time></trkpt><trkpt lat="45.928418172127124" lon="12.06789850793882"><ele>398.0</ele><time>2026-05-04T07:27:07.999Z</time></trkpt><trkpt lat="45.92848494565649" lon="12.067983932638628"><ele>397.0</ele><time>2026-05-04T07:27:08.999Z</time></trkpt><trkpt lat="45.928548204732444" lon="12.068082787823919"><ele>396.0</ele><time>2026-05-04T07:27:09.999Z</time></trkpt><trkpt lat="45.92861549489752" lon="12.068189540664346"><ele>395.0</ele><time>2026-05-04T07:27:10.999Z</time></trkpt><trkpt lat="45.92867838868302" lon="12.06829526636466"><ele>394.0</ele><time>2026-05-04T07:27:11.999Z</time></trkpt><trkpt lat="45.92873976488859" lon="12.068392749897937"><ele>393.0</ele><time>2026-05-04T07:27:12.999Z</time></trkpt><trkpt lat="45.928798576628566" lon="12.068491524363537"><ele>393.0</ele><time>2026-05-04T07:27:13.999Z</time></trkpt><trkpt lat="45.928861332427765" lon="12.068590824194427"><ele>393.0</ele><time>2026-05-04T07:27:14.999Z</time></trkpt><trkpt lat="45.92892307736066" lon="12.068695001687502"><ele>393.0</ele><time>2026-05-04T07:27:15.999Z</time></trkpt><trkpt lat="45.92898357670003" lon="12.068799124216552"><ele>393.0</ele><time>2026-05-04T07:27:16.999Z</time></trkpt><trkpt lat="45.92903484931757" lon="12.068895136767557"><ele>393.0</ele><time>2026-05-04T07:27:17.999Z</time></trkpt><trkpt lat="45.92906893927368" lon="12.068974462054845"><ele>393.0</ele><time>2026-05-04T07:27:18.999Z</time></trkpt><trkpt lat="45.92909142562331" lon="12.069091139309592"><ele>394.2</ele><time>2026-05-04T07:27:20.999Z</time></trkpt><trkpt lat="45.929140468449845" lon="12.069153835111765"><ele>395.4</ele><time>2026-05-04T07:27:46.999Z</time></trkpt><trkpt lat="45.929200491960145" lon="12.069257509566265"><ele>396.59999999999997</ele><time>2026-05-04T07:27:48.999Z</time></trkpt><trkpt lat="45.92924754282189" lon="12.069376245872718"><ele>397.79999999999995</ele><time>2026-05-04T07:27:50.999Z</time></trkpt><trkpt lat="45.92929403742269" lon="12.069503436277495"><ele>399.0</ele><time>2026-05-04T07:28:14.999Z</time></trkpt><trkpt lat="45.929339756644566" lon="12.069625716571226"><ele>399.0</ele><time>2026-05-04T07:28:16.999Z</time></trkpt><trkpt lat="45.92939571124066" lon="12.069763835304428"><ele>399.0</ele><time>2026-05-04T07:28:18.999Z</time></trkpt><trkpt lat="45.929450273547154" lon="12.06988956653303"><ele>399.0</ele><time>2026-05-04T07:28:20.999Z</time></trkpt><trkpt lat="45.92944091676909" lon="12.07007235582013"><ele>399.0</ele><time>2026-05-04T07:28:22.999Z</time></trkpt><trkpt lat="45.92959119521051" lon="12.070154314614076"><ele>398.3333333333333</ele><time>2026-05-04T07:28:24.999Z</time></trkpt><trkpt lat="45.92962579073011" lon="12.070239980982489"><ele>397.66666666666663</ele><time>2026-05-04T07:28:27.999Z</time></trkpt><trkpt lat="45.929677019349725" lon="12.070361051270018"><ele>397.0</ele><time>2026-05-04T07:28:59.999Z</time></trkpt><trkpt lat="45.92971517819627" lon="12.070459601703922"><ele>396.3333333333333</ele><time>2026-05-04T07:29:01.999Z</time></trkpt><trkpt lat="45.9297293648074" lon="12.070564558277141"><ele>395.66666666666663</ele><time>2026-05-04T07:29:29Z</time></trkpt><trkpt lat="45.92977714441623" lon="12.070687125682142"><ele>395.0</ele><time>2026-05-04T07:29:31Z</time></trkpt><trkpt lat="45.9298345810893" lon="12.070823491279588"><ele>394.0</ele><time>2026-05-04T07:29:33Z</time></trkpt><trkpt lat="45.929870807021864" lon="12.070908946653958"><ele>393.0</ele><time>2026-05-04T07:30:01Z</time></trkpt><trkpt lat="45.929898883817444" lon="12.07101382821534"><ele>392.0</ele><time>2026-05-04T07:30:03Z</time></trkpt><trkpt lat="45.92994306792965" lon="12.07113438724356"><ele>391.0</ele><time>2026-05-04T07:30:05Z</time></trkpt><trkpt lat="45.92995589692129" lon="12.071290115644565"><ele>390.0</ele><time>2026-05-04T07:30:07Z</time></trkpt><trkpt lat="45.92995516805407" lon="12.071450410469422"><ele>390.0</ele><time>2026-05-04T07:30:09Z</time></trkpt><trkpt lat="45.92995381461328" lon="12.071571979538177"><ele>390.0</ele><time>2026-05-04T07:30:11Z</time></trkpt><trkpt lat="45.929953358229916" lon="12.071670334728102"><ele>390.0</ele><time>2026-05-04T07:30:13Z</time></trkpt><trkpt lat="45.929954957600806" lon="12.071766280941846"><ele>390.0</ele><time>2026-05-04T07:30:16Z</time></trkpt><trkpt lat="45.92998495745396" lon="12.07187079893002"><ele>390.0</ele><time>2026-05-04T07:32:36Z</time></trkpt><trkpt lat="45.93000123057183" lon="12.071987043138495"><ele>390.0</ele><time>2026-05-04T07:32:38Z</time></trkpt><trkpt lat="45.930017359532236" lon="12.072100290416799"><ele>390.1666666666667</ele><time>2026-05-04T07:32:40Z</time></trkpt><trkpt lat="45.93002593040976" lon="12.072223495043456"><ele>390.33333333333337</ele><time>2026-05-04T07:32:43Z</time></trkpt><trkpt lat="45.930001867037056" lon="12.072344709381518"><ele>390.5</ele><time>2026-05-04T07:33:13Z</time></trkpt><trkpt lat="45.92996747048256" lon="12.072458933170385"><ele>390.6666666666667</ele><time>2026-05-04T07:33:16Z</time></trkpt><trkpt lat="45.92994118393392" lon="12.07254279526577"><ele>390.83333333333337</ele><time>2026-05-04T07:33:18Z</time></trkpt><trkpt lat="45.92990844505645" lon="12.072651417679785"><ele>391.0</ele><time>2026-05-04T07:33:21Z</time></trkpt><trkpt lat="45.92986016350758" lon="12.072720384367344"><ele>390.1666666666667</ele><time>2026-05-04T07:33:24Z</time></trkpt><trkpt lat="45.92982665101318" lon="12.072823958513107"><ele>389.33333333333337</ele><time>2026-05-04T07:33:28Z</time></trkpt><trkpt lat="45.92976143074341" lon="12.072879251193863"><ele>388.5</ele><time>2026-05-04T07:33:30Z</time></trkpt><trkpt lat="45.92971086062865" lon="12.072961019242237"><ele>387.66666666666663</ele><time>2026-05-04T07:33:32.001Z</time></trkpt><trkpt lat="45.929641216637094" lon="12.073025141591108"><ele>386.8333333333333</ele><time>2026-05-04T07:33:35.001Z</time></trkpt><trkpt lat="45.92960843307421" lon="12.073104293026075"><ele>386.0</ele><time>2026-05-04T07:33:39.001Z</time></trkpt><trkpt lat="45.92958207341102" lon="12.073224861053424"><ele>386.16666666666663</ele><time>2026-05-04T07:33:45.001Z</time></trkpt><trkpt lat="45.92954308841115" lon="12.073323315315012"><ele>386.3333333333333</ele><time>2026-05-04T07:33:47.001Z</time></trkpt><trkpt lat="45.92949730468518" lon="12.073402203264946"><ele>386.5</ele><time>2026-05-04T07:33:49.001Z</time></trkpt><trkpt lat="45.92943911785618" lon="12.073472633821755"><ele>386.66666666666663</ele><time>2026-05-04T07:33:52.001Z</time></trkpt><trkpt lat="45.92934987264774" lon="12.073460541986128"><ele>386.8333333333333</ele><time>2026-05-04T07:33:54.001Z</time></trkpt><trkpt lat="45.929274317901104" lon="12.07349005514785"><ele>387.0</ele><time>2026-05-04T07:34:16.001Z</time></trkpt><trkpt lat="45.92918414176592" lon="12.07354022893779"><ele>388.6666666666667</ele><time>2026-05-04T07:34:18.001Z</time></trkpt><trkpt lat="45.9291019013369" lon="12.073586685131966"><ele>390.33333333333337</ele><time>2026-05-04T07:34:20.001Z</time></trkpt><trkpt lat="45.92904313918177" lon="12.073625537052186"><ele>392.0</ele><time>2026-05-04T07:34:22.001Z</time></trkpt><trkpt lat="45.928984200034144" lon="12.073659406325211"><ele>393.6666666666667</ele><time>2026-05-04T07:34:24.001Z</time></trkpt><trkpt lat="45.92890697015649" lon="12.073659488999274"><ele>395.33333333333337</ele><time>2026-05-04T07:34:26.001Z</time></trkpt><trkpt lat="45.928813933165905" lon="12.07362221092593"><ele>397.0</ele><time>2026-05-04T07:34:28.001Z</time></trkpt><trkpt lat="45.92874968923249" lon="12.073600013728623"><ele>397.0</ele><time>2026-05-04T07:34:44.001Z</time></trkpt><trkpt lat="45.92868032707474" lon="12.073580778269354"><ele>397.0</ele><time>2026-05-04T07:34:46.001Z</time></trkpt><trkpt lat="45.92860742249193" lon="12.073531023427298"><ele>397.0</ele><time>2026-05-04T07:35:03Z</time></trkpt><trkpt lat="45.92850788522428" lon="12.073515952894704"><ele>397.0</ele><time>2026-05-04T07:35:05Z</time></trkpt><trkpt lat="45.928397693610194" lon="12.073589793371621"><ele>397.0</ele><time>2026-05-04T07:35:07Z</time></trkpt><trkpt lat="45.92827211747301" lon="12.073570661070088"><ele>397.50000000000006</ele><time>2026-05-04T07:35:09Z</time></trkpt><trkpt lat="45.92820381397418" lon="12.073581393933813"><ele>398.0</ele><time>2026-05-04T07:35:10Z</time></trkpt><trkpt lat="45.92813520228159" lon="12.073565248494548"><ele>398.5</ele><time>2026-05-04T07:35:11Z</time></trkpt><trkpt lat="45.92806227708892" lon="12.07358246193386"><ele>399.0</ele><time>2026-05-04T07:35:12Z</time></trkpt><trkpt lat="45.927987800812076" lon="12.073602504271864"><ele>399.50000000000006</ele><time>2026-05-04T07:35:13Z</time></trkpt><trkpt lat="45.92791632575543" lon="12.073625681741564"><ele>400.0</ele><time>2026-05-04T07:35:14Z</time></trkpt><trkpt lat="45.927805041129034" lon="12.073607699935357"><ele>400.00000000000006</ele><time>2026-05-04T07:35:16Z</time></trkpt><trkpt lat="45.92769691054131" lon="12.073529901647527"><ele>400.0</ele><time>2026-05-04T07:35:18Z</time></trkpt><trkpt lat="45.92763802038508" lon="12.07347620478624"><ele>400.0</ele><time>2026-05-04T07:35:19Z</time></trkpt><trkpt lat="45.927580156486464" lon="12.073426147931498"><ele>400.0</ele><time>2026-05-04T07:35:20Z</time></trkpt><trkpt lat="45.92752379616009" lon="12.073379889911598"><ele>400.00000000000006</ele><time>2026-05-04T07:35:21Z</time></trkpt><trkpt lat="45.927414128549444" lon="12.073413976702149"><ele>400.0</ele><time>2026-05-04T07:35:23Z</time></trkpt><trkpt lat="45.927354213125355" lon="12.073545001528304"><ele>400.0</ele><time>2026-05-04T07:35:25Z</time></trkpt><trkpt lat="45.92738717800549" lon="12.073690366380573"><ele>400.0</ele><time>2026-05-04T07:35:27Z</time></trkpt><trkpt lat="45.927473870504635" lon="12.073808064560493"><ele>400.0</ele><time>2026-05-04T07:35:29Z</time></trkpt><trkpt lat="45.927523319236926" lon="12.073883405565487"><ele>400.0</ele><time>2026-05-04T07:35:30Z</time></trkpt><trkpt lat="45.927575544356216" lon="12.073966063804134"><ele>400.0</ele><time>2026-05-04T07:35:31Z</time></trkpt><trkpt lat="45.92763308681543" lon="12.074051318508154"><ele>404.0</ele><time>2026-05-04T07:35:32Z</time></trkpt><trkpt lat="45.92770654010279" lon="12.074119549554819"><ele>408.0</ele><time>2026-05-04T07:35:33Z</time></trkpt><trkpt lat="45.92778413839312" lon="12.074190779331214"><ele>412.0</ele><time>2026-05-04T07:35:34Z</time></trkpt><trkpt lat="45.92787087413473" lon="12.07425288192435"><ele>416.0</ele><time>2026-05-04T07:35:35Z</time></trkpt><trkpt lat="45.92796251876643" lon="12.074306261177995"><ele>420.0</ele><time>2026-05-04T07:35:36Z</time></trkpt><trkpt lat="45.92805396518832" lon="12.07436663904067"><ele>420.0</ele><time>2026-05-04T07:35:37Z</time></trkpt><trkpt lat="45.92814346212505" lon="12.074441461834924"><ele>420.0</ele><time>2026-05-04T07:35:38Z</time></trkpt><trkpt lat="45.92823264101324" lon="12.074513453967278"><ele>420.0</ele><time>2026-05-04T07:35:39Z</time></trkpt><trkpt lat="45.92831956282821" lon="12.074583944649868"><ele>420.0</ele><time>2026-05-04T07:35:40Z</time></trkpt><trkpt lat="45.92841024333274" lon="12.074625992660009"><ele>420.0</ele><time>2026-05-04T07:35:41Z</time></trkpt><trkpt lat="45.92849954627602" lon="12.074634317648504"><ele>418.6666666666667</ele><time>2026-05-04T07:35:42Z</time></trkpt><trkpt lat="45.92858030007284" lon="12.074629775388553"><ele>417.33333333333337</ele><time>2026-05-04T07:35:43Z</time></trkpt><trkpt lat="45.92864342103298" lon="12.074619105559435"><ele>416.0</ele><time>2026-05-04T07:35:44Z</time></trkpt><trkpt lat="45.928726075180435" lon="12.074602598240947"><ele>414.6666666666667</ele><time>2026-05-04T07:35:46Z</time></trkpt><trkpt lat="45.928807379428626" lon="12.074652754056169"><ele>413.33333333333337</ele><time>2026-05-04T07:35:48Z</time></trkpt><trkpt lat="45.928870600217785" lon="12.074768675804513"><ele>412.0</ele><time>2026-05-04T07:35:50Z</time></trkpt><trkpt lat="45.92891993267789" lon="12.074871840083002"><ele>412.00000000000006</ele><time>2026-05-04T07:35:52Z</time></trkpt><trkpt lat="45.928988558561855" lon="12.074951707547813"><ele>412.0</ele><time>2026-05-04T07:37:19Z</time></trkpt><trkpt lat="45.92908013476812" lon="12.075033397232191"><ele>412.0</ele><time>2026-05-04T07:37:21Z</time></trkpt><trkpt lat="45.9291456456907" lon="12.075064378746974"><ele>412.0</ele><time>2026-05-04T07:37:22Z</time></trkpt><trkpt lat="45.92921246190619" lon="12.075083144657278"><ele>412.00000000000006</ele><time>2026-05-04T07:37:23Z</time></trkpt><trkpt lat="45.92928663331072" lon="12.075095969448363"><ele>412.0</ele><time>2026-05-04T07:37:24Z</time></trkpt><trkpt lat="45.929360629316115" lon="12.075107039402395"><ele>412.00000000000006</ele><time>2026-05-04T07:37:25Z</time></trkpt><trkpt lat="45.929423183302546" lon="12.075119873771152"><ele>412.0</ele><time>2026-05-04T07:37:26Z</time></trkpt><trkpt lat="45.9295174710022" lon="12.075137221463509"><ele>412.0</ele><time>2026-05-04T07:37:28Z</time></trkpt><trkpt lat="45.92957800358701" lon="12.075204954842189"><ele>412.0</ele><time>2026-05-04T07:37:31Z</time></trkpt><trkpt lat="45.92962055699487" lon="12.07531214198738"><ele>412.00000000000006</ele><time>2026-05-04T07:37:33Z</time></trkpt><trkpt lat="45.92968679807867" lon="12.075451555167124"><ele>412.0</ele><time>2026-05-04T07:37:35Z</time></trkpt><trkpt lat="45.92974484653197" lon="12.075504069740349"><ele>411.99999999999994</ele><time>2026-05-04T07:37:36Z</time></trkpt><trkpt lat="45.92980235682556" lon="12.075541021914347"><ele>412.0</ele><time>2026-05-04T07:37:37Z</time></trkpt><trkpt lat="45.929858753698525" lon="12.075581773005958"><ele>412.0</ele><time>2026-05-04T07:37:39Z</time></trkpt><trkpt lat="45.92990856952148" lon="12.075645582481602"><ele>412.0</ele><time>2026-05-04T07:37:42Z</time></trkpt><trkpt lat="45.92998468521049" lon="12.075620615284189"><ele>412.0</ele><time>2026-05-04T07:37:43Z</time></trkpt><trkpt lat="45.93003112147512" lon="12.07555312598379"><ele>411.99999999999994</ele><time>2026-05-04T07:37:45Z</time></trkpt><trkpt lat="45.9300991904338" lon="12.075434182954782"><ele>412.0</ele><time>2026-05-04T07:37:47Z</time></trkpt><trkpt lat="45.93013732645971" lon="12.075357827135601"><ele>409.20000000000005</ele><time>2026-05-04T07:37:48Z</time></trkpt><trkpt lat="45.93018378683423" lon="12.075214031368732"><ele>406.4</ele><time>2026-05-04T07:37:50Z</time></trkpt><trkpt lat="45.9301906436151" lon="12.07505163820994"><ele>403.6</ele><time>2026-05-04T07:37:52Z</time></trkpt><trkpt lat="45.93017426000551" lon="12.074950990621787"><ele>400.79999999999995</ele><time>2026-05-04T07:37:54Z</time></trkpt><trkpt lat="45.930105685734326" lon="12.074840833021051"><ele>398.0</ele><time>2026-05-04T07:38:11Z</time></trkpt><trkpt lat="45.93005701203109" lon="12.074775398525778"><ele>397.99999999999994</ele><time>2026-05-04T07:38:12Z</time></trkpt><trkpt lat="45.92999827815327" lon="12.0747042266415"><ele>398.0</ele><time>2026-05-04T07:38:13Z</time></trkpt><trkpt lat="45.92993071644041" lon="12.074625039438123"><ele>398.0</ele><time>2026-05-04T07:38:14Z</time></trkpt><trkpt lat="45.929857156881376" lon="12.074543947629037"><ele>398.0</ele><time>2026-05-04T07:38:15Z</time></trkpt><trkpt lat="45.92977351802382" lon="12.074482230119735"><ele>397.99999999999994</ele><time>2026-05-04T07:38:16Z</time></trkpt><trkpt lat="45.92971630627964" lon="12.074389307856347"><ele>398.0</ele><time>2026-05-04T07:38:17Z</time></trkpt><trkpt lat="45.92966031695896" lon="12.07432765996458"><ele>397.99999999999994</ele><time>2026-05-04T07:38:18Z</time></trkpt><trkpt lat="45.9296057678572" lon="12.074266781066719"><ele>398.0</ele><time>2026-05-04T07:38:19Z</time></trkpt><trkpt lat="45.92959353276857" lon="12.074165301833176"><ele>398.0</ele><time>2026-05-04T07:38:20Z</time></trkpt><trkpt lat="45.929580024137515" lon="12.074076537796637"><ele>398.0</ele><time>2026-05-04T07:38:21Z</time></trkpt><trkpt lat="45.92956933154268" lon="12.07398465861171"><ele>398.0</ele><time>2026-05-04T07:38:22Z</time></trkpt><trkpt lat="45.92956150622388" lon="12.073883391346211"><ele>397.99999999999994</ele><time>2026-05-04T07:38:23Z</time></trkpt><trkpt lat="45.929550893061524" lon="12.073772853215885"><ele>398.0</ele><time>2026-05-04T07:38:24Z</time></trkpt><trkpt lat="45.92952363434664" lon="12.073615349956919"><ele>396.16666666666663</ele><time>2026-05-04T07:38:26Z</time></trkpt><trkpt lat="45.92950760640934" lon="12.07350733656571"><ele>394.3333333333333</ele><time>2026-05-04T07:38:28Z</time></trkpt><trkpt lat="45.929532272414" lon="12.0733907237335"><ele>392.5</ele><time>2026-05-04T07:38:31Z</time></trkpt><trkpt lat="45.929583199692885" lon="12.07327297816009"><ele>390.66666666666663</ele><time>2026-05-04T07:38:33Z</time></trkpt><trkpt lat="45.92961787517698" lon="12.073181535990157"><ele>388.8333333333333</ele><time>2026-05-04T07:38:35Z</time></trkpt><trkpt lat="45.929649495586425" lon="12.073094597783635"><ele>387.0</ele><time>2026-05-04T07:38:41Z</time></trkpt><trkpt lat="45.92969321752345" lon="12.073019025275222"><ele>386.8333333333333</ele><time>2026-05-04T07:38:45Z</time></trkpt><trkpt lat="45.92977230723729" lon="12.072927313053643"><ele>386.66666666666663</ele><time>2026-05-04T07:38:48Z</time></trkpt><trkpt lat="45.92983438993424" lon="12.072848814619165"><ele>386.5</ele><time>2026-05-04T07:38:50Z</time></trkpt><trkpt lat="45.92986703717891" lon="12.072753750424395"><ele>386.3333333333333</ele><time>2026-05-04T07:38:53Z</time></trkpt><trkpt lat="45.92991292059195" lon="12.072665442084185"><ele>386.16666666666663</ele><time>2026-05-04T07:38:57Z</time></trkpt><trkpt lat="45.9299482071975" lon="12.072579094616327"><ele>386.0</ele><time>2026-05-04T07:38:59Z</time></trkpt><trkpt lat="45.92998342377571" lon="12.072479646315434"><ele>386.8333333333333</ele><time>2026-05-04T07:39:01Z</time></trkpt><trkpt lat="45.930012311786406" lon="12.07238865862462"><ele>387.66666666666663</ele><time>2026-05-04T07:39:03Z</time></trkpt><trkpt lat="45.93006214441053" lon="12.072296455038204"><ele>388.5</ele><time>2026-05-04T07:39:06Z</time></trkpt><trkpt lat="45.93012499903095" lon="12.072235389516774"><ele>389.33333333333337</ele><time>2026-05-04T07:39:10Z</time></trkpt><trkpt lat="45.93020730235507" lon="12.072164428942191"><ele>390.1666666666667</ele><time>2026-05-04T07:39:13Z</time></trkpt><trkpt lat="45.93026768657699" lon="12.072085455643082"><ele>391.0</ele><time>2026-05-04T07:39:15Z</time></trkpt><trkpt lat="45.93031528006708" lon="12.071976486902743"><ele>390.4285714285714</ele><time>2026-05-04T07:39:17Z</time></trkpt><trkpt lat="45.93032237962083" lon="12.071859806878933"><ele>389.85714285714283</ele><time>2026-05-04T07:39:19Z</time></trkpt><trkpt lat="45.93032619019837" lon="12.071762026666931"><ele>389.2857142857143</ele><time>2026-05-04T07:39:21Z</time></trkpt><trkpt lat="45.93032612220011" lon="12.07166068453332"><ele>388.71428571428567</ele><time>2026-05-04T07:40:18Z</time></trkpt><trkpt lat="45.930330565059194" lon="12.071552452706044"><ele>388.14285714285717</ele><time>2026-05-04T07:40:25Z</time></trkpt><trkpt lat="45.93033292297098" lon="12.07145064587903"><ele>387.57142857142856</ele><time>2026-05-04T07:40:29Z</time></trkpt><trkpt lat="45.93038580468977" lon="12.071397217463211"><ele>387.0</ele><time>2026-05-04T07:40:32Z</time></trkpt><trkpt lat="45.93047002965441" lon="12.071311089046002"><ele>387.0</ele><time>2026-05-04T07:40:34Z</time></trkpt><trkpt lat="45.93054868987275" lon="12.071190196137618"><ele>387.0</ele><time>2026-05-04T07:40:36Z</time></trkpt><trkpt lat="45.93061625656818" lon="12.07104122261553"><ele>387.0</ele><time>2026-05-04T07:40:38Z</time></trkpt><trkpt lat="45.930649902633334" lon="12.07096278413461"><ele>387.0</ele><time>2026-05-04T07:40:39Z</time></trkpt><trkpt lat="45.93068516378623" lon="12.070881552897239"><ele>387.0</ele><time>2026-05-04T07:40:40Z</time></trkpt><trkpt lat="45.93072166009232" lon="12.070797839869858"><ele>387.0</ele><time>2026-05-04T07:40:41Z</time></trkpt><trkpt lat="45.93076006605867" lon="12.070712684931472"><ele>388.8333333333333</ele><time>2026-05-04T07:40:42Z</time></trkpt><trkpt lat="45.930800965924455" lon="12.070634161006659"><ele>390.66666666666663</ele><time>2026-05-04T07:40:43Z</time></trkpt><trkpt lat="45.93085023842593" lon="12.070576756633931"><ele>392.5</ele><time>2026-05-04T07:40:44Z</time></trkpt><trkpt lat="45.930984228448374" lon="12.07059879898102"><ele>394.3333333333333</ele><time>2026-05-04T07:40:46Z</time></trkpt><trkpt lat="45.931017940646086" lon="12.070684450205638"><ele>396.16666666666663</ele><time>2026-05-04T07:40:47Z</time></trkpt><trkpt lat="45.93102251953963" lon="12.070781703847507"><ele>398.0</ele><time>2026-05-04T07:40:48Z</time></trkpt><trkpt lat="45.93100999037985" lon="12.07088599356246"><ele>397.99999999999994</ele><time>2026-05-04T07:40:49Z</time></trkpt><trkpt lat="45.9310060891424" lon="12.0709957632647"><ele>398.0</ele><time>2026-05-04T07:40:50Z</time></trkpt><trkpt lat="45.93099853607785" lon="12.07111356284242"><ele>398.0</ele><time>2026-05-04T07:40:51Z</time></trkpt><trkpt lat="45.93098966772514" lon="12.071239585719471"><ele>398.0</ele><time>2026-05-04T07:40:52Z</time></trkpt><trkpt lat="45.93098011158299" lon="12.07137037017554"><ele>397.99999999999994</ele><time>2026-05-04T07:40:53Z</time></trkpt><trkpt lat="45.93096947104236" lon="12.071504021847673"><ele>398.0</ele><time>2026-05-04T07:40:54Z</time></trkpt><trkpt lat="45.93095865850346" lon="12.07164102852539"><ele>396.0</ele><time>2026-05-04T07:40:55Z</time></trkpt><trkpt lat="45.93095215494136" lon="12.071781603676008"><ele>394.0</ele><time>2026-05-04T07:40:56Z</time></trkpt><trkpt lat="45.9309592916337" lon="12.071918507331416"><ele>392.0</ele><time>2026-05-04T07:40:57Z</time></trkpt><trkpt lat="45.93098536110409" lon="12.072043838218542"><ele>390.0</ele><time>2026-05-04T07:40:58Z</time></trkpt><trkpt lat="45.931028756055916" lon="12.072153526541644"><ele>388.0</ele><time>2026-05-04T07:40:59Z</time></trkpt><trkpt lat="45.931087187930906" lon="12.072246365126537"><ele>388.0</ele><time>2026-05-04T07:41:00Z</time></trkpt><trkpt lat="45.93115878844183" lon="12.072326837006981"><ele>388.0</ele><time>2026-05-04T07:41:01Z</time></trkpt><trkpt lat="45.93123669828057" lon="12.072404247205741"><ele>388.0</ele><time>2026-05-04T07:41:02Z</time></trkpt><trkpt lat="45.931315599080015" lon="12.072488849864866"><ele>388.0</ele><time>2026-05-04T07:41:03Z</time></trkpt><trkpt lat="45.93138722856868" lon="12.072588292702239"><ele>388.0</ele><time>2026-05-04T07:41:04Z</time></trkpt><trkpt lat="45.931446611198936" lon="12.072706252467764"><ele>386.4</ele><time>2026-05-04T07:41:05Z</time></trkpt><trkpt lat="45.93149301193581" lon="12.072837404249954"><ele>384.79999999999995</ele><time>2026-05-04T07:41:06Z</time></trkpt><trkpt lat="45.931525495089154" lon="12.072978329737115"><ele>383.2</ele><time>2026-05-04T07:41:07Z</time></trkpt><trkpt lat="45.93154733433939" lon="12.073121315338744"><ele>381.6</ele><time>2026-05-04T07:41:08Z</time></trkpt><trkpt lat="45.93157517043017" lon="12.073258312127065"><ele>380.0</ele><time>2026-05-04T07:41:09Z</time></trkpt><trkpt lat="45.93160387590281" lon="12.073390703710801"><ele>378.4</ele><time>2026-05-04T07:41:10Z</time></trkpt><trkpt lat="45.93163976681071" lon="12.073516617129913"><ele>376.8</ele><time>2026-05-04T07:41:11Z</time></trkpt><trkpt lat="45.93168878872318" lon="12.073639121914468"><ele>375.20000000000005</ele><time>2026-05-04T07:41:12Z</time></trkpt><trkpt lat="45.93175769024353" lon="12.073749805669129"><ele>373.6</ele><time>2026-05-04T07:41:13Z</time></trkpt><trkpt lat="45.931840844715175" lon="12.073845938300448"><ele>372.0</ele><time>2026-05-04T07:41:14Z</time></trkpt><trkpt lat="45.93193092227679" lon="12.073936198803086"><ele>372.0</ele><time>2026-05-04T07:41:15Z</time></trkpt><trkpt lat="45.932019494665816" lon="12.07403796288026"><ele>372.0</ele><time>2026-05-04T07:41:16Z</time></trkpt><trkpt lat="45.932103705402035" lon="12.074156662920947"><ele>372.0</ele><time>2026-05-04T07:41:17Z</time></trkpt><trkpt lat="45.93218073121356" lon="12.074304984940062"><ele>372.0</ele><time>2026-05-04T07:41:18Z</time></trkpt><trkpt lat="45.93225562206116" lon="12.074464599468575"><ele>367.5</ele><time>2026-05-04T07:41:19Z</time></trkpt><trkpt lat="45.93233430589977" lon="12.07463032413124"><ele>363.0</ele><time>2026-05-04T07:41:20Z</time></trkpt><trkpt lat="45.93242586232343" lon="12.07479409757309"><ele>358.5</ele><time>2026-05-04T07:41:21Z</time></trkpt><trkpt lat="45.932533282276964" lon="12.074952982806336"><ele>354.0</ele><time>2026-05-04T07:41:22Z</time></trkpt><trkpt lat="45.93265960499261" lon="12.075095458751228"><ele>353.0</ele><time>2026-05-04T07:41:23Z</time></trkpt><trkpt lat="45.932789294748886" lon="12.075244051384471"><ele>352.0</ele><time>2026-05-04T07:41:24Z</time></trkpt><trkpt lat="45.93292311666132" lon="12.075398360757076"><ele>351.0</ele><time>2026-05-04T07:41:25Z</time></trkpt><trkpt lat="45.93306212619881" lon="12.075556513177949"><ele>351.0</ele><time>2026-05-04T07:41:26Z</time></trkpt><trkpt lat="45.93320454650453" lon="12.075718749489974"><ele>351.0</ele><time>2026-05-04T07:41:27Z</time></trkpt><trkpt lat="45.933349367908136" lon="12.075886181461064"><ele>351.0</ele><time>2026-05-04T07:41:28Z</time></trkpt><trkpt lat="45.93349861331117" lon="12.076057466848424"><ele>351.6666666666667</ele><time>2026-05-04T07:41:29Z</time></trkpt><trkpt lat="45.93364981352574" lon="12.07623170919121"><ele>352.33333333333337</ele><time>2026-05-04T07:41:30Z</time></trkpt><trkpt lat="45.93380204510345" lon="12.07640809744713"><ele>353.0</ele><time>2026-05-04T07:41:31Z</time></trkpt><trkpt lat="45.933956277190475" lon="12.076585140056288"><ele>355.6666666666667</ele><time>2026-05-04T07:41:32Z</time></trkpt><trkpt lat="45.934112597141294" lon="12.076762904359882"><ele>358.3333333333333</ele><time>2026-05-04T07:41:33Z</time></trkpt><trkpt lat="45.934268456381375" lon="12.076947474455638"><ele>361.0</ele><time>2026-05-04T07:41:34Z</time></trkpt><trkpt lat="45.934420177387054" lon="12.077144928581856"><ele>361.0</ele><time>2026-05-04T07:41:35Z</time></trkpt><trkpt lat="45.93456831801296" lon="12.077349343119819"><ele>361.0</ele><time>2026-05-04T07:41:36Z</time></trkpt><trkpt lat="45.93471666478422" lon="12.077557085271968"><ele>361.0</ele><time>2026-05-04T07:41:37Z</time></trkpt><trkpt lat="45.93486605350509" lon="12.077765480233028"><ele>360.66666666666663</ele><time>2026-05-04T07:41:38Z</time></trkpt><trkpt lat="45.935016352814294" lon="12.077974086648206"><ele>360.3333333333333</ele><time>2026-05-04T07:41:39Z</time></trkpt><trkpt lat="45.935170297836656" lon="12.07818221690052"><ele>360.0</ele><time>2026-05-04T07:41:40Z</time></trkpt><trkpt lat="45.935323358845444" lon="12.078392508894266"><ele>349.3333333333333</ele><time>2026-05-04T07:41:41Z</time></trkpt><trkpt lat="45.93547842898452" lon="12.078602587298537"><ele>338.66666666666663</ele><time>2026-05-04T07:41:42Z</time></trkpt><trkpt lat="45.93563492035399" lon="12.078813604307038"><ele>328.0</ele><time>2026-05-04T07:41:43Z</time></trkpt><trkpt lat="45.93579175885747" lon="12.079027664971013"><ele>328.3333333333333</ele><time>2026-05-04T07:41:44Z</time></trkpt><trkpt lat="45.93594653570232" lon="12.07924728030193"><ele>328.6666666666667</ele><time>2026-05-04T07:41:45Z</time></trkpt><trkpt lat="45.93609318067034" lon="12.079477958988463"><ele>329.0</ele><time>2026-05-04T07:41:46Z</time></trkpt><trkpt lat="45.93622848987611" lon="12.079722242579457"><ele>323.0</ele><time>2026-05-04T07:41:47Z</time></trkpt><trkpt lat="45.93634975218907" lon="12.079966777729444"><ele>317.0</ele><time>2026-05-04T07:41:48Z</time></trkpt><trkpt lat="45.93645880468267" lon="12.08019786889815"><ele>311.0</ele><time>2026-05-04T07:41:49Z</time></trkpt><trkpt lat="45.93655394315966" lon="12.080418516064816"><ele>311.0</ele><time>2026-05-04T07:41:50Z</time></trkpt><trkpt lat="45.93662799855098" lon="12.080640668407318"><ele>311.0</ele><time>2026-05-04T07:41:51Z</time></trkpt><trkpt lat="45.93667935527905" lon="12.080858904129947"><ele>311.0</ele><time>2026-05-04T07:41:52Z</time></trkpt><trkpt lat="45.93670388414714" lon="12.081070799800147"><ele>307.5</ele><time>2026-05-04T07:41:53Z</time></trkpt><trkpt lat="45.9367113924423" lon="12.08126991432336"><ele>304.0</ele><time>2026-05-04T07:41:54Z</time></trkpt><trkpt lat="45.93671094543544" lon="12.08147426834132"><ele>300.5</ele><time>2026-05-04T07:41:55Z</time></trkpt><trkpt lat="45.936711366142696" lon="12.08167789001114"><ele>297.0</ele><time>2026-05-04T07:41:56Z</time></trkpt><trkpt lat="45.93671562334384" lon="12.081878272083232"><ele>296.75</ele><time>2026-05-04T07:41:57Z</time></trkpt><trkpt lat="45.93673279684658" lon="12.082068836368295"><ele>296.5</ele><time>2026-05-04T07:41:58Z</time></trkpt><trkpt lat="45.93676152646261" lon="12.082256487145498"><ele>296.25</ele><time>2026-05-04T07:41:59Z</time></trkpt><trkpt lat="45.936802619045956" lon="12.082440972495226"><ele>296.0</ele><time>2026-05-04T07:42:00Z</time></trkpt><trkpt lat="45.93685527662724" lon="12.08262330350854"><ele>296.0</ele><time>2026-05-04T07:42:01Z</time></trkpt><trkpt lat="45.936926426943714" lon="12.082794824719809"><ele>296.0</ele><time>2026-05-04T07:42:02Z</time></trkpt><trkpt lat="45.9370102398449" lon="12.082956120140683"><ele>296.0</ele><time>2026-05-04T07:42:03Z</time></trkpt><trkpt lat="45.93709931355071" lon="12.083107624672547"><ele>296.0</ele><time>2026-05-04T07:42:04Z</time></trkpt><trkpt lat="45.93719040515042" lon="12.083263004821594"><ele>294.5</ele><time>2026-05-04T07:42:05Z</time></trkpt><trkpt lat="45.93727685305319" lon="12.083414386392107"><ele>293.0</ele><time>2026-05-04T07:42:06Z</time></trkpt><trkpt lat="45.9373531056775" lon="12.083557817791268"><ele>291.5</ele><time>2026-05-04T07:42:07Z</time></trkpt><trkpt lat="45.93742004586853" lon="12.083689239208404"><ele>290.0</ele><time>2026-05-04T07:42:08Z</time></trkpt><trkpt lat="45.937477109751406" lon="12.083807751731188"><ele>290.0</ele><time>2026-05-04T07:42:09Z</time></trkpt><trkpt lat="45.93751149857119" lon="12.083901039178974"><ele>290.0</ele><time>2026-05-04T07:42:10Z</time></trkpt><trkpt lat="45.93754975644657" lon="12.083991061797938"><ele>290.0</ele><time>2026-05-04T07:42:36Z</time></trkpt><trkpt lat="45.937582678602155" lon="12.084088562948265"><ele>290.0</ele><time>2026-05-04T07:42:38Z</time></trkpt><trkpt lat="45.93762073681766" lon="12.084180319948867"><ele>290.0</ele><time>2026-05-04T07:42:54Z</time></trkpt><trkpt lat="45.937662510212135" lon="12.084256641270951"><ele>290.0</ele><time>2026-05-04T07:43:11Z</time></trkpt><trkpt lat="45.93771091995497" lon="12.08435414852028"><ele>290.0</ele><time>2026-05-04T07:43:13Z</time></trkpt><trkpt lat="45.93777365122804" lon="12.084458891645015"><ele>288.8</ele><time>2026-05-04T07:43:15Z</time></trkpt><trkpt lat="45.93782376077556" lon="12.08451673330587"><ele>287.6</ele><time>2026-05-04T07:43:18.001Z</time></trkpt><trkpt lat="45.937896997115175" lon="12.084563682344415"><ele>286.4</ele><time>2026-05-04T07:43:34Z</time></trkpt><trkpt lat="45.93800377126291" lon="12.084612072691057"><ele>285.2</ele><time>2026-05-04T07:43:36Z</time></trkpt><trkpt lat="45.93812920815621" lon="12.084648487822852"><ele>284.0</ele><time>2026-05-04T07:43:38Z</time></trkpt><trkpt lat="45.9381952979892" lon="12.084670291810793"><ele>284.0</ele><time>2026-05-04T07:43:39Z</time></trkpt><trkpt lat="45.93825963134632" lon="12.084693849720178"><ele>284.0</ele><time>2026-05-04T07:43:40Z</time></trkpt><trkpt lat="45.938321397826876" lon="12.084716573063828"><ele>284.0</ele><time>2026-05-04T07:43:41Z</time></trkpt><trkpt lat="45.9383834010785" lon="12.08473946619383"><ele>284.0</ele><time>2026-05-04T07:43:42Z</time></trkpt><trkpt lat="45.93844497970023" lon="12.084772233654798"><ele>284.0</ele><time>2026-05-04T07:43:43Z</time></trkpt><trkpt lat="45.93850184804577" lon="12.084821389818645"><ele>284.0</ele><time>2026-05-04T07:43:44Z</time></trkpt><trkpt lat="45.93855056900736" lon="12.084881542156165"><ele>284.0</ele><time>2026-05-04T07:43:45Z</time></trkpt><trkpt lat="45.938634569101495" lon="12.085007381108575"><ele>282.83333333333337</ele><time>2026-05-04T07:43:47Z</time></trkpt><trkpt lat="45.93870851522712" lon="12.08512612797777"><ele>281.6666666666667</ele><time>2026-05-04T07:43:49Z</time></trkpt><trkpt lat="45.938768401289096" lon="12.085215531838784"><ele>280.5</ele><time>2026-05-04T07:43:51Z</time></trkpt><trkpt lat="45.93874311770483" lon="12.085300681227146"><ele>279.3333333333333</ele><time>2026-05-04T07:43:58Z</time></trkpt><trkpt lat="45.9386695886936" lon="12.085337185416007"><ele>278.16666666666663</ele><time>2026-05-04T07:44:12Z</time></trkpt><trkpt lat="45.93859855030097" lon="12.085434384018422"><ele>277.0</ele><time>2026-05-04T07:44:14Z</time></trkpt><trkpt lat="45.938529479078994" lon="12.085558701658824"><ele>277.0</ele><time>2026-05-04T07:44:16Z</time></trkpt><trkpt lat="45.9384612890265" lon="12.08569795933735"><ele>277.0</ele><time>2026-05-04T07:44:18Z</time></trkpt><trkpt lat="45.93837725838006" lon="12.085818066204995"><ele>277.0</ele><time>2026-05-04T07:44:20Z</time></trkpt><trkpt lat="45.93833155105222" lon="12.085895784440584"><ele>277.0</ele><time>2026-05-04T07:44:36Z</time></trkpt><trkpt lat="45.93827523069679" lon="12.086012098024678"><ele>277.0</ele><time>2026-05-04T07:44:38Z</time></trkpt><trkpt lat="45.93821994688191" lon="12.086164854325789"><ele>276.0</ele><time>2026-05-04T07:44:40Z</time></trkpt><trkpt lat="45.93818629231144" lon="12.086287886303925"><ele>275.0</ele><time>2026-05-04T07:44:42Z</time></trkpt><trkpt lat="45.93821852081382" lon="12.086390280523535"><ele>274.0</ele><time>2026-05-04T07:44:44Z</time></trkpt><trkpt lat="45.93827941235489" lon="12.086430934664891"><ele>273.0</ele><time>2026-05-04T07:44:45Z</time></trkpt><trkpt lat="45.938389468263644" lon="12.086486005909682"><ele>272.0</ele><time>2026-05-04T07:44:47Z</time></trkpt><trkpt lat="45.938460835290925" lon="12.086531062062491"><ele>271.0</ele><time>2026-05-04T07:44:49Z</time></trkpt><trkpt lat="45.93854098509022" lon="12.086578063421001"><ele>269.6</ele><time>2026-05-04T07:45:04Z</time></trkpt><trkpt lat="45.93864694235567" lon="12.086649912960938"><ele>268.20000000000005</ele><time>2026-05-04T07:45:06Z</time></trkpt><trkpt lat="45.938746745567364" lon="12.086728537118637"><ele>266.79999999999995</ele><time>2026-05-04T07:45:08Z</time></trkpt><trkpt lat="45.938846411463516" lon="12.086808961974794"><ele>265.4</ele><time>2026-05-04T07:45:10Z</time></trkpt><trkpt lat="45.93893145063345" lon="12.086886392032833"><ele>264.0</ele><time>2026-05-04T07:45:12Z</time></trkpt><trkpt lat="45.93901399499367" lon="12.086951202175277"><ele>264.0</ele><time>2026-05-04T07:45:14Z</time></trkpt><trkpt lat="45.939084592115606" lon="12.08700845045672"><ele>264.0</ele><time>2026-05-04T07:45:16.001Z</time></trkpt><trkpt lat="45.93902301508217" lon="12.086965513769359"><ele>264.0</ele><time>2026-05-04T07:45:34Z</time></trkpt><trkpt lat="45.938954497889185" lon="12.086902316274143"><ele>264.0</ele><time>2026-05-04T07:45:37Z</time></trkpt><trkpt lat="45.93887950465137" lon="12.086845472264784"><ele>264.0</ele><time>2026-05-04T07:45:47Z</time></trkpt><trkpt lat="45.93881822342353" lon="12.086798204617653"><ele>264.0</ele><time>2026-05-04T07:45:49Z</time></trkpt><trkpt lat="45.938739907343745" lon="12.086737797517229"><ele>264.0</ele><time>2026-05-04T07:45:51Z</time></trkpt><trkpt lat="45.93861299092963" lon="12.086645559062463"><ele>264.0</ele><time>2026-05-04T07:45:53Z</time></trkpt><trkpt lat="45.938525884030405" lon="12.086549334292785"><ele>264.0</ele><time>2026-05-04T07:45:54Z</time></trkpt><trkpt lat="45.93845185869046" lon="12.086505552472756"><ele>264.0</ele><time>2026-05-04T07:45:55Z</time></trkpt><trkpt lat="45.93837347393166" lon="12.086461372140406"><ele>264.0</ele><time>2026-05-04T07:45:56Z</time></trkpt><trkpt lat="45.93829659682352" lon="12.086417631368619"><ele>265.1666666666667</ele><time>2026-05-04T07:45:57Z</time></trkpt><trkpt lat="45.938233403744405" lon="12.086384423040661"><ele>266.3333333333333</ele><time>2026-05-04T07:45:58Z</time></trkpt><trkpt lat="45.93820207812735" lon="12.086270378786793"><ele>267.5</ele><time>2026-05-04T07:46:00Z</time></trkpt><trkpt lat="45.938251589384244" lon="12.08613436599159"><ele>268.66666666666663</ele><time>2026-05-04T07:46:02Z</time></trkpt><trkpt lat="45.93827931364784" lon="12.08604329662845"><ele>269.8333333333333</ele><time>2026-05-04T07:46:03Z</time></trkpt><trkpt lat="45.93831975300197" lon="12.085953228480928"><ele>271.0</ele><time>2026-05-04T07:46:04Z</time></trkpt><trkpt lat="45.938372653305294" lon="12.085860346736176"><ele>271.0</ele><time>2026-05-04T07:46:05Z</time></trkpt><trkpt lat="45.93842177508691" lon="12.085777547299783"><ele>271.0</ele><time>2026-05-04T07:46:06Z</time></trkpt><trkpt lat="45.93846998210033" lon="12.085701416904907"><ele>271.0</ele><time>2026-05-04T07:46:07Z</time></trkpt><trkpt lat="45.93851362144089" lon="12.085629917907385"><ele>271.0</ele><time>2026-05-04T07:46:08Z</time></trkpt><trkpt lat="45.9385944865007" lon="12.08550497802087"><ele>271.0</ele><time>2026-05-04T07:46:10Z</time></trkpt><trkpt lat="45.93864777868637" lon="12.085411758533573"><ele>271.0</ele><time>2026-05-04T07:46:12Z</time></trkpt><trkpt lat="45.93871981258971" lon="12.085317106919055"><ele>272.2</ele><time>2026-05-04T07:46:30Z</time></trkpt><trkpt lat="45.93878950860619" lon="12.085276250739472"><ele>273.40000000000003</ele><time>2026-05-04T07:46:33Z</time></trkpt><trkpt lat="45.93887181096477" lon="12.085316468803795"><ele>274.6</ele><time>2026-05-04T07:46:37Z</time></trkpt><trkpt lat="45.938957326727994" lon="12.085426677271641"><ele>275.8</ele><time>2026-05-04T07:46:39Z</time></trkpt><trkpt lat="45.9390427931836" lon="12.085475633872617"><ele>277.0</ele><time>2026-05-04T07:47:07.001Z</time></trkpt><trkpt lat="45.93911501275524" lon="12.08554149043999"><ele>277.0</ele><time>2026-05-04T07:47:09.001Z</time></trkpt><trkpt lat="45.939189356795374" lon="12.08561328406103"><ele>277.0</ele><time>2026-05-04T07:47:31.001Z</time></trkpt><trkpt lat="45.93929196939961" lon="12.085703179067655"><ele>277.0</ele><time>2026-05-04T07:47:33.001Z</time></trkpt><trkpt lat="45.939353338000046" lon="12.085757758689935"><ele>277.0</ele><time>2026-05-04T07:47:34.001Z</time></trkpt><trkpt lat="45.93940978344085" lon="12.085809509739088"><ele>277.0</ele><time>2026-05-04T07:47:35Z</time></trkpt><trkpt lat="45.939476355757996" lon="12.08587079086387"><ele>277.0</ele><time>2026-05-04T07:47:37Z</time></trkpt><trkpt lat="45.93956326144274" lon="12.08594811891348"><ele>275.4</ele><time>2026-05-04T07:47:52Z</time></trkpt><trkpt lat="45.93963633745677" lon="12.086011464233431"><ele>273.79999999999995</ele><time>2026-05-04T07:47:54Z</time></trkpt><trkpt lat="45.939697886895274" lon="12.086075912295165"><ele>272.2</ele><time>2026-05-04T07:48:28Z</time></trkpt><trkpt lat="45.9398078757603" lon="12.086173201685089"><ele>270.59999999999997</ele><time>2026-05-04T07:48:30Z</time></trkpt><trkpt lat="45.93987542508595" lon="12.0862347198106"><ele>269.0</ele><time>2026-05-04T07:48:31Z</time></trkpt><trkpt lat="45.93994647434238" lon="12.086304714604692"><ele>269.0</ele><time>2026-05-04T07:48:32Z</time></trkpt><trkpt lat="45.94001894845167" lon="12.08638574882414"><ele>269.0</ele><time>2026-05-04T07:48:33Z</time></trkpt><trkpt lat="45.94008833659609" lon="12.086480431817924"><ele>269.0</ele><time>2026-05-04T07:48:34Z</time></trkpt><trkpt lat="45.94015551852335" lon="12.086585047176595"><ele>269.0</ele><time>2026-05-04T07:48:35Z</time></trkpt><trkpt lat="45.940212800934475" lon="12.08670307978307"><ele>269.0</ele><time>2026-05-04T07:48:36Z</time></trkpt><trkpt lat="45.94026657189403" lon="12.08683017762293"><ele>268.8</ele><time>2026-05-04T07:48:37Z</time></trkpt><trkpt lat="45.94033067306253" lon="12.086946211398415"><ele>268.59999999999997</ele><time>2026-05-04T07:48:38Z</time></trkpt><trkpt lat="45.94037875793587" lon="12.087071250809386"><ele>268.4</ele><time>2026-05-04T07:48:39Z</time></trkpt><trkpt lat="45.94042755957683" lon="12.087193675610193"><ele>268.2</ele><time>2026-05-04T07:48:40Z</time></trkpt><trkpt lat="45.940476394302365" lon="12.087316211896447"><ele>268.0</ele><time>2026-05-04T07:48:41Z</time></trkpt><trkpt lat="45.94052516022245" lon="12.087439932169003"><ele>267.4</ele><time>2026-05-04T07:48:42Z</time></trkpt><trkpt lat="45.94057525306514" lon="12.08756474150176"><ele>266.8</ele><time>2026-05-04T07:48:43Z</time></trkpt><trkpt lat="45.9406229328702" lon="12.087688653292371"><ele>266.2</ele><time>2026-05-04T07:48:44Z</time></trkpt><trkpt lat="45.940672180507505" lon="12.087808817060655"><ele>265.6</ele><time>2026-05-04T07:48:45Z</time></trkpt><trkpt lat="45.94072083246865" lon="12.087926281378298"><ele>265.0</ele><time>2026-05-04T07:48:46Z</time></trkpt><trkpt lat="45.9407694437418" lon="12.088042675882999"><ele>265.0</ele><time>2026-05-04T07:48:47Z</time></trkpt><trkpt lat="45.94082175358944" lon="12.088161542814683"><ele>265.0</ele><time>2026-05-04T07:48:48Z</time></trkpt><trkpt lat="45.94088079842525" lon="12.088274357594479"><ele>265.0</ele><time>2026-05-04T07:48:49Z</time></trkpt><trkpt lat="45.94094119313951" lon="12.08838111294949"><ele>265.0</ele><time>2026-05-04T07:48:50Z</time></trkpt><trkpt lat="45.940996983424405" lon="12.088480161852623"><ele>265.0</ele><time>2026-05-04T07:48:51Z</time></trkpt><trkpt lat="45.941053548547195" lon="12.088578335599529"><ele>265.16666666666663</ele><time>2026-05-04T07:48:52Z</time></trkpt><trkpt lat="45.94110947426741" lon="12.08867391040626"><ele>265.3333333333333</ele><time>2026-05-04T07:48:53Z</time></trkpt><trkpt lat="45.941168388882076" lon="12.08876399892941"><ele>265.5</ele><time>2026-05-04T07:48:54Z</time></trkpt><trkpt lat="45.941230711805744" lon="12.088850537123452"><ele>265.6666666666667</ele><time>2026-05-04T07:48:55Z</time></trkpt><trkpt lat="45.941296437863095" lon="12.088939471369729"><ele>265.83333333333337</ele><time>2026-05-04T07:48:56Z</time></trkpt><trkpt lat="45.94136305966888" lon="12.089031010247869"><ele>266.0</ele><time>2026-05-04T07:48:57Z</time></trkpt><trkpt lat="45.9414302192357" lon="12.089124190640424"><ele>266.0</ele><time>2026-05-04T07:48:58Z</time></trkpt><trkpt lat="45.94149188973631" lon="12.08922330421301"><ele>266.0</ele><time>2026-05-04T07:48:59Z</time></trkpt><trkpt lat="45.94155050943222" lon="12.089328850847963"><ele>266.0</ele><time>2026-05-04T07:49:00Z</time></trkpt><trkpt lat="45.94161220288627" lon="12.089436145075304"><ele>266.0</ele><time>2026-05-04T07:49:01.001Z</time></trkpt><trkpt lat="45.94166948047927" lon="12.089544042904237"><ele>266.0</ele><time>2026-05-04T07:49:02.001Z</time></trkpt><trkpt lat="45.94172313298437" lon="12.08964947560172"><ele>266.0</ele><time>2026-05-04T07:49:03.001Z</time></trkpt><trkpt lat="45.94177112221974" lon="12.08974329236961"><ele>266.0</ele><time>2026-05-04T07:49:04.001Z</time></trkpt><trkpt lat="45.9418103539749" lon="12.089887890667589"><ele>266.0</ele><time>2026-05-04T07:49:06.001Z</time></trkpt><trkpt lat="45.941745246768285" lon="12.089996788025337"><ele>266.0</ele><time>2026-05-04T07:49:08.001Z</time></trkpt><trkpt lat="45.94170122310419" lon="12.090084401527616"><ele>266.0</ele><time>2026-05-04T07:49:09.001Z</time></trkpt><trkpt lat="45.94163607860906" lon="12.090173351636956"><ele>264.75</ele><time>2026-05-04T07:49:10.001Z</time></trkpt><trkpt lat="45.94156199903996" lon="12.090278710134745"><ele>263.5</ele><time>2026-05-04T07:49:11.001Z</time></trkpt><trkpt lat="45.94148156712087" lon="12.090395724129754"><ele>262.25</ele><time>2026-05-04T07:49:12.001Z</time></trkpt><trkpt lat="45.94139829771008" lon="12.090517554536405"><ele>261.0</ele><time>2026-05-04T07:49:13.001Z</time></trkpt><trkpt lat="45.941312980181216" lon="12.090641585730898"><ele>259.5</ele><time>2026-05-04T07:49:14.001Z</time></trkpt><trkpt lat="45.94122686999441" lon="12.090768378570134"><ele>258.0</ele><time>2026-05-04T07:49:15.001Z</time></trkpt><trkpt lat="45.94113804479966" lon="12.09089772751054"><ele>256.5</ele><time>2026-05-04T07:49:16.001Z</time></trkpt><trkpt lat="45.94104717925808" lon="12.091025375725257"><ele>255.0</ele><time>2026-05-04T07:49:17.001Z</time></trkpt><trkpt lat="45.9409512197127" lon="12.091147160965008"><ele>254.0</ele><time>2026-05-04T07:49:18.001Z</time></trkpt><trkpt lat="45.940843100758585" lon="12.091265701512267"><ele>253.0</ele><time>2026-05-04T07:49:19.001Z</time></trkpt><trkpt lat="45.94072580903261" lon="12.09138517702813"><ele>252.0</ele><time>2026-05-04T07:49:20.001Z</time></trkpt><trkpt lat="45.94060497377914" lon="12.091506787485182"><ele>251.0</ele><time>2026-05-04T07:49:21.001Z</time></trkpt><trkpt lat="45.940483060029706" lon="12.091619092549063"><ele>250.75</ele><time>2026-05-04T07:49:22.001Z</time></trkpt><trkpt lat="45.94036875107774" lon="12.091726792358362"><ele>250.5</ele><time>2026-05-04T07:49:23.001Z</time></trkpt><trkpt lat="45.94025537456085" lon="12.091836808209843"><ele>250.25</ele><time>2026-05-04T07:49:24.001Z</time></trkpt><trkpt lat="45.940139650332675" lon="12.091942865625153"><ele>250.0</ele><time>2026-05-04T07:49:25.001Z</time></trkpt><trkpt lat="45.940019795678744" lon="12.092045172525875"><ele>248.75</ele><time>2026-05-04T07:49:26.001Z</time></trkpt><trkpt lat="45.939899247462904" lon="12.092154599368584"><ele>247.5</ele><time>2026-05-04T07:49:27.001Z</time></trkpt><trkpt lat="45.939776789013955" lon="12.092268323972924"><ele>246.25</ele><time>2026-05-04T07:49:28.001Z</time></trkpt><trkpt lat="45.93965418075779" lon="12.09238501706029"><ele>245.0</ele><time>2026-05-04T07:49:29.001Z</time></trkpt><trkpt lat="45.939527840933955" lon="12.092500920507554"><ele>245.0</ele><time>2026-05-04T07:49:30.001Z</time></trkpt><trkpt lat="45.93940127404886" lon="12.09261769659692"><ele>245.0</ele><time>2026-05-04T07:49:31.001Z</time></trkpt><trkpt lat="45.93927615851968" lon="12.092733822606407"><ele>245.0</ele><time>2026-05-04T07:49:32.001Z</time></trkpt><trkpt lat="45.93915107539031" lon="12.092850969561288"><ele>245.0</ele><time>2026-05-04T07:49:33.001Z</time></trkpt><trkpt lat="45.939028092092975" lon="12.092969387175915"><ele>244.33333333333334</ele><time>2026-05-04T07:49:34.001Z</time></trkpt><trkpt lat="45.938906598778665" lon="12.093094111525414"><ele>243.66666666666669</ele><time>2026-05-04T07:49:35.001Z</time></trkpt><trkpt lat="45.93878427530264" lon="12.093226555038822"><ele>243.0</ele><time>2026-05-04T07:49:36.001Z</time></trkpt><trkpt lat="45.93866242458417" lon="12.093362733177846"><ele>242.0</ele><time>2026-05-04T07:49:37.001Z</time></trkpt><trkpt lat="45.93853860185583" lon="12.093505959398062"><ele>241.0</ele><time>2026-05-04T07:49:38.001Z</time></trkpt><trkpt lat="45.93841538143103" lon="12.093655685277376"><ele>240.0</ele><time>2026-05-04T07:49:39.001Z</time></trkpt><trkpt lat="45.93829678185494" lon="12.093818023616143"><ele>238.66666666666669</ele><time>2026-05-04T07:49:40.001Z</time></trkpt><trkpt lat="45.938185238464705" lon="12.09399315289599"><ele>237.33333333333334</ele><time>2026-05-04T07:49:41Z</time></trkpt><trkpt lat="45.9380743026523" lon="12.094179959745798"><ele>236.0</ele><time>2026-05-04T07:49:42Z</time></trkpt><trkpt lat="45.93796398839091" lon="12.094372821103402"><ele>235.33333333333334</ele><time>2026-05-04T07:49:43Z</time></trkpt><trkpt lat="45.937854909483264" lon="12.09457143933004"><ele>234.66666666666669</ele><time>2026-05-04T07:49:44Z</time></trkpt><trkpt lat="45.93774572058997" lon="12.0947730700443"><ele>234.0</ele><time>2026-05-04T07:49:45Z</time></trkpt><trkpt lat="45.937639374822695" lon="12.094981489739535"><ele>235.66666666666669</ele><time>2026-05-04T07:49:46Z</time></trkpt><trkpt lat="45.93754292244997" lon="12.09519744738553"><ele>237.33333333333334</ele><time>2026-05-04T07:49:47Z</time></trkpt><trkpt lat="45.93745770140024" lon="12.095422574491428"><ele>239.0</ele><time>2026-05-04T07:49:48Z</time></trkpt><trkpt lat="45.93738117415583" lon="12.095652459728205"><ele>237.66666666666669</ele><time>2026-05-04T07:49:49Z</time></trkpt><trkpt lat="45.93730612966056" lon="12.095882742412122"><ele>236.33333333333331</ele><time>2026-05-04T07:49:50Z</time></trkpt><trkpt lat="45.93722627424927" lon="12.096107916856477"><ele>235.0</ele><time>2026-05-04T07:49:51Z</time></trkpt><trkpt lat="45.93712991890195" lon="12.096316230177816"><ele>235.0</ele><time>2026-05-04T07:49:52Z</time></trkpt><trkpt lat="45.93701406442344" lon="12.096502954376028"><ele>235.0</ele><time>2026-05-04T07:49:53Z</time></trkpt><trkpt lat="45.93686626600058" lon="12.096664163142673"><ele>235.0</ele><time>2026-05-04T07:49:54Z</time></trkpt><trkpt lat="45.93671994658632" lon="12.096788009092803"><ele>235.33333333333331</ele><time>2026-05-04T07:49:55Z</time></trkpt><trkpt lat="45.936559135306624" lon="12.096863186409418"><ele>235.66666666666669</ele><time>2026-05-04T07:49:56Z</time></trkpt><trkpt lat="45.93640093082577" lon="12.096925309338559"><ele>236.0</ele><time>2026-05-04T07:49:57Z</time></trkpt><trkpt lat="45.93626155750085" lon="12.097002331404779"><ele>236.00000000000003</ele><time>2026-05-04T07:49:58Z</time></trkpt><trkpt lat="45.936165546722414" lon="12.097077178251443"><ele>236.0</ele><time>2026-05-04T07:49:59Z</time></trkpt><trkpt lat="45.93609841908974" lon="12.097128418561782"><ele>236.0</ele><time>2026-05-04T07:50:00Z</time></trkpt><trkpt lat="45.9360399075091" lon="12.097163446266462"><ele>236.0</ele><time>2026-05-04T07:50:01Z</time></trkpt><trkpt lat="45.935952791011324" lon="12.097184448981189"><ele>236.00000000000003</ele><time>2026-05-04T07:50:03Z</time></trkpt><trkpt lat="45.9358818934944" lon="12.09709999391277"><ele>236.0</ele><time>2026-05-04T07:50:04Z</time></trkpt><trkpt lat="45.935776829250386" lon="12.097001083538272"><ele>236.16666666666669</ele><time>2026-05-04T07:50:06Z</time></trkpt><trkpt lat="45.935722331742056" lon="12.096953108630478"><ele>236.33333333333334</ele><time>2026-05-04T07:50:07Z</time></trkpt><trkpt lat="45.93564518586699" lon="12.096940202814714"><ele>236.5</ele><time>2026-05-04T07:50:09Z</time></trkpt><trkpt lat="45.935578841358684" lon="12.096929027795165"><ele>236.66666666666669</ele><time>2026-05-04T07:54:12Z</time></trkpt><trkpt lat="45.93567217194968" lon="12.096944559266074"><ele>236.83333333333334</ele><time>2026-05-04T07:54:21Z</time></trkpt><trkpt lat="45.93574849443195" lon="12.097012593447612"><ele>237.0</ele><time>2026-05-04T07:54:24Z</time></trkpt><trkpt lat="45.935835429716015" lon="12.09708827422716"><ele>236.8</ele><time>2026-05-04T07:54:26Z</time></trkpt><trkpt lat="45.935905328723805" lon="12.097150060255416"><ele>236.6</ele><time>2026-05-04T07:54:28Z</time></trkpt><trkpt lat="45.93595786159963" lon="12.097252552002406"><ele>236.40000000000003</ele><time>2026-05-04T07:54:41Z</time></trkpt><trkpt lat="45.935900064611985" lon="12.097394282083636"><ele>236.20000000000002</ele><time>2026-05-04T07:54:43Z</time></trkpt><trkpt lat="45.935825323355374" lon="12.097441764583346"><ele>236.0</ele><time>2026-05-04T07:54:44Z</time></trkpt><trkpt lat="45.935760364950056" lon="12.0975271842582"><ele>235.75</ele><time>2026-05-04T07:54:45Z</time></trkpt><trkpt lat="45.93568555519499" lon="12.09762555839807"><ele>235.5</ele><time>2026-05-04T07:54:46Z</time></trkpt><trkpt lat="45.93560228885143" lon="12.097735052915406"><ele>235.25</ele><time>2026-05-04T07:54:47Z</time></trkpt><trkpt lat="45.93552338727957" lon="12.097870810914136"><ele>235.0</ele><time>2026-05-04T07:54:48Z</time></trkpt><trkpt lat="45.9354271277404" lon="12.097993034753406"><ele>235.0</ele><time>2026-05-04T07:54:49Z</time></trkpt><trkpt lat="45.9353275689108" lon="12.09812268773032"><ele>235.0</ele><time>2026-05-04T07:54:50Z</time></trkpt><trkpt lat="45.935225851415886" lon="12.098251432018294"><ele>235.0</ele><time>2026-05-04T07:54:51Z</time></trkpt><trkpt lat="45.9351250720419" lon="12.098380340682926"><ele>235.0</ele><time>2026-05-04T07:54:52Z</time></trkpt><trkpt lat="45.93502655545594" lon="12.09850571782929"><ele>232.5</ele><time>2026-05-04T07:54:53Z</time></trkpt><trkpt lat="45.93493082474929" lon="12.098629534566387"><ele>230.0</ele><time>2026-05-04T07:54:54Z</time></trkpt><trkpt lat="45.934837661354166" lon="12.098751281885157"><ele>227.5</ele><time>2026-05-04T07:54:55Z</time></trkpt><trkpt lat="45.93474689286783" lon="12.098870895861209"><ele>225.0</ele><time>2026-05-04T07:54:56Z</time></trkpt><trkpt lat="45.93466084911732" lon="12.098995124301991"><ele>225.75</ele><time>2026-05-04T07:54:57Z</time></trkpt><trkpt lat="45.93458383175959" lon="12.099127766467934"><ele>226.5</ele><time>2026-05-04T07:54:58Z</time></trkpt><trkpt lat="45.93451785515608" lon="12.0992706337613"><ele>227.25</ele><time>2026-05-04T07:54:59Z</time></trkpt><trkpt lat="45.93445671948647" lon="12.0994197789641"><ele>228.0</ele><time>2026-05-04T07:55:00Z</time></trkpt><trkpt lat="45.934397326009886" lon="12.099571711496482"><ele>228.0</ele><time>2026-05-04T07:55:01Z</time></trkpt><trkpt lat="45.93433766134144" lon="12.099725255266668"><ele>228.0</ele><time>2026-05-04T07:55:02Z</time></trkpt><trkpt lat="45.934276903945374" lon="12.09988021247304"><ele>228.0</ele><time>2026-05-04T07:55:03Z</time></trkpt><trkpt lat="45.934217380712866" lon="12.100037914714516"><ele>228.0</ele><time>2026-05-04T07:55:04Z</time></trkpt><trkpt lat="45.93415735458089" lon="12.100198292666331"><ele>227.25</ele><time>2026-05-04T07:55:05Z</time></trkpt><trkpt lat="45.9340958277489" lon="12.100359127584417"><ele>226.5</ele><time>2026-05-04T07:55:06Z</time></trkpt><trkpt lat="45.934034294279144" lon="12.100520143277794"><ele>225.75</ele><time>2026-05-04T07:55:07Z</time></trkpt><trkpt lat="45.93397631286973" lon="12.100675190174574"><ele>225.0</ele><time>2026-05-04T07:55:08Z</time></trkpt><trkpt lat="45.93392349196458" lon="12.10081832730144"><ele>225.0</ele><time>2026-05-04T07:55:09Z</time></trkpt><trkpt lat="45.93387300740637" lon="12.100949872520562"><ele>225.0</ele><time>2026-05-04T07:55:10Z</time></trkpt><trkpt lat="45.933826088917925" lon="12.101076654262009"><ele>225.0</ele><time>2026-05-04T07:55:35.001Z</time></trkpt><trkpt lat="45.933767540475934" lon="12.101235249739828"><ele>225.0</ele><time>2026-05-04T07:55:37.001Z</time></trkpt><trkpt lat="45.93372952181424" lon="12.101335211361976"><ele>225.0</ele><time>2026-05-04T07:55:38.001Z</time></trkpt><trkpt lat="45.933691595148595" lon="12.101430587609139"><ele>225.0</ele><time>2026-05-04T07:55:39.001Z</time></trkpt><trkpt lat="45.93364660934152" lon="12.101534485537504"><ele>225.0</ele><time>2026-05-04T07:55:41.001Z</time></trkpt><trkpt lat="45.93360536690184" lon="12.101626974835206"><ele>225.0</ele><time>2026-05-04T07:55:58.001Z</time></trkpt><trkpt lat="45.93355536597908" lon="12.101733574939399"><ele>225.0</ele><time>2026-05-04T07:56:00Z</time></trkpt><trkpt lat="45.93351437692927" lon="12.101807703537576"><ele>225.0</ele><time>2026-05-04T07:56:01Z</time></trkpt><trkpt lat="45.93347233784576" lon="12.101881464372232"><ele>225.0</ele><time>2026-05-04T07:56:02Z</time></trkpt><trkpt lat="45.93339503825081" lon="12.102018176576749"><ele>222.83333333333334</ele><time>2026-05-04T07:56:04Z</time></trkpt><trkpt lat="45.933348187082736" lon="12.10208930413456"><ele>220.66666666666669</ele><time>2026-05-04T07:56:05Z</time></trkpt><trkpt lat="45.93329941914113" lon="12.102155948413387"><ele>218.5</ele><time>2026-05-04T07:56:06Z</time></trkpt><trkpt lat="45.93321841663811" lon="12.10225806054689"><ele>216.33333333333334</ele><time>2026-05-04T07:56:08Z</time></trkpt><trkpt lat="45.93316628936217" lon="12.10233126290866"><ele>214.16666666666669</ele><time>2026-05-04T07:56:24Z</time></trkpt><trkpt lat="45.933108658768695" lon="12.102403673263526"><ele>212.0</ele><time>2026-05-04T07:56:49Z</time></trkpt><trkpt lat="45.93304081822346" lon="12.102488912105956"><ele>211.71428571428572</ele><time>2026-05-04T07:56:51Z</time></trkpt><trkpt lat="45.93298959562951" lon="12.102556123895369"><ele>211.42857142857142</ele><time>2026-05-04T07:56:52Z</time></trkpt><trkpt lat="45.93294039655859" lon="12.102620598327825"><ele>211.14285714285714</ele><time>2026-05-04T07:56:53Z</time></trkpt><trkpt lat="45.93288071688116" lon="12.10269880407174"><ele>210.85714285714286</ele><time>2026-05-04T07:56:55Z</time></trkpt><trkpt lat="45.93282536984733" lon="12.102787402425694"><ele>210.57142857142856</ele><time>2026-05-04T07:57:29Z</time></trkpt><trkpt lat="45.932772654437166" lon="12.10283782138207"><ele>210.28571428571428</ele><time>2026-05-04T07:57:30Z</time></trkpt><trkpt lat="45.93272244564221" lon="12.102900970742047"><ele>210.0</ele><time>2026-05-04T07:57:31Z</time></trkpt><trkpt lat="45.932671233997965" lon="12.1029676073216"><ele>210.0</ele><time>2026-05-04T07:57:32Z</time></trkpt><trkpt lat="45.93261415916789" lon="12.103033960623815"><ele>210.0</ele><time>2026-05-04T07:57:33Z</time></trkpt><trkpt lat="45.93255294559389" lon="12.103105946120511"><ele>210.0</ele><time>2026-05-04T07:57:34Z</time></trkpt><trkpt lat="45.93249053743378" lon="12.103187043879512"><ele>210.0</ele><time>2026-05-04T07:57:35Z</time></trkpt><trkpt lat="45.93243199296247" lon="12.103266977516238"><ele>210.0</ele><time>2026-05-04T07:57:36Z</time></trkpt><trkpt lat="45.93238132026854" lon="12.10333726965946"><ele>210.0</ele><time>2026-05-04T07:57:37Z</time></trkpt><trkpt lat="45.93233350416917" lon="12.103406000261948"><ele>209.4</ele><time>2026-05-04T07:57:38Z</time></trkpt><trkpt lat="45.932288165626915" lon="12.103474049860722"><ele>208.8</ele><time>2026-05-04T07:57:39Z</time></trkpt><trkpt lat="45.93223302775477" lon="12.10356285163717"><ele>208.2</ele><time>2026-05-04T07:57:41Z</time></trkpt><trkpt lat="45.9321674894094" lon="12.103640106362649"><ele>207.6</ele><time>2026-05-04T07:57:56Z</time></trkpt><trkpt lat="45.932102849154184" lon="12.103795569176183"><ele>207.0</ele><time>2026-05-04T07:57:58.001Z</time></trkpt><trkpt lat="45.93203652469967" lon="12.103910867447935"><ele>207.0</ele><time>2026-05-04T07:58:00.001Z</time></trkpt><trkpt lat="45.93198514627048" lon="12.104010208965132"><ele>207.0</ele><time>2026-05-04T07:58:14Z</time></trkpt><trkpt lat="45.93190527860242" lon="12.10414866292044"><ele>207.0</ele><time>2026-05-04T07:58:16Z</time></trkpt><trkpt lat="45.931857806184475" lon="12.104229106536023"><ele>207.0</ele><time>2026-05-04T07:58:18Z</time></trkpt><trkpt lat="45.93179103318624" lon="12.104355639038685"><ele>207.0</ele><time>2026-05-04T07:58:33Z</time></trkpt><trkpt lat="45.93175067440541" lon="12.10443152050351"><ele>207.6</ele><time>2026-05-04T07:58:35Z</time></trkpt><trkpt lat="45.931702721111705" lon="12.104496174986055"><ele>208.2</ele><time>2026-05-04T07:59:06Z</time></trkpt><trkpt lat="45.931638065072164" lon="12.10461502480329"><ele>208.8</ele><time>2026-05-04T07:59:46Z</time></trkpt><trkpt lat="45.93156323833867" lon="12.104758238426394"><ele>209.4</ele><time>2026-05-04T07:59:48Z</time></trkpt><trkpt lat="45.93152511307346" lon="12.104832390711541"><ele>210.0</ele><time>2026-05-04T07:59:49Z</time></trkpt><trkpt lat="45.931462480013664" lon="12.104957406721"><ele>208.83333333333334</ele><time>2026-05-04T07:59:51Z</time></trkpt><trkpt lat="45.93142439812628" lon="12.105066259870586"><ele>207.66666666666669</ele><time>2026-05-04T07:59:53Z</time></trkpt><trkpt lat="45.93139595179616" lon="12.105147387105228"><ele>206.5</ele><time>2026-05-04T08:00:24Z</time></trkpt><trkpt lat="45.93132448035658" lon="12.105224384614598"><ele>205.33333333333334</ele><time>2026-05-04T08:00:26Z</time></trkpt><trkpt lat="45.93127083077976" lon="12.105293079971974"><ele>204.16666666666669</ele><time>2026-05-04T08:00:27Z</time></trkpt><trkpt lat="45.93121973109204" lon="12.10538536762755"><ele>203.0</ele><time>2026-05-04T08:00:29Z</time></trkpt><trkpt lat="45.93115346034931" lon="12.105527316919295"><ele>203.0</ele><time>2026-05-04T08:00:45Z</time></trkpt><trkpt lat="45.93109014531517" lon="12.105643903397828"><ele>203.0</ele><time>2026-05-04T08:00:47Z</time></trkpt><trkpt lat="45.931101394847744" lon="12.105746126972555"><ele>203.0</ele><time>2026-05-04T08:00:49Z</time></trkpt><trkpt lat="45.931162976999204" lon="12.105804557412513"><ele>203.0</ele><time>2026-05-04T08:00:50Z</time></trkpt><trkpt lat="45.931219318682366" lon="12.105846013062026"><ele>203.0</ele><time>2026-05-04T08:00:51Z</time></trkpt><trkpt lat="45.931283035637016" lon="12.105891809146625"><ele>203.0</ele><time>2026-05-04T08:00:52Z</time></trkpt><trkpt lat="45.93132540063245" lon="12.105960859383453"><ele>203.0</ele><time>2026-05-04T08:00:53Z</time></trkpt><trkpt lat="45.93136053681847" lon="12.106047926358213"><ele>202.83333333333334</ele><time>2026-05-04T08:00:54Z</time></trkpt><trkpt lat="45.931390645600594" lon="12.106150862157104"><ele>202.66666666666669</ele><time>2026-05-04T08:00:55Z</time></trkpt><trkpt lat="45.93142384509976" lon="12.106260700495962"><ele>202.5</ele><time>2026-05-04T08:00:56Z</time></trkpt><trkpt lat="45.93144233560911" lon="12.10636949965453"><ele>202.33333333333331</ele><time>2026-05-04T08:00:57Z</time></trkpt><trkpt lat="45.93145939606607" lon="12.106471196365572"><ele>202.16666666666666</ele><time>2026-05-04T08:00:58Z</time></trkpt><trkpt lat="45.931501677258055" lon="12.106545076845645"><ele>202.0</ele><time>2026-05-04T08:00:59Z</time></trkpt><trkpt lat="45.93156982223961" lon="12.106579860858277"><ele>201.83333333333331</ele><time>2026-05-04T08:01:00Z</time></trkpt><trkpt lat="45.931651163346345" lon="12.10655621032137"><ele>201.66666666666666</ele><time>2026-05-04T08:01:01Z</time></trkpt><trkpt lat="45.9317282858926" lon="12.106518053007676"><ele>201.5</ele><time>2026-05-04T08:01:02Z</time></trkpt><trkpt lat="45.93182163129249" lon="12.106497217738445"><ele>201.33333333333331</ele><time>2026-05-04T08:01:03Z</time></trkpt><trkpt lat="45.93190809129263" lon="12.106484037557555"><ele>201.16666666666666</ele><time>2026-05-04T08:01:04Z</time></trkpt><trkpt lat="45.93197951665124" lon="12.106476595575165"><ele>201.0</ele><time>2026-05-04T08:01:05Z</time></trkpt><trkpt lat="45.9320524210569" lon="12.106366826567386"><ele>202.0</ele><time>2026-05-04T08:01:07Z</time></trkpt><trkpt lat="45.932005043069964" lon="12.106263506997596"><ele>203.0</ele><time>2026-05-04T08:01:22Z</time></trkpt><trkpt lat="45.931963105231716" lon="12.106122305927707"><ele>204.0</ele><time>2026-05-04T08:01:24Z</time></trkpt><trkpt lat="45.93198060043392" lon="12.106019213749624"><ele>205.0</ele><time>2026-05-04T08:01:25Z</time></trkpt><trkpt lat="45.931982741234705" lon="12.105889952446189"><ele>206.0</ele><time>2026-05-04T08:01:27Z</time></trkpt><trkpt lat="45.931967702569835" lon="12.105723191901653"><ele>206.00000000000003</ele><time>2026-05-04T08:01:46Z</time></trkpt><trkpt lat="45.93202719990934" lon="12.105593476452482"><ele>206.0</ele><time>2026-05-04T08:01:48Z</time></trkpt><trkpt lat="45.932088478809355" lon="12.105565626398175"><ele>206.0</ele><time>2026-05-04T08:01:49.001Z</time></trkpt><trkpt lat="45.93215851787789" lon="12.105567999971521"><ele>206.0</ele><time>2026-05-04T08:01:50.001Z</time></trkpt><trkpt lat="45.93222967984796" lon="12.105562986348284"><ele>206.00000000000003</ele><time>2026-05-04T08:01:51.001Z</time></trkpt><trkpt lat="45.93233491806694" lon="12.105498959751479"><ele>206.0</ele><time>2026-05-04T08:01:53.001Z</time></trkpt><trkpt lat="45.93237483619864" lon="12.105343742121237"><ele>206.00000000000003</ele><time>2026-05-04T08:01:55.001Z</time></trkpt><trkpt lat="45.9323929511415" lon="12.105190488597913"><ele>206.0</ele><time>2026-05-04T08:01:57.001Z</time></trkpt><trkpt lat="45.932429477162735" lon="12.105093226450784"><ele>206.0</ele><time>2026-05-04T08:01:59.001Z</time></trkpt><trkpt lat="45.93238720795105" lon="12.10502134813846"><ele>206.0</ele><time>2026-05-04T08:02:01.001Z</time></trkpt><trkpt lat="45.93235534144717" lon="12.10513139646999"><ele>206.00000000000003</ele><time>2026-05-04T08:02:12.001Z</time></trkpt><trkpt lat="45.93236026406089" lon="12.105276513686828"><ele>206.0</ele><time>2026-05-04T08:02:15.001Z</time></trkpt><trkpt lat="45.93235328084706" lon="12.105366623215627"><ele>206.0</ele><time>2026-05-04T08:02:15.999Z</time></trkpt><trkpt lat="45.93229254776955" lon="12.105500052110271"><ele>206.0</ele><time>2026-05-04T08:02:17.999Z</time></trkpt><trkpt lat="45.93219786802264" lon="12.1055288378055"><ele>206.0</ele><time>2026-05-04T08:02:19.999Z</time></trkpt><trkpt lat="45.93213129198956" lon="12.105523104153612"><ele>206.0</ele><time>2026-05-04T08:02:42Z</time></trkpt><trkpt lat="45.9320394181882" lon="12.105554456294643"><ele>206.0</ele><time>2026-05-04T08:02:46Z</time></trkpt><trkpt lat="45.931961651968294" lon="12.10558661949172"><ele>206.0</ele><time>2026-05-04T08:02:48Z</time></trkpt><trkpt lat="45.931931558868804" lon="12.10572005039207"><ele>206.0</ele><time>2026-05-04T08:02:50Z</time></trkpt><trkpt lat="45.93179103318624" lon="12.104355639038685"><ele>206.33333333333334</ele><time>2026-05-04T07:58:33Z</time></trkpt><trkpt lat="45.93175067440541" lon="12.10443152050351"><ele>206.66666666666669</ele><time>2026-05-04T07:58:35Z</time></trkpt><trkpt lat="45.931702721111705" lon="12.104496174986055"><ele>207.0</ele><time>2026-05-04T07:59:06Z</time></trkpt><trkpt lat="45.931638065072164" lon="12.10461502480329"><ele>207.33333333333331</ele><time>2026-05-04T07:59:46Z</time></trkpt><trkpt lat="45.93156323833867" lon="12.104758238426394"><ele>207.66666666666666</ele><time>2026-05-04T07:59:48Z</time></trkpt><trkpt lat="45.93152511307346" lon="12.104832390711541"><ele>208.0</ele><time>2026-05-04T07:59:49Z</time></trkpt><trkpt lat="45.931462480013664" lon="12.104957406721"><ele>207.16666666666666</ele><time>2026-05-04T07:59:51Z</time></trkpt><trkpt lat="45.93142439812628" lon="12.105066259870586"><ele>206.33333333333331</ele><time>2026-05-04T07:59:53Z</time></trkpt><trkpt lat="45.93139595179616" lon="12.105147387105228"><ele>205.5</ele><time>2026-05-04T08:00:24Z</time></trkpt><trkpt lat="45.93132448035658" lon="12.105224384614598"><ele>204.66666666666669</ele><time>2026-05-04T08:00:26Z</time></trkpt><trkpt lat="45.93127083077976" lon="12.105293079971974"><ele>203.83333333333334</ele><time>2026-05-04T08:00:27Z</time></trkpt><trkpt lat="45.93121973109204" lon="12.10538536762755"><ele>203.0</ele><time>2026-05-04T08:00:29Z</time></trkpt><trkpt lat="45.93115346034931" lon="12.105527316919295"><ele>203.0</ele><time>2026-05-04T08:00:45Z</time></trkpt><trkpt lat="45.93109014531517" lon="12.105643903397828"><ele>203.0</ele><time>2026-05-04T08:00:47Z</time></trkpt><trkpt lat="45.931101394847744" lon="12.105746126972555"><ele>203.0</ele><time>2026-05-04T08:00:49Z</time></trkpt><trkpt lat="45.931162976999204" lon="12.105804557412513"><ele>203.0</ele><time>2026-05-04T08:00:50Z</time></trkpt><trkpt lat="45.931219318682366" lon="12.105846013062026"><ele>203.0</ele><time>2026-05-04T08:00:51Z</time></trkpt><trkpt lat="45.931283035637016" lon="12.105891809146625"><ele>203.0</ele><time>2026-05-04T08:00:52Z</time></trkpt><trkpt lat="45.93132540063245" lon="12.105960859383453"><ele>203.0</ele><time>2026-05-04T08:00:53Z</time></trkpt><trkpt lat="45.93136053681847" lon="12.106047926358213"><ele>202.83333333333334</ele><time>2026-05-04T08:00:54Z</time></trkpt><trkpt lat="45.931390645600594" lon="12.106150862157104"><ele>202.66666666666669</ele><time>2026-05-04T08:00:55Z</time></trkpt><trkpt lat="45.93142384509976" lon="12.106260700495962"><ele>202.5</ele><time>2026-05-04T08:00:56Z</time></trkpt><trkpt lat="45.93144233560911" lon="12.10636949965453"><ele>202.33333333333331</ele><time>2026-05-04T08:00:57Z</time></trkpt><trkpt lat="45.93145939606607" lon="12.106471196365572"><ele>202.16666666666666</ele><time>2026-05-04T08:00:58Z</time></trkpt><trkpt lat="45.931501677258055" lon="12.106545076845645"><ele>202.0</ele><time>2026-05-04T08:00:59Z</time></trkpt><trkpt lat="45.93156982223961" lon="12.106579860858277"><ele>201.83333333333331</ele><time>2026-05-04T08:01:00Z</time></trkpt><trkpt lat="45.931651163346345" lon="12.10655621032137"><ele>201.66666666666666</ele><time>2026-05-04T08:01:01Z</time></trkpt><trkpt lat="45.9317282858926" lon="12.106518053007676"><ele>201.5</ele><time>2026-05-04T08:01:02Z</time></trkpt><trkpt lat="45.93182163129249" lon="12.106497217738445"><ele>201.33333333333331</ele><time>2026-05-04T08:01:03Z</time></trkpt><trkpt lat="45.93190809129263" lon="12.106484037557555"><ele>201.16666666666666</ele><time>2026-05-04T08:01:04Z</time></trkpt><trkpt lat="45.93197951665124" lon="12.106476595575165"><ele>201.0</ele><time>2026-05-04T08:01:05Z</time></trkpt><trkpt lat="45.9320524210569" lon="12.106366826567386"><ele>202.0</ele><time>2026-05-04T08:01:07Z</time></trkpt><trkpt lat="45.932005043069964" lon="12.106263506997596"><ele>203.0</ele><time>2026-05-04T08:01:22Z</time></trkpt><trkpt lat="45.931963105231716" lon="12.106122305927707"><ele>204.0</ele><time>2026-05-04T08:01:24Z</time></trkpt><trkpt lat="45.93198060043392" lon="12.106019213749624"><ele>205.0</ele><time>2026-05-04T08:01:25Z</time></trkpt><trkpt lat="45.931982741234705" lon="12.105889952446189"><ele>206.0</ele><time>2026-05-04T08:01:27Z</time></trkpt><trkpt lat="45.931967702569835" lon="12.105723191901653"><ele>206.00000000000003</ele><time>2026-05-04T08:01:46Z</time></trkpt><trkpt lat="45.93202719990934" lon="12.105593476452482"><ele>206.0</ele><time>2026-05-04T08:01:48Z</time></trkpt><trkpt lat="45.932088478809355" lon="12.105565626398175"><ele>206.0</ele><time>2026-05-04T08:01:49.001Z</time></trkpt><trkpt lat="45.93215851787789" lon="12.105567999971521"><ele>206.0</ele><time>2026-05-04T08:01:50.001Z</time></trkpt><trkpt lat="45.93222967984796" lon="12.105562986348284"><ele>206.00000000000003</ele><time>2026-05-04T08:01:51.001Z</time></trkpt><trkpt lat="45.93233491806694" lon="12.105498959751479"><ele>206.0</ele><time>2026-05-04T08:01:53.001Z</time></trkpt><trkpt lat="45.93237483619864" lon="12.105343742121237"><ele>206.00000000000003</ele><time>2026-05-04T08:01:55.001Z</time></trkpt><trkpt lat="45.9323929511415" lon="12.105190488597913"><ele>206.0</ele><time>2026-05-04T08:01:57.001Z</time></trkpt><trkpt lat="45.932429477162735" lon="12.105093226450784"><ele>206.0</ele><time>2026-05-04T08:01:59.001Z</time></trkpt><trkpt lat="45.93238720795105" lon="12.10502134813846"><ele>206.0</ele><time>2026-05-04T08:02:01.001Z</time></trkpt><trkpt lat="45.93235534144717" lon="12.10513139646999"><ele>206.00000000000003</ele><time>2026-05-04T08:02:12.001Z</time></trkpt><trkpt lat="45.93236026406089" lon="12.105276513686828"><ele>206.0</ele><time>2026-05-04T08:02:15.001Z</time></trkpt><trkpt lat="45.93235328084706" lon="12.105366623215627"><ele>206.0</ele><time>2026-05-04T08:02:15.999Z</time></trkpt><trkpt lat="45.93229254776955" lon="12.105500052110271"><ele>206.0</ele><time>2026-05-04T08:02:17.999Z</time></trkpt><trkpt lat="45.93219786802264" lon="12.1055288378055"><ele>206.0</ele><time>2026-05-04T08:02:19.999Z</time></trkpt><trkpt lat="45.93213129198956" lon="12.105523104153612"><ele>206.0</ele><time>2026-05-04T08:02:42Z</time></trkpt><trkpt lat="45.9320394181882" lon="12.105554456294643"><ele>206.0</ele><time>2026-05-04T08:02:46Z</time></trkpt><trkpt lat="45.931961651968294" lon="12.10558661949172"><ele>206.00000000000003</ele><time>2026-05-04T08:02:48Z</time></trkpt><trkpt lat="45.931931558868804" lon="12.10572005039207"><ele>206.0</ele><time>2026-05-04T08:02:50Z</time></trkpt><trkpt lat="45.93194382456761" lon="12.105897491103324"><ele>206.0</ele><time>2026-05-04T08:02:52Z</time></trkpt><trkpt lat="45.93194831349936" lon="12.10599731499686"><ele>206.0</ele><time>2026-05-04T08:02:53Z</time></trkpt><trkpt lat="45.93195322772836" lon="12.106106570793928"><ele>206.00000000000003</ele><time>2026-05-04T08:02:54Z</time></trkpt><trkpt lat="45.931958425157326" lon="12.106218344353014"><ele>206.0</ele><time>2026-05-04T08:02:55Z</time></trkpt><trkpt lat="45.93195137022836" lon="12.106319519010524"><ele>206.50000000000003</ele><time>2026-05-04T08:02:56Z</time></trkpt><trkpt lat="45.93191446693088" lon="12.106401315362271"><ele>207.0</ele><time>2026-05-04T08:02:57Z</time></trkpt><trkpt lat="45.93185632191985" lon="12.1064547850424"><ele>207.5</ele><time>2026-05-04T08:02:58Z</time></trkpt><trkpt lat="45.93178331357683" lon="12.10647460024245"><ele>208.0</ele><time>2026-05-04T08:02:59Z</time></trkpt><trkpt lat="45.93169978822789" lon="12.106491612053157"><ele>208.50000000000003</ele><time>2026-05-04T08:03:00Z</time></trkpt><trkpt lat="45.93161644174435" lon="12.106510740598715"><ele>209.0</ele><time>2026-05-04T08:03:01Z</time></trkpt><trkpt lat="45.931540104847116" lon="12.106490111429698"><ele>207.66666666666669</ele><time>2026-05-04T08:03:02Z</time></trkpt><trkpt lat="45.93147508647308" lon="12.106427746054147"><ele>206.33333333333334</ele><time>2026-05-04T08:03:03Z</time></trkpt><trkpt lat="45.93143052333589" lon="12.106322535399915"><ele>205.0</ele><time>2026-05-04T08:03:04Z</time></trkpt><trkpt lat="45.931408909818934" lon="12.106199708162112"><ele>203.66666666666669</ele><time>2026-05-04T08:03:05Z</time></trkpt><trkpt lat="45.93138551637464" lon="12.106078549389494"><ele>202.33333333333334</ele><time>2026-05-04T08:03:06Z</time></trkpt><trkpt lat="45.93135068678657" lon="12.105972919606986"><ele>201.0</ele><time>2026-05-04T08:03:07Z</time></trkpt><trkpt lat="45.931296892229525" lon="12.105884778485516"><ele>201.0</ele><time>2026-05-04T08:03:08Z</time></trkpt><trkpt lat="45.93123227435527" lon="12.105813287608395"><ele>201.0</ele><time>2026-05-04T08:03:09Z</time></trkpt><trkpt lat="45.93117028905916" lon="12.105764024749348"><ele>201.0</ele><time>2026-05-04T08:03:10Z</time></trkpt><trkpt lat="45.931104010206774" lon="12.105705081834293"><ele>201.0</ele><time>2026-05-04T08:03:12Z</time></trkpt><trkpt lat="45.931005530392326" lon="12.105721741068695"><ele>201.0</ele><time>2026-05-04T08:03:29Z</time></trkpt><trkpt lat="45.93095120111206" lon="12.10585924827567"><ele>201.0</ele><time>2026-05-04T08:03:31Z</time></trkpt><trkpt lat="45.930870011168125" lon="12.106001236014283"><ele>201.14285714285714</ele><time>2026-05-04T08:03:33Z</time></trkpt><trkpt lat="45.93082628748022" lon="12.106081973766468"><ele>201.2857142857143</ele><time>2026-05-04T08:03:34Z</time></trkpt><trkpt lat="45.93077920437921" lon="12.106166094041017"><ele>201.42857142857144</ele><time>2026-05-04T08:03:35Z</time></trkpt><trkpt lat="45.93073275615251" lon="12.106252328314367"><ele>201.57142857142856</ele><time>2026-05-04T08:03:36Z</time></trkpt><trkpt lat="45.93068437733316" lon="12.106338044469538"><ele>201.71428571428572</ele><time>2026-05-04T08:03:37Z</time></trkpt><trkpt lat="45.93063701433351" lon="12.106423353646884"><ele>201.85714285714286</ele><time>2026-05-04T08:03:38Z</time></trkpt><trkpt lat="45.930592264236246" lon="12.10650211801553"><ele>202.0</ele><time>2026-05-04T08:03:39Z</time></trkpt><trkpt lat="45.930516814884534" lon="12.106631809842897"><ele>202.0</ele><time>2026-05-04T08:03:41Z</time></trkpt><trkpt lat="45.93045043746349" lon="12.106780181613157"><ele>202.0</ele><time>2026-05-04T08:03:43Z</time></trkpt><trkpt lat="45.93041652300131" lon="12.106866422942073"><ele>202.0</ele><time>2026-05-04T08:03:44Z</time></trkpt><trkpt lat="45.93038357070719" lon="12.106950874921356"><ele>202.0</ele><time>2026-05-04T08:03:45Z</time></trkpt><trkpt lat="45.93031542609091" lon="12.10707859157433"><ele>202.0</ele><time>2026-05-04T08:03:47Z</time></trkpt><trkpt lat="45.93023921123915" lon="12.107128995693051"><ele>202.0</ele><time>2026-05-04T08:03:49Z</time></trkpt><trkpt lat="45.930160124410726" lon="12.107069010312724"><ele>202.0</ele><time>2026-05-04T08:03:51Z</time></trkpt><trkpt lat="45.930095715371436" lon="12.106985569900385"><ele>202.0</ele><time>2026-05-04T08:03:53Z</time></trkpt><trkpt lat="45.930026659468496" lon="12.106928213719703"><ele>202.0</ele><time>2026-05-04T08:04:16.001Z</time></trkpt><trkpt lat="45.929950461434125" lon="12.106854309884323"><ele>202.0</ele><time>2026-05-04T08:04:18.001Z</time></trkpt><trkpt lat="45.9298654995077" lon="12.106757461940358"><ele>202.99999999999997</ele><time>2026-05-04T08:04:20.001Z</time></trkpt><trkpt lat="45.92980095779373" lon="12.10673112597636"><ele>204.0</ele><time>2026-05-04T08:04:21.999Z</time></trkpt><trkpt lat="45.929777562520705" lon="12.106628345264493"><ele>205.0</ele><time>2026-05-04T08:04:50Z</time></trkpt><trkpt lat="45.92973624622514" lon="12.106552046395159"><ele>206.0</ele><time>2026-05-04T08:05:09Z</time></trkpt><trkpt lat="45.92967541090616" lon="12.106434134472904"><ele>206.99999999999997</ele><time>2026-05-04T08:05:11Z</time></trkpt><trkpt lat="45.92958897384082" lon="12.106292219079096"><ele>208.0</ele><time>2026-05-04T08:05:13Z</time></trkpt><trkpt lat="45.92953634586498" lon="12.106220008498457"><ele>207.85714285714286</ele><time>2026-05-04T08:05:14Z</time></trkpt><trkpt lat="45.92948304628709" lon="12.1061488166501"><ele>207.71428571428572</ele><time>2026-05-04T08:05:15Z</time></trkpt><trkpt lat="45.929429361108895" lon="12.106075423796359"><ele>207.57142857142858</ele><time>2026-05-04T08:05:16Z</time></trkpt><trkpt lat="45.92937439084665" lon="12.106002238638656"><ele>207.42857142857144</ele><time>2026-05-04T08:05:17Z</time></trkpt><trkpt lat="45.92931682150611" lon="12.10593027567257"><ele>207.28571428571428</ele><time>2026-05-04T08:05:18Z</time></trkpt><trkpt lat="45.929264009887106" lon="12.105868553991542"><ele>207.14285714285717</ele><time>2026-05-04T08:05:19Z</time></trkpt><trkpt lat="45.92920193924391" lon="12.10579882315995"><ele>207.0</ele><time>2026-05-04T08:05:21Z</time></trkpt><trkpt lat="45.929138509978955" lon="12.105731333789954"><ele>206.8</ele><time>2026-05-04T08:05:41Z</time></trkpt><trkpt lat="45.92905249898818" lon="12.10563683167672"><ele>206.6</ele><time>2026-05-04T08:05:43Z</time></trkpt><trkpt lat="45.92896746517036" lon="12.105541360920828"><ele>206.4</ele><time>2026-05-04T08:05:45Z</time></trkpt><trkpt lat="45.92888800501841" lon="12.10550327026121"><ele>206.20000000000002</ele><time>2026-05-04T08:05:47Z</time></trkpt><trkpt lat="45.92882190037248" lon="12.105422599800743"><ele>206.0</ele><time>2026-05-04T08:06:19.001Z</time></trkpt><trkpt lat="45.928745749682285" lon="12.105306109287742"><ele>206.0</ele><time>2026-05-04T08:06:21.001Z</time></trkpt><trkpt lat="45.92868476794083" lon="12.105247826477582"><ele>206.0</ele><time>2026-05-04T08:06:22.001Z</time></trkpt><trkpt lat="45.92861130415322" lon="12.105185821295715"><ele>206.0</ele><time>2026-05-04T08:06:23.001Z</time></trkpt><trkpt lat="45.92852922559304" lon="12.1051187962617"><ele>206.0</ele><time>2026-05-04T08:06:24.001Z</time></trkpt><trkpt lat="45.92844333084723" lon="12.10505026838127"><ele>206.0</ele><time>2026-05-04T08:06:25.001Z</time></trkpt><trkpt lat="45.928356799718834" lon="12.104981700988318"><ele>206.0</ele><time>2026-05-04T08:06:26.001Z</time></trkpt><trkpt lat="45.92827196504364" lon="12.104907466145553"><ele>206.0</ele><time>2026-05-04T08:06:27.001Z</time></trkpt><trkpt lat="45.92819325688709" lon="12.104820037346434"><ele>206.0</ele><time>2026-05-04T08:06:27.999Z</time></trkpt><trkpt lat="45.92812419013095" lon="12.1047167692789"><ele>206.0</ele><time>2026-05-04T08:06:28.999Z</time></trkpt><trkpt lat="45.928061881245895" lon="12.104616167473377"><ele>206.0</ele><time>2026-05-04T08:06:29.999Z</time></trkpt><trkpt lat="45.9280042347178" lon="12.104529118233994"><ele>206.00000000000003</ele><time>2026-05-04T08:06:30.999Z</time></trkpt><trkpt lat="45.92795485878735" lon="12.104452991059288"><ele>206.0</ele><time>2026-05-04T08:06:31.999Z</time></trkpt><trkpt lat="45.927900919215496" lon="12.10431477224291"><ele>206.0</ele><time>2026-05-04T08:06:33.999Z</time></trkpt><trkpt lat="45.927936107113396" lon="12.104232987597515"><ele>206.0</ele><time>2026-05-04T08:06:36.999Z</time></trkpt><trkpt lat="45.927970159465424" lon="12.104122379850208"><ele>206.00000000000003</ele><time>2026-05-04T08:06:52Z</time></trkpt><trkpt lat="45.92802074185002" lon="12.104017411744241"><ele>206.0</ele><time>2026-05-04T08:06:54Z</time></trkpt><trkpt lat="45.92807402621841" lon="12.10394037651203"><ele>207.14285714285714</ele><time>2026-05-04T08:06:56Z</time></trkpt><trkpt lat="45.92812684192607" lon="12.103878896278804"><ele>208.28571428571428</ele><time>2026-05-04T08:06:59Z</time></trkpt><trkpt lat="45.928073876829146" lon="12.103950608042151"><ele>209.42857142857144</ele><time>2026-05-04T08:07:47Z</time></trkpt><trkpt lat="45.92801229247366" lon="12.104021536625241"><ele>210.57142857142856</ele><time>2026-05-04T08:07:51Z</time></trkpt><trkpt lat="45.92794667417932" lon="12.104043365851808"><ele>211.71428571428572</ele><time>2026-05-04T08:08:00.001Z</time></trkpt><trkpt lat="45.92788683635865" lon="12.103983920505849"><ele>212.85714285714286</ele><time>2026-05-04T08:08:06.001Z</time></trkpt><trkpt lat="45.927848974493116" lon="12.103910291789322"><ele>214.0</ele><time>2026-05-04T08:08:09.001Z</time></trkpt><trkpt lat="45.927807599746046" lon="12.103818618936483"><ele>214.0</ele><time>2026-05-04T08:08:13.001Z</time></trkpt><trkpt lat="45.92784680165892" lon="12.103921921363309"><ele>213.99999999999997</ele><time>2026-05-04T08:08:41Z</time></trkpt><trkpt lat="45.927872605497086" lon="12.10401230866943"><ele>213.99999999999997</ele><time>2026-05-04T08:08:55Z</time></trkpt><trkpt lat="45.927903512514696" lon="12.104158634409783"><ele>214.0</ele><time>2026-05-04T08:08:57Z</time></trkpt><trkpt lat="45.92788879204382" lon="12.10433243690953"><ele>214.0</ele><time>2026-05-04T08:08:59Z</time></trkpt><trkpt lat="45.92794482808857" lon="12.104491896960605"><ele>212.66666666666666</ele><time>2026-05-04T08:09:01Z</time></trkpt><trkpt lat="45.92799804220651" lon="12.104546663139454"><ele>211.33333333333331</ele><time>2026-05-04T08:09:02Z</time></trkpt><trkpt lat="45.92807870964625" lon="12.104631963573231"><ele>210.0</ele><time>2026-05-04T08:09:04Z</time></trkpt><trkpt lat="45.92807295399208" lon="12.104726376038382"><ele>208.66666666666669</ele><time>2026-05-04T08:09:07Z</time></trkpt><trkpt lat="45.92797705305136" lon="12.104727003357374"><ele>207.33333333333334</ele><time>2026-05-04T08:09:09Z</time></trkpt><trkpt lat="45.927924494113626" lon="12.104671305395156"><ele>206.0</ele><time>2026-05-04T08:09:10Z</time></trkpt><trkpt lat="45.927861442736365" lon="12.104603813299176"><ele>206.0</ele><time>2026-05-04T08:09:11Z</time></trkpt><trkpt lat="45.92778760600453" lon="12.104535132187543"><ele>206.0</ele><time>2026-05-04T08:09:12Z</time></trkpt><trkpt lat="45.927709295468254" lon="12.104455928514852"><ele>206.0</ele><time>2026-05-04T08:09:13Z</time></trkpt><trkpt lat="45.92762718361515" lon="12.10436937393617"><ele>206.0</ele><time>2026-05-04T08:09:14Z</time></trkpt><trkpt lat="45.92754249043104" lon="12.104272551313322"><ele>206.0</ele><time>2026-05-04T08:09:15Z</time></trkpt><trkpt lat="45.92745589242139" lon="12.104172983891873"><ele>205.8</ele><time>2026-05-04T08:09:16Z</time></trkpt><trkpt lat="45.92737094385505" lon="12.10407395539009"><ele>205.60000000000002</ele><time>2026-05-04T08:09:17Z</time></trkpt><trkpt lat="45.927287637062825" lon="12.103977619382437"><ele>205.4</ele><time>2026-05-04T08:09:18Z</time></trkpt><trkpt lat="45.92720876649239" lon="12.103884591164109"><ele>205.2</ele><time>2026-05-04T08:09:19Z</time></trkpt><trkpt lat="45.927141793330634" lon="12.103805695355414"><ele>205.0</ele><time>2026-05-04T08:09:20Z</time></trkpt><trkpt lat="45.927091721735415" lon="12.103744242498278"><ele>204.99999999999997</ele><time>2026-05-04T08:09:21Z</time></trkpt><trkpt lat="45.927026373393545" lon="12.103661320367724"><ele>205.0</ele><time>2026-05-04T08:09:50Z</time></trkpt><trkpt lat="45.926942561360484" lon="12.10357651903936"><ele>205.0</ele><time>2026-05-04T08:09:52Z</time></trkpt><trkpt lat="45.926887995372574" lon="12.103515210253374"><ele>205.0</ele><time>2026-05-04T08:09:53Z</time></trkpt><trkpt lat="45.926832014632986" lon="12.103444656993045"><ele>204.99999999999997</ele><time>2026-05-04T08:09:54Z</time></trkpt><trkpt lat="45.92677669898088" lon="12.103352206590818"><ele>205.0</ele><time>2026-05-04T08:09:55.001Z</time></trkpt><trkpt lat="45.926723485857934" lon="12.103248414346139"><ele>203.99999999999997</ele><time>2026-05-04T08:09:56.001Z</time></trkpt><trkpt lat="45.92667630321158" lon="12.103148112174651"><ele>203.0</ele><time>2026-05-04T08:09:57.001Z</time></trkpt><trkpt lat="45.92663720722991" lon="12.1030511278259"><ele>202.0</ele><time>2026-05-04T08:09:58.001Z</time></trkpt><trkpt lat="45.92660696994523" lon="12.102939782017184"><ele>201.0</ele><time>2026-05-04T08:09:59.001Z</time></trkpt><trkpt lat="45.92658528774312" lon="12.102814662104626"><ele>199.99999999999997</ele><time>2026-05-04T08:10:00.001Z</time></trkpt><trkpt lat="45.92656142668662" lon="12.102681548414882"><ele>199.0</ele><time>2026-05-04T08:10:01.001Z</time></trkpt><trkpt lat="45.92653840827847" lon="12.102549280286828"><ele>199.0</ele><time>2026-05-04T08:10:02.001Z</time></trkpt><trkpt lat="45.92651238160222" lon="12.102418978769238"><ele>199.0</ele><time>2026-05-04T08:10:03.001Z</time></trkpt><trkpt lat="45.926479638311704" lon="12.102286370850699"><ele>199.0</ele><time>2026-05-04T08:10:04.001Z</time></trkpt><trkpt lat="45.926429100280615" lon="12.102163328428357"><ele>199.0</ele><time>2026-05-04T08:10:05.001Z</time></trkpt><trkpt lat="45.92636580694538" lon="12.102044771443023"><ele>199.0</ele><time>2026-05-04T08:10:06.001Z</time></trkpt><trkpt lat="45.926303636205965" lon="12.10193687568505"><ele>199.33333333333331</ele><time>2026-05-04T08:10:07.001Z</time></trkpt><trkpt lat="45.926252758216755" lon="12.101846991401235"><ele>199.66666666666666</ele><time>2026-05-04T08:10:08.001Z</time></trkpt><trkpt lat="45.92621233337015" lon="12.101751447477117"><ele>200.0</ele><time>2026-05-04T08:10:10.001Z</time></trkpt><trkpt lat="45.92613335681985" lon="12.101645672638652"><ele>200.33333333333331</ele><time>2026-05-04T08:10:29.001Z</time></trkpt><trkpt lat="45.926096212658464" lon="12.101549056538882"><ele>200.66666666666666</ele><time>2026-05-04T08:10:30.001Z</time></trkpt><trkpt lat="45.92605327578012" lon="12.101431293301982"><ele>201.0</ele><time>2026-05-04T08:10:31.001Z</time></trkpt><trkpt lat="45.92601492440982" lon="12.101298364231624"><ele>202.0</ele><time>2026-05-04T08:10:32.001Z</time></trkpt><trkpt lat="45.92598990882598" lon="12.101142153012148"><ele>203.0</ele><time>2026-05-04T08:10:33.001Z</time></trkpt><trkpt lat="45.92597326966206" lon="12.100969350841769"><ele>204.0</ele><time>2026-05-04T08:10:34.001Z</time></trkpt><trkpt lat="45.925963579856095" lon="12.100785971442317"><ele>205.0</ele><time>2026-05-04T08:10:35.001Z</time></trkpt><trkpt lat="45.92596453232693" lon="12.100615010467353"><ele>205.4</ele><time>2026-05-04T08:10:36.001Z</time></trkpt><trkpt lat="45.92597204442751" lon="12.100473830215348"><ele>205.8</ele><time>2026-05-04T08:10:37.001Z</time></trkpt><trkpt lat="45.92598150084663" lon="12.100348361783805"><ele>206.2</ele><time>2026-05-04T08:10:38.001Z</time></trkpt><trkpt lat="45.92598606070616" lon="12.100213109875227"><ele>206.6</ele><time>2026-05-04T08:10:39.001Z</time></trkpt><trkpt lat="45.92598617461232" lon="12.100068126349674"><ele>207.0</ele><time>2026-05-04T08:10:40Z</time></trkpt><trkpt lat="45.92598212956406" lon="12.099918070257463"><ele>207.39999999999998</ele><time>2026-05-04T08:10:41Z</time></trkpt><trkpt lat="45.92596938667143" lon="12.099763726095674"><ele>207.79999999999998</ele><time>2026-05-04T08:10:42Z</time></trkpt><trkpt lat="45.925946290230726" lon="12.09960876399124"><ele>208.2</ele><time>2026-05-04T08:10:43Z</time></trkpt><trkpt lat="45.9259110991902" lon="12.099451754059485"><ele>208.6</ele><time>2026-05-04T08:10:44Z</time></trkpt><trkpt lat="45.92586503890776" lon="12.09929969061093"><ele>209.0</ele><time>2026-05-04T08:10:45Z</time></trkpt><trkpt lat="45.92581484216158" lon="12.099156082346454"><ele>208.50000000000003</ele><time>2026-05-04T08:10:46Z</time></trkpt><trkpt lat="45.9257681263628" lon="12.09901934307945"><ele>208.0</ele><time>2026-05-04T08:10:47Z</time></trkpt><trkpt lat="45.925725859811166" lon="12.098896815538215"><ele>207.5</ele><time>2026-05-04T08:10:48Z</time></trkpt><trkpt lat="45.925701284313256" lon="12.098788418195957"><ele>207.0</ele><time>2026-05-04T08:10:49Z</time></trkpt><trkpt lat="45.92568568196076" lon="12.0986497990479"><ele>206.50000000000003</ele><time>2026-05-04T08:10:51Z</time></trkpt><trkpt lat="45.925624010550514" lon="12.098612074193673"><ele>206.0</ele><time>2026-05-04T08:11:28Z</time></trkpt><trkpt lat="45.92556816073751" lon="12.098497543614709"><ele>206.0</ele><time>2026-05-04T08:11:30Z</time></trkpt><trkpt lat="45.925532047356924" lon="12.098398975316888"><ele>206.0</ele><time>2026-05-04T08:11:31Z</time></trkpt><trkpt lat="45.92548230808962" lon="12.098287381381994"><ele>206.0</ele><time>2026-05-04T08:11:32Z</time></trkpt><trkpt lat="45.92542317990098" lon="12.098174161790968"><ele>206.0</ele><time>2026-05-04T08:11:33Z</time></trkpt><trkpt lat="45.92535442071022" lon="12.098059262262378"><ele>206.0</ele><time>2026-05-04T08:11:34Z</time></trkpt><trkpt lat="45.925277001347084" lon="12.097936743787962"><ele>207.0</ele><time>2026-05-04T08:11:35Z</time></trkpt><trkpt lat="45.92519231787945" lon="12.097815403048648"><ele>208.0</ele><time>2026-05-04T08:11:36Z</time></trkpt><trkpt lat="45.925099004519296" lon="12.097695967604707"><ele>209.0</ele><time>2026-05-04T08:11:37Z</time></trkpt><trkpt lat="45.92500307088652" lon="12.097583052081845"><ele>210.0</ele><time>2026-05-04T08:11:38Z</time></trkpt><trkpt lat="45.92491280804486" lon="12.097489007943619"><ele>211.33333333333334</ele><time>2026-05-04T08:11:39Z</time></trkpt><trkpt lat="45.92482834375865" lon="12.097410354603364"><ele>212.66666666666669</ele><time>2026-05-04T08:11:40Z</time></trkpt><trkpt lat="45.92475905971269" lon="12.097334659889452"><ele>214.0</ele><time>2026-05-04T08:11:41Z</time></trkpt><trkpt lat="45.92470507133072" lon="12.097271524576804"><ele>215.33333333333334</ele><time>2026-05-04T08:11:42Z</time></trkpt><trkpt lat="45.92463267828952" lon="12.09724263006204"><ele>216.66666666666669</ele><time>2026-05-04T08:11:44Z</time></trkpt><trkpt lat="45.92469886348548" lon="12.09731530173734"><ele>218.0</ele><time>2026-05-04T08:12:21.001Z</time></trkpt><trkpt lat="45.924757361119816" lon="12.097376241244307"><ele>216.8</ele><time>2026-05-04T08:12:23.001Z</time></trkpt><trkpt lat="45.924830006663804" lon="12.097456446170735"><ele>215.60000000000002</ele><time>2026-05-04T08:12:25.001Z</time></trkpt><trkpt lat="45.92488873371343" lon="12.097515174289585"><ele>214.39999999999998</ele><time>2026-05-04T08:12:41.001Z</time></trkpt><trkpt lat="45.92498830868563" lon="12.097614782434482"><ele>213.2</ele><time>2026-05-04T08:12:43.001Z</time></trkpt><trkpt lat="45.92505669532177" lon="12.097688450053745"><ele>212.0</ele><time>2026-05-04T08:12:44.001Z</time></trkpt><trkpt lat="45.92513367094478" lon="12.097780077004312"><ele>212.0</ele><time>2026-05-04T08:12:45.001Z</time></trkpt><trkpt lat="45.925218050311884" lon="12.097892095664715"><ele>212.0</ele><time>2026-05-04T08:12:46Z</time></trkpt><trkpt lat="45.9253041231927" lon="12.09802368628837"><ele>212.0</ele><time>2026-05-04T08:12:47Z</time></trkpt><trkpt lat="45.92539298812045" lon="12.098171168352652"><ele>212.0</ele><time>2026-05-04T08:12:48Z</time></trkpt><trkpt lat="45.925478426507276" lon="12.098333508285728"><ele>210.0</ele><time>2026-05-04T08:12:49Z</time></trkpt><trkpt lat="45.92555734070319" lon="12.098516292665666"><ele>208.0</ele><time>2026-05-04T08:12:50Z</time></trkpt><trkpt lat="45.925629185232935" lon="12.098718577232052"><ele>206.0</ele><time>2026-05-04T08:12:51Z</time></trkpt><trkpt lat="45.92570127198151" lon="12.098932018668277"><ele>205.0</ele><time>2026-05-04T08:12:52Z</time></trkpt><trkpt lat="45.925778980450076" lon="12.0991535383469"><ele>204.0</ele><time>2026-05-04T08:12:53Z</time></trkpt><trkpt lat="45.925851354255094" lon="12.099379193954746"><ele>203.0</ele><time>2026-05-04T08:12:54Z</time></trkpt><trkpt lat="45.92590223477474" lon="12.09961693702403"><ele>204.33333333333334</ele><time>2026-05-04T08:12:55Z</time></trkpt><trkpt lat="45.925932007013586" lon="12.09986827374136"><ele>205.66666666666669</ele><time>2026-05-04T08:12:56Z</time></trkpt><trkpt lat="45.92594095163082" lon="12.100126009340457"><ele>207.0</ele><time>2026-05-04T08:12:57Z</time></trkpt><trkpt lat="45.92593378061467" lon="12.10038682504661"><ele>207.0</ele><time>2026-05-04T08:12:58Z</time></trkpt><trkpt lat="45.92592388160915" lon="12.100644119434492"><ele>207.0</ele><time>2026-05-04T08:12:59Z</time></trkpt><trkpt lat="45.92593083156144" lon="12.100900369384245"><ele>207.0</ele><time>2026-05-04T08:13:00Z</time></trkpt><trkpt lat="45.92596209409307" lon="12.10115346322426"><ele>206.33333333333331</ele><time>2026-05-04T08:13:01Z</time></trkpt><trkpt lat="45.92601915911596" lon="12.101393823653257"><ele>205.66666666666666</ele><time>2026-05-04T08:13:02Z</time></trkpt><trkpt lat="45.92609722629397" lon="12.101621903510964"><ele>205.0</ele><time>2026-05-04T08:13:03Z</time></trkpt><trkpt lat="45.9261954663788" lon="12.101829294751758"><ele>203.66666666666666</ele><time>2026-05-04T08:13:04Z</time></trkpt><trkpt lat="45.926306694614574" lon="12.102020112892786"><ele>202.33333333333331</ele><time>2026-05-04T08:13:05Z</time></trkpt><trkpt lat="45.926407287964686" lon="12.102221805329895"><ele>201.0</ele><time>2026-05-04T08:13:06Z</time></trkpt><trkpt lat="45.92649179113676" lon="12.10248074603973"><ele>200.33333333333331</ele><time>2026-05-04T08:13:07Z</time></trkpt><trkpt lat="45.926539061625085" lon="12.102729179474851"><ele>199.66666666666666</ele><time>2026-05-04T08:13:08Z</time></trkpt><trkpt lat="45.92658511057387" lon="12.102968041891906"><ele>199.0</ele><time>2026-05-04T08:13:09Z</time></trkpt><trkpt lat="45.92665543132463" lon="12.103195085348851"><ele>201.0</ele><time>2026-05-04T08:13:10Z</time></trkpt><trkpt lat="45.926744438323794" lon="12.103395829299503"><ele>203.0</ele><time>2026-05-04T08:13:11Z</time></trkpt><trkpt lat="45.92686499951481" lon="12.103564676556761"><ele>205.0</ele><time>2026-05-04T08:13:12Z</time></trkpt><trkpt lat="45.926997781825015" lon="12.103717948566803"><ele>205.0</ele><time>2026-05-04T08:13:13Z</time></trkpt><trkpt lat="45.9271336508162" lon="12.103870018045304"><ele>205.0</ele><time>2026-05-04T08:13:14Z</time></trkpt><trkpt lat="45.92726966473637" lon="12.104020909855707"><ele>205.0</ele><time>2026-05-04T08:13:15Z</time></trkpt><trkpt lat="45.92740675443756" lon="12.104173805542374"><ele>205.0</ele><time>2026-05-04T08:13:16Z</time></trkpt><trkpt lat="45.927543491376056" lon="12.104329272786249"><ele>205.0</ele><time>2026-05-04T08:13:17Z</time></trkpt><trkpt lat="45.92767987853148" lon="12.104482306130471"><ele>205.0</ele><time>2026-05-04T08:13:18Z</time></trkpt><trkpt lat="45.927813512148475" lon="12.104618121194893"><ele>205.25</ele><time>2026-05-04T08:13:19Z</time></trkpt><trkpt lat="45.92794441180849" lon="12.104728321110324"><ele>205.5</ele><time>2026-05-04T08:13:20Z</time></trkpt><trkpt lat="45.92806205958308" lon="12.104820551658822"><ele>205.75</ele><time>2026-05-04T08:13:21Z</time></trkpt><trkpt lat="45.92816837411713" lon="12.104869236270266"><ele>206.0</ele><time>2026-05-04T08:13:22Z</time></trkpt><trkpt lat="45.928285925472714" lon="12.104872460537333"><ele>208.0</ele><time>2026-05-04T08:13:23Z</time></trkpt><trkpt lat="45.928402913554095" lon="12.104849534561197"><ele>210.0</ele><time>2026-05-04T08:13:24Z</time></trkpt><trkpt lat="45.92852090671042" lon="12.104827029996631"><ele>212.0</ele><time>2026-05-04T08:13:25Z</time></trkpt><trkpt lat="45.92864459068488" lon="12.104821357757494"><ele>214.0</ele><time>2026-05-04T08:13:26Z</time></trkpt><trkpt lat="45.9287707946949" lon="12.104816570842654"><ele>213.99999999999997</ele><time>2026-05-04T08:13:27Z</time></trkpt><trkpt lat="45.928888577700356" lon="12.104815167147125"><ele>214.0</ele><time>2026-05-04T08:13:28Z</time></trkpt><trkpt lat="45.92897946303489" lon="12.104821235886563"><ele>214.0</ele><time>2026-05-04T08:13:29Z</time></trkpt><trkpt lat="45.929058149400426" lon="12.104836966731416"><ele>214.0</ele><time>2026-05-04T08:13:31Z</time></trkpt><trkpt lat="45.92913867865511" lon="12.104878037795919"><ele>213.99999999999997</ele><time>2026-05-04T08:13:56Z</time></trkpt><trkpt lat="45.92919998930166" lon="12.104905190182858"><ele>214.0</ele><time>2026-05-04T08:13:57Z</time></trkpt><trkpt lat="45.92927417614138" lon="12.104936337908807"><ele>213.33333333333331</ele><time>2026-05-04T08:13:58.001Z</time></trkpt><trkpt lat="45.92935378759743" lon="12.104966356014506"><ele>212.66666666666666</ele><time>2026-05-04T08:13:59.001Z</time></trkpt><trkpt lat="45.92942987735585" lon="12.104995545556466"><ele>212.0</ele><time>2026-05-04T08:14:00.001Z</time></trkpt><trkpt lat="45.929503721476344" lon="12.105028653317067"><ele>211.33333333333331</ele><time>2026-05-04T08:14:01.001Z</time></trkpt><trkpt lat="45.9295805426867" lon="12.10506571168703"><ele>210.66666666666666</ele><time>2026-05-04T08:14:02.001Z</time></trkpt><trkpt lat="45.929655785398126" lon="12.105105143375406"><ele>210.0</ele><time>2026-05-04T08:14:03.001Z</time></trkpt><trkpt lat="45.92972814652609" lon="12.10514832244938"><ele>210.0</ele><time>2026-05-04T08:14:04.001Z</time></trkpt><trkpt lat="45.92979148326556" lon="12.105196432336326"><ele>210.0</ele><time>2026-05-04T08:14:05.001Z</time></trkpt><trkpt lat="45.929847019191804" lon="12.105255880863075"><ele>210.0</ele><time>2026-05-04T08:14:06.001Z</time></trkpt><trkpt lat="45.92989781571472" lon="12.105327668701225"><ele>210.0</ele><time>2026-05-04T08:14:07.001Z</time></trkpt><trkpt lat="45.92994016359462" lon="12.10539497880147"><ele>210.0</ele><time>2026-05-04T08:14:08.001Z</time></trkpt><trkpt lat="45.92999841465523" lon="12.105480625274373"><ele>210.0</ele><time>2026-05-04T08:14:26.001Z</time></trkpt><trkpt lat="45.93006122251815" lon="12.105579928615535"><ele>209.6</ele><time>2026-05-04T08:14:28.001Z</time></trkpt><trkpt lat="45.93012402252202" lon="12.105707751176302"><ele>209.2</ele><time>2026-05-04T08:14:30.001Z</time></trkpt><trkpt lat="45.93018557381854" lon="12.105790876147545"><ele>208.8</ele><time>2026-05-04T08:15:17Z</time></trkpt><trkpt lat="45.930229611198925" lon="12.105928784119676"><ele>208.4</ele><time>2026-05-04T08:15:19Z</time></trkpt><trkpt lat="45.93028436876506" lon="12.10608995836257"><ele>208.0</ele><time>2026-05-04T08:15:21Z</time></trkpt><trkpt lat="45.93033865190909" lon="12.106214967244108"><ele>207.66666666666666</ele><time>2026-05-04T08:15:23Z</time></trkpt><trkpt lat="45.930380476344745" lon="12.106296006119285"><ele>207.33333333333331</ele><time>2026-05-04T08:15:27Z</time></trkpt><trkpt lat="45.93042084037822" lon="12.106366218757678"><ele>207.0</ele><time>2026-05-04T08:16:01.001Z</time></trkpt><trkpt lat="45.93047041118879" lon="12.106514430433645"><ele>206.66666666666669</ele><time>2026-05-04T08:16:03.001Z</time></trkpt><trkpt lat="45.93050507636122" lon="12.10660752673374"><ele>206.33333333333334</ele><time>2026-05-04T08:16:05.001Z</time></trkpt><trkpt lat="45.930513694482364" lon="12.106702723088311"><ele>206.0</ele><time>2026-05-04T08:16:19.001Z</time></trkpt><trkpt lat="45.930462550399106" lon="12.106828619460947"><ele>205.33333333333334</ele><time>2026-05-04T08:16:21.001Z</time></trkpt><trkpt lat="45.930388686933334" lon="12.106978372442125"><ele>204.66666666666669</ele><time>2026-05-04T08:16:23.001Z</time></trkpt><trkpt lat="45.930344433066274" lon="12.10705988017095"><ele>204.0</ele><time>2026-05-04T08:16:24.001Z</time></trkpt><trkpt lat="45.93029888286341" lon="12.10715141164385"><ele>203.33333333333331</ele><time>2026-05-04T08:16:25.001Z</time></trkpt><trkpt lat="45.93026037186559" lon="12.10725927034939"><ele>202.66666666666666</ele><time>2026-05-04T08:16:26.001Z</time></trkpt><trkpt lat="45.930227380498195" lon="12.107367919361398"><ele>202.0</ele><time>2026-05-04T08:16:27.001Z</time></trkpt><trkpt lat="45.93019621201375" lon="12.107474276708812"><ele>201.8</ele><time>2026-05-04T08:16:28.001Z</time></trkpt><trkpt lat="45.9301659414399" lon="12.107584316716189"><ele>201.6</ele><time>2026-05-04T08:16:29.001Z</time></trkpt><trkpt lat="45.93013807597049" lon="12.10770836702579"><ele>201.4</ele><time>2026-05-04T08:16:30.001Z</time></trkpt><trkpt lat="45.93010565304131" lon="12.107843266841703"><ele>201.20000000000002</ele><time>2026-05-04T08:16:31.001Z</time></trkpt><trkpt lat="45.93007667832998" lon="12.107974322220903"><ele>201.0</ele><time>2026-05-04T08:16:32.001Z</time></trkpt><trkpt lat="45.9300493283286" lon="12.108103214786565"><ele>201.66666666666666</ele><time>2026-05-04T08:16:33.001Z</time></trkpt><trkpt lat="45.93002554874992" lon="12.108222611592945"><ele>202.33333333333331</ele><time>2026-05-04T08:16:34.001Z</time></trkpt><trkpt lat="45.92999530995393" lon="12.108323198818745"><ele>203.0</ele><time>2026-05-04T08:16:36.001Z</time></trkpt><trkpt lat="45.92999175474159" lon="12.108431418527775"><ele>203.66666666666666</ele><time>2026-05-04T08:16:55.001Z</time></trkpt><trkpt lat="45.92997045331606" lon="12.108618143352997"><ele>204.33333333333331</ele><time>2026-05-04T08:16:57.001Z</time></trkpt><trkpt lat="45.92996030711245" lon="12.108731426896908"><ele>205.0</ele><time>2026-05-04T08:16:58Z</time></trkpt><trkpt lat="45.92995116818917" lon="12.108844558967895"><ele>204.99999999999997</ele><time>2026-05-04T08:16:59Z</time></trkpt><trkpt lat="45.92993752411944" lon="12.108950168450757"><ele>205.0</ele><time>2026-05-04T08:17:00Z</time></trkpt><trkpt lat="45.92991891075679" lon="12.109054497299153"><ele>205.0</ele><time>2026-05-04T08:17:01Z</time></trkpt><trkpt lat="45.929901089907936" lon="12.109168576716538"><ele>205.0</ele><time>2026-05-04T08:17:02Z</time></trkpt><trkpt lat="45.929893061723135" lon="12.109291485912605"><ele>204.99999999999997</ele><time>2026-05-04T08:17:03Z</time></trkpt><trkpt lat="45.92989042168448" lon="12.10942101764627"><ele>205.0</ele><time>2026-05-04T08:17:04Z</time></trkpt><trkpt lat="45.92988948180163" lon="12.109546537199416"><ele>204.49999999999997</ele><time>2026-05-04T08:17:05Z</time></trkpt><trkpt lat="45.92988407505224" lon="12.10965748951257"><ele>204.0</ele><time>2026-05-04T08:17:06Z</time></trkpt><trkpt lat="45.9298784458236" lon="12.109747920598785"><ele>203.5</ele><time>2026-05-04T08:17:07Z</time></trkpt><trkpt lat="45.929875267606135" lon="12.109873563537072"><ele>203.0</ele><time>2026-05-04T08:17:09Z</time></trkpt><trkpt lat="45.929869651486555" lon="12.110028474183952"><ele>202.49999999999997</ele><time>2026-05-04T08:17:11Z</time></trkpt><trkpt lat="45.92985813698959" lon="12.110134381458817"><ele>202.0</ele><time>2026-05-04T08:17:12Z</time></trkpt><trkpt lat="45.92984067786204" lon="12.11025933626816"><ele>201.0</ele><time>2026-05-04T08:17:13Z</time></trkpt><trkpt lat="45.9298123000851" lon="12.11039541277738"><ele>200.0</ele><time>2026-05-04T08:17:14Z</time></trkpt><trkpt lat="45.929767340579296" lon="12.110539729078843"><ele>199.0</ele><time>2026-05-04T08:17:15Z</time></trkpt><trkpt lat="45.92970865369894" lon="12.110687995239767"><ele>198.0</ele><time>2026-05-04T08:17:16Z</time></trkpt><trkpt lat="45.92963120128293" lon="12.110834363166713"><ele>196.25</ele><time>2026-05-04T08:17:17Z</time></trkpt><trkpt lat="45.9295498259916" lon="12.110985984667195"><ele>194.5</ele><time>2026-05-04T08:17:18Z</time></trkpt><trkpt lat="45.92946182113417" lon="12.111139967594173"><ele>192.75</ele><time>2026-05-04T08:17:19Z</time></trkpt><trkpt lat="45.92937516447141" lon="12.111299104217949"><ele>191.0</ele><time>2026-05-04T08:17:20Z</time></trkpt><trkpt lat="45.929293838726785" lon="12.111468407299435"><ele>191.0</ele><time>2026-05-04T08:17:21Z</time></trkpt><trkpt lat="45.92922368650843" lon="12.111651660153154"><ele>191.0</ele><time>2026-05-04T08:17:22Z</time></trkpt><trkpt lat="45.92916903883969" lon="12.111842186053883"><ele>191.0</ele><time>2026-05-04T08:17:23Z</time></trkpt><trkpt lat="45.92912632733443" lon="12.112042478364183"><ele>191.0</ele><time>2026-05-04T08:17:24Z</time></trkpt><trkpt lat="45.92909246477539" lon="12.112250678114618"><ele>190.33333333333331</ele><time>2026-05-04T08:17:25Z</time></trkpt><trkpt lat="45.929063177157744" lon="12.112466497450932"><ele>189.66666666666666</ele><time>2026-05-04T08:17:26Z</time></trkpt><trkpt lat="45.92903293918808" lon="12.11268856560751"><ele>189.0</ele><time>2026-05-04T08:17:27Z</time></trkpt><trkpt lat="45.928999237942094" lon="12.112917023265993"><ele>189.0</ele><time>2026-05-04T08:17:28Z</time></trkpt><trkpt lat="45.92896563055756" lon="12.11315101361131"><ele>189.0</ele><time>2026-05-04T08:17:29Z</time></trkpt><trkpt lat="45.92893273582414" lon="12.11338934772246"><ele>189.0</ele><time>2026-05-04T08:17:30Z</time></trkpt><trkpt lat="45.928895100946356" lon="12.11363114247465"><ele>189.33333333333334</ele><time>2026-05-04T08:17:31Z</time></trkpt><trkpt lat="45.92885667841107" lon="12.113877858464907"><ele>189.66666666666669</ele><time>2026-05-04T08:17:32Z</time></trkpt><trkpt lat="45.92881933507128" lon="12.114127854362183"><ele>190.0</ele><time>2026-05-04T08:17:33Z</time></trkpt><trkpt lat="45.92878411561317" lon="12.11437667410381"><ele>191.33333333333334</ele><time>2026-05-04T08:17:34Z</time></trkpt><trkpt lat="45.92875069409999" lon="12.114621898675077"><ele>192.66666666666669</ele><time>2026-05-04T08:17:35Z</time></trkpt><trkpt lat="45.92871877482422" lon="12.114865940894857"><ele>194.0</ele><time>2026-05-04T08:17:36Z</time></trkpt><trkpt lat="45.928698499201076" lon="12.115115006530266"><ele>194.0</ele><time>2026-05-04T08:17:37Z</time></trkpt><trkpt lat="45.928687773136794" lon="12.115368643767434"><ele>194.0</ele><time>2026-05-04T08:17:38Z</time></trkpt><trkpt lat="45.92868628619176" lon="12.11562804986454"><ele>194.0</ele><time>2026-05-04T08:17:39Z</time></trkpt><trkpt lat="45.92868997746782" lon="12.11589188917755"><ele>194.0</ele><time>2026-05-04T08:17:40Z</time></trkpt><trkpt lat="45.9287071582502" lon="12.1161578552673"><ele>194.0</ele><time>2026-05-04T08:17:41Z</time></trkpt><trkpt lat="45.92873981065845" lon="12.116422519734977"><ele>194.0</ele><time>2026-05-04T08:17:42Z</time></trkpt><trkpt lat="45.92878528705472" lon="12.116684372192164"><ele>193.0</ele><time>2026-05-04T08:17:43Z</time></trkpt><trkpt lat="45.928842991808324" lon="12.11694333364383"><ele>192.0</ele><time>2026-05-04T08:17:44.001Z</time></trkpt><trkpt lat="45.92890740867342" lon="12.117199192362493"><ele>191.0</ele><time>2026-05-04T08:17:45Z</time></trkpt><trkpt lat="45.928977865099625" lon="12.117448655137904"><ele>189.33333333333331</ele><time>2026-05-04T08:17:46Z</time></trkpt><trkpt lat="45.92905224673214" lon="12.117691996250002"><ele>187.66666666666666</ele><time>2026-05-04T08:17:47Z</time></trkpt><trkpt lat="45.929126753959565" lon="12.11793872535329"><ele>186.0</ele><time>2026-05-04T08:17:48Z</time></trkpt><trkpt lat="45.92920262312716" lon="12.118187772357881"><ele>192.33333333333331</ele><time>2026-05-04T08:17:49.001Z</time></trkpt><trkpt lat="45.92927803954702" lon="12.118439859152373"><ele>198.66666666666666</ele><time>2026-05-04T08:17:50.001Z</time></trkpt><trkpt lat="45.92935374014628" lon="12.118694144240399"><ele>205.0</ele><time>2026-05-04T08:17:51.001Z</time></trkpt><trkpt lat="45.92943013198083" lon="12.11894942908682"><ele>203.33333333333331</ele><time>2026-05-04T08:17:52.001Z</time></trkpt><trkpt lat="45.92950811680333" lon="12.11920554576852"><ele>201.66666666666669</ele><time>2026-05-04T08:17:53.001Z</time></trkpt><trkpt lat="45.92958391501454" lon="12.119462938611587"><ele>200.0</ele><time>2026-05-04T08:17:54.001Z</time></trkpt><trkpt lat="45.92966053738479" lon="12.11972038703466"><ele>197.33333333333334</ele><time>2026-05-04T08:17:55.001Z</time></trkpt><trkpt lat="45.929736631058475" lon="12.11997733411536"><ele>194.66666666666669</ele><time>2026-05-04T08:17:56.001Z</time></trkpt><trkpt lat="45.92981148816947" lon="12.120233918134337"><ele>192.0</ele><time>2026-05-04T08:17:57.001Z</time></trkpt><trkpt lat="45.929887417409695" lon="12.12048750177374"><ele>193.33333333333331</ele><time>2026-05-04T08:17:58.001Z</time></trkpt><trkpt lat="45.929963424826255" lon="12.120739271513091"><ele>194.66666666666666</ele><time>2026-05-04T08:17:59.001Z</time></trkpt><trkpt lat="45.93003796706496" lon="12.120992799852957"><ele>196.0</ele><time>2026-05-04T08:18:00.001Z</time></trkpt><trkpt lat="45.930113411222464" lon="12.121248034360345"><ele>196.0</ele><time>2026-05-04T08:18:01.001Z</time></trkpt><trkpt lat="45.930189610239545" lon="12.121504966135321"><ele>196.0</ele><time>2026-05-04T08:18:02.001Z</time></trkpt><trkpt lat="45.93026511623022" lon="12.121765067942135"><ele>196.0</ele><time>2026-05-04T08:18:03.001Z</time></trkpt><trkpt lat="45.93034010947812" lon="12.122028967435018"><ele>192.66666666666666</ele><time>2026-05-04T08:18:04.001Z</time></trkpt><trkpt lat="45.93040400434261" lon="12.122302457493676"><ele>189.33333333333331</ele><time>2026-05-04T08:18:05.001Z</time></trkpt><trkpt lat="45.93046216496603" lon="12.1225851460248"><ele>186.0</ele><time>2026-05-04T08:18:06.001Z</time></trkpt><trkpt lat="45.93051657934226" lon="12.122873062236287"><ele>184.0</ele><time>2026-05-04T08:18:07.001Z</time></trkpt><trkpt lat="45.93056818630531" lon="12.12316659652266"><ele>182.0</ele><time>2026-05-04T08:18:08.001Z</time></trkpt><trkpt lat="45.930617800237464" lon="12.123453740073124"><ele>180.0</ele><time>2026-05-04T08:18:09.001Z</time></trkpt><trkpt lat="45.9306595660049" lon="12.123715503313498"><ele>179.0</ele><time>2026-05-04T08:18:10.001Z</time></trkpt><trkpt lat="45.93068363487459" lon="12.123933068238912"><ele>178.0</ele><time>2026-05-04T08:18:11.001Z</time></trkpt><trkpt lat="45.930688092511005" lon="12.124103460858025"><ele>177.0</ele><time>2026-05-04T08:18:12.001Z</time></trkpt><trkpt lat="45.930685703217556" lon="12.124227473614095"><ele>176.0</ele><time>2026-05-04T08:18:13.001Z</time></trkpt><trkpt lat="45.930674154461656" lon="12.124338043839806"><ele>175.0</ele><time>2026-05-04T08:18:15.001Z</time></trkpt><trkpt lat="45.9306876033764" lon="12.124478064231285"><ele>174.83333333333334</ele><time>2026-05-04T08:18:19.001Z</time></trkpt><trkpt lat="45.930731812309794" lon="12.124567712039244"><ele>174.66666666666669</ele><time>2026-05-04T08:18:20.001Z</time></trkpt><trkpt lat="45.93079498102841" lon="12.124583036606454"><ele>174.5</ele><time>2026-05-04T08:18:21.001Z</time></trkpt><trkpt lat="45.930845790967396" lon="12.124658023270701"><ele>174.33333333333334</ele><time>2026-05-04T08:18:22.001Z</time></trkpt><trkpt lat="45.93086799571249" lon="12.124778998929258"><ele>174.16666666666666</ele><time>2026-05-04T08:18:23.001Z</time></trkpt><trkpt lat="45.93089066932637" lon="12.124908317179376"><ele>174.0</ele><time>2026-05-04T08:18:24.001Z</time></trkpt><trkpt lat="45.93091750284735" lon="12.12505482677381"><ele>179.5</ele><time>2026-05-04T08:18:25.001Z</time></trkpt><trkpt lat="45.93094545330321" lon="12.12521404710428"><ele>185.0</ele><time>2026-05-04T08:18:26.001Z</time></trkpt><trkpt lat="45.930973307490646" lon="12.125382175003736"><ele>190.5</ele><time>2026-05-04T08:18:27.001Z</time></trkpt><trkpt lat="45.93099956624657" lon="12.125560177702521"><ele>196.0</ele><time>2026-05-04T08:18:28.001Z</time></trkpt><trkpt lat="45.93102264787911" lon="12.125744731377827"><ele>198.0</ele><time>2026-05-04T08:18:29.001Z</time></trkpt><trkpt lat="45.93103510941826" lon="12.125937450198784"><ele>200.0</ele><time>2026-05-04T08:18:30.001Z</time></trkpt><trkpt lat="45.93104542315018" lon="12.126135589924539"><ele>202.0</ele><time>2026-05-04T08:18:31.001Z</time></trkpt><trkpt lat="45.931057123154616" lon="12.126336070963795"><ele>204.0</ele><time>2026-05-04T08:18:32.001Z</time></trkpt><trkpt lat="45.931086445550804" lon="12.126536273549492"><ele>203.75</ele><time>2026-05-04T08:18:33.001Z</time></trkpt><trkpt lat="45.93114205324516" lon="12.126728153248505"><ele>203.5</ele><time>2026-05-04T08:18:34.001Z</time></trkpt><trkpt lat="45.9312140085311" lon="12.126912371024227"><ele>203.25</ele><time>2026-05-04T08:18:35.001Z</time></trkpt><trkpt lat="45.93128924749198" lon="12.127095395787167"><ele>203.0</ele><time>2026-05-04T08:18:36.001Z</time></trkpt><trkpt lat="45.931368019157375" lon="12.12728016050611"><ele>198.66666666666669</ele><time>2026-05-04T08:18:37.001Z</time></trkpt><trkpt lat="45.93145208919354" lon="12.127465514102973"><ele>194.33333333333334</ele><time>2026-05-04T08:18:38.001Z</time></trkpt><trkpt lat="45.93154996728756" lon="12.127635872187463"><ele>190.0</ele><time>2026-05-04T08:18:39.001Z</time></trkpt><trkpt lat="45.93165214889371" lon="12.127785197746896"><ele>191.0</ele><time>2026-05-04T08:18:40.001Z</time></trkpt><trkpt lat="45.93176493000286" lon="12.12790232597499"><ele>192.0</ele><time>2026-05-04T08:18:41.001Z</time></trkpt><trkpt lat="45.93186401944732" lon="12.127981816736485"><ele>193.0</ele><time>2026-05-04T08:18:42.001Z</time></trkpt><trkpt lat="45.93193468329218" lon="12.128035022453163"><ele>194.0</ele><time>2026-05-04T08:18:43.001Z</time></trkpt><trkpt lat="45.9320193547232" lon="12.128085448322201"><ele>195.0</ele><time>2026-05-04T08:18:45.001Z</time></trkpt><trkpt lat="45.931959752414606" lon="12.128129379245031"><ele>195.0</ele><time>2026-05-04T08:18:56.001Z</time></trkpt><trkpt lat="45.93190215923873" lon="12.12818145646536"><ele>195.0</ele><time>2026-05-04T08:18:59.001Z</time></trkpt><trkpt lat="45.9318459781927" lon="12.128239956716518"><ele>195.0</ele><time>2026-05-04T08:19:04Z</time></trkpt><trkpt lat="45.93180067525717" lon="12.128318857174197"><ele>195.0</ele><time>2026-05-04T08:19:09Z</time></trkpt><trkpt lat="45.93177947168271" lon="12.128408948188845"><ele>195.0</ele><time>2026-05-04T08:19:12Z</time></trkpt><trkpt lat="45.93175076199999" lon="12.12850340169887"><ele>195.0</ele><time>2026-05-04T08:19:15Z</time></trkpt><trkpt lat="45.93172539061192" lon="12.128596050310508"><ele>195.0</ele><time>2026-05-04T08:19:19Z</time></trkpt><trkpt lat="45.93168846989168" lon="12.128669950729037"><ele>192.16666666666666</ele><time>2026-05-04T08:19:27Z</time></trkpt><trkpt lat="45.93166581427212" lon="12.1287774844966"><ele>189.33333333333334</ele><time>2026-05-04T08:19:35Z</time></trkpt><trkpt lat="45.931642179102205" lon="12.12888106282232"><ele>186.5</ele><time>2026-05-04T08:19:39Z</time></trkpt><trkpt lat="45.931618419875385" lon="12.128979674316406"><ele>183.66666666666669</ele><time>2026-05-04T08:19:43Z</time></trkpt><trkpt lat="45.93159312943248" lon="12.129065536222964"><ele>180.83333333333334</ele><time>2026-05-04T08:19:48Z</time></trkpt><trkpt lat="45.93159377371897" lon="12.128966940951083"><ele>178.0</ele><time>2026-05-04T08:20:31.001Z</time></trkpt><trkpt lat="45.9316282716584" lon="12.128830976191075"><ele>178.0</ele><time>2026-05-04T08:20:33.001Z</time></trkpt><trkpt lat="45.931655844288066" lon="12.12870042734257"><ele>178.0</ele><time>2026-05-04T08:20:35.001Z</time></trkpt><trkpt lat="45.93169456223631" lon="12.128604981701079"><ele>178.0</ele><time>2026-05-04T08:20:37.001Z</time></trkpt><trkpt lat="45.93174507836373" lon="12.128490093410436"><ele>178.0</ele><time>2026-05-04T08:20:39.001Z</time></trkpt><trkpt lat="45.93177396915111" lon="12.128332307477695"><ele>178.0</ele><time>2026-05-04T08:20:41.001Z</time></trkpt><trkpt lat="45.9318518989375" lon="12.128208110304735"><ele>180.83333333333334</ele><time>2026-05-04T08:20:43.001Z</time></trkpt><trkpt lat="45.931905984710305" lon="12.128159110963894"><ele>183.66666666666669</ele><time>2026-05-04T08:20:44.001Z</time></trkpt><trkpt lat="45.93197077969269" lon="12.128097675363732"><ele>186.5</ele><time>2026-05-04T08:20:46.001Z</time></trkpt><trkpt lat="45.932042004375205" lon="12.128055658825561"><ele>189.33333333333334</ele><time>2026-05-04T08:20:48.001Z</time></trkpt><trkpt lat="45.93217455269471" lon="12.128065116213559"><ele>192.16666666666666</ele><time>2026-05-04T08:20:50.001Z</time></trkpt><trkpt lat="45.93225196908168" lon="12.128051331432292"><ele>195.0</ele><time>2026-05-04T08:20:51.001Z</time></trkpt><trkpt lat="45.93233567640027" lon="12.128010778117094"><ele>195.0</ele><time>2026-05-04T08:20:52.001Z</time></trkpt><trkpt lat="45.932421579959204" lon="12.127957318965064"><ele>195.0</ele><time>2026-05-04T08:20:53.001Z</time></trkpt><trkpt lat="45.93250867886413" lon="12.1278840928293"><ele>195.0</ele><time>2026-05-04T08:20:54.001Z</time></trkpt><trkpt lat="45.93259433922528" lon="12.127800641118156"><ele>195.0</ele><time>2026-05-04T08:20:55.001Z</time></trkpt><trkpt lat="45.932679988280945" lon="12.127704751245599"><ele>195.0</ele><time>2026-05-04T08:20:56.001Z</time></trkpt><trkpt lat="45.93276595044918" lon="12.127609022446348"><ele>193.33333333333334</ele><time>2026-05-04T08:20:57.001Z</time></trkpt><trkpt lat="45.932840544635994" lon="12.127526318520708"><ele>191.66666666666666</ele><time>2026-05-04T08:20:58.001Z</time></trkpt><trkpt lat="45.93290280820888" lon="12.12748452203228"><ele>190.0</ele><time>2026-05-04T08:20:59.001Z</time></trkpt><trkpt lat="45.933010425217304" lon="12.127561962028466"><ele>188.33333333333331</ele><time>2026-05-04T08:21:01.001Z</time></trkpt><trkpt lat="45.93303854590035" lon="12.12765206111564"><ele>186.66666666666666</ele><time>2026-05-04T08:21:02.001Z</time></trkpt><trkpt lat="45.93306135788919" lon="12.127750586591539"><ele>185.0</ele><time>2026-05-04T08:21:03.001Z</time></trkpt><trkpt lat="45.93308917841528" lon="12.127836116033563"><ele>185.0</ele><time>2026-05-04T08:21:04.001Z</time></trkpt><trkpt lat="45.933125998783204" lon="12.127918822691116"><ele>185.0</ele><time>2026-05-04T08:21:06.001Z</time></trkpt><trkpt lat="45.93317670006847" lon="12.128016380461819"><ele>185.0</ele><time>2026-05-04T08:21:22Z</time></trkpt><trkpt lat="45.933235673085775" lon="12.128155738743724"><ele>185.0</ele><time>2026-05-04T08:21:24Z</time></trkpt><trkpt lat="45.93323663326983" lon="12.128251470707367"><ele>185.0</ele><time>2026-05-04T08:21:25Z</time></trkpt><trkpt lat="45.93321613185051" lon="12.128337159366238"><ele>185.0</ele><time>2026-05-04T08:21:26Z</time></trkpt><trkpt lat="45.93314619412676" lon="12.128430812425048"><ele>184.66666666666666</ele><time>2026-05-04T08:21:28Z</time></trkpt><trkpt lat="45.933075940168685" lon="12.128433593995656"><ele>184.33333333333331</ele><time>2026-05-04T08:22:03Z</time></trkpt><trkpt lat="45.933013572710976" lon="12.12852842827208"><ele>184.0</ele><time>2026-05-04T08:22:05Z</time></trkpt><trkpt lat="45.93292582887497" lon="12.128632119611474"><ele>183.66666666666666</ele><time>2026-05-04T08:22:07Z</time></trkpt><trkpt lat="45.9328719722564" lon="12.128687740108402"><ele>183.33333333333334</ele><time>2026-05-04T08:22:08Z</time></trkpt><trkpt lat="45.93279485208821" lon="12.128766850469983"><ele>183.0</ele><time>2026-05-04T08:22:10.001Z</time></trkpt><trkpt lat="45.93272853146682" lon="12.12875502016995"><ele>183.0</ele><time>2026-05-04T08:22:12.001Z</time></trkpt><trkpt lat="45.93270978322087" lon="12.12866472179645"><ele>183.0</ele><time>2026-05-04T08:22:15.001Z</time></trkpt><trkpt lat="45.93264686808595" lon="12.128539556780709"><ele>183.0</ele><time>2026-05-04T08:22:33.001Z</time></trkpt><trkpt lat="45.932608336215004" lon="12.128448536582237"><ele>183.0</ele><time>2026-05-04T08:22:47.001Z</time></trkpt><trkpt lat="45.93257177116405" lon="12.128366113986774"><ele>183.0</ele><time>2026-05-04T08:22:49.001Z</time></trkpt><trkpt lat="45.93253547061133" lon="12.128277508312875"><ele>183.0</ele><time>2026-05-04T08:23:05.001Z</time></trkpt><trkpt lat="45.93248256841908" lon="12.128162734677087"><ele>183.0</ele><time>2026-05-04T08:23:21.001Z</time></trkpt><trkpt lat="45.93246438288883" lon="12.12806675180171"><ele>183.0</ele><time>2026-05-04T08:23:37Z</time></trkpt><trkpt lat="45.932393257073365" lon="12.12804784995711"><ele>183.0</ele><time>2026-05-04T08:23:40Z</time></trkpt><trkpt lat="45.93243144319334" lon="12.12814596283457"><ele>183.0</ele><time>2026-05-04T08:23:52Z</time></trkpt><trkpt lat="45.93247312283998" lon="12.12824768180455"><ele>183.0</ele><time>2026-05-04T08:24:08Z</time></trkpt><trkpt lat="45.932511675727525" lon="12.12832082924245"><ele>183.0</ele><time>2026-05-04T08:24:10Z</time></trkpt><trkpt lat="45.93259092405683" lon="12.12848591656586"><ele>183.0</ele><time>2026-05-04T08:24:24.001Z</time></trkpt><trkpt lat="45.93262833431435" lon="12.128573428083602"><ele>183.0</ele><time>2026-05-04T08:24:26.001Z</time></trkpt><trkpt lat="45.932667094782936" lon="12.128654404147015"><ele>183.0</ele><time>2026-05-04T08:24:40.001Z</time></trkpt><trkpt lat="45.93272258612311" lon="12.12877665248799"><ele>183.0</ele><time>2026-05-04T08:24:42.001Z</time></trkpt><trkpt lat="45.93282775932649" lon="12.128798636621683"><ele>183.0</ele><time>2026-05-04T08:24:45.001Z</time></trkpt><trkpt lat="45.932883237985706" lon="12.1287270805929"><ele>183.0</ele><time>2026-05-04T08:24:46.001Z</time></trkpt><trkpt lat="45.93293766346033" lon="12.128661963777796"><ele>183.0</ele><time>2026-05-04T08:24:47.001Z</time></trkpt><trkpt lat="45.93300419760038" lon="12.128598631297914"><ele>183.0</ele><time>2026-05-04T08:24:48.001Z</time></trkpt><trkpt lat="45.933082853536966" lon="12.128534507417081"><ele>183.0</ele><time>2026-05-04T08:24:49.001Z</time></trkpt><trkpt lat="45.93316134420582" lon="12.128455839374285"><ele>183.0</ele><time>2026-05-04T08:24:50.001Z</time></trkpt><trkpt lat="45.933219228561" lon="12.128353353722654"><ele>183.0</ele><time>2026-05-04T08:24:51.001Z</time></trkpt><trkpt lat="45.933249507037466" lon="12.128249153068177"><ele>183.0</ele><time>2026-05-04T08:24:52.001Z</time></trkpt><trkpt lat="45.93327138388598" lon="12.128112102653242"><ele>183.33333333333334</ele><time>2026-05-04T08:24:54.001Z</time></trkpt><trkpt lat="45.933359411219634" lon="12.128090520420438"><ele>183.66666666666666</ele><time>2026-05-04T08:24:57.001Z</time></trkpt><trkpt lat="45.93340725235864" lon="12.128153049983052"><ele>184.0</ele><time>2026-05-04T08:24:59.001Z</time></trkpt><trkpt lat="45.93343548569868" lon="12.128249125307642"><ele>184.33333333333331</ele><time>2026-05-04T08:25:01.001Z</time></trkpt><trkpt lat="45.93340314246396" lon="12.12835175159585"><ele>184.66666666666666</ele><time>2026-05-04T08:25:03.001Z</time></trkpt><trkpt lat="45.933390683021855" lon="12.128442899711109"><ele>185.0</ele><time>2026-05-04T08:25:05.001Z</time></trkpt><trkpt lat="45.93339951573408" lon="12.128562094150167"><ele>185.0</ele><time>2026-05-04T08:25:36Z</time></trkpt><trkpt lat="45.93339428623931" lon="12.128468718340631"><ele>185.0</ele><time>2026-05-04T08:26:07Z</time></trkpt><trkpt lat="45.93340161926699" lon="12.128378420622848"><ele>185.0</ele><time>2026-05-04T08:26:11Z</time></trkpt><trkpt lat="45.933429617605285" lon="12.12829084370834"><ele>185.0</ele><time>2026-05-04T08:26:19Z</time></trkpt><trkpt lat="45.933427481512226" lon="12.128185087628355"><ele>185.0</ele><time>2026-05-04T08:27:24.001Z</time></trkpt><trkpt lat="45.933354891226315" lon="12.128068615444692"><ele>185.0</ele><time>2026-05-04T08:27:27.001Z</time></trkpt><trkpt lat="45.933300127701294" lon="12.127951541090733"><ele>185.0</ele><time>2026-05-04T08:27:28Z</time></trkpt><trkpt lat="45.933251506814365" lon="12.127842630405647"><ele>185.0</ele><time>2026-05-04T08:27:29Z</time></trkpt><trkpt lat="45.9331980397936" lon="12.127740638036522"><ele>185.0</ele><time>2026-05-04T08:27:30Z</time></trkpt><trkpt lat="45.93314023570801" lon="12.127643440102425"><ele>185.0</ele><time>2026-05-04T08:27:31Z</time></trkpt><trkpt lat="45.93308911364241" lon="12.127559628314684"><ele>185.0</ele><time>2026-05-04T08:27:32Z</time></trkpt><trkpt lat="45.93302524787846" lon="12.127447751268507"><ele>185.0</ele><time>2026-05-04T08:27:34Z</time></trkpt><trkpt lat="45.93302465458126" lon="12.12734042926705"><ele>185.16666666666666</ele><time>2026-05-04T08:27:37Z</time></trkpt><trkpt lat="45.93313583336316" lon="12.127254913712697"><ele>185.33333333333331</ele><time>2026-05-04T08:27:39Z</time></trkpt><trkpt lat="45.93318932750425" lon="12.127202722860892"><ele>185.5</ele><time>2026-05-04T08:27:40Z</time></trkpt><trkpt lat="45.93326625497965" lon="12.127131264692663"><ele>185.66666666666666</ele><time>2026-05-04T08:27:55Z</time></trkpt><trkpt lat="45.93332331834756" lon="12.127076261961312"><ele>185.83333333333334</ele><time>2026-05-04T08:27:57Z</time></trkpt><trkpt lat="45.93339379398847" lon="12.127005254863217"><ele>186.0</ele><time>2026-05-04T08:28:12Z</time></trkpt><trkpt lat="45.933445431036844" lon="12.126951929953169"><ele>186.0</ele><time>2026-05-04T08:28:13Z</time></trkpt><trkpt lat="45.933509569652074" lon="12.126887397553933"><ele>186.0</ele><time>2026-05-04T08:28:14Z</time></trkpt><trkpt lat="45.933582026745874" lon="12.126819644273654"><ele>186.0</ele><time>2026-05-04T08:28:15Z</time></trkpt><trkpt lat="45.933664552560444" lon="12.126746371421733"><ele>186.0</ele><time>2026-05-04T08:28:16Z</time></trkpt><trkpt lat="45.9337578310593" lon="12.126668051219488"><ele>186.0</ele><time>2026-05-04T08:28:17Z</time></trkpt><trkpt lat="45.93385200932468" lon="12.126597788010304"><ele>186.0</ele><time>2026-05-04T08:28:18Z</time></trkpt><trkpt lat="45.933918026677645" lon="12.126639246284038"><ele>186.0</ele><time>2026-05-04T08:28:23Z</time></trkpt><trkpt lat="45.93397302364372" lon="12.126762713645345"><ele>186.0</ele><time>2026-05-04T08:28:25Z</time></trkpt><trkpt lat="45.93400972067541" lon="12.126836499294765"><ele>186.0</ele><time>2026-05-04T08:28:26Z</time></trkpt><trkpt lat="45.93407805062926" lon="12.126959974084908"><ele>186.0</ele><time>2026-05-04T08:28:28Z</time></trkpt><trkpt lat="45.93409243567564" lon="12.127057234815059"><ele>186.0</ele><time>2026-05-04T08:28:31Z</time></trkpt><trkpt lat="45.93405051361521" lon="12.126935326534435"><ele>186.0</ele><time>2026-05-04T08:30:19Z</time></trkpt><trkpt lat="45.93399578714845" lon="12.126816496993262"><ele>186.0</ele><time>2026-05-04T08:30:21Z</time></trkpt><trkpt lat="45.93392828434185" lon="12.126696259259589"><ele>186.0</ele><time>2026-05-04T08:30:23Z</time></trkpt><trkpt lat="45.93388571599498" lon="12.126612203603685"><ele>186.0</ele><time>2026-05-04T08:30:26Z</time></trkpt><trkpt lat="45.93390379181576" lon="12.126525166914378"><ele>186.0</ele><time>2026-05-04T08:30:29Z</time></trkpt><trkpt lat="45.93398682182723" lon="12.126468086116427"><ele>186.0</ele><time>2026-05-04T08:30:31Z</time></trkpt><trkpt lat="45.9341083802783" lon="12.126412481892771"><ele>187.16666666666666</ele><time>2026-05-04T08:30:33Z</time></trkpt><trkpt lat="45.93418325746524" lon="12.12640893872658"><ele>188.33333333333331</ele><time>2026-05-04T08:30:34Z</time></trkpt><trkpt lat="45.93425978594203" lon="12.12638405565158"><ele>189.5</ele><time>2026-05-04T08:30:35Z</time></trkpt><trkpt lat="45.93433892656594" lon="12.126367682476381"><ele>190.66666666666666</ele><time>2026-05-04T08:30:36Z</time></trkpt><trkpt lat="45.93441512439186" lon="12.12635934974996"><ele>191.83333333333331</ele><time>2026-05-04T08:30:37Z</time></trkpt><trkpt lat="45.93449204801936" lon="12.12632866749502"><ele>193.0</ele><time>2026-05-04T08:30:38Z</time></trkpt><trkpt lat="45.934572409340504" lon="12.126329638851553"><ele>192.99999999999997</ele><time>2026-05-04T08:30:39Z</time></trkpt><trkpt lat="45.93465476817881" lon="12.126332072958432"><ele>193.0</ele><time>2026-05-04T08:30:40Z</time></trkpt><trkpt lat="45.93473924512796" lon="12.12633567623465"><ele>193.0</ele><time>2026-05-04T08:30:41Z</time></trkpt><trkpt lat="45.93482582391573" lon="12.12633882737272"><ele>193.0</ele><time>2026-05-04T08:30:42Z</time></trkpt><trkpt lat="45.934914160033735" lon="12.126338617610646"><ele>192.99999999999997</ele><time>2026-05-04T08:30:43Z</time></trkpt><trkpt lat="45.935003505014826" lon="12.126335620641637"><ele>193.0</ele><time>2026-05-04T08:30:44Z</time></trkpt><trkpt lat="45.93509141426409" lon="12.126329553632978"><ele>192.16666666666666</ele><time>2026-05-04T08:30:45Z</time></trkpt><trkpt lat="45.93517923520983" lon="12.12631939378437"><ele>191.33333333333331</ele><time>2026-05-04T08:30:46Z</time></trkpt><trkpt lat="45.93526467402557" lon="12.126295875743919"><ele>190.5</ele><time>2026-05-04T08:30:47Z</time></trkpt><trkpt lat="45.935347985200636" lon="12.126263259674511"><ele>189.66666666666666</ele><time>2026-05-04T08:30:48Z</time></trkpt><trkpt lat="45.93543207871424" lon="12.126226512223187"><ele>188.83333333333331</ele><time>2026-05-04T08:30:49Z</time></trkpt><trkpt lat="45.93551635784233" lon="12.126180674310989"><ele>188.0</ele><time>2026-05-04T08:30:50Z</time></trkpt><trkpt lat="45.93560368542318" lon="12.126132584756625"><ele>188.0</ele><time>2026-05-04T08:30:51Z</time></trkpt><trkpt lat="45.935691932946305" lon="12.126083801507914"><ele>188.0</ele><time>2026-05-04T08:30:52Z</time></trkpt><trkpt lat="45.93578307359661" lon="12.126039370002351"><ele>188.0</ele><time>2026-05-04T08:30:53Z</time></trkpt><trkpt lat="45.935873160144396" lon="12.125992189101826"><ele>188.0</ele><time>2026-05-04T08:30:54Z</time></trkpt><trkpt lat="45.93596255994432" lon="12.125943103129275"><ele>188.0</ele><time>2026-05-04T08:30:55Z</time></trkpt><trkpt lat="45.936050479581326" lon="12.125895831152661"><ele>187.4</ele><time>2026-05-04T08:30:56Z</time></trkpt><trkpt lat="45.936143906225276" lon="12.125869730699089"><ele>186.8</ele><time>2026-05-04T08:30:57Z</time></trkpt><trkpt lat="45.93624239194487" lon="12.125863084608843"><ele>186.2</ele><time>2026-05-04T08:30:58Z</time></trkpt><trkpt lat="45.93634065447256" lon="12.125869802937167"><ele>185.6</ele><time>2026-05-04T08:30:59Z</time></trkpt><trkpt lat="45.93643524361715" lon="12.12588153084265"><ele>185.0</ele><time>2026-05-04T08:31:00Z</time></trkpt><trkpt lat="45.93652108368314" lon="12.125894166954067"><ele>185.0</ele><time>2026-05-04T08:31:01Z</time></trkpt><trkpt lat="45.93658403766923" lon="12.12590339817445"><ele>185.0</ele><time>2026-05-04T08:31:02Z</time></trkpt><trkpt lat="45.936649820849404" lon="12.12591352155534"><ele>185.0</ele><time>2026-05-04T08:31:19Z</time></trkpt><trkpt lat="45.9367397946688" lon="12.125925006674516"><ele>185.0</ele><time>2026-05-04T08:31:21Z</time></trkpt><trkpt lat="45.93686795895574" lon="12.125937739671942"><ele>185.0</ele><time>2026-05-04T08:31:23Z</time></trkpt><trkpt lat="45.936942941039376" lon="12.125947167438284"><ele>185.0</ele><time>2026-05-04T08:31:24Z</time></trkpt><trkpt lat="45.93702063584103" lon="12.125959022231601"><ele>185.16666666666666</ele><time>2026-05-04T08:31:25Z</time></trkpt><trkpt lat="45.93709440789595" lon="12.125969388826965"><ele>185.33333333333331</ele><time>2026-05-04T08:31:26Z</time></trkpt><trkpt lat="45.937183262722336" lon="12.125981899337228"><ele>185.5</ele><time>2026-05-04T08:31:28Z</time></trkpt><trkpt lat="45.937273045759035" lon="12.125998711430013"><ele>185.66666666666666</ele><time>2026-05-04T08:31:50Z</time></trkpt><trkpt lat="45.93738346801256" lon="12.126026824039148"><ele>185.83333333333334</ele><time>2026-05-04T08:31:52Z</time></trkpt><trkpt lat="45.93744828397648" lon="12.12605942243037"><ele>186.0</ele><time>2026-05-04T08:31:53Z</time></trkpt><trkpt lat="45.93751518938998" lon="12.126100716920677"><ele>187.5</ele><time>2026-05-04T08:31:54Z</time></trkpt><trkpt lat="45.93757402125907" lon="12.126140889950268"><ele>189.0</ele><time>2026-05-04T08:31:55Z</time></trkpt><trkpt lat="45.93763999171839" lon="12.126181601008971"><ele>190.5</ele><time>2026-05-04T08:31:57Z</time></trkpt><trkpt lat="45.93769953758903" lon="12.126217759016985"><ele>192.0</ele><time>2026-05-04T08:32:31Z</time></trkpt><trkpt lat="45.93780705742179" lon="12.126282043535923"><ele>193.5</ele><time>2026-05-04T08:32:33Z</time></trkpt><trkpt lat="45.937867119779455" lon="12.126329763107362"><ele>195.0</ele><time>2026-05-04T08:32:34Z</time></trkpt><trkpt lat="45.93791626260565" lon="12.126395449595764"><ele>195.0</ele><time>2026-05-04T08:32:35Z</time></trkpt><trkpt lat="45.93795534886928" lon="12.126480362310339"><ele>195.0</ele><time>2026-05-04T08:32:36Z</time></trkpt><trkpt lat="45.93799702645262" lon="12.126568404820764"><ele>195.0</ele><time>2026-05-04T08:32:37Z</time></trkpt><trkpt lat="45.93803855538874" lon="12.126651040499807"><ele>195.0</ele><time>2026-05-04T08:32:38Z</time></trkpt><trkpt lat="45.93810843968492" lon="12.126738134238533"><ele>195.0</ele><time>2026-05-04T08:32:40Z</time></trkpt><trkpt lat="45.93818432844555" lon="12.126828555825494"><ele>195.0</ele><time>2026-05-04T08:32:54Z</time></trkpt><trkpt lat="45.93828363794191" lon="12.126908853698225"><ele>193.28571428571428</ele><time>2026-05-04T08:32:56Z</time></trkpt><trkpt lat="45.93833494428343" lon="12.126979839770899"><ele>191.57142857142856</ele><time>2026-05-04T08:32:57Z</time></trkpt><trkpt lat="45.9383764799041" lon="12.12705932211468"><ele>189.85714285714286</ele><time>2026-05-04T08:32:58Z</time></trkpt><trkpt lat="45.93841511395602" lon="12.127140602763962"><ele>188.14285714285714</ele><time>2026-05-04T08:32:59Z</time></trkpt><trkpt lat="45.93844987348735" lon="12.127223496721177"><ele>186.42857142857144</ele><time>2026-05-04T08:33:00Z</time></trkpt><trkpt lat="45.93848145398558" lon="12.12732095653467"><ele>184.71428571428572</ele><time>2026-05-04T08:33:01Z</time></trkpt><trkpt lat="45.93850627905883" lon="12.12743571877928"><ele>183.0</ele><time>2026-05-04T08:33:02Z</time></trkpt><trkpt lat="45.93851818014635" lon="12.127552196142593"><ele>181.66666666666666</ele><time>2026-05-04T08:33:03Z</time></trkpt><trkpt lat="45.93851952654133" lon="12.127669627192285"><ele>180.33333333333334</ele><time>2026-05-04T08:33:04Z</time></trkpt><trkpt lat="45.93851482820718" lon="12.127786978005371"><ele>179.0</ele><time>2026-05-04T08:33:05Z</time></trkpt><trkpt lat="45.93851368439479" lon="12.127893658067551"><ele>177.66666666666669</ele><time>2026-05-04T08:33:06Z</time></trkpt><trkpt lat="45.9385123785909" lon="12.128029040547059"><ele>176.33333333333334</ele><time>2026-05-04T08:33:08Z</time></trkpt><trkpt lat="45.938525109240835" lon="12.12812763539777"><ele>175.0</ele><time>2026-05-04T08:33:29Z</time></trkpt><trkpt lat="45.93851121369697" lon="12.128273494536634"><ele>174.6</ele><time>2026-05-04T08:33:31Z</time></trkpt><trkpt lat="45.938531985126566" lon="12.128361676777512"><ele>174.2</ele><time>2026-05-04T08:33:32Z</time></trkpt><trkpt lat="45.93855462554999" lon="12.128532974895137"><ele>173.8</ele><time>2026-05-04T08:33:34Z</time></trkpt><trkpt lat="45.93859032605502" lon="12.128686527388664"><ele>173.4</ele><time>2026-05-04T08:33:36Z</time></trkpt><trkpt lat="45.93862321680112" lon="12.128782649892779"><ele>173.0</ele><time>2026-05-04T08:33:38Z</time></trkpt><trkpt lat="45.93866373401177" lon="12.128891335993545"><ele>173.0</ele><time>2026-05-04T08:33:40Z</time></trkpt><trkpt lat="45.93869557510755" lon="12.128977007192576"><ele>173.0</ele><time>2026-05-04T08:33:41Z</time></trkpt><trkpt lat="45.93873112016435" lon="12.129074416432058"><ele>173.0</ele><time>2026-05-04T08:33:42Z</time></trkpt><trkpt lat="45.938776583691684" lon="12.129186813523328"><ele>173.0</ele><time>2026-05-04T08:33:43Z</time></trkpt><trkpt lat="45.93882522921861" lon="12.129308232599676"><ele>173.0</ele><time>2026-05-04T08:33:44Z</time></trkpt><trkpt lat="45.9388775082814" lon="12.129437833934432"><ele>173.0</ele><time>2026-05-04T08:33:45Z</time></trkpt><trkpt lat="45.938934282635536" lon="12.12957292021365"><ele>172.8</ele><time>2026-05-04T08:33:46Z</time></trkpt><trkpt lat="45.938991564612074" lon="12.1297002046022"><ele>172.60000000000002</ele><time>2026-05-04T08:33:47Z</time></trkpt><trkpt lat="45.939046164714036" lon="12.12981268373866"><ele>172.39999999999998</ele><time>2026-05-04T08:33:48Z</time></trkpt><trkpt lat="45.93909773934666" lon="12.129896727078645"><ele>172.2</ele><time>2026-05-04T08:33:49Z</time></trkpt><trkpt lat="45.939149915093324" lon="12.129950636041436"><ele>172.0</ele><time>2026-05-04T08:33:50Z</time></trkpt><trkpt lat="45.93922615206592" lon="12.12983764790088"><ele>172.0</ele><time>2026-05-04T08:33:52Z</time></trkpt><trkpt lat="45.93910854598287" lon="12.129799748306638"><ele>172.0</ele><time>2026-05-04T08:33:58Z</time></trkpt><trkpt lat="45.93901427257361" lon="12.129727739893932"><ele>172.0</ele><time>2026-05-04T08:34:02Z</time></trkpt><trkpt lat="45.938977460253554" lon="12.129638699614214"><ele>172.0</ele><time>2026-05-04T08:34:03Z</time></trkpt><trkpt lat="45.93894112986455" lon="12.129547708305074"><ele>172.0</ele><time>2026-05-04T08:34:04Z</time></trkpt><trkpt lat="45.93890632163321" lon="12.129459309764915"><ele>172.0</ele><time>2026-05-04T08:34:05Z</time></trkpt><trkpt lat="45.938874061222876" lon="12.129380578530185"><ele>172.0</ele><time>2026-05-04T08:34:06Z</time></trkpt><trkpt lat="45.938821821939825" lon="12.129245444565743"><ele>172.0</ele><time>2026-05-04T08:34:08Z</time></trkpt><trkpt lat="45.93879097229918" lon="12.129165520730297"><ele>172.0</ele><time>2026-05-04T08:34:11Z</time></trkpt><trkpt lat="45.93873789981454" lon="12.12905933149008"><ele>172.0</ele><time>2026-05-04T08:34:23Z</time></trkpt><trkpt lat="45.93867004753702" lon="12.128906456797566"><ele>172.0</ele><time>2026-05-04T08:34:25Z</time></trkpt><trkpt lat="45.93862109128426" lon="12.128774083866833"><ele>172.16666666666669</ele><time>2026-05-04T08:34:27Z</time></trkpt><trkpt lat="45.93858703726507" lon="12.128678176226956"><ele>172.33333333333334</ele><time>2026-05-04T08:34:29Z</time></trkpt><trkpt lat="45.93856595670879" lon="12.128535627728654"><ele>172.5</ele><time>2026-05-04T08:34:31Z</time></trkpt><trkpt lat="45.938559183427365" lon="12.128397120930996"><ele>172.66666666666666</ele><time>2026-05-04T08:34:33Z</time></trkpt><trkpt lat="45.93854898244848" lon="12.128301239916732"><ele>172.83333333333331</ele><time>2026-05-04T08:34:34Z</time></trkpt><trkpt lat="45.93854618499521" lon="12.12818153543727"><ele>173.0</ele><time>2026-05-04T08:34:35Z</time></trkpt><trkpt lat="45.93854616803916" lon="12.128052227135015"><ele>173.33333333333331</ele><time>2026-05-04T08:34:36Z</time></trkpt><trkpt lat="45.93854754352092" lon="12.127925938871854"><ele>173.66666666666666</ele><time>2026-05-04T08:34:37Z</time></trkpt><trkpt lat="45.938551311463776" lon="12.127812176347645"><ele>174.0</ele><time>2026-05-04T08:34:38Z</time></trkpt><trkpt lat="45.9385568226741" lon="12.127712793872737"><ele>174.33333333333334</ele><time>2026-05-04T08:34:39Z</time></trkpt><trkpt lat="45.938559167499115" lon="12.127616244282347"><ele>174.66666666666669</ele><time>2026-05-04T08:34:40Z</time></trkpt><trkpt lat="45.93855262485667" lon="12.127483921760064"><ele>175.0</ele><time>2026-05-04T08:34:42Z</time></trkpt><trkpt lat="45.93853869906501" lon="12.127370580707828"><ele>175.6</ele><time>2026-05-04T08:34:58Z</time></trkpt><trkpt lat="45.938515953211436" lon="12.127228953455099"><ele>176.2</ele><time>2026-05-04T08:35:00Z</time></trkpt><trkpt lat="45.938548887198486" lon="12.12709711700576"><ele>176.8</ele><time>2026-05-04T08:35:02Z</time></trkpt><trkpt lat="45.93852422391063" lon="12.126996880974076"><ele>177.4</ele><time>2026-05-04T08:35:33Z</time></trkpt><trkpt lat="45.93850744225635" lon="12.126883110600197"><ele>178.0</ele><time>2026-05-04T08:35:35Z</time></trkpt><trkpt lat="45.93849411593625" lon="12.126738457057998"><ele>178.0</ele><time>2026-05-04T08:35:37Z</time></trkpt><trkpt lat="45.938486188370504" lon="12.126597074216145"><ele>178.0</ele><time>2026-05-04T08:35:39Z</time></trkpt><trkpt lat="45.93849280201584" lon="12.126698764305491"><ele>178.0</ele><time>2026-05-04T08:35:58Z</time></trkpt><trkpt lat="45.938317838347125" lon="12.126741583920987"><ele>178.0</ele><time>2026-05-04T08:36:12Z</time></trkpt><trkpt lat="45.93826959042419" lon="12.126814630048042"><ele>178.0</ele><time>2026-05-04T08:36:15Z</time></trkpt><trkpt lat="45.93835294238773" lon="12.12700722591521"><ele>178.0</ele><time>2026-05-04T08:36:18Z</time></trkpt><trkpt lat="45.93839891706337" lon="12.127092892628504"><ele>178.0</ele><time>2026-05-04T08:36:19Z</time></trkpt><trkpt lat="45.93844588151091" lon="12.127200271823972"><ele>178.0</ele><time>2026-05-04T08:36:20Z</time></trkpt><trkpt lat="45.938482496819255" lon="12.12732145976061"><ele>178.0</ele><time>2026-05-04T08:36:21Z</time></trkpt><trkpt lat="45.938511859576735" lon="12.127438577475855"><ele>178.0</ele><time>2026-05-04T08:36:22Z</time></trkpt><trkpt lat="45.938526987749384" lon="12.127554169596339"><ele>178.0</ele><time>2026-05-04T08:36:23Z</time></trkpt><trkpt lat="45.938524813325685" lon="12.127666225584113"><ele>177.83333333333334</ele><time>2026-05-04T08:36:24Z</time></trkpt><trkpt lat="45.938486371896374" lon="12.127748129601303"><ele>177.66666666666669</ele><time>2026-05-04T08:36:25Z</time></trkpt><trkpt lat="45.938398077395036" lon="12.127788830624805"><ele>177.5</ele><time>2026-05-04T08:36:27Z</time></trkpt><trkpt lat="45.93832825261377" lon="12.127813147696342"><ele>177.33333333333334</ele><time>2026-05-04T08:36:30Z</time></trkpt><trkpt lat="45.93825250248398" lon="12.127833800573688"><ele>177.16666666666666</ele><time>2026-05-04T08:36:34Z</time></trkpt><trkpt lat="45.938154115237666" lon="12.127874375701184"><ele>177.0</ele><time>2026-05-04T08:38:20Z</time></trkpt><trkpt lat="45.93804855367774" lon="12.12789696222435"><ele>177.0</ele><time>2026-05-04T08:38:22Z</time></trkpt><trkpt lat="45.937986720419715" lon="12.12791611158736"><ele>177.0</ele><time>2026-05-04T08:38:23Z</time></trkpt><trkpt lat="45.93789331518489" lon="12.127993352541566"><ele>177.0</ele><time>2026-05-04T08:38:25Z</time></trkpt><trkpt lat="45.9378942553248" lon="12.128090365363889"><ele>177.0</ele><time>2026-05-04T08:38:26Z</time></trkpt><trkpt lat="45.93792437633264" lon="12.128195643828589"><ele>177.0</ele><time>2026-05-04T08:38:27Z</time></trkpt><trkpt lat="45.937948970397166" lon="12.128310242316923"><ele>177.0</ele><time>2026-05-04T08:38:28Z</time></trkpt><trkpt lat="45.93795935220486" lon="12.128444802392117"><ele>176.66666666666666</ele><time>2026-05-04T08:38:29Z</time></trkpt><trkpt lat="45.9379699773194" lon="12.128566913882931"><ele>176.33333333333334</ele><time>2026-05-04T08:38:30Z</time></trkpt><trkpt lat="45.937986602632655" lon="12.128673691810715"><ele>176.0</ele><time>2026-05-04T08:38:31Z</time></trkpt><trkpt lat="45.937995463262304" lon="12.128784351641928"><ele>175.66666666666669</ele><time>2026-05-04T08:38:32Z</time></trkpt><trkpt lat="45.93800659774626" lon="12.128876197162933"><ele>175.33333333333334</ele><time>2026-05-04T08:38:33Z</time></trkpt><trkpt lat="45.93794089846282" lon="12.128859742482131"><ele>175.0</ele><time>2026-05-04T08:38:35Z</time></trkpt><trkpt lat="45.93784913456126" lon="12.128897286911245"><ele>175.0</ele><time>2026-05-04T08:38:37Z</time></trkpt><trkpt lat="45.937742649063374" lon="12.12893255798622"><ele>175.0</ele><time>2026-05-04T08:38:51.001Z</time></trkpt><trkpt lat="45.93765083220679" lon="12.128968168656847"><ele>175.0</ele><time>2026-05-04T08:39:05.001Z</time></trkpt><trkpt lat="45.93756676915061" lon="12.128942801020397"><ele>175.0</ele><time>2026-05-04T08:39:07.001Z</time></trkpt><trkpt lat="45.93751006485453" lon="12.128999345276764"><ele>175.0</ele><time>2026-05-04T08:39:10.001Z</time></trkpt><trkpt lat="45.93757731270154" lon="12.128965451306073"><ele>175.0</ele><time>2026-05-04T08:40:30.001Z</time></trkpt><trkpt lat="45.93763804649986" lon="12.129041698296833"><ele>175.0</ele><time>2026-05-04T08:40:31.001Z</time></trkpt><trkpt lat="45.93769707706198" lon="12.128999355334095"><ele>175.0</ele><time>2026-05-04T08:41:06.001Z</time></trkpt><trkpt lat="45.937762119440244" lon="12.128995223981732"><ele>175.0</ele><time>2026-05-04T08:41:08.001Z</time></trkpt><trkpt lat="45.937861384202485" lon="12.128968382338638"><ele>175.0</ele><time>2026-05-04T08:41:21.001Z</time></trkpt><trkpt lat="45.93792962875726" lon="12.128948931763222"><ele>175.0</ele><time>2026-05-04T08:41:22.001Z</time></trkpt><trkpt lat="45.937995537701255" lon="12.128931782654947"><ele>175.0</ele><time>2026-05-04T08:41:23.001Z</time></trkpt><trkpt lat="45.93806245668151" lon="12.128873052294605"><ele>175.0</ele><time>2026-05-04T08:41:25.001Z</time></trkpt><trkpt lat="45.93804737912962" lon="12.128740001669247"><ele>175.0</ele><time>2026-05-04T08:41:26.001Z</time></trkpt><trkpt lat="45.93802336576795" lon="12.128654222750539"><ele>175.0</ele><time>2026-05-04T08:41:27.001Z</time></trkpt><trkpt lat="45.9379920818786" lon="12.12847088607552"><ele>175.0</ele><time>2026-05-04T08:41:29.001Z</time></trkpt><trkpt lat="45.93798070910368" lon="12.128361997766348"><ele>175.0</ele><time>2026-05-04T08:41:30.001Z</time></trkpt><trkpt lat="45.937969876834565" lon="12.128248501162107"><ele>175.0</ele><time>2026-05-04T08:41:31.001Z</time></trkpt><trkpt lat="45.93795881988071" lon="12.128133389934328"><ele>175.0</ele><time>2026-05-04T08:41:32.001Z</time></trkpt><trkpt lat="45.937949915572844" lon="12.128040998377552"><ele>175.14285714285714</ele><time>2026-05-04T08:41:33.001Z</time></trkpt><trkpt lat="45.93795305738823" lon="12.127950205923936"><ele>175.28571428571428</ele><time>2026-05-04T08:41:35.001Z</time></trkpt><trkpt lat="45.93788691680537" lon="12.127931921513431"><ele>175.42857142857144</ele><time>2026-05-04T08:41:38.001Z</time></trkpt><trkpt lat="45.93783073843415" lon="12.127998872399997"><ele>175.57142857142856</ele><time>2026-05-04T08:41:56.001Z</time></trkpt><trkpt lat="45.93774455062395" lon="12.128011522585044"><ele>175.71428571428572</ele><time>2026-05-04T08:41:58.001Z</time></trkpt><trkpt lat="45.93766008433366" lon="12.128043465461031"><ele>175.85714285714286</ele><time>2026-05-04T08:42:19.001Z</time></trkpt><trkpt lat="45.93759673384718" lon="12.12802491859288"><ele>176.0</ele><time>2026-05-04T08:42:20.001Z</time></trkpt><trkpt lat="45.937525811072234" lon="12.128046935947134"><ele>176.0</ele><time>2026-05-04T08:42:21.001Z</time></trkpt><trkpt lat="45.93744613432874" lon="12.128071670921571"><ele>176.0</ele><time>2026-05-04T08:42:22.001Z</time></trkpt><trkpt lat="45.937355359764915" lon="12.128099851069624"><ele>176.0</ele><time>2026-05-04T08:42:23.001Z</time></trkpt><trkpt lat="45.93726548122589" lon="12.12815153987726"><ele>176.0</ele><time>2026-05-04T08:42:24.001Z</time></trkpt><trkpt lat="45.937177480159335" lon="12.128177116192486"><ele>176.0</ele><time>2026-05-04T08:42:25.001Z</time></trkpt><trkpt lat="45.93709075510561" lon="12.128184149322353"><ele>176.0</ele><time>2026-05-04T08:42:26.001Z</time></trkpt><trkpt lat="45.937016091526125" lon="12.128209334621923"><ele>175.83333333333331</ele><time>2026-05-04T08:42:27.001Z</time></trkpt><trkpt lat="45.93694953437527" lon="12.128231785501976"><ele>175.66666666666666</ele><time>2026-05-04T08:42:28.001Z</time></trkpt><trkpt lat="45.9368744219082" lon="12.128272001550407"><ele>175.5</ele><time>2026-05-04T08:42:30.001Z</time></trkpt><trkpt lat="45.93679486253797" lon="12.128292101871004"><ele>175.33333333333334</ele><time>2026-05-04T08:42:44.001Z</time></trkpt><trkpt lat="45.93671674900111" lon="12.128324898375961"><ele>175.16666666666669</ele><time>2026-05-04T08:42:58.001Z</time></trkpt><trkpt lat="45.93660149709987" lon="12.12834918443796"><ele>175.0</ele><time>2026-05-04T08:43:00.001Z</time></trkpt><trkpt lat="45.93652915200819" lon="12.128375526217742"><ele>175.0</ele><time>2026-05-04T08:43:02.001Z</time></trkpt><trkpt lat="45.93659747470228" lon="12.128350541268508"><ele>175.0</ele><time>2026-05-04T08:43:56.001Z</time></trkpt><trkpt lat="45.93670133853819" lon="12.12831724616794"><ele>175.0</ele><time>2026-05-04T08:43:58.001Z</time></trkpt><trkpt lat="45.93676249296506" lon="12.12837041118513"><ele>175.0</ele><time>2026-05-04T08:43:59.001Z</time></trkpt><trkpt lat="45.93684047272221" lon="12.128341534553453"><ele>175.0</ele><time>2026-05-04T08:44:15.001Z</time></trkpt><trkpt lat="45.9369289168837" lon="12.12831377857874"><ele>175.0</ele><time>2026-05-04T08:44:17.001Z</time></trkpt><trkpt lat="45.937024032326526" lon="12.128281939306747"><ele>175.0</ele><time>2026-05-04T08:44:34.001Z</time></trkpt><trkpt lat="45.93713684713313" lon="12.1282400704909"><ele>175.0</ele><time>2026-05-04T08:44:36.001Z</time></trkpt><trkpt lat="45.937238359967225" lon="12.128201551410722"><ele>175.0</ele><time>2026-05-04T08:44:38.001Z</time></trkpt><trkpt lat="45.9372623409474" lon="12.128052884555217"><ele>175.0</ele><time>2026-05-04T08:44:41.001Z</time></trkpt><trkpt lat="45.937248838121526" lon="12.127887731400445"><ele>175.0</ele><time>2026-05-04T08:44:43.001Z</time></trkpt><trkpt lat="45.93722783014385" lon="12.12773744459985"><ele>175.2</ele><time>2026-05-04T08:44:45.001Z</time></trkpt><trkpt lat="45.93720810385417" lon="12.127617684595767"><ele>175.4</ele><time>2026-05-04T08:45:07.001Z</time></trkpt><trkpt lat="45.9371751994796" lon="12.127485336561703"><ele>175.60000000000002</ele><time>2026-05-04T08:45:09.001Z</time></trkpt><trkpt lat="45.937153813415165" lon="12.127346050168606"><ele>175.8</ele><time>2026-05-04T08:45:30.001Z</time></trkpt><trkpt lat="45.93713591051371" lon="12.127229449299833"><ele>176.0</ele><time>2026-05-04T08:45:34.001Z</time></trkpt><trkpt lat="45.937234047717666" lon="12.127189852825184"><ele>177.16666666666666</ele><time>2026-05-04T08:45:35.001Z</time></trkpt><trkpt lat="45.937299142573366" lon="12.127213034987335"><ele>178.33333333333331</ele><time>2026-05-04T08:46:01.001Z</time></trkpt><trkpt lat="45.937377897355816" lon="12.12717681069365"><ele>179.5</ele><time>2026-05-04T08:46:03.001Z</time></trkpt><trkpt lat="45.93744797687065" lon="12.127153858165732"><ele>180.66666666666666</ele><time>2026-05-04T08:46:05.001Z</time></trkpt><trkpt lat="45.9375375985787" lon="12.1271245052119"><ele>181.83333333333334</ele><time>2026-05-04T08:46:21.001Z</time></trkpt><trkpt lat="45.937604308049366" lon="12.127102656476442"><ele>183.0</ele><time>2026-05-04T08:46:22.001Z</time></trkpt><trkpt lat="45.93768806539231" lon="12.127098834974753"><ele>183.0</ele><time>2026-05-04T08:46:23.001Z</time></trkpt><trkpt lat="45.93777532176635" lon="12.127068277467028"><ele>183.0</ele><time>2026-05-04T08:46:24.001Z</time></trkpt><trkpt lat="45.93786851114772" lon="12.127013557684732"><ele>183.0</ele><time>2026-05-04T08:46:25.001Z</time></trkpt><trkpt lat="45.93796970594999" lon="12.126977048341942"><ele>183.0</ele><time>2026-05-04T08:46:26.001Z</time></trkpt><trkpt lat="45.938059027268785" lon="12.126944822642267"><ele>183.0</ele><time>2026-05-04T08:46:27.001Z</time></trkpt><trkpt lat="45.9381396338711" lon="12.126955482553958"><ele>183.0</ele><time>2026-05-04T08:46:28.001Z</time></trkpt><trkpt lat="45.93821399830658" lon="12.12688812292728"><ele>183.0</ele><time>2026-05-04T08:46:30.001Z</time></trkpt><trkpt lat="45.93817485933644" lon="12.126744098233495"><ele>183.0</ele><time>2026-05-04T08:46:35.001Z</time></trkpt><trkpt lat="45.93809421857276" lon="12.126646927896346"><ele>183.0</ele><time>2026-05-04T08:46:37.001Z</time></trkpt><trkpt lat="45.93805209013479" lon="12.12656677290937"><ele>183.0</ele><time>2026-05-04T08:46:38.001Z</time></trkpt><trkpt lat="45.93801081396143" lon="12.126472526952114"><ele>183.0</ele><time>2026-05-04T08:46:39.001Z</time></trkpt><trkpt lat="45.93796759048154" lon="12.126393123228821"><ele>183.5</ele><time>2026-05-04T08:46:40.001Z</time></trkpt><trkpt lat="45.937910221205094" lon="12.126313993984843"><ele>184.0</ele><time>2026-05-04T08:46:42.001Z</time></trkpt><trkpt lat="45.93783736015353" lon="12.126275901646968"><ele>184.5</ele><time>2026-05-04T08:47:02.001Z</time></trkpt><trkpt lat="45.937779372021346" lon="12.126212005190258"><ele>185.0</ele><time>2026-05-04T08:47:04.001Z</time></trkpt><trkpt lat="45.937690872116114" lon="12.126184820303159"><ele>185.5</ele><time>2026-05-04T08:47:26.001Z</time></trkpt><trkpt lat="45.93761225343252" lon="12.126134970678875"><ele>186.0</ele><time>2026-05-04T08:47:28.001Z</time></trkpt><trkpt lat="45.937511564642726" lon="12.126069170699743"><ele>186.0</ele><time>2026-05-04T08:47:30.001Z</time></trkpt><trkpt lat="45.93742290162485" lon="12.125986083751657"><ele>186.0</ele><time>2026-05-04T08:47:32.001Z</time></trkpt><trkpt lat="45.93736983487738" lon="12.125930741505499"><ele>186.0</ele><time>2026-05-04T08:47:34.001Z</time></trkpt><trkpt lat="45.937407336690875" lon="12.125824817582805"><ele>186.0</ele><time>2026-05-04T08:47:38.001Z</time></trkpt><trkpt lat="45.93745197359745" lon="12.12574183362662"><ele>186.0</ele><time>2026-05-04T08:47:40.001Z</time></trkpt><trkpt lat="45.93750669927972" lon="12.1256893329727"><ele>186.0</ele><time>2026-05-04T08:47:43.001Z</time></trkpt><trkpt lat="45.937602140956386" lon="12.125639225322834"><ele>189.66666666666666</ele><time>2026-05-04T08:49:18Z</time></trkpt><trkpt lat="45.93768499522961" lon="12.125551435379196"><ele>193.33333333333331</ele><time>2026-05-04T08:49:20Z</time></trkpt><trkpt lat="45.93775305919638" lon="12.125497406796237"><ele>197.0</ele><time>2026-05-04T08:49:23Z</time></trkpt><trkpt lat="45.937730388322464" lon="12.125391361542945"><ele>200.66666666666666</ele><time>2026-05-04T08:49:41Z</time></trkpt><trkpt lat="45.937780563843745" lon="12.125286388592905"><ele>204.33333333333331</ele><time>2026-05-04T08:49:43Z</time></trkpt><trkpt lat="45.937838550973275" lon="12.125210194838894"><ele>208.0</ele><time>2026-05-04T08:49:45Z</time></trkpt><trkpt lat="45.937761783001456" lon="12.125220087885042"><ele>207.99999999999997</ele><time>2026-05-04T08:49:51Z</time></trkpt><trkpt lat="45.937755607223274" lon="12.125336388802948"><ele>208.0</ele><time>2026-05-04T08:49:53Z</time></trkpt><trkpt lat="45.9377584091013" lon="12.125428560555383"><ele>208.0</ele><time>2026-05-04T08:49:55Z</time></trkpt><trkpt lat="45.937801004223935" lon="12.125533128782951"><ele>208.0</ele><time>2026-05-04T08:49:58Z</time></trkpt><trkpt lat="45.93783558961412" lon="12.125625313863956"><ele>207.99999999999997</ele><time>2026-05-04T08:50:01Z</time></trkpt><trkpt lat="45.93789381090238" lon="12.125746932521471"><ele>208.0</ele><time>2026-05-04T08:50:03Z</time></trkpt><trkpt lat="45.937959027157355" lon="12.125863098541803"><ele>205.4</ele><time>2026-05-04T08:50:05Z</time></trkpt><trkpt lat="45.93805622350288" lon="12.125948876152695"><ele>202.8</ele><time>2026-05-04T08:50:07Z</time></trkpt><trkpt lat="45.938170318965234" lon="12.125989882874565"><ele>200.2</ele><time>2026-05-04T08:50:09Z</time></trkpt><trkpt lat="45.93827138004478" lon="12.126041431830933"><ele>197.6</ele><time>2026-05-04T08:50:11Z</time></trkpt><trkpt lat="45.938352050113664" lon="12.126083815116749"><ele>195.0</ele><time>2026-05-04T08:50:13Z</time></trkpt><trkpt lat="45.93844273747379" lon="12.126129495993391"><ele>194.66666666666666</ele><time>2026-05-04T08:50:48Z</time></trkpt><trkpt lat="45.93851319314879" lon="12.126152775472388"><ele>194.33333333333331</ele><time>2026-05-04T08:50:50Z</time></trkpt><trkpt lat="45.93861669410524" lon="12.126126839275283"><ele>194.0</ele><time>2026-05-04T08:50:53Z</time></trkpt><trkpt lat="45.938691198362996" lon="12.126108578128765"><ele>193.66666666666666</ele><time>2026-05-04T08:50:55Z</time></trkpt><trkpt lat="45.9387573784201" lon="12.126102521708836"><ele>193.33333333333331</ele><time>2026-05-04T08:50:57Z</time></trkpt><trkpt lat="45.93885717398517" lon="12.126097057676137"><ele>193.0</ele><time>2026-05-04T08:50:59Z</time></trkpt><trkpt lat="45.93892553675439" lon="12.126088206295695"><ele>193.0</ele><time>2026-05-04T08:51:00Z</time></trkpt><trkpt lat="45.93900532044317" lon="12.126072925506378"><ele>193.0</ele><time>2026-05-04T08:51:01Z</time></trkpt><trkpt lat="45.939090390609294" lon="12.126058842978601"><ele>193.0</ele><time>2026-05-04T08:51:02Z</time></trkpt><trkpt lat="45.93918413381295" lon="12.126044361835149"><ele>193.0</ele><time>2026-05-04T08:51:03Z</time></trkpt><trkpt lat="45.93928671117062" lon="12.126024971475728"><ele>193.0</ele><time>2026-05-04T08:51:04Z</time></trkpt><trkpt lat="45.939398157655496" lon="12.125982450505514"><ele>190.75</ele><time>2026-05-04T08:51:05Z</time></trkpt><trkpt lat="45.93951653506427" lon="12.12591691005763"><ele>188.5</ele><time>2026-05-04T08:51:06Z</time></trkpt><trkpt lat="45.9396400302479" lon="12.12584005029823"><ele>186.25</ele><time>2026-05-04T08:51:07Z</time></trkpt><trkpt lat="45.939768454341596" lon="12.125775797215548"><ele>184.0</ele><time>2026-05-04T08:51:08Z</time></trkpt><trkpt lat="45.939900996553995" lon="12.12573321792552"><ele>183.0</ele><time>2026-05-04T08:51:09Z</time></trkpt><trkpt lat="45.94003118608289" lon="12.125705366106954"><ele>182.0</ele><time>2026-05-04T08:51:10Z</time></trkpt><trkpt lat="45.94015412451873" lon="12.125699154563646"><ele>181.0</ele><time>2026-05-04T08:51:11Z</time></trkpt><trkpt lat="45.940263454417014" lon="12.125724128972577"><ele>180.0</ele><time>2026-05-04T08:51:12Z</time></trkpt><trkpt lat="45.94037028714343" lon="12.125781380923115"><ele>180.0</ele><time>2026-05-04T08:51:13Z</time></trkpt><trkpt lat="45.940472234222966" lon="12.125854619211244"><ele>180.0</ele><time>2026-05-04T08:51:14Z</time></trkpt><trkpt lat="45.940572453426604" lon="12.125912684405208"><ele>180.0</ele><time>2026-05-04T08:51:15Z</time></trkpt><trkpt lat="45.940672470480884" lon="12.125940607160256"><ele>180.0</ele><time>2026-05-04T08:51:16Z</time></trkpt><trkpt lat="45.94077943468646" lon="12.125928845739795"><ele>180.0</ele><time>2026-05-04T08:51:17Z</time></trkpt><trkpt lat="45.940885004900025" lon="12.125886131714905"><ele>179.75</ele><time>2026-05-04T08:51:18Z</time></trkpt><trkpt lat="45.94099933014395" lon="12.125845499094256"><ele>179.5</ele><time>2026-05-04T08:51:19Z</time></trkpt><trkpt lat="45.94111545313208" lon="12.125797008030636"><ele>179.25</ele><time>2026-05-04T08:51:20Z</time></trkpt><trkpt lat="45.941235504347645" lon="12.125743800213522"><ele>179.0</ele><time>2026-05-04T08:51:21Z</time></trkpt><trkpt lat="45.94135754911228" lon="12.125684737494495"><ele>180.2</ele><time>2026-05-04T08:51:22Z</time></trkpt><trkpt lat="45.94148094624779" lon="12.125621830021167"><ele>181.39999999999998</ele><time>2026-05-04T08:51:23Z</time></trkpt><trkpt lat="45.941594358616854" lon="12.125557275628285"><ele>182.6</ele><time>2026-05-04T08:51:24Z</time></trkpt><trkpt lat="45.94169001235621" lon="12.125505193737174"><ele>183.8</ele><time>2026-05-04T08:51:25Z</time></trkpt><trkpt lat="45.941773013705365" lon="12.125487442787383"><ele>185.0</ele><time>2026-05-04T08:51:26Z</time></trkpt><trkpt lat="45.94183962102158" lon="12.125496782260397"><ele>185.0</ele><time>2026-05-04T08:51:27Z</time></trkpt><trkpt lat="45.94191210886311" lon="12.125578909955326"><ele>185.0</ele><time>2026-05-04T08:51:29Z</time></trkpt><trkpt lat="45.94198949500853" lon="12.125597679975174"><ele>185.0</ele><time>2026-05-04T08:51:32Z</time></trkpt><trkpt lat="45.942078674507236" lon="12.12553993640066"><ele>185.0</ele><time>2026-05-04T08:51:35Z</time></trkpt><trkpt lat="45.94220257685348" lon="12.125462484446075"><ele>185.0</ele><time>2026-05-04T08:51:37Z</time></trkpt><trkpt lat="45.9423155403272" lon="12.125390774779488"><ele>185.0</ele><time>2026-05-04T08:51:39Z</time></trkpt><trkpt lat="45.94243052958632" lon="12.1253188217513"><ele>185.0</ele><time>2026-05-04T08:51:41Z</time></trkpt><trkpt lat="45.942544434528685" lon="12.125252797219437"><ele>185.0</ele><time>2026-05-04T08:51:43Z</time></trkpt><trkpt lat="45.942651389670836" lon="12.125193997656439"><ele>185.0</ele><time>2026-05-04T08:51:45Z</time></trkpt><trkpt lat="45.942743810252736" lon="12.12514869271484"><ele>185.0</ele><time>2026-05-04T08:51:47Z</time></trkpt><trkpt lat="45.94280155725812" lon="12.125086794419547"><ele>185.0</ele><time>2026-05-04T08:51:50Z</time></trkpt><trkpt lat="45.94271288268547" lon="12.125132408029263"><ele>185.0</ele><time>2026-05-04T08:52:43Z</time></trkpt><trkpt lat="45.942600800984344" lon="12.125198382522887"><ele>185.0</ele><time>2026-05-04T08:52:45Z</time></trkpt><trkpt lat="45.942535637249705" lon="12.125237354744192"><ele>185.0</ele><time>2026-05-04T08:52:46Z</time></trkpt><trkpt lat="45.94245990757345" lon="12.125243531909575"><ele>185.0</ele><time>2026-05-04T08:52:47Z</time></trkpt><trkpt lat="45.942388083478555" lon="12.125286391682806"><ele>185.0</ele><time>2026-05-04T08:52:48Z</time></trkpt><trkpt lat="45.94231124943959" lon="12.12533326323163"><ele>185.0</ele><time>2026-05-04T08:52:49Z</time></trkpt><trkpt lat="45.94222515519178" lon="12.125392147935637"><ele>185.0</ele><time>2026-05-04T08:52:50Z</time></trkpt><trkpt lat="45.94215203331679" lon="12.125442160192836"><ele>185.0</ele><time>2026-05-04T08:52:51Z</time></trkpt><trkpt lat="45.94208641401655" lon="12.125487041093706"><ele>185.0</ele><time>2026-05-04T08:52:52Z</time></trkpt><trkpt lat="45.94198279826294" lon="12.12553911959109"><ele>185.0</ele><time>2026-05-04T08:52:54Z</time></trkpt><trkpt lat="45.94188927226611" lon="12.125467871946572"><ele>185.0</ele><time>2026-05-04T08:52:56Z</time></trkpt><trkpt lat="45.941813938585085" lon="12.125441504936402"><ele>185.0</ele><time>2026-05-04T08:52:57Z</time></trkpt><trkpt lat="45.94173120487464" lon="12.12543883737542"><ele>185.0</ele><time>2026-05-04T08:52:58Z</time></trkpt><trkpt lat="45.941644699459744" lon="12.125489124938198"><ele>185.0</ele><time>2026-05-04T08:52:59Z</time></trkpt><trkpt lat="45.94154831562992" lon="12.125541022962084"><ele>185.0</ele><time>2026-05-04T08:53:00Z</time></trkpt><trkpt lat="45.9414455446683" lon="12.125599365308252"><ele>186.25</ele><time>2026-05-04T08:53:01Z</time></trkpt><trkpt lat="45.94132365422035" lon="12.125631465405995"><ele>187.5</ele><time>2026-05-04T08:53:02Z</time></trkpt><trkpt lat="45.94120222427107" lon="12.12569129478334"><ele>188.75</ele><time>2026-05-04T08:53:03Z</time></trkpt><trkpt lat="45.941084265450904" lon="12.12574805534081"><ele>190.0</ele><time>2026-05-04T08:53:04Z</time></trkpt><trkpt lat="45.94097516110338" lon="12.125798861116182"><ele>188.0</ele><time>2026-05-04T08:53:05Z</time></trkpt><trkpt lat="45.94087332150246" lon="12.125838940558538"><ele>186.0</ele><time>2026-05-04T08:53:06Z</time></trkpt><trkpt lat="45.94077755505521" lon="12.12586598041082"><ele>184.0</ele><time>2026-05-04T08:53:07Z</time></trkpt><trkpt lat="45.94068813200145" lon="12.12588561735227"><ele>182.0</ele><time>2026-05-04T08:53:08Z</time></trkpt><trkpt lat="45.9405898214535" lon="12.125871208468416"><ele>180.0</ele><time>2026-05-04T08:53:09Z</time></trkpt><trkpt lat="45.94048909270299" lon="12.125816040242851"><ele>180.0</ele><time>2026-05-04T08:53:10Z</time></trkpt><trkpt lat="45.94037097147551" lon="12.12575423465979"><ele>180.0</ele><time>2026-05-04T08:53:11Z</time></trkpt><trkpt lat="45.940262644273474" lon="12.125690214559034"><ele>180.0</ele><time>2026-05-04T08:53:12Z</time></trkpt><trkpt lat="45.940149976752956" lon="12.125633890558795"><ele>180.0</ele><time>2026-05-04T08:53:13Z</time></trkpt><trkpt lat="45.940018239701224" lon="12.125638314575903"><ele>181.0</ele><time>2026-05-04T08:53:14Z</time></trkpt><trkpt lat="45.93988708086421" lon="12.125661164275888"><ele>182.0</ele><time>2026-05-04T08:53:15Z</time></trkpt><trkpt lat="45.939749586589286" lon="12.12570793855232"><ele>183.0</ele><time>2026-05-04T08:53:16Z</time></trkpt><trkpt lat="45.93961753898518" lon="12.125780881361237"><ele>184.0</ele><time>2026-05-04T08:53:17Z</time></trkpt><trkpt lat="45.939490739238195" lon="12.12585890758672"><ele>184.0</ele><time>2026-05-04T08:53:18Z</time></trkpt><trkpt lat="45.93937687367358" lon="12.125919735894902"><ele>184.0</ele><time>2026-05-04T08:53:19Z</time></trkpt><trkpt lat="45.939269855627394" lon="12.12595839640015"><ele>184.0</ele><time>2026-05-04T08:53:20Z</time></trkpt><trkpt lat="45.93916156775302" lon="12.125988926892921"><ele>184.0</ele><time>2026-05-04T08:53:21Z</time></trkpt><trkpt lat="45.939049471373686" lon="12.126011286960567"><ele>185.79999999999998</ele><time>2026-05-04T08:53:22Z</time></trkpt><trkpt lat="45.93893750515798" lon="12.126029636939123"><ele>187.6</ele><time>2026-05-04T08:53:23Z</time></trkpt><trkpt lat="45.938833875917126" lon="12.126044812880089"><ele>189.4</ele><time>2026-05-04T08:53:24Z</time></trkpt><trkpt lat="45.93873720490471" lon="12.126054902663817"><ele>191.2</ele><time>2026-05-04T08:53:25Z</time></trkpt><trkpt lat="45.93865131615271" lon="12.126068798271003"><ele>193.0</ele><time>2026-05-04T08:53:26Z</time></trkpt><trkpt lat="45.938587693060015" lon="12.126115509743217"><ele>193.0</ele><time>2026-05-04T08:53:27Z</time></trkpt><trkpt lat="45.938519884989134" lon="12.126136956048807"><ele>193.0</ele><time>2026-05-04T08:53:29Z</time></trkpt><trkpt lat="45.93847471563346" lon="12.126216941848899"><ele>193.0</ele><time>2026-05-04T08:53:32Z</time></trkpt><trkpt lat="45.93846613539992" lon="12.126357917206143"><ele>193.0</ele><time>2026-05-04T08:53:34Z</time></trkpt><trkpt lat="45.93845998518384" lon="12.126492815050664"><ele>193.0</ele><time>2026-05-04T08:53:49Z</time></trkpt><trkpt lat="45.93848211778758" lon="12.12666240031929"><ele>191.33333333333331</ele><time>2026-05-04T08:53:51Z</time></trkpt><trkpt lat="45.93846680828947" lon="12.126791023155882"><ele>189.66666666666666</ele><time>2026-05-04T08:53:53Z</time></trkpt><trkpt lat="45.938401135921524" lon="12.126811580089365"><ele>188.0</ele><time>2026-05-04T08:53:55Z</time></trkpt><trkpt lat="45.93833811444331" lon="12.126771799369953"><ele>186.33333333333331</ele><time>2026-05-04T08:53:58Z</time></trkpt><trkpt lat="45.93825463896709" lon="12.126776095546647"><ele>184.66666666666666</ele><time>2026-05-04T08:54:01Z</time></trkpt><trkpt lat="45.938192865472594" lon="12.126813737251089"><ele>183.0</ele><time>2026-05-04T08:54:04Z</time></trkpt><trkpt lat="45.93807273053315" lon="12.126638988006325"><ele>185.0</ele><time>2026-05-04T08:54:06Z</time></trkpt><trkpt lat="45.938029767194536" lon="12.126539890608916"><ele>187.0</ele><time>2026-05-04T08:54:07Z</time></trkpt><trkpt lat="45.937981607506124" lon="12.126430038768811"><ele>189.0</ele><time>2026-05-04T08:54:08Z</time></trkpt><trkpt lat="45.937921749518175" lon="12.126339702189513"><ele>191.0</ele><time>2026-05-04T08:54:09Z</time></trkpt><trkpt lat="45.93785048845419" lon="12.126274456360226"><ele>193.0</ele><time>2026-05-04T08:54:10Z</time></trkpt><trkpt lat="45.937766914080186" lon="12.126224237207973"><ele>195.0</ele><time>2026-05-04T08:54:11Z</time></trkpt><trkpt lat="45.93768038425779" lon="12.126170578947189"><ele>195.0</ele><time>2026-05-04T08:54:12Z</time></trkpt><trkpt lat="45.93759159399276" lon="12.126113785614649"><ele>195.0</ele><time>2026-05-04T08:54:13Z</time></trkpt><trkpt lat="45.93749927022544" lon="12.126050382673942"><ele>195.0</ele><time>2026-05-04T08:54:14Z</time></trkpt><trkpt lat="45.93740206800863" lon="12.125987350699878"><ele>195.0</ele><time>2026-05-04T08:54:15Z</time></trkpt><trkpt lat="45.93729830607967" lon="12.12594692350732"><ele>195.0</ele><time>2026-05-04T08:54:16Z</time></trkpt><trkpt lat="45.93719731077355" lon="12.125933987680817"><ele>193.2</ele><time>2026-05-04T08:54:17Z</time></trkpt><trkpt lat="45.93711430787539" lon="12.12592523918025"><ele>191.4</ele><time>2026-05-04T08:54:18Z</time></trkpt><trkpt lat="45.93703176983748" lon="12.125918866517624"><ele>189.60000000000002</ele><time>2026-05-04T08:54:20Z</time></trkpt><trkpt lat="45.93693227390422" lon="12.12592245036359"><ele>187.8</ele><time>2026-05-04T08:55:00Z</time></trkpt><trkpt lat="45.93680021182495" lon="12.125906492035442"><ele>186.0</ele><time>2026-05-04T08:55:02Z</time></trkpt><trkpt lat="45.93672190914714" lon="12.125896082950531"><ele>185.8</ele><time>2026-05-04T08:55:03Z</time></trkpt><trkpt lat="45.93663627419421" lon="12.125884706501372"><ele>185.60000000000002</ele><time>2026-05-04T08:55:04Z</time></trkpt><trkpt lat="45.93654083350351" lon="12.125872500657808"><ele>185.4</ele><time>2026-05-04T08:55:05Z</time></trkpt><trkpt lat="45.93643966552585" lon="12.125859252903483"><ele>185.2</ele><time>2026-05-04T08:55:06Z</time></trkpt><trkpt lat="45.93633289537642" lon="12.125845972258961"><ele>185.0</ele><time>2026-05-04T08:55:07Z</time></trkpt><trkpt lat="45.93622165761792" lon="12.125842767254275"><ele>185.0</ele><time>2026-05-04T08:55:08Z</time></trkpt><trkpt lat="45.936107312387634" lon="12.125859647782182"><ele>185.0</ele><time>2026-05-04T08:55:09Z</time></trkpt><trkpt lat="45.93599151515941" lon="12.125902761478946"><ele>185.0</ele><time>2026-05-04T08:55:10Z</time></trkpt><trkpt lat="45.93587502792987" lon="12.125943496785393"><ele>185.0</ele><time>2026-05-04T08:55:11Z</time></trkpt><trkpt lat="45.93576657335008" lon="12.126005912746734"><ele>185.75</ele><time>2026-05-04T08:55:12Z</time></trkpt><trkpt lat="45.93565764051473" lon="12.126067685031725"><ele>186.5</ele><time>2026-05-04T08:55:13Z</time></trkpt><trkpt lat="45.935549630019594" lon="12.12612843468636"><ele>187.25</ele><time>2026-05-04T08:55:14Z</time></trkpt><trkpt lat="45.93544186588882" lon="12.12618652250884"><ele>188.0</ele><time>2026-05-04T08:55:15Z</time></trkpt><trkpt lat="45.935338757973135" lon="12.126259450780639"><ele>188.0</ele><time>2026-05-04T08:55:16Z</time></trkpt><trkpt lat="45.935226416634755" lon="12.126270010272593"><ele>188.0</ele><time>2026-05-04T08:55:17Z</time></trkpt><trkpt lat="45.93511527342752" lon="12.126311232903598"><ele>188.0</ele><time>2026-05-04T08:55:18Z</time></trkpt><trkpt lat="45.9350009095532" lon="12.126317688777423"><ele>188.0</ele><time>2026-05-04T08:55:19Z</time></trkpt><trkpt lat="45.93488435750282" lon="12.126323071549246"><ele>189.25</ele><time>2026-05-04T08:55:20Z</time></trkpt><trkpt lat="45.93477041873586" lon="12.126320086553072"><ele>190.5</ele><time>2026-05-04T08:55:21Z</time></trkpt><trkpt lat="45.93465563491785" lon="12.126317343458563"><ele>191.75</ele><time>2026-05-04T08:55:22Z</time></trkpt><trkpt lat="45.93454108185297" lon="12.126313151154447"><ele>193.0</ele><time>2026-05-04T08:55:23Z</time></trkpt><trkpt lat="45.93442646243292" lon="12.126315564190067"><ele>193.0</ele><time>2026-05-04T08:55:24Z</time></trkpt><trkpt lat="45.93431128143466" lon="12.126336949665083"><ele>193.0</ele><time>2026-05-04T08:55:25Z</time></trkpt><trkpt lat="45.934189026253115" lon="12.126373788203045"><ele>193.0</ele><time>2026-05-04T08:55:26Z</time></trkpt><trkpt lat="45.93406591788255" lon="12.126426248350617"><ele>193.0</ele><time>2026-05-04T08:55:27Z</time></trkpt><trkpt lat="45.93393931980244" lon="12.126493622874078"><ele>191.25</ele><time>2026-05-04T08:55:28Z</time></trkpt><trkpt lat="45.93381093725611" lon="12.126579822849688"><ele>189.5</ele><time>2026-05-04T08:55:29Z</time></trkpt><trkpt lat="45.93368281538698" lon="12.126682659299808"><ele>187.75</ele><time>2026-05-04T08:55:30Z</time></trkpt><trkpt lat="45.933554215326915" lon="12.126794741195415"><ele>186.0</ele><time>2026-05-04T08:55:31Z</time></trkpt><trkpt lat="45.93342560368453" lon="12.12691503578268"><ele>188.33333333333331</ele><time>2026-05-04T08:55:32Z</time></trkpt><trkpt lat="45.933299614948446" lon="12.127038846060522"><ele>190.66666666666666</ele><time>2026-05-04T08:55:33Z</time></trkpt><trkpt lat="45.93317614319633" lon="12.127164502758346"><ele>193.0</ele><time>2026-05-04T08:55:34Z</time></trkpt><trkpt lat="45.9330530397881" lon="12.127287275665392"><ele>191.0</ele><time>2026-05-04T08:55:35Z</time></trkpt><trkpt lat="45.93293050232029" lon="12.12740782748941"><ele>189.0</ele><time>2026-05-04T08:55:36Z</time></trkpt><trkpt lat="45.932812894816" lon="12.127534070141891"><ele>187.0</ele><time>2026-05-04T08:55:37Z</time></trkpt><trkpt lat="45.93269847422601" lon="12.127660413762895"><ele>185.0</ele><time>2026-05-04T08:55:38Z</time></trkpt><trkpt lat="45.93258760227667" lon="12.127779769323995"><ele>187.5</ele><time>2026-05-04T08:55:39Z</time></trkpt><trkpt lat="45.932468803710954" lon="12.12786199896535"><ele>190.0</ele><time>2026-05-04T08:55:40Z</time></trkpt><trkpt lat="45.93235789964793" lon="12.127966031767794"><ele>192.5</ele><time>2026-05-04T08:55:41Z</time></trkpt><trkpt lat="45.93222999537629" lon="12.128017151530802"><ele>195.0</ele><time>2026-05-04T08:55:42Z</time></trkpt><trkpt lat="45.932097726399476" lon="12.128032699453149"><ele>195.0</ele><time>2026-05-04T08:55:43Z</time></trkpt><trkpt lat="45.93196354900361" lon="12.128003775457884"><ele>195.0</ele><time>2026-05-04T08:55:44Z</time></trkpt><trkpt lat="45.93184619627232" lon="12.127931576660714"><ele>195.0</ele><time>2026-05-04T08:55:45Z</time></trkpt><trkpt lat="45.931740163095725" lon="12.127820227947561"><ele>195.0</ele><time>2026-05-04T08:55:46Z</time></trkpt><trkpt lat="45.93164176591599" lon="12.127695767745967"><ele>193.75</ele><time>2026-05-04T08:55:47Z</time></trkpt><trkpt lat="45.93155028867321" lon="12.127550855680848"><ele>192.5</ele><time>2026-05-04T08:55:48Z</time></trkpt><trkpt lat="45.93146493385329" lon="12.127396752413715"><ele>191.25</ele><time>2026-05-04T08:55:49Z</time></trkpt><trkpt lat="45.931387060382626" lon="12.127229128809699"><ele>190.0</ele><time>2026-05-04T08:55:50Z</time></trkpt><trkpt lat="45.9313156689927" lon="12.127053910983777"><ele>193.25</ele><time>2026-05-04T08:55:51Z</time></trkpt><trkpt lat="45.93124730335943" lon="12.126874721180085"><ele>196.5</ele><time>2026-05-04T08:55:52Z</time></trkpt><trkpt lat="45.93117876287545" lon="12.126695777980997"><ele>199.75</ele><time>2026-05-04T08:55:53Z</time></trkpt><trkpt lat="45.93111761701156" lon="12.12651233303851"><ele>203.0</ele><time>2026-05-04T08:55:54Z</time></trkpt><trkpt lat="45.93108691205809" lon="12.126316119080013"><ele>203.25</ele><time>2026-05-04T08:55:55Z</time></trkpt><trkpt lat="45.931073391397" lon="12.126109886184034"><ele>203.5</ele><time>2026-05-04T08:55:56Z</time></trkpt><trkpt lat="45.93106514172594" lon="12.125902571114453"><ele>203.75</ele><time>2026-05-04T08:55:57Z</time></trkpt><trkpt lat="45.93104954298478" lon="12.125691641772827"><ele>204.0</ele><time>2026-05-04T08:55:58Z</time></trkpt><trkpt lat="45.93102286763382" lon="12.125477231325705"><ele>202.0</ele><time>2026-05-04T08:55:59Z</time></trkpt><trkpt lat="45.930989574101" lon="12.125264226213607"><ele>200.0</ele><time>2026-05-04T08:56:00Z</time></trkpt><trkpt lat="45.930951239663365" lon="12.12505486412973"><ele>198.0</ele><time>2026-05-04T08:56:01Z</time></trkpt><trkpt lat="45.930915729052856" lon="12.12485218724572"><ele>196.0</ele><time>2026-05-04T08:56:02Z</time></trkpt><trkpt lat="45.930881785459796" lon="12.12467565670672"><ele>191.60000000000002</ele><time>2026-05-04T08:56:03Z</time></trkpt><trkpt lat="45.930841850904194" lon="12.124547105972354"><ele>187.2</ele><time>2026-05-04T08:56:04Z</time></trkpt><trkpt lat="45.93079260766024" lon="12.124471845245381"><ele>182.8</ele><time>2026-05-04T08:56:05Z</time></trkpt><trkpt lat="45.930735665937654" lon="12.124383594434809"><ele>178.39999999999998</ele><time>2026-05-04T08:56:11Z</time></trkpt><trkpt lat="45.93073704206489" lon="12.124212536664773"><ele>174.0</ele><time>2026-05-04T08:56:13Z</time></trkpt><trkpt lat="45.93074026063245" lon="12.124092849191483"><ele>174.2</ele><time>2026-05-04T08:56:14Z</time></trkpt><trkpt lat="45.93072962488888" lon="12.123954811070172"><ele>174.39999999999998</ele><time>2026-05-04T08:56:15Z</time></trkpt><trkpt lat="45.930710675544475" lon="12.12380691680957"><ele>174.6</ele><time>2026-05-04T08:56:16Z</time></trkpt><trkpt lat="45.93068624798821" lon="12.1236454558774"><ele>174.8</ele><time>2026-05-04T08:56:17Z</time></trkpt><trkpt lat="45.93065644516733" lon="12.12347116577906"><ele>175.0</ele><time>2026-05-04T08:56:18Z</time></trkpt><trkpt lat="45.930624417349904" lon="12.123287623711704"><ele>176.25</ele><time>2026-05-04T08:56:19Z</time></trkpt><trkpt lat="45.93058912084236" lon="12.12309185227703"><ele>177.5</ele><time>2026-05-04T08:56:20Z</time></trkpt><trkpt lat="45.93055164499171" lon="12.122888172548132"><ele>178.75</ele><time>2026-05-04T08:56:21Z</time></trkpt><trkpt lat="45.93051341324023" lon="12.12267853166529"><ele>180.0</ele><time>2026-05-04T08:56:22Z</time></trkpt><trkpt lat="45.93047327951713" lon="12.122460566654865"><ele>182.0</ele><time>2026-05-04T08:56:23Z</time></trkpt><trkpt lat="45.930430091367505" lon="12.122238657944287"><ele>184.0</ele><time>2026-05-04T08:56:24Z</time></trkpt><trkpt lat="45.93037587113513" lon="12.1220142324805"><ele>186.0</ele><time>2026-05-04T08:56:25Z</time></trkpt><trkpt lat="45.93031536015347" lon="12.12178716986431"><ele>189.33333333333331</ele><time>2026-05-04T08:56:26Z</time></trkpt><trkpt lat="45.93024701441013" lon="12.121561828274706"><ele>192.66666666666666</ele><time>2026-05-04T08:56:27Z</time></trkpt><trkpt lat="45.930178876975475" lon="12.121329987636221"><ele>196.0</ele><time>2026-05-04T08:56:28Z</time></trkpt><trkpt lat="45.930112686195855" lon="12.12109786872396"><ele>194.66666666666666</ele><time>2026-05-04T08:56:29Z</time></trkpt><trkpt lat="45.93004614644941" lon="12.12086818875709"><ele>193.33333333333331</ele><time>2026-05-04T08:56:30Z</time></trkpt><trkpt lat="45.929979584020096" lon="12.120640365399696"><ele>192.0</ele><time>2026-05-04T08:56:31Z</time></trkpt><trkpt lat="45.92991347857203" lon="12.120412243082495"><ele>192.0</ele><time>2026-05-04T08:56:32Z</time></trkpt><trkpt lat="45.92984563523867" lon="12.120184377471512"><ele>192.0</ele><time>2026-05-04T08:56:33Z</time></trkpt><trkpt lat="45.92977655819887" lon="12.1199556651001"><ele>192.0</ele><time>2026-05-04T08:56:34Z</time></trkpt><trkpt lat="45.92970758151487" lon="12.119726465608998"><ele>194.66666666666669</ele><time>2026-05-04T08:56:35Z</time></trkpt><trkpt lat="45.92963810514045" lon="12.119495984763676"><ele>197.33333333333334</ele><time>2026-05-04T08:56:36Z</time></trkpt><trkpt lat="45.929568915660745" lon="12.11926721133907"><ele>200.0</ele><time>2026-05-04T08:56:37Z</time></trkpt><trkpt lat="45.92950042316479" lon="12.119037909297152"><ele>201.66666666666669</ele><time>2026-05-04T08:56:38Z</time></trkpt><trkpt lat="45.92943208930343" lon="12.118806788570641"><ele>203.33333333333331</ele><time>2026-05-04T08:56:39Z</time></trkpt><trkpt lat="45.929363571967635" lon="12.118574376819074"><ele>205.0</ele><time>2026-05-04T08:56:40Z</time></trkpt><trkpt lat="45.92929487392989" lon="12.118340775175092"><ele>198.66666666666666</ele><time>2026-05-04T08:56:41Z</time></trkpt><trkpt lat="45.929225372675766" lon="12.11810723830652"><ele>192.33333333333331</ele><time>2026-05-04T08:56:42Z</time></trkpt><trkpt lat="45.92915611151043" lon="12.117871941684596"><ele>186.0</ele><time>2026-05-04T08:56:43Z</time></trkpt><trkpt lat="45.92908678983407" lon="12.11763402632417"><ele>187.66666666666666</ele><time>2026-05-04T08:56:44Z</time></trkpt><trkpt lat="45.92901264741098" lon="12.117398294069321"><ele>189.33333333333331</ele><time>2026-05-04T08:56:45Z</time></trkpt><trkpt lat="45.92894072549644" lon="12.117159280222944"><ele>191.0</ele><time>2026-05-04T08:56:46Z</time></trkpt><trkpt lat="45.928876664572456" lon="12.116916184029703"><ele>191.0</ele><time>2026-05-04T08:56:47Z</time></trkpt><trkpt lat="45.92882591634522" lon="12.116667935819784"><ele>191.0</ele><time>2026-05-04T08:56:48Z</time></trkpt><trkpt lat="45.92878332612934" lon="12.116414683786056"><ele>191.0</ele><time>2026-05-04T08:56:49Z</time></trkpt><trkpt lat="45.9287535693077" lon="12.116161239198767"><ele>192.0</ele><time>2026-05-04T08:56:50Z</time></trkpt><trkpt lat="45.92873708152008" lon="12.115905019651333"><ele>193.0</ele><time>2026-05-04T08:56:51Z</time></trkpt><trkpt lat="45.92872454319364" lon="12.11565048878754"><ele>194.0</ele><time>2026-05-04T08:56:52Z</time></trkpt><trkpt lat="45.928723761385925" lon="12.11539671044356"><ele>194.0</ele><time>2026-05-04T08:56:53Z</time></trkpt><trkpt lat="45.92873400306314" lon="12.115146250887156"><ele>194.0</ele><time>2026-05-04T08:56:54Z</time></trkpt><trkpt lat="45.9287535192386" lon="12.114897319683886"><ele>194.0</ele><time>2026-05-04T08:56:55Z</time></trkpt><trkpt lat="45.92878278736859" lon="12.11465057663395"><ele>194.0</ele><time>2026-05-04T08:56:56Z</time></trkpt><trkpt lat="45.928817871870386" lon="12.11440409942164"><ele>194.0</ele><time>2026-05-04T08:56:57Z</time></trkpt><trkpt lat="45.92885545759624" lon="12.114155727992804"><ele>194.0</ele><time>2026-05-04T08:56:58Z</time></trkpt><trkpt lat="45.9288907730548" lon="12.113904703814512"><ele>192.66666666666669</ele><time>2026-05-04T08:56:59Z</time></trkpt><trkpt lat="45.928929094357734" lon="12.113653851150646"><ele>191.33333333333334</ele><time>2026-05-04T08:57:00Z</time></trkpt><trkpt lat="45.92896692533063" lon="12.113404820692294"><ele>190.0</ele><time>2026-05-04T08:57:01Z</time></trkpt><trkpt lat="45.92900418178116" lon="12.113158182926504"><ele>189.66666666666669</ele><time>2026-05-04T08:57:02Z</time></trkpt><trkpt lat="45.929039682382715" lon="12.11291371282754"><ele>189.33333333333334</ele><time>2026-05-04T08:57:03Z</time></trkpt><trkpt lat="45.92907203957001" lon="12.112670289325822"><ele>189.0</ele><time>2026-05-04T08:57:04Z</time></trkpt><trkpt lat="45.929102298350536" lon="12.112427990698869"><ele>189.66666666666666</ele><time>2026-05-04T08:57:05Z</time></trkpt><trkpt lat="45.929137072093155" lon="12.112188677523845"><ele>190.33333333333331</ele><time>2026-05-04T08:57:06Z</time></trkpt><trkpt lat="45.929182019197306" lon="12.111953493554076"><ele>191.0</ele><time>2026-05-04T08:57:07Z</time></trkpt><trkpt lat="45.92924738410652" lon="12.111729682683565"><ele>191.0</ele><time>2026-05-04T08:57:08Z</time></trkpt><trkpt lat="45.929325001071696" lon="12.111512747078041"><ele>191.0</ele><time>2026-05-04T08:57:09Z</time></trkpt><trkpt lat="45.929420671271316" lon="12.111306951614306"><ele>191.0</ele><time>2026-05-04T08:57:10Z</time></trkpt><trkpt lat="45.92952949277619" lon="12.111110885981622"><ele>191.0</ele><time>2026-05-04T08:57:11Z</time></trkpt><trkpt lat="45.92964027065678" lon="12.110913638779223"><ele>191.0</ele><time>2026-05-04T08:57:12Z</time></trkpt><trkpt lat="45.92973999179504" lon="12.110710305259339"><ele>191.0</ele><time>2026-05-04T08:57:13Z</time></trkpt><trkpt lat="45.929819023556014" lon="12.110507047033305"><ele>193.33333333333331</ele><time>2026-05-04T08:57:14Z</time></trkpt><trkpt lat="45.929870746456274" lon="12.110294323754037"><ele>195.66666666666666</ele><time>2026-05-04T08:57:15Z</time></trkpt><trkpt lat="45.9298974596974" lon="12.110076356726138"><ele>198.0</ele><time>2026-05-04T08:57:16Z</time></trkpt><trkpt lat="45.92990380453424" lon="12.10985722962287"><ele>199.0</ele><time>2026-05-04T08:57:17Z</time></trkpt><trkpt lat="45.929900681364494" lon="12.10963990509155"><ele>200.0</ele><time>2026-05-04T08:57:18Z</time></trkpt><trkpt lat="45.92990269484103" lon="12.109443148209508"><ele>201.0</ele><time>2026-05-04T08:57:19Z</time></trkpt><trkpt lat="45.92990694702352" lon="12.109270497788788"><ele>202.0</ele><time>2026-05-04T08:57:20Z</time></trkpt><trkpt lat="45.92992346863509" lon="12.109119608339846"><ele>202.6</ele><time>2026-05-04T08:57:21Z</time></trkpt><trkpt lat="45.9299480775964" lon="12.108975084494782"><ele>203.2</ele><time>2026-05-04T08:57:22Z</time></trkpt><trkpt lat="45.92996710397814" lon="12.1088325281059"><ele>203.8</ele><time>2026-05-04T08:57:23Z</time></trkpt><trkpt lat="45.929981375741555" lon="12.108693624703262"><ele>204.4</ele><time>2026-05-04T08:57:24Z</time></trkpt><trkpt lat="45.92999393725004" lon="12.108561942802718"><ele>205.0</ele><time>2026-05-04T08:57:25Z</time></trkpt><trkpt lat="45.93001057103016" lon="12.10843521494216"><ele>205.0</ele><time>2026-05-04T08:57:26Z</time></trkpt><trkpt lat="45.93002952701927" lon="12.108326461732501"><ele>205.0</ele><time>2026-05-04T08:57:27Z</time></trkpt><trkpt lat="45.93004714325874" lon="12.108236825993771"><ele>205.0</ele><time>2026-05-04T08:57:28Z</time></trkpt><trkpt lat="45.93006356920842" lon="12.108146192866904"><ele>205.0</ele><time>2026-05-04T08:57:29Z</time></trkpt><trkpt lat="45.93008101141862" lon="12.108056596099113"><ele>205.0</ele><time>2026-05-04T08:57:30Z</time></trkpt><trkpt lat="45.93010113583354" lon="12.107964342480317"><ele>205.0</ele><time>2026-05-04T08:57:31Z</time></trkpt><trkpt lat="45.93011997730471" lon="12.107871734221947"><ele>205.0</ele><time>2026-05-04T08:57:32Z</time></trkpt><trkpt lat="45.93013973680407" lon="12.107772863644863"><ele>204.57142857142858</ele><time>2026-05-04T08:57:33Z</time></trkpt><trkpt lat="45.93016445011521" lon="12.107671383411303"><ele>204.14285714285714</ele><time>2026-05-04T08:57:34Z</time></trkpt><trkpt lat="45.93019285368449" lon="12.107566305193625"><ele>203.71428571428572</ele><time>2026-05-04T08:57:35Z</time></trkpt><trkpt lat="45.93022497784921" lon="12.107461934706329"><ele>203.28571428571428</ele><time>2026-05-04T08:57:36Z</time></trkpt><trkpt lat="45.93025401800786" lon="12.107377925801703"><ele>202.85714285714283</ele><time>2026-05-04T08:57:37Z</time></trkpt><trkpt lat="45.93028637397551" lon="12.107281588200802"><ele>202.42857142857142</ele><time>2026-05-04T08:57:39Z</time></trkpt><trkpt lat="45.93032145041707" lon="12.107191839091529"><ele>202.0</ele><time>2026-05-04T08:58:01Z</time></trkpt><trkpt lat="45.9303547107157" lon="12.10709859967049"><ele>202.0</ele><time>2026-05-04T08:58:03Z</time></trkpt><trkpt lat="45.93039089042974" lon="12.107010390420443"><ele>202.0</ele><time>2026-05-04T08:58:05Z</time></trkpt><trkpt lat="45.930446974587525" lon="12.106942068460636"><ele>202.0</ele><time>2026-05-04T08:58:08Z</time></trkpt><trkpt lat="45.93047226779313" lon="12.106859126824558"><ele>202.0</ele><time>2026-05-04T08:58:30Z</time></trkpt><trkpt lat="45.93051457294651" lon="12.10675258513882"><ele>202.0</ele><time>2026-05-04T08:58:32Z</time></trkpt><trkpt lat="45.93056290885857" lon="12.10667124220739"><ele>202.0</ele><time>2026-05-04T08:58:50Z</time></trkpt><trkpt lat="45.93060221683805" lon="12.106589805369243"><ele>202.0</ele><time>2026-05-04T08:58:52Z</time></trkpt><trkpt lat="45.93066063353451" lon="12.1064743976184"><ele>201.83333333333331</ele><time>2026-05-04T08:58:54Z</time></trkpt><trkpt lat="45.93073692017236" lon="12.10632772670817"><ele>201.66666666666666</ele><time>2026-05-04T08:58:56Z</time></trkpt><trkpt lat="45.93078106101864" lon="12.106250900711505"><ele>201.5</ele><time>2026-05-04T08:58:57Z</time></trkpt><trkpt lat="45.93082813034635" lon="12.106171978204475"><ele>201.33333333333331</ele><time>2026-05-04T08:58:58Z</time></trkpt><trkpt lat="45.93087910814358" lon="12.106087962710344"><ele>201.16666666666666</ele><time>2026-05-04T08:58:59Z</time></trkpt><trkpt lat="45.93093029711966" lon="12.106000173759336"><ele>201.0</ele><time>2026-05-04T08:59:00Z</time></trkpt><trkpt lat="45.930983268495346" lon="12.10590319854704"><ele>201.0</ele><time>2026-05-04T08:59:01Z</time></trkpt><trkpt lat="45.93103718129435" lon="12.105800669097242"><ele>201.0</ele><time>2026-05-04T08:59:02Z</time></trkpt><trkpt lat="45.931091599068345" lon="12.105697785910895"><ele>201.0</ele><time>2026-05-04T08:59:03Z</time></trkpt><trkpt lat="45.93114743675164" lon="12.10559284848186"><ele>201.0</ele><time>2026-05-04T08:59:04Z</time></trkpt><trkpt lat="45.93120570972217" lon="12.105486829295204"><ele>201.0</ele><time>2026-05-04T08:59:05Z</time></trkpt><trkpt lat="45.931265010384124" lon="12.105380281676942"><ele>201.4</ele><time>2026-05-04T08:59:06Z</time></trkpt><trkpt lat="45.931325396599185" lon="12.105273262048012"><ele>201.8</ele><time>2026-05-04T08:59:07Z</time></trkpt><trkpt lat="45.9313864682438" lon="12.105164251897456"><ele>202.20000000000002</ele><time>2026-05-04T08:59:08Z</time></trkpt><trkpt lat="45.931449528847885" lon="12.10505116327805"><ele>202.60000000000002</ele><time>2026-05-04T08:59:09Z</time></trkpt><trkpt lat="45.93151491529534" lon="12.104935575713"><ele>203.0</ele><time>2026-05-04T08:59:10Z</time></trkpt><trkpt lat="45.93158147900464" lon="12.104816324318426"><ele>204.25</ele><time>2026-05-04T08:59:11Z</time></trkpt><trkpt lat="45.93165021213951" lon="12.104692060599925"><ele>205.5</ele><time>2026-05-04T08:59:12Z</time></trkpt><trkpt lat="45.931720480512475" lon="12.10456624921371"><ele>206.75</ele><time>2026-05-04T08:59:13Z</time></trkpt><trkpt lat="45.93179268311153" lon="12.104435352398065"><ele>208.0</ele><time>2026-05-04T08:59:14Z</time></trkpt><trkpt lat="45.93186644347342" lon="12.10430244771921"><ele>208.0</ele><time>2026-05-04T08:59:15Z</time></trkpt><trkpt lat="45.931943417870855" lon="12.104167177868133"><ele>208.0</ele><time>2026-05-04T08:59:16Z</time></trkpt><trkpt lat="45.93203174867549" lon="12.104051201855873"><ele>208.0</ele><time>2026-05-04T08:59:17Z</time></trkpt><trkpt lat="45.93209912935922" lon="12.103888939346707"><ele>208.0</ele><time>2026-05-04T08:59:18Z</time></trkpt><trkpt lat="45.9321775211456" lon="12.103748804421281"><ele>207.0</ele><time>2026-05-04T08:59:19Z</time></trkpt><trkpt lat="45.93225905093323" lon="12.103614307014489"><ele>207.0</ele><time>2026-05-04T08:59:20Z</time></trkpt></trkseg></trk></gpx>